<?xml version="1.0" encoding="UTF-8" standalone="no" ?>
<gpx xmlns="http://www.topografix.com/GPX/1/1" xmlns:xsi="http://www.w3.org/2001/XMLSchema-instance" xsi:schemaLocation="http://www.topografix.com/GPX/1/1 http://www.topografix.com/GPX/1/1/gpx.xsd" version="1.1" creator="VisuGPX - https://www.visugpx.com">
  <metadata>
    <name>Traversée Paramoteur Fréjus-Propriano 28 aout 2013</name>
    <desc><![CDATA[Antoine Pagès (flying-tour.com) relie Fréjus à Propriano en paramoteur funflyer, d\\\'une traite et sans assistance le 28 aout 2013.  La traversée fut un véritable parcours de slalom entre les nuages.  sur la corse, rafales à 45 km/h d\\\'ouest.  c\\\'était sport...mais tellement beau...]]></desc>
  </metadata>
  <trk>
    <name><![CDATA[ANTOINE]]></name>
    <trkseg>
      <trkpt lat="43.41428" lon="6.72477">
        <ele>-44.08</ele>
        <time>2013-08-28T05:17:14Z</time>
      </trkpt>
      <trkpt lat="43.41425" lon="6.72474">
        <ele>-46.01</ele>
        <time>2013-08-28T05:17:38Z</time>
      </trkpt>
      <trkpt lat="43.41426" lon="6.72473">
        <ele>-46.01</ele>
        <time>2013-08-28T05:18:01Z</time>
      </trkpt>
      <trkpt lat="43.41426" lon="6.72474">
        <ele>-45.04</ele>
        <time>2013-08-28T05:18:39Z</time>
      </trkpt>
      <trkpt lat="43.41426" lon="6.72474">
        <ele>-44.56</ele>
        <time>2013-08-28T05:19:15Z</time>
      </trkpt>
      <trkpt lat="43.41426" lon="6.72474">
        <ele>-44.56</ele>
        <time>2013-08-28T05:20:01Z</time>
      </trkpt>
      <trkpt lat="43.41426" lon="6.72474">
        <ele>-44.56</ele>
        <time>2013-08-28T05:20:43Z</time>
      </trkpt>
      <trkpt lat="43.41426" lon="6.72474">
        <ele>-44.56</ele>
        <time>2013-08-28T05:21:27Z</time>
      </trkpt>
      <trkpt lat="43.41443" lon="6.7247">
        <ele>-43.6</ele>
        <time>2013-08-28T05:21:39Z</time>
      </trkpt>
      <trkpt lat="43.41452" lon="6.72467">
        <ele>-43.6</ele>
        <time>2013-08-28T05:21:41Z</time>
      </trkpt>
      <trkpt lat="43.41469" lon="6.72459">
        <ele>-43.6</ele>
        <time>2013-08-28T05:21:44Z</time>
      </trkpt>
      <trkpt lat="43.41495" lon="6.7243">
        <ele>-43.12</ele>
        <time>2013-08-28T05:21:48Z</time>
      </trkpt>
      <trkpt lat="43.41524" lon="6.72417">
        <ele>-41.2</ele>
        <time>2013-08-28T05:21:52Z</time>
      </trkpt>
      <trkpt lat="43.41587" lon="6.72433">
        <ele>-37.35</ele>
        <time>2013-08-28T05:21:59Z</time>
      </trkpt>
      <trkpt lat="43.41616" lon="6.72443">
        <ele>-33.03</ele>
        <time>2013-08-28T05:22:03Z</time>
      </trkpt>
      <trkpt lat="43.41639" lon="6.72449">
        <ele>-29.18</ele>
        <time>2013-08-28T05:22:07Z</time>
      </trkpt>
      <trkpt lat="43.41669" lon="6.72439">
        <ele>-22.93</ele>
        <time>2013-08-28T05:22:12Z</time>
      </trkpt>
      <trkpt lat="43.41681" lon="6.72429">
        <ele>-21.01</ele>
        <time>2013-08-28T05:22:14Z</time>
      </trkpt>
      <trkpt lat="43.41702" lon="6.72363">
        <ele>-8.51</ele>
        <time>2013-08-28T05:22:22Z</time>
      </trkpt>
      <trkpt lat="43.41709" lon="6.72333">
        <ele>-4.67</ele>
        <time>2013-08-28T05:22:25Z</time>
      </trkpt>
      <trkpt lat="43.41719" lon="6.72315">
        <ele>-3.23</ele>
        <time>2013-08-28T05:22:28Z</time>
      </trkpt>
      <trkpt lat="43.41671" lon="6.72448">
        <ele>7.83</ele>
        <time>2013-08-28T05:22:33Z</time>
      </trkpt>
      <trkpt lat="43.41633" lon="6.72434">
        <ele>0.14</ele>
        <time>2013-08-28T05:22:35Z</time>
      </trkpt>
      <trkpt lat="43.41504" lon="6.72466">
        <ele>8.31</ele>
        <time>2013-08-28T05:22:44Z</time>
      </trkpt>
      <trkpt lat="43.41475" lon="6.7248">
        <ele>10.23</ele>
        <time>2013-08-28T05:22:46Z</time>
      </trkpt>
      <trkpt lat="43.41417" lon="6.7246">
        <ele>13.6</ele>
        <time>2013-08-28T05:22:51Z</time>
      </trkpt>
      <trkpt lat="43.41417" lon="6.72393">
        <ele>14.56</ele>
        <time>2013-08-28T05:22:56Z</time>
      </trkpt>
      <trkpt lat="43.41385" lon="6.72629">
        <ele>16</ele>
        <time>2013-08-28T05:23:04Z</time>
      </trkpt>
      <trkpt lat="43.41339" lon="6.72766">
        <ele>20.32</ele>
        <time>2013-08-28T05:23:11Z</time>
      </trkpt>
      <trkpt lat="43.41284" lon="6.72951">
        <ele>30.42</ele>
        <time>2013-08-28T05:23:20Z</time>
      </trkpt>
      <trkpt lat="43.41223" lon="6.73114">
        <ele>37.63</ele>
        <time>2013-08-28T05:23:28Z</time>
      </trkpt>
      <trkpt lat="43.41112" lon="6.73333">
        <ele>48.68</ele>
        <time>2013-08-28T05:23:39Z</time>
      </trkpt>
      <trkpt lat="43.40993" lon="6.73572">
        <ele>58.78</ele>
        <time>2013-08-28T05:23:51Z</time>
      </trkpt>
      <trkpt lat="43.40883" lon="6.73847">
        <ele>68.39</ele>
        <time>2013-08-28T05:24:04Z</time>
      </trkpt>
      <trkpt lat="43.40767" lon="6.7409">
        <ele>81.37</ele>
        <time>2013-08-28T05:24:16Z</time>
      </trkpt>
      <trkpt lat="43.40652" lon="6.74276">
        <ele>94.35</ele>
        <time>2013-08-28T05:24:26Z</time>
      </trkpt>
      <trkpt lat="43.40525" lon="6.74468">
        <ele>111.17</ele>
        <time>2013-08-28T05:24:37Z</time>
      </trkpt>
      <trkpt lat="43.40419" lon="6.74626">
        <ele>122.22</ele>
        <time>2013-08-28T05:24:46Z</time>
      </trkpt>
      <trkpt lat="43.40295" lon="6.74787">
        <ele>133.28</ele>
        <time>2013-08-28T05:24:56Z</time>
      </trkpt>
      <trkpt lat="43.40184" lon="6.74888">
        <ele>140.97</ele>
        <time>2013-08-28T05:25:04Z</time>
      </trkpt>
      <trkpt lat="43.40036" lon="6.74996">
        <ele>147.22</ele>
        <time>2013-08-28T05:25:14Z</time>
      </trkpt>
      <trkpt lat="43.39904" lon="6.7507">
        <ele>152.99</ele>
        <time>2013-08-28T05:25:23Z</time>
      </trkpt>
      <trkpt lat="43.39782" lon="6.75133">
        <ele>158.75</ele>
        <time>2013-08-28T05:25:31Z</time>
      </trkpt>
      <trkpt lat="43.39721" lon="6.7516">
        <ele>161.16</ele>
        <time>2013-08-28T05:25:35Z</time>
      </trkpt>
      <trkpt lat="43.39676" lon="6.75184">
        <ele>164.52</ele>
        <time>2013-08-28T05:25:38Z</time>
      </trkpt>
      <trkpt lat="43.39573" lon="6.75239">
        <ele>171.25</ele>
        <time>2013-08-28T05:25:45Z</time>
      </trkpt>
      <trkpt lat="43.39519" lon="6.75264">
        <ele>177.5</ele>
        <time>2013-08-28T05:25:49Z</time>
      </trkpt>
      <trkpt lat="43.39478" lon="6.75298">
        <ele>179.42</ele>
        <time>2013-08-28T05:25:52Z</time>
      </trkpt>
      <trkpt lat="43.3944" lon="6.75357">
        <ele>183.27</ele>
        <time>2013-08-28T05:25:56Z</time>
      </trkpt>
      <trkpt lat="43.39409" lon="6.75496">
        <ele>186.63</ele>
        <time>2013-08-28T05:26:04Z</time>
      </trkpt>
      <trkpt lat="43.39364" lon="6.75665">
        <ele>192.88</ele>
        <time>2013-08-28T05:26:14Z</time>
      </trkpt>
      <trkpt lat="43.39337" lon="6.75749">
        <ele>197.69</ele>
        <time>2013-08-28T05:26:19Z</time>
      </trkpt>
      <trkpt lat="43.39301" lon="6.75825">
        <ele>202.98</ele>
        <time>2013-08-28T05:26:24Z</time>
      </trkpt>
      <trkpt lat="43.3922" lon="6.75927">
        <ele>211.15</ele>
        <time>2013-08-28T05:26:32Z</time>
      </trkpt>
      <trkpt lat="43.39161" lon="6.75979">
        <ele>216.91</ele>
        <time>2013-08-28T05:26:37Z</time>
      </trkpt>
      <trkpt lat="43.39134" lon="6.75995">
        <ele>219.8</ele>
        <time>2013-08-28T05:26:39Z</time>
      </trkpt>
      <trkpt lat="43.39086" lon="6.76033">
        <ele>224.12</ele>
        <time>2013-08-28T05:26:43Z</time>
      </trkpt>
      <trkpt lat="43.39046" lon="6.76058">
        <ele>227.01</ele>
        <time>2013-08-28T05:26:46Z</time>
      </trkpt>
      <trkpt lat="43.39021" lon="6.76075">
        <ele>229.89</ele>
        <time>2013-08-28T05:26:48Z</time>
      </trkpt>
      <trkpt lat="43.38938" lon="6.76124">
        <ele>239.02</ele>
        <time>2013-08-28T05:26:55Z</time>
      </trkpt>
      <trkpt lat="43.38904" lon="6.76139">
        <ele>242.87</ele>
        <time>2013-08-28T05:26:58Z</time>
      </trkpt>
      <trkpt lat="43.3888" lon="6.76151">
        <ele>243.83</ele>
        <time>2013-08-28T05:27:00Z</time>
      </trkpt>
      <trkpt lat="43.38824" lon="6.76157">
        <ele>243.83</ele>
        <time>2013-08-28T05:27:04Z</time>
      </trkpt>
      <trkpt lat="43.38785" lon="6.76162">
        <ele>246.23</ele>
        <time>2013-08-28T05:27:07Z</time>
      </trkpt>
      <trkpt lat="43.38748" lon="6.76161">
        <ele>247.68</ele>
        <time>2013-08-28T05:27:10Z</time>
      </trkpt>
      <trkpt lat="43.38681" lon="6.7617">
        <ele>247.2</ele>
        <time>2013-08-28T05:27:15Z</time>
      </trkpt>
      <trkpt lat="43.38627" lon="6.76165">
        <ele>249.12</ele>
        <time>2013-08-28T05:27:19Z</time>
      </trkpt>
      <trkpt lat="43.38587" lon="6.76158">
        <ele>251.04</ele>
        <time>2013-08-28T05:27:22Z</time>
      </trkpt>
      <trkpt lat="43.38549" lon="6.76154">
        <ele>253.44</ele>
        <time>2013-08-28T05:27:25Z</time>
      </trkpt>
      <trkpt lat="43.38469" lon="6.76129">
        <ele>256.81</ele>
        <time>2013-08-28T05:27:31Z</time>
      </trkpt>
      <trkpt lat="43.38432" lon="6.76108">
        <ele>259.69</ele>
        <time>2013-08-28T05:27:34Z</time>
      </trkpt>
      <trkpt lat="43.38396" lon="6.76088">
        <ele>262.58</ele>
        <time>2013-08-28T05:27:37Z</time>
      </trkpt>
      <trkpt lat="43.38348" lon="6.76054">
        <ele>265.46</ele>
        <time>2013-08-28T05:27:41Z</time>
      </trkpt>
      <trkpt lat="43.38313" lon="6.76031">
        <ele>268.83</ele>
        <time>2013-08-28T05:27:44Z</time>
      </trkpt>
      <trkpt lat="43.3828" lon="6.76002">
        <ele>271.23</ele>
        <time>2013-08-28T05:27:47Z</time>
      </trkpt>
      <trkpt lat="43.38245" lon="6.75977">
        <ele>273.63</ele>
        <time>2013-08-28T05:27:50Z</time>
      </trkpt>
      <trkpt lat="43.38182" lon="6.75916">
        <ele>279.4</ele>
        <time>2013-08-28T05:27:56Z</time>
      </trkpt>
      <trkpt lat="43.38153" lon="6.75878">
        <ele>281.8</ele>
        <time>2013-08-28T05:27:59Z</time>
      </trkpt>
      <trkpt lat="43.38091" lon="6.75857">
        <ele>286.61</ele>
        <time>2013-08-28T05:28:05Z</time>
      </trkpt>
      <trkpt lat="43.38076" lon="6.7588">
        <ele>287.09</ele>
        <time>2013-08-28T05:28:07Z</time>
      </trkpt>
      <trkpt lat="43.38055" lon="6.75926">
        <ele>290.46</ele>
        <time>2013-08-28T05:28:11Z</time>
      </trkpt>
      <trkpt lat="43.38019" lon="6.76074">
        <ele>296.7</ele>
        <time>2013-08-28T05:28:22Z</time>
      </trkpt>
      <trkpt lat="43.37953" lon="6.76237">
        <ele>306.32</ele>
        <time>2013-08-28T05:28:35Z</time>
      </trkpt>
      <trkpt lat="43.37892" lon="6.76265">
        <ele>309.68</ele>
        <time>2013-08-28T05:28:41Z</time>
      </trkpt>
      <trkpt lat="43.37843" lon="6.76219">
        <ele>312.57</ele>
        <time>2013-08-28T05:28:46Z</time>
      </trkpt>
      <trkpt lat="43.37846" lon="6.76146">
        <ele>313.53</ele>
        <time>2013-08-28T05:28:50Z</time>
      </trkpt>
      <trkpt lat="43.37888" lon="6.76118">
        <ele>314.97</ele>
        <time>2013-08-28T05:28:54Z</time>
      </trkpt>
      <trkpt lat="43.37925" lon="6.76148">
        <ele>316.89</ele>
        <time>2013-08-28T05:28:58Z</time>
      </trkpt>
      <trkpt lat="43.37919" lon="6.76213">
        <ele>319.78</ele>
        <time>2013-08-28T05:29:03Z</time>
      </trkpt>
      <trkpt lat="43.37904" lon="6.76233">
        <ele>320.74</ele>
        <time>2013-08-28T05:29:05Z</time>
      </trkpt>
      <trkpt lat="43.37882" lon="6.76261">
        <ele>322.66</ele>
        <time>2013-08-28T05:29:08Z</time>
      </trkpt>
      <trkpt lat="43.37852" lon="6.76356">
        <ele>327.95</ele>
        <time>2013-08-28T05:29:16Z</time>
      </trkpt>
      <trkpt lat="43.37822" lon="6.76498">
        <ele>333.23</ele>
        <time>2013-08-28T05:29:27Z</time>
      </trkpt>
      <trkpt lat="43.37762" lon="6.76722">
        <ele>344.77</ele>
        <time>2013-08-28T05:29:44Z</time>
      </trkpt>
      <trkpt lat="43.37665" lon="6.76941">
        <ele>358.71</ele>
        <time>2013-08-28T05:30:02Z</time>
      </trkpt>
      <trkpt lat="43.37579" lon="6.77155">
        <ele>371.69</ele>
        <time>2013-08-28T05:30:19Z</time>
      </trkpt>
      <trkpt lat="43.3751" lon="6.77319">
        <ele>380.82</ele>
        <time>2013-08-28T05:30:32Z</time>
      </trkpt>
      <trkpt lat="43.37505" lon="6.77332">
        <ele>381.3</ele>
        <time>2013-08-28T05:30:33Z</time>
      </trkpt>
      <trkpt lat="43.37497" lon="6.7741">
        <ele>385.63</ele>
        <time>2013-08-28T05:30:39Z</time>
      </trkpt>
      <trkpt lat="43.37503" lon="6.77538">
        <ele>391.39</ele>
        <time>2013-08-28T05:30:48Z</time>
      </trkpt>
      <trkpt lat="43.37492" lon="6.77591">
        <ele>393.8</ele>
        <time>2013-08-28T05:30:52Z</time>
      </trkpt>
      <trkpt lat="43.37413" lon="6.77766">
        <ele>397.64</ele>
        <time>2013-08-28T05:31:06Z</time>
      </trkpt>
      <trkpt lat="43.37339" lon="6.77978">
        <ele>399.08</ele>
        <time>2013-08-28T05:31:22Z</time>
      </trkpt>
      <trkpt lat="43.37257" lon="6.78137">
        <ele>398.12</ele>
        <time>2013-08-28T05:31:35Z</time>
      </trkpt>
      <trkpt lat="43.3715" lon="6.78273">
        <ele>396.2</ele>
        <time>2013-08-28T05:31:48Z</time>
      </trkpt>
      <trkpt lat="43.37014" lon="6.78388">
        <ele>396.2</ele>
        <time>2013-08-28T05:32:02Z</time>
      </trkpt>
      <trkpt lat="43.36885" lon="6.78462">
        <ele>396.2</ele>
        <time>2013-08-28T05:32:14Z</time>
      </trkpt>
      <trkpt lat="43.36757" lon="6.78504">
        <ele>397.64</ele>
        <time>2013-08-28T05:32:25Z</time>
      </trkpt>
      <trkpt lat="43.36663" lon="6.78521">
        <ele>399.08</ele>
        <time>2013-08-28T05:32:33Z</time>
      </trkpt>
      <trkpt lat="43.36623" lon="6.78548">
        <ele>400.05</ele>
        <time>2013-08-28T05:32:37Z</time>
      </trkpt>
      <trkpt lat="43.36577" lon="6.78594">
        <ele>401.01</ele>
        <time>2013-08-28T05:32:42Z</time>
      </trkpt>
      <trkpt lat="43.36549" lon="6.78639">
        <ele>401.97</ele>
        <time>2013-08-28T05:32:46Z</time>
      </trkpt>
      <trkpt lat="43.36477" lon="6.78834">
        <ele>406.29</ele>
        <time>2013-08-28T05:33:01Z</time>
      </trkpt>
      <trkpt lat="43.3641" lon="6.79034">
        <ele>410.14</ele>
        <time>2013-08-28T05:33:16Z</time>
      </trkpt>
      <trkpt lat="43.3633" lon="6.79228">
        <ele>413.5</ele>
        <time>2013-08-28T05:33:31Z</time>
      </trkpt>
      <trkpt lat="43.36281" lon="6.79308">
        <ele>415.43</ele>
        <time>2013-08-28T05:33:38Z</time>
      </trkpt>
      <trkpt lat="43.3621" lon="6.79422">
        <ele>417.35</ele>
        <time>2013-08-28T05:33:48Z</time>
      </trkpt>
      <trkpt lat="43.36124" lon="6.79522">
        <ele>419.27</ele>
        <time>2013-08-28T05:33:58Z</time>
      </trkpt>
      <trkpt lat="43.36008" lon="6.79626">
        <ele>419.75</ele>
        <time>2013-08-28T05:34:10Z</time>
      </trkpt>
      <trkpt lat="43.35869" lon="6.79706">
        <ele>418.79</ele>
        <time>2013-08-28T05:34:23Z</time>
      </trkpt>
      <trkpt lat="43.35726" lon="6.79748">
        <ele>420.71</ele>
        <time>2013-08-28T05:34:35Z</time>
      </trkpt>
      <trkpt lat="43.35702" lon="6.79752">
        <ele>421.68</ele>
        <time>2013-08-28T05:34:37Z</time>
      </trkpt>
      <trkpt lat="43.35626" lon="6.79813">
        <ele>424.56</ele>
        <time>2013-08-28T05:34:45Z</time>
      </trkpt>
      <trkpt lat="43.35613" lon="6.79836">
        <ele>425.04</ele>
        <time>2013-08-28T05:34:47Z</time>
      </trkpt>
      <trkpt lat="43.35553" lon="6.7998">
        <ele>424.08</ele>
        <time>2013-08-28T05:34:58Z</time>
      </trkpt>
      <trkpt lat="43.35542" lon="6.80008">
        <ele>424.08</ele>
        <time>2013-08-28T05:35:00Z</time>
      </trkpt>
      <trkpt lat="43.35511" lon="6.80167">
        <ele>424.08</ele>
        <time>2013-08-28T05:35:11Z</time>
      </trkpt>
      <trkpt lat="43.35487" lon="6.80371">
        <ele>424.56</ele>
        <time>2013-08-28T05:35:25Z</time>
      </trkpt>
      <trkpt lat="43.35436" lon="6.80585">
        <ele>427.44</ele>
        <time>2013-08-28T05:35:40Z</time>
      </trkpt>
      <trkpt lat="43.35385" lon="6.80735">
        <ele>428.89</ele>
        <time>2013-08-28T05:35:51Z</time>
      </trkpt>
      <trkpt lat="43.35313" lon="6.81017">
        <ele>432.73</ele>
        <time>2013-08-28T05:36:11Z</time>
      </trkpt>
      <trkpt lat="43.35255" lon="6.81242">
        <ele>434.65</ele>
        <time>2013-08-28T05:36:27Z</time>
      </trkpt>
      <trkpt lat="43.35179" lon="6.81459">
        <ele>438.02</ele>
        <time>2013-08-28T05:36:43Z</time>
      </trkpt>
      <trkpt lat="43.35162" lon="6.81498">
        <ele>438.5</ele>
        <time>2013-08-28T05:36:46Z</time>
      </trkpt>
      <trkpt lat="43.35134" lon="6.81683">
        <ele>441.38</ele>
        <time>2013-08-28T05:36:59Z</time>
      </trkpt>
      <trkpt lat="43.35101" lon="6.81897">
        <ele>444.75</ele>
        <time>2013-08-28T05:37:14Z</time>
      </trkpt>
      <trkpt lat="43.35054" lon="6.82042">
        <ele>447.63</ele>
        <time>2013-08-28T05:37:25Z</time>
      </trkpt>
      <trkpt lat="43.34987" lon="6.8219">
        <ele>450.52</ele>
        <time>2013-08-28T05:37:37Z</time>
      </trkpt>
      <trkpt lat="43.34902" lon="6.82325">
        <ele>451.96</ele>
        <time>2013-08-28T05:37:49Z</time>
      </trkpt>
      <trkpt lat="43.3487" lon="6.82366">
        <ele>452.44</ele>
        <time>2013-08-28T05:37:53Z</time>
      </trkpt>
      <trkpt lat="43.34846" lon="6.82413">
        <ele>452.44</ele>
        <time>2013-08-28T05:37:57Z</time>
      </trkpt>
      <trkpt lat="43.34818" lon="6.82564">
        <ele>453.88</ele>
        <time>2013-08-28T05:38:08Z</time>
      </trkpt>
      <trkpt lat="43.34818" lon="6.82622">
        <ele>454.36</ele>
        <time>2013-08-28T05:38:12Z</time>
      </trkpt>
      <trkpt lat="43.34833" lon="6.82748">
        <ele>455.32</ele>
        <time>2013-08-28T05:38:21Z</time>
      </trkpt>
      <trkpt lat="43.34826" lon="6.82803">
        <ele>455.8</ele>
        <time>2013-08-28T05:38:25Z</time>
      </trkpt>
      <trkpt lat="43.34785" lon="6.82994">
        <ele>458.21</ele>
        <time>2013-08-28T05:38:39Z</time>
      </trkpt>
      <trkpt lat="43.34743" lon="6.83141">
        <ele>460.61</ele>
        <time>2013-08-28T05:38:50Z</time>
      </trkpt>
      <trkpt lat="43.34723" lon="6.83192">
        <ele>461.57</ele>
        <time>2013-08-28T05:38:54Z</time>
      </trkpt>
      <trkpt lat="43.34714" lon="6.83247">
        <ele>462.53</ele>
        <time>2013-08-28T05:38:58Z</time>
      </trkpt>
      <trkpt lat="43.34693" lon="6.83328">
        <ele>463.01</ele>
        <time>2013-08-28T05:39:04Z</time>
      </trkpt>
      <trkpt lat="43.34665" lon="6.83407">
        <ele>463.97</ele>
        <time>2013-08-28T05:39:10Z</time>
      </trkpt>
      <trkpt lat="43.34634" lon="6.83481">
        <ele>465.9</ele>
        <time>2013-08-28T05:39:16Z</time>
      </trkpt>
      <trkpt lat="43.34594" lon="6.83548">
        <ele>467.82</ele>
        <time>2013-08-28T05:39:22Z</time>
      </trkpt>
      <trkpt lat="43.34571" lon="6.83579">
        <ele>468.78</ele>
        <time>2013-08-28T05:39:25Z</time>
      </trkpt>
      <trkpt lat="43.34548" lon="6.83624">
        <ele>470.22</ele>
        <time>2013-08-28T05:39:29Z</time>
      </trkpt>
      <trkpt lat="43.34485" lon="6.83908">
        <ele>472.14</ele>
        <time>2013-08-28T05:39:50Z</time>
      </trkpt>
      <trkpt lat="43.34461" lon="6.84103">
        <ele>476.47</ele>
        <time>2013-08-28T05:40:04Z</time>
      </trkpt>
      <trkpt lat="43.34438" lon="6.8427">
        <ele>479.84</ele>
        <time>2013-08-28T05:40:16Z</time>
      </trkpt>
      <trkpt lat="43.3439" lon="6.84427">
        <ele>482.24</ele>
        <time>2013-08-28T05:40:28Z</time>
      </trkpt>
      <trkpt lat="43.343" lon="6.84583">
        <ele>484.64</ele>
        <time>2013-08-28T05:40:42Z</time>
      </trkpt>
      <trkpt lat="43.34191" lon="6.84701">
        <ele>485.6</ele>
        <time>2013-08-28T05:40:55Z</time>
      </trkpt>
      <trkpt lat="43.34162" lon="6.84724">
        <ele>486.56</ele>
        <time>2013-08-28T05:40:58Z</time>
      </trkpt>
      <trkpt lat="43.34134" lon="6.8478">
        <ele>486.56</ele>
        <time>2013-08-28T05:41:03Z</time>
      </trkpt>
      <trkpt lat="43.34106" lon="6.84955">
        <ele>489.45</ele>
        <time>2013-08-28T05:41:16Z</time>
      </trkpt>
      <trkpt lat="43.34038" lon="6.8513">
        <ele>489.93</ele>
        <time>2013-08-28T05:41:30Z</time>
      </trkpt>
      <trkpt lat="43.33939" lon="6.85279">
        <ele>488.97</ele>
        <time>2013-08-28T05:41:44Z</time>
      </trkpt>
      <trkpt lat="43.33815" lon="6.85393">
        <ele>490.41</ele>
        <time>2013-08-28T05:41:58Z</time>
      </trkpt>
      <trkpt lat="43.33776" lon="6.85421">
        <ele>490.41</ele>
        <time>2013-08-28T05:42:02Z</time>
      </trkpt>
      <trkpt lat="43.33746" lon="6.85477">
        <ele>490.41</ele>
        <time>2013-08-28T05:42:07Z</time>
      </trkpt>
      <trkpt lat="43.33711" lon="6.8568">
        <ele>488.97</ele>
        <time>2013-08-28T05:42:22Z</time>
      </trkpt>
      <trkpt lat="43.3367" lon="6.85883">
        <ele>488.01</ele>
        <time>2013-08-28T05:42:37Z</time>
      </trkpt>
      <trkpt lat="43.33609" lon="6.8609">
        <ele>488.01</ele>
        <time>2013-08-28T05:42:53Z</time>
      </trkpt>
      <trkpt lat="43.3351" lon="6.86256">
        <ele>487.05</ele>
        <time>2013-08-28T05:43:08Z</time>
      </trkpt>
      <trkpt lat="43.33437" lon="6.86339">
        <ele>486.08</ele>
        <time>2013-08-28T05:43:17Z</time>
      </trkpt>
      <trkpt lat="43.33413" lon="6.86399">
        <ele>485.6</ele>
        <time>2013-08-28T05:43:22Z</time>
      </trkpt>
      <trkpt lat="43.33377" lon="6.86542">
        <ele>486.08</ele>
        <time>2013-08-28T05:43:33Z</time>
      </trkpt>
      <trkpt lat="43.33311" lon="6.86685">
        <ele>484.64</ele>
        <time>2013-08-28T05:43:45Z</time>
      </trkpt>
      <trkpt lat="43.33231" lon="6.868">
        <ele>486.08</ele>
        <time>2013-08-28T05:43:56Z</time>
      </trkpt>
      <trkpt lat="43.33207" lon="6.86846">
        <ele>485.6</ele>
        <time>2013-08-28T05:44:00Z</time>
      </trkpt>
      <trkpt lat="43.3316" lon="6.8703">
        <ele>484.64</ele>
        <time>2013-08-28T05:44:14Z</time>
      </trkpt>
      <trkpt lat="43.33112" lon="6.8724">
        <ele>484.16</ele>
        <time>2013-08-28T05:44:30Z</time>
      </trkpt>
      <trkpt lat="43.33054" lon="6.87475">
        <ele>484.64</ele>
        <time>2013-08-28T05:44:48Z</time>
      </trkpt>
      <trkpt lat="43.33017" lon="6.87678">
        <ele>483.2</ele>
        <time>2013-08-28T05:45:03Z</time>
      </trkpt>
      <trkpt lat="43.32973" lon="6.8784">
        <ele>483.2</ele>
        <time>2013-08-28T05:45:15Z</time>
      </trkpt>
      <trkpt lat="43.32911" lon="6.87977">
        <ele>484.16</ele>
        <time>2013-08-28T05:45:26Z</time>
      </trkpt>
      <trkpt lat="43.329" lon="6.88061">
        <ele>482.72</ele>
        <time>2013-08-28T05:45:32Z</time>
      </trkpt>
      <trkpt lat="43.32898" lon="6.88076">
        <ele>482.24</ele>
        <time>2013-08-28T05:45:33Z</time>
      </trkpt>
      <trkpt lat="43.3289" lon="6.88132">
        <ele>483.2</ele>
        <time>2013-08-28T05:45:37Z</time>
      </trkpt>
      <trkpt lat="43.3288" lon="6.88174">
        <ele>482.72</ele>
        <time>2013-08-28T05:45:40Z</time>
      </trkpt>
      <trkpt lat="43.32871" lon="6.88216">
        <ele>482.72</ele>
        <time>2013-08-28T05:45:43Z</time>
      </trkpt>
      <trkpt lat="43.32852" lon="6.88283">
        <ele>482.72</ele>
        <time>2013-08-28T05:45:48Z</time>
      </trkpt>
      <trkpt lat="43.32825" lon="6.88361">
        <ele>482.24</ele>
        <time>2013-08-28T05:45:54Z</time>
      </trkpt>
      <trkpt lat="43.32817" lon="6.88388">
        <ele>482.24</ele>
        <time>2013-08-28T05:45:56Z</time>
      </trkpt>
      <trkpt lat="43.32799" lon="6.88425">
        <ele>481.76</ele>
        <time>2013-08-28T05:45:59Z</time>
      </trkpt>
      <trkpt lat="43.32784" lon="6.88463">
        <ele>481.28</ele>
        <time>2013-08-28T05:46:02Z</time>
      </trkpt>
      <trkpt lat="43.32746" lon="6.88534">
        <ele>480.8</ele>
        <time>2013-08-28T05:46:08Z</time>
      </trkpt>
      <trkpt lat="43.32702" lon="6.886">
        <ele>480.8</ele>
        <time>2013-08-28T05:46:14Z</time>
      </trkpt>
      <trkpt lat="43.32654" lon="6.88661">
        <ele>480.8</ele>
        <time>2013-08-28T05:46:20Z</time>
      </trkpt>
      <trkpt lat="43.32602" lon="6.88716">
        <ele>480.8</ele>
        <time>2013-08-28T05:46:26Z</time>
      </trkpt>
      <trkpt lat="43.32536" lon="6.88774">
        <ele>481.28</ele>
        <time>2013-08-28T05:46:33Z</time>
      </trkpt>
      <trkpt lat="43.32413" lon="6.88853">
        <ele>482.24</ele>
        <time>2013-08-28T05:46:45Z</time>
      </trkpt>
      <trkpt lat="43.32369" lon="6.88874">
        <ele>482.72</ele>
        <time>2013-08-28T05:46:49Z</time>
      </trkpt>
      <trkpt lat="43.32327" lon="6.88938">
        <ele>481.76</ele>
        <time>2013-08-28T05:46:55Z</time>
      </trkpt>
      <trkpt lat="43.32302" lon="6.89152">
        <ele>480.8</ele>
        <time>2013-08-28T05:47:10Z</time>
      </trkpt>
      <trkpt lat="43.32296" lon="6.89342">
        <ele>480.32</ele>
        <time>2013-08-28T05:47:23Z</time>
      </trkpt>
      <trkpt lat="43.32318" lon="6.8947">
        <ele>479.35</ele>
        <time>2013-08-28T05:47:32Z</time>
      </trkpt>
      <trkpt lat="43.32318" lon="6.89613">
        <ele>478.39</ele>
        <time>2013-08-28T05:47:42Z</time>
      </trkpt>
      <trkpt lat="43.32258" lon="6.89882">
        <ele>478.87</ele>
        <time>2013-08-28T05:48:01Z</time>
      </trkpt>
      <trkpt lat="43.32198" lon="6.90071">
        <ele>480.8</ele>
        <time>2013-08-28T05:48:15Z</time>
      </trkpt>
      <trkpt lat="43.32126" lon="6.90255">
        <ele>481.28</ele>
        <time>2013-08-28T05:48:29Z</time>
      </trkpt>
      <trkpt lat="43.32057" lon="6.90371">
        <ele>482.72</ele>
        <time>2013-08-28T05:48:39Z</time>
      </trkpt>
      <trkpt lat="43.32036" lon="6.90422">
        <ele>483.2</ele>
        <time>2013-08-28T05:48:43Z</time>
      </trkpt>
      <trkpt lat="43.31949" lon="6.90677">
        <ele>481.28</ele>
        <time>2013-08-28T05:49:02Z</time>
      </trkpt>
      <trkpt lat="43.31849" lon="6.90875">
        <ele>483.2</ele>
        <time>2013-08-28T05:49:18Z</time>
      </trkpt>
      <trkpt lat="43.31713" lon="6.91035">
        <ele>486.56</ele>
        <time>2013-08-28T05:49:34Z</time>
      </trkpt>
      <trkpt lat="43.31665" lon="6.91075">
        <ele>488.01</ele>
        <time>2013-08-28T05:49:39Z</time>
      </trkpt>
      <trkpt lat="43.31593" lon="6.91192">
        <ele>488.01</ele>
        <time>2013-08-28T05:49:49Z</time>
      </trkpt>
      <trkpt lat="43.31587" lon="6.91205">
        <ele>488.01</ele>
        <time>2013-08-28T05:49:50Z</time>
      </trkpt>
      <trkpt lat="43.31573" lon="6.91246">
        <ele>488.49</ele>
        <time>2013-08-28T05:49:53Z</time>
      </trkpt>
      <trkpt lat="43.31534" lon="6.91339">
        <ele>489.45</ele>
        <time>2013-08-28T05:50:00Z</time>
      </trkpt>
      <trkpt lat="43.31493" lon="6.91412">
        <ele>490.41</ele>
        <time>2013-08-28T05:50:06Z</time>
      </trkpt>
      <trkpt lat="43.31463" lon="6.91458">
        <ele>490.89</ele>
        <time>2013-08-28T05:50:10Z</time>
      </trkpt>
      <trkpt lat="43.3144" lon="6.91508">
        <ele>490.89</ele>
        <time>2013-08-28T05:50:14Z</time>
      </trkpt>
      <trkpt lat="43.31391" lon="6.91692">
        <ele>489.93</ele>
        <time>2013-08-28T05:50:27Z</time>
      </trkpt>
      <trkpt lat="43.31389" lon="6.91737">
        <ele>489.93</ele>
        <time>2013-08-28T05:50:30Z</time>
      </trkpt>
      <trkpt lat="43.31383" lon="6.91797">
        <ele>489.45</ele>
        <time>2013-08-28T05:50:34Z</time>
      </trkpt>
      <trkpt lat="43.31381" lon="6.91842">
        <ele>489.45</ele>
        <time>2013-08-28T05:50:37Z</time>
      </trkpt>
      <trkpt lat="43.31375" lon="6.91887">
        <ele>489.93</ele>
        <time>2013-08-28T05:50:40Z</time>
      </trkpt>
      <trkpt lat="43.31369" lon="6.91977">
        <ele>490.89</ele>
        <time>2013-08-28T05:50:46Z</time>
      </trkpt>
      <trkpt lat="43.31371" lon="6.92052">
        <ele>492.33</ele>
        <time>2013-08-28T05:50:51Z</time>
      </trkpt>
      <trkpt lat="43.3138" lon="6.92112">
        <ele>493.77</ele>
        <time>2013-08-28T05:50:55Z</time>
      </trkpt>
      <trkpt lat="43.31386" lon="6.92203">
        <ele>494.74</ele>
        <time>2013-08-28T05:51:01Z</time>
      </trkpt>
      <trkpt lat="43.31384" lon="6.92295">
        <ele>494.26</ele>
        <time>2013-08-28T05:51:07Z</time>
      </trkpt>
      <trkpt lat="43.31364" lon="6.92458">
        <ele>495.22</ele>
        <time>2013-08-28T05:51:18Z</time>
      </trkpt>
      <trkpt lat="43.3133" lon="6.926">
        <ele>496.66</ele>
        <time>2013-08-28T05:51:28Z</time>
      </trkpt>
      <trkpt lat="43.31326" lon="6.92614">
        <ele>497.14</ele>
        <time>2013-08-28T05:51:29Z</time>
      </trkpt>
      <trkpt lat="43.31334" lon="6.92716">
        <ele>498.1</ele>
        <time>2013-08-28T05:51:36Z</time>
      </trkpt>
      <trkpt lat="43.31348" lon="6.9274">
        <ele>498.58</ele>
        <time>2013-08-28T05:51:38Z</time>
      </trkpt>
      <trkpt lat="43.3138" lon="6.92784">
        <ele>499.06</ele>
        <time>2013-08-28T05:51:42Z</time>
      </trkpt>
      <trkpt lat="43.31436" lon="6.92806">
        <ele>498.1</ele>
        <time>2013-08-28T05:51:47Z</time>
      </trkpt>
      <trkpt lat="43.31477" lon="6.92761">
        <ele>497.14</ele>
        <time>2013-08-28T05:51:51Z</time>
      </trkpt>
      <trkpt lat="43.31476" lon="6.92687">
        <ele>496.18</ele>
        <time>2013-08-28T05:51:55Z</time>
      </trkpt>
      <trkpt lat="43.31435" lon="6.92646">
        <ele>493.77</ele>
        <time>2013-08-28T05:51:59Z</time>
      </trkpt>
      <trkpt lat="43.3138" lon="6.92678">
        <ele>493.77</ele>
        <time>2013-08-28T05:52:04Z</time>
      </trkpt>
      <trkpt lat="43.3127" lon="6.92769">
        <ele>494.74</ele>
        <time>2013-08-28T05:52:15Z</time>
      </trkpt>
      <trkpt lat="43.31114" lon="6.92832">
        <ele>500.02</ele>
        <time>2013-08-28T05:52:29Z</time>
      </trkpt>
      <trkpt lat="43.30972" lon="6.92842">
        <ele>504.35</ele>
        <time>2013-08-28T05:52:41Z</time>
      </trkpt>
      <trkpt lat="43.309" lon="6.92832">
        <ele>506.27</ele>
        <time>2013-08-28T05:52:47Z</time>
      </trkpt>
      <trkpt lat="43.3085" lon="6.9286">
        <ele>506.27</ele>
        <time>2013-08-28T05:52:52Z</time>
      </trkpt>
      <trkpt lat="43.30844" lon="6.92874">
        <ele>506.27</ele>
        <time>2013-08-28T05:52:53Z</time>
      </trkpt>
      <trkpt lat="43.30813" lon="6.93033">
        <ele>507.23</ele>
        <time>2013-08-28T05:53:04Z</time>
      </trkpt>
      <trkpt lat="43.30786" lon="6.93224">
        <ele>506.27</ele>
        <time>2013-08-28T05:53:17Z</time>
      </trkpt>
      <trkpt lat="43.30739" lon="6.93392">
        <ele>506.75</ele>
        <time>2013-08-28T05:53:29Z</time>
      </trkpt>
      <trkpt lat="43.30657" lon="6.9357">
        <ele>509.16</ele>
        <time>2013-08-28T05:53:43Z</time>
      </trkpt>
      <trkpt lat="43.30611" lon="6.93738">
        <ele>511.08</ele>
        <time>2013-08-28T05:53:55Z</time>
      </trkpt>
      <trkpt lat="43.30568" lon="6.93907">
        <ele>513.96</ele>
        <time>2013-08-28T05:54:07Z</time>
      </trkpt>
      <trkpt lat="43.30519" lon="6.94134">
        <ele>519.73</ele>
        <time>2013-08-28T05:54:23Z</time>
      </trkpt>
      <trkpt lat="43.3047" lon="6.94374">
        <ele>521.65</ele>
        <time>2013-08-28T05:54:40Z</time>
      </trkpt>
      <trkpt lat="43.30415" lon="6.94615">
        <ele>523.09</ele>
        <time>2013-08-28T05:54:57Z</time>
      </trkpt>
      <trkpt lat="43.30335" lon="6.94825">
        <ele>524.06</ele>
        <time>2013-08-28T05:55:13Z</time>
      </trkpt>
      <trkpt lat="43.30216" lon="6.95">
        <ele>523.09</ele>
        <time>2013-08-28T05:55:29Z</time>
      </trkpt>
      <trkpt lat="43.30095" lon="6.9511">
        <ele>523.58</ele>
        <time>2013-08-28T05:55:42Z</time>
      </trkpt>
      <trkpt lat="43.29957" lon="6.95182">
        <ele>523.58</ele>
        <time>2013-08-28T05:55:55Z</time>
      </trkpt>
      <trkpt lat="43.29794" lon="6.95211">
        <ele>524.06</ele>
        <time>2013-08-28T05:56:09Z</time>
      </trkpt>
      <trkpt lat="43.29758" lon="6.95214">
        <ele>524.06</ele>
        <time>2013-08-28T05:56:12Z</time>
      </trkpt>
      <trkpt lat="43.297" lon="6.95259">
        <ele>524.54</ele>
        <time>2013-08-28T05:56:18Z</time>
      </trkpt>
      <trkpt lat="43.29673" lon="6.95305">
        <ele>525.5</ele>
        <time>2013-08-28T05:56:22Z</time>
      </trkpt>
      <trkpt lat="43.29625" lon="6.95422">
        <ele>526.46</ele>
        <time>2013-08-28T05:56:31Z</time>
      </trkpt>
      <trkpt lat="43.29542" lon="6.95563">
        <ele>527.9</ele>
        <time>2013-08-28T05:56:43Z</time>
      </trkpt>
      <trkpt lat="43.29459" lon="6.95641">
        <ele>529.82</ele>
        <time>2013-08-28T05:56:52Z</time>
      </trkpt>
      <trkpt lat="43.29393" lon="6.9574">
        <ele>530.79</ele>
        <time>2013-08-28T05:57:01Z</time>
      </trkpt>
      <trkpt lat="43.29315" lon="6.95925">
        <ele>534.15</ele>
        <time>2013-08-28T05:57:15Z</time>
      </trkpt>
      <trkpt lat="43.29226" lon="6.96099">
        <ele>537.99</ele>
        <time>2013-08-28T05:57:29Z</time>
      </trkpt>
      <trkpt lat="43.29149" lon="6.96265">
        <ele>542.32</ele>
        <time>2013-08-28T05:57:42Z</time>
      </trkpt>
      <trkpt lat="43.29048" lon="6.96485">
        <ele>548.09</ele>
        <time>2013-08-28T05:57:59Z</time>
      </trkpt>
      <trkpt lat="43.28988" lon="6.96701">
        <ele>549.05</ele>
        <time>2013-08-28T05:58:14Z</time>
      </trkpt>
      <trkpt lat="43.28942" lon="6.96973">
        <ele>548.09</ele>
        <time>2013-08-28T05:58:32Z</time>
      </trkpt>
      <trkpt lat="43.28902" lon="6.97168">
        <ele>549.05</ele>
        <time>2013-08-28T05:58:45Z</time>
      </trkpt>
      <trkpt lat="43.2884" lon="6.97352">
        <ele>550.01</ele>
        <time>2013-08-28T05:58:58Z</time>
      </trkpt>
      <trkpt lat="43.28761" lon="6.97521">
        <ele>552.9</ele>
        <time>2013-08-28T05:59:11Z</time>
      </trkpt>
      <trkpt lat="43.2867" lon="6.97764">
        <ele>556.74</ele>
        <time>2013-08-28T05:59:29Z</time>
      </trkpt>
      <trkpt lat="43.28603" lon="6.97885">
        <ele>558.66</ele>
        <time>2013-08-28T05:59:39Z</time>
      </trkpt>
      <trkpt lat="43.28507" lon="6.98032">
        <ele>560.59</ele>
        <time>2013-08-28T05:59:52Z</time>
      </trkpt>
      <trkpt lat="43.28431" lon="6.9818">
        <ele>565.39</ele>
        <time>2013-08-28T06:00:04Z</time>
      </trkpt>
      <trkpt lat="43.28406" lon="6.98325">
        <ele>569.24</ele>
        <time>2013-08-28T06:00:14Z</time>
      </trkpt>
      <trkpt lat="43.28405" lon="6.9853">
        <ele>572.6</ele>
        <time>2013-08-28T06:00:28Z</time>
      </trkpt>
      <trkpt lat="43.28408" lon="6.98708">
        <ele>573.56</ele>
        <time>2013-08-28T06:00:40Z</time>
      </trkpt>
      <trkpt lat="43.28403" lon="6.98907">
        <ele>573.56</ele>
        <time>2013-08-28T06:00:54Z</time>
      </trkpt>
      <trkpt lat="43.28383" lon="6.99074">
        <ele>573.08</ele>
        <time>2013-08-28T06:01:06Z</time>
      </trkpt>
      <trkpt lat="43.28334" lon="6.99231">
        <ele>575.01</ele>
        <time>2013-08-28T06:01:18Z</time>
      </trkpt>
      <trkpt lat="43.2829" lon="6.99405">
        <ele>578.37</ele>
        <time>2013-08-28T06:01:31Z</time>
      </trkpt>
      <trkpt lat="43.28232" lon="6.99673">
        <ele>584.62</ele>
        <time>2013-08-28T06:01:50Z</time>
      </trkpt>
      <trkpt lat="43.28161" lon="6.99932">
        <ele>592.79</ele>
        <time>2013-08-28T06:02:08Z</time>
      </trkpt>
      <trkpt lat="43.28097" lon="7.00174">
        <ele>595.19</ele>
        <time>2013-08-28T06:02:25Z</time>
      </trkpt>
      <trkpt lat="43.28046" lon="7.00396">
        <ele>591.35</ele>
        <time>2013-08-28T06:02:41Z</time>
      </trkpt>
      <trkpt lat="43.27992" lon="7.0059">
        <ele>586.54</ele>
        <time>2013-08-28T06:02:56Z</time>
      </trkpt>
      <trkpt lat="43.27919" lon="7.0077">
        <ele>583.18</ele>
        <time>2013-08-28T06:03:11Z</time>
      </trkpt>
      <trkpt lat="43.27887" lon="7.00922">
        <ele>583.18</ele>
        <time>2013-08-28T06:03:23Z</time>
      </trkpt>
      <trkpt lat="43.27833" lon="7.01157">
        <ele>586.06</ele>
        <time>2013-08-28T06:03:41Z</time>
      </trkpt>
      <trkpt lat="43.27796" lon="7.01287">
        <ele>587.98</ele>
        <time>2013-08-28T06:03:51Z</time>
      </trkpt>
      <trkpt lat="43.27781" lon="7.01325">
        <ele>588.46</ele>
        <time>2013-08-28T06:03:54Z</time>
      </trkpt>
      <trkpt lat="43.27771" lon="7.01365">
        <ele>589.91</ele>
        <time>2013-08-28T06:03:57Z</time>
      </trkpt>
      <trkpt lat="43.2774" lon="7.01442">
        <ele>591.35</ele>
        <time>2013-08-28T06:04:03Z</time>
      </trkpt>
      <trkpt lat="43.27714" lon="7.01489">
        <ele>592.79</ele>
        <time>2013-08-28T06:04:07Z</time>
      </trkpt>
      <trkpt lat="43.27688" lon="7.01552">
        <ele>594.71</ele>
        <time>2013-08-28T06:04:12Z</time>
      </trkpt>
      <trkpt lat="43.27667" lon="7.0165">
        <ele>596.15</ele>
        <time>2013-08-28T06:04:19Z</time>
      </trkpt>
      <trkpt lat="43.27661" lon="7.01692">
        <ele>596.64</ele>
        <time>2013-08-28T06:04:22Z</time>
      </trkpt>
      <trkpt lat="43.27653" lon="7.01736">
        <ele>596.64</ele>
        <time>2013-08-28T06:04:25Z</time>
      </trkpt>
      <trkpt lat="43.27656" lon="7.01821">
        <ele>597.12</ele>
        <time>2013-08-28T06:04:31Z</time>
      </trkpt>
      <trkpt lat="43.27668" lon="7.01875">
        <ele>598.56</ele>
        <time>2013-08-28T06:04:35Z</time>
      </trkpt>
      <trkpt lat="43.27671" lon="7.01924">
        <ele>600</ele>
        <time>2013-08-28T06:04:39Z</time>
      </trkpt>
      <trkpt lat="43.27653" lon="7.02119">
        <ele>602.88</ele>
        <time>2013-08-28T06:04:54Z</time>
      </trkpt>
      <trkpt lat="43.27611" lon="7.02348">
        <ele>608.65</ele>
        <time>2013-08-28T06:05:12Z</time>
      </trkpt>
      <trkpt lat="43.27569" lon="7.02541">
        <ele>610.57</ele>
        <time>2013-08-28T06:05:27Z</time>
      </trkpt>
      <trkpt lat="43.27528" lon="7.02746">
        <ele>615.38</ele>
        <time>2013-08-28T06:05:43Z</time>
      </trkpt>
      <trkpt lat="43.27481" lon="7.03014">
        <ele>620.67</ele>
        <time>2013-08-28T06:06:03Z</time>
      </trkpt>
      <trkpt lat="43.27427" lon="7.03235">
        <ele>620.19</ele>
        <time>2013-08-28T06:06:20Z</time>
      </trkpt>
      <trkpt lat="43.2735" lon="7.03456">
        <ele>624.03</ele>
        <time>2013-08-28T06:06:38Z</time>
      </trkpt>
      <trkpt lat="43.27339" lon="7.0348">
        <ele>624.99</ele>
        <time>2013-08-28T06:06:40Z</time>
      </trkpt>
      <trkpt lat="43.27302" lon="7.03532">
        <ele>627.88</ele>
        <time>2013-08-28T06:06:45Z</time>
      </trkpt>
      <trkpt lat="43.27282" lon="7.03581">
        <ele>628.84</ele>
        <time>2013-08-28T06:06:49Z</time>
      </trkpt>
      <trkpt lat="43.2726" lon="7.03751">
        <ele>629.32</ele>
        <time>2013-08-28T06:07:02Z</time>
      </trkpt>
      <trkpt lat="43.27229" lon="7.04031">
        <ele>624.03</ele>
        <time>2013-08-28T06:07:24Z</time>
      </trkpt>
      <trkpt lat="43.27203" lon="7.04229">
        <ele>618.26</ele>
        <time>2013-08-28T06:07:39Z</time>
      </trkpt>
      <trkpt lat="43.27156" lon="7.04433">
        <ele>613.94</ele>
        <time>2013-08-28T06:07:55Z</time>
      </trkpt>
      <trkpt lat="43.2709" lon="7.04592">
        <ele>609.13</ele>
        <time>2013-08-28T06:08:08Z</time>
      </trkpt>
      <trkpt lat="43.26989" lon="7.04762">
        <ele>607.69</ele>
        <time>2013-08-28T06:08:23Z</time>
      </trkpt>
      <trkpt lat="43.26878" lon="7.04907">
        <ele>607.21</ele>
        <time>2013-08-28T06:08:37Z</time>
      </trkpt>
      <trkpt lat="43.26852" lon="7.04936">
        <ele>607.69</ele>
        <time>2013-08-28T06:08:40Z</time>
      </trkpt>
      <trkpt lat="43.26799" lon="7.05061">
        <ele>609.13</ele>
        <time>2013-08-28T06:08:50Z</time>
      </trkpt>
      <trkpt lat="43.26784" lon="7.05214">
        <ele>612.5</ele>
        <time>2013-08-28T06:09:01Z</time>
      </trkpt>
      <trkpt lat="43.26791" lon="7.0538">
        <ele>619.23</ele>
        <time>2013-08-28T06:09:13Z</time>
      </trkpt>
      <trkpt lat="43.26772" lon="7.05542">
        <ele>624.99</ele>
        <time>2013-08-28T06:09:25Z</time>
      </trkpt>
      <trkpt lat="43.26762" lon="7.05653">
        <ele>629.8</ele>
        <time>2013-08-28T06:09:33Z</time>
      </trkpt>
      <trkpt lat="43.26769" lon="7.05751">
        <ele>634.13</ele>
        <time>2013-08-28T06:09:40Z</time>
      </trkpt>
      <trkpt lat="43.26764" lon="7.05833">
        <ele>637.49</ele>
        <time>2013-08-28T06:09:46Z</time>
      </trkpt>
      <trkpt lat="43.26754" lon="7.06">
        <ele>643.26</ele>
        <time>2013-08-28T06:09:58Z</time>
      </trkpt>
      <trkpt lat="43.26729" lon="7.06211">
        <ele>644.22</ele>
        <time>2013-08-28T06:10:13Z</time>
      </trkpt>
      <trkpt lat="43.26727" lon="7.0634">
        <ele>644.22</ele>
        <time>2013-08-28T06:10:22Z</time>
      </trkpt>
      <trkpt lat="43.26718" lon="7.06513">
        <ele>644.7</ele>
        <time>2013-08-28T06:10:34Z</time>
      </trkpt>
      <trkpt lat="43.26692" lon="7.067">
        <ele>646.62</ele>
        <time>2013-08-28T06:10:47Z</time>
      </trkpt>
      <trkpt lat="43.26653" lon="7.06878">
        <ele>648.55</ele>
        <time>2013-08-28T06:11:00Z</time>
      </trkpt>
      <trkpt lat="43.26584" lon="7.07077">
        <ele>651.43</ele>
        <time>2013-08-28T06:11:15Z</time>
      </trkpt>
      <trkpt lat="43.26532" lon="7.07192">
        <ele>652.87</ele>
        <time>2013-08-28T06:11:24Z</time>
      </trkpt>
      <trkpt lat="43.26521" lon="7.07249">
        <ele>653.35</ele>
        <time>2013-08-28T06:11:28Z</time>
      </trkpt>
      <trkpt lat="43.26514" lon="7.0753">
        <ele>659.6</ele>
        <time>2013-08-28T06:11:47Z</time>
      </trkpt>
      <trkpt lat="43.26491" lon="7.07805">
        <ele>668.25</ele>
        <time>2013-08-28T06:12:06Z</time>
      </trkpt>
      <trkpt lat="43.26443" lon="7.08027">
        <ele>674.98</ele>
        <time>2013-08-28T06:12:22Z</time>
      </trkpt>
      <trkpt lat="43.26369" lon="7.08238">
        <ele>681.71</ele>
        <time>2013-08-28T06:12:38Z</time>
      </trkpt>
      <trkpt lat="43.26282" lon="7.0842">
        <ele>684.12</ele>
        <time>2013-08-28T06:12:53Z</time>
      </trkpt>
      <trkpt lat="43.26164" lon="7.08608">
        <ele>681.23</ele>
        <time>2013-08-28T06:13:10Z</time>
      </trkpt>
      <trkpt lat="43.26047" lon="7.08739">
        <ele>676.91</ele>
        <time>2013-08-28T06:13:24Z</time>
      </trkpt>
      <trkpt lat="43.25953" lon="7.08818">
        <ele>675.46</ele>
        <time>2013-08-28T06:13:34Z</time>
      </trkpt>
      <trkpt lat="43.25939" lon="7.08882">
        <ele>673.54</ele>
        <time>2013-08-28T06:13:39Z</time>
      </trkpt>
      <trkpt lat="43.25952" lon="7.08907">
        <ele>672.58</ele>
        <time>2013-08-28T06:13:41Z</time>
      </trkpt>
      <trkpt lat="43.26035" lon="7.0904">
        <ele>670.66</ele>
        <time>2013-08-28T06:13:53Z</time>
      </trkpt>
      <trkpt lat="43.26118" lon="7.09179">
        <ele>670.18</ele>
        <time>2013-08-28T06:14:05Z</time>
      </trkpt>
      <trkpt lat="43.26234" lon="7.09378">
        <ele>671.62</ele>
        <time>2013-08-28T06:14:22Z</time>
      </trkpt>
      <trkpt lat="43.2634" lon="7.09602">
        <ele>671.14</ele>
        <time>2013-08-28T06:14:40Z</time>
      </trkpt>
      <trkpt lat="43.26407" lon="7.09832">
        <ele>669.7</ele>
        <time>2013-08-28T06:14:57Z</time>
      </trkpt>
      <trkpt lat="43.26487" lon="7.10123">
        <ele>670.18</ele>
        <time>2013-08-28T06:15:18Z</time>
      </trkpt>
      <trkpt lat="43.26532" lon="7.10332">
        <ele>670.66</ele>
        <time>2013-08-28T06:15:33Z</time>
      </trkpt>
      <trkpt lat="43.26558" lon="7.1055">
        <ele>671.62</ele>
        <time>2013-08-28T06:15:48Z</time>
      </trkpt>
      <trkpt lat="43.26562" lon="7.10638">
        <ele>672.58</ele>
        <time>2013-08-28T06:15:54Z</time>
      </trkpt>
      <trkpt lat="43.26533" lon="7.10794">
        <ele>674.02</ele>
        <time>2013-08-28T06:16:05Z</time>
      </trkpt>
      <trkpt lat="43.26481" lon="7.10957">
        <ele>675.94</ele>
        <time>2013-08-28T06:16:17Z</time>
      </trkpt>
      <trkpt lat="43.26413" lon="7.11125">
        <ele>677.39</ele>
        <time>2013-08-28T06:16:30Z</time>
      </trkpt>
      <trkpt lat="43.26393" lon="7.11176">
        <ele>677.39</ele>
        <time>2013-08-28T06:16:34Z</time>
      </trkpt>
      <trkpt lat="43.26383" lon="7.1132">
        <ele>677.87</ele>
        <time>2013-08-28T06:16:44Z</time>
      </trkpt>
      <trkpt lat="43.26388" lon="7.11549">
        <ele>678.83</ele>
        <time>2013-08-28T06:17:00Z</time>
      </trkpt>
      <trkpt lat="43.26392" lon="7.11706">
        <ele>680.27</ele>
        <time>2013-08-28T06:17:11Z</time>
      </trkpt>
      <trkpt lat="43.26391" lon="7.11875">
        <ele>682.67</ele>
        <time>2013-08-28T06:17:23Z</time>
      </trkpt>
      <trkpt lat="43.2638" lon="7.12056">
        <ele>684.6</ele>
        <time>2013-08-28T06:17:36Z</time>
      </trkpt>
      <trkpt lat="43.26349" lon="7.12271">
        <ele>686.52</ele>
        <time>2013-08-28T06:17:52Z</time>
      </trkpt>
      <trkpt lat="43.26309" lon="7.12452">
        <ele>687</ele>
        <time>2013-08-28T06:18:06Z</time>
      </trkpt>
      <trkpt lat="43.26307" lon="7.12465">
        <ele>687</ele>
        <time>2013-08-28T06:18:07Z</time>
      </trkpt>
      <trkpt lat="43.26296" lon="7.12666">
        <ele>687</ele>
        <time>2013-08-28T06:18:22Z</time>
      </trkpt>
      <trkpt lat="43.26283" lon="7.12884">
        <ele>685.56</ele>
        <time>2013-08-28T06:18:38Z</time>
      </trkpt>
      <trkpt lat="43.26253" lon="7.1309">
        <ele>684.6</ele>
        <time>2013-08-28T06:18:53Z</time>
      </trkpt>
      <trkpt lat="43.26209" lon="7.1329">
        <ele>687</ele>
        <time>2013-08-28T06:19:08Z</time>
      </trkpt>
      <trkpt lat="43.26174" lon="7.13497">
        <ele>690.84</ele>
        <time>2013-08-28T06:19:23Z</time>
      </trkpt>
      <trkpt lat="43.26153" lon="7.13693">
        <ele>695.17</ele>
        <time>2013-08-28T06:19:37Z</time>
      </trkpt>
      <trkpt lat="43.26154" lon="7.13895">
        <ele>697.57</ele>
        <time>2013-08-28T06:19:51Z</time>
      </trkpt>
      <trkpt lat="43.2615" lon="7.14099">
        <ele>699.98</ele>
        <time>2013-08-28T06:20:05Z</time>
      </trkpt>
      <trkpt lat="43.26126" lon="7.14304">
        <ele>699.5</ele>
        <time>2013-08-28T06:20:19Z</time>
      </trkpt>
      <trkpt lat="43.26087" lon="7.14501">
        <ele>703.82</ele>
        <time>2013-08-28T06:20:33Z</time>
      </trkpt>
      <trkpt lat="43.26056" lon="7.14712">
        <ele>704.78</ele>
        <time>2013-08-28T06:20:48Z</time>
      </trkpt>
      <trkpt lat="43.2604" lon="7.14899">
        <ele>707.19</ele>
        <time>2013-08-28T06:21:01Z</time>
      </trkpt>
      <trkpt lat="43.2603" lon="7.14956">
        <ele>707.67</ele>
        <time>2013-08-28T06:21:05Z</time>
      </trkpt>
      <trkpt lat="43.26035" lon="7.15086">
        <ele>702.38</ele>
        <time>2013-08-28T06:21:14Z</time>
      </trkpt>
      <trkpt lat="43.26051" lon="7.1523">
        <ele>694.21</ele>
        <time>2013-08-28T06:21:24Z</time>
      </trkpt>
      <trkpt lat="43.26074" lon="7.15403">
        <ele>683.15</ele>
        <time>2013-08-28T06:21:36Z</time>
      </trkpt>
      <trkpt lat="43.26086" lon="7.15612">
        <ele>666.33</ele>
        <time>2013-08-28T06:21:50Z</time>
      </trkpt>
      <trkpt lat="43.26087" lon="7.15761">
        <ele>664.89</ele>
        <time>2013-08-28T06:22:00Z</time>
      </trkpt>
      <trkpt lat="43.26085" lon="7.15955">
        <ele>662.49</ele>
        <time>2013-08-28T06:22:13Z</time>
      </trkpt>
      <trkpt lat="43.26086" lon="7.15998">
        <ele>662.01</ele>
        <time>2013-08-28T06:22:16Z</time>
      </trkpt>
      <trkpt lat="43.26058" lon="7.16159">
        <ele>656.24</ele>
        <time>2013-08-28T06:22:27Z</time>
      </trkpt>
      <trkpt lat="43.26032" lon="7.16293">
        <ele>655.28</ele>
        <time>2013-08-28T06:22:36Z</time>
      </trkpt>
      <trkpt lat="43.2599" lon="7.16437">
        <ele>655.76</ele>
        <time>2013-08-28T06:22:46Z</time>
      </trkpt>
      <trkpt lat="43.25922" lon="7.16615">
        <ele>655.76</ele>
        <time>2013-08-28T06:22:59Z</time>
      </trkpt>
      <trkpt lat="43.25841" lon="7.1678">
        <ele>657.68</ele>
        <time>2013-08-28T06:23:12Z</time>
      </trkpt>
      <trkpt lat="43.25789" lon="7.16911">
        <ele>659.6</ele>
        <time>2013-08-28T06:23:22Z</time>
      </trkpt>
      <trkpt lat="43.25702" lon="7.1716">
        <ele>660.56</ele>
        <time>2013-08-28T06:23:40Z</time>
      </trkpt>
      <trkpt lat="43.25638" lon="7.1736">
        <ele>660.56</ele>
        <time>2013-08-28T06:23:54Z</time>
      </trkpt>
      <trkpt lat="43.25579" lon="7.1754">
        <ele>661.52</ele>
        <time>2013-08-28T06:24:07Z</time>
      </trkpt>
      <trkpt lat="43.25514" lon="7.17717">
        <ele>665.37</ele>
        <time>2013-08-28T06:24:20Z</time>
      </trkpt>
      <trkpt lat="43.25461" lon="7.17912">
        <ele>668.25</ele>
        <time>2013-08-28T06:24:34Z</time>
      </trkpt>
      <trkpt lat="43.25401" lon="7.18126">
        <ele>670.66</ele>
        <time>2013-08-28T06:24:49Z</time>
      </trkpt>
      <trkpt lat="43.25348" lon="7.18346">
        <ele>671.62</ele>
        <time>2013-08-28T06:25:04Z</time>
      </trkpt>
      <trkpt lat="43.253" lon="7.18484">
        <ele>672.58</ele>
        <time>2013-08-28T06:25:14Z</time>
      </trkpt>
      <trkpt lat="43.25273" lon="7.18552">
        <ele>673.54</ele>
        <time>2013-08-28T06:25:19Z</time>
      </trkpt>
      <trkpt lat="43.25207" lon="7.18695">
        <ele>674.98</ele>
        <time>2013-08-28T06:25:30Z</time>
      </trkpt>
      <trkpt lat="43.2513" lon="7.1883">
        <ele>679.79</ele>
        <time>2013-08-28T06:25:41Z</time>
      </trkpt>
      <trkpt lat="43.25095" lon="7.18893">
        <ele>681.71</ele>
        <time>2013-08-28T06:25:46Z</time>
      </trkpt>
      <trkpt lat="43.25047" lon="7.19064">
        <ele>688.44</ele>
        <time>2013-08-28T06:25:58Z</time>
      </trkpt>
      <trkpt lat="43.25004" lon="7.19186">
        <ele>694.21</ele>
        <time>2013-08-28T06:26:07Z</time>
      </trkpt>
      <trkpt lat="43.24951" lon="7.19315">
        <ele>700.94</ele>
        <time>2013-08-28T06:26:17Z</time>
      </trkpt>
      <trkpt lat="43.2489" lon="7.19434">
        <ele>707.67</ele>
        <time>2013-08-28T06:26:27Z</time>
      </trkpt>
      <trkpt lat="43.24852" lon="7.19502">
        <ele>709.11</ele>
        <time>2013-08-28T06:26:33Z</time>
      </trkpt>
      <trkpt lat="43.24809" lon="7.19632">
        <ele>708.63</ele>
        <time>2013-08-28T06:26:43Z</time>
      </trkpt>
      <trkpt lat="43.24752" lon="7.19803">
        <ele>708.63</ele>
        <time>2013-08-28T06:26:56Z</time>
      </trkpt>
      <trkpt lat="43.24747" lon="7.19816">
        <ele>709.11</ele>
        <time>2013-08-28T06:26:57Z</time>
      </trkpt>
      <trkpt lat="43.24726" lon="7.1985">
        <ele>708.63</ele>
        <time>2013-08-28T06:27:00Z</time>
      </trkpt>
      <trkpt lat="43.24685" lon="7.19982">
        <ele>708.63</ele>
        <time>2013-08-28T06:27:10Z</time>
      </trkpt>
      <trkpt lat="43.24658" lon="7.20135">
        <ele>709.59</ele>
        <time>2013-08-28T06:27:21Z</time>
      </trkpt>
      <trkpt lat="43.24638" lon="7.20232">
        <ele>711.03</ele>
        <time>2013-08-28T06:27:28Z</time>
      </trkpt>
      <trkpt lat="43.24625" lon="7.20273">
        <ele>711.99</ele>
        <time>2013-08-28T06:27:31Z</time>
      </trkpt>
      <trkpt lat="43.24615" lon="7.20312">
        <ele>712.47</ele>
        <time>2013-08-28T06:27:34Z</time>
      </trkpt>
      <trkpt lat="43.24582" lon="7.20403">
        <ele>712.95</ele>
        <time>2013-08-28T06:27:41Z</time>
      </trkpt>
      <trkpt lat="43.24546" lon="7.20474">
        <ele>711.99</ele>
        <time>2013-08-28T06:27:47Z</time>
      </trkpt>
      <trkpt lat="43.2447" lon="7.20593">
        <ele>712.47</ele>
        <time>2013-08-28T06:27:58Z</time>
      </trkpt>
      <trkpt lat="43.24457" lon="7.20615">
        <ele>712.95</ele>
        <time>2013-08-28T06:28:00Z</time>
      </trkpt>
      <trkpt lat="43.24441" lon="7.20664">
        <ele>713.44</ele>
        <time>2013-08-28T06:28:04Z</time>
      </trkpt>
      <trkpt lat="43.24392" lon="7.20848">
        <ele>711.51</ele>
        <time>2013-08-28T06:28:18Z</time>
      </trkpt>
      <trkpt lat="43.24341" lon="7.21002">
        <ele>711.51</ele>
        <time>2013-08-28T06:28:30Z</time>
      </trkpt>
      <trkpt lat="43.24287" lon="7.21156">
        <ele>711.03</ele>
        <time>2013-08-28T06:28:42Z</time>
      </trkpt>
      <trkpt lat="43.24271" lon="7.2121">
        <ele>710.07</ele>
        <time>2013-08-28T06:28:46Z</time>
      </trkpt>
      <trkpt lat="43.2424" lon="7.21287">
        <ele>711.03</ele>
        <time>2013-08-28T06:28:52Z</time>
      </trkpt>
      <trkpt lat="43.24222" lon="7.21321">
        <ele>711.99</ele>
        <time>2013-08-28T06:28:55Z</time>
      </trkpt>
      <trkpt lat="43.24206" lon="7.21358">
        <ele>712.47</ele>
        <time>2013-08-28T06:28:58Z</time>
      </trkpt>
      <trkpt lat="43.24185" lon="7.21391">
        <ele>712.95</ele>
        <time>2013-08-28T06:29:01Z</time>
      </trkpt>
      <trkpt lat="43.24166" lon="7.21427">
        <ele>712.95</ele>
        <time>2013-08-28T06:29:04Z</time>
      </trkpt>
      <trkpt lat="43.24122" lon="7.21492">
        <ele>713.92</ele>
        <time>2013-08-28T06:29:10Z</time>
      </trkpt>
      <trkpt lat="43.24073" lon="7.21551">
        <ele>712.95</ele>
        <time>2013-08-28T06:29:16Z</time>
      </trkpt>
      <trkpt lat="43.24019" lon="7.21603">
        <ele>713.92</ele>
        <time>2013-08-28T06:29:22Z</time>
      </trkpt>
      <trkpt lat="43.23991" lon="7.21624">
        <ele>715.36</ele>
        <time>2013-08-28T06:29:25Z</time>
      </trkpt>
      <trkpt lat="43.23962" lon="7.21646">
        <ele>715.84</ele>
        <time>2013-08-28T06:29:28Z</time>
      </trkpt>
      <trkpt lat="43.239" lon="7.21683">
        <ele>716.8</ele>
        <time>2013-08-28T06:29:34Z</time>
      </trkpt>
      <trkpt lat="43.23869" lon="7.21699">
        <ele>717.76</ele>
        <time>2013-08-28T06:29:37Z</time>
      </trkpt>
      <trkpt lat="43.23838" lon="7.21719">
        <ele>718.72</ele>
        <time>2013-08-28T06:29:40Z</time>
      </trkpt>
      <trkpt lat="43.23774" lon="7.21753">
        <ele>720.65</ele>
        <time>2013-08-28T06:29:46Z</time>
      </trkpt>
      <trkpt lat="43.23695" lon="7.21781">
        <ele>721.61</ele>
        <time>2013-08-28T06:29:53Z</time>
      </trkpt>
      <trkpt lat="43.23578" lon="7.218">
        <ele>724.01</ele>
        <time>2013-08-28T06:30:03Z</time>
      </trkpt>
      <trkpt lat="43.23554" lon="7.21803">
        <ele>723.53</ele>
        <time>2013-08-28T06:30:05Z</time>
      </trkpt>
      <trkpt lat="43.23447" lon="7.21797">
        <ele>725.45</ele>
        <time>2013-08-28T06:30:14Z</time>
      </trkpt>
      <trkpt lat="43.23388" lon="7.21793">
        <ele>725.45</ele>
        <time>2013-08-28T06:30:19Z</time>
      </trkpt>
      <trkpt lat="43.23339" lon="7.21823">
        <ele>723.05</ele>
        <time>2013-08-28T06:30:24Z</time>
      </trkpt>
      <trkpt lat="43.23321" lon="7.2186">
        <ele>723.05</ele>
        <time>2013-08-28T06:30:27Z</time>
      </trkpt>
      <trkpt lat="43.23299" lon="7.21998">
        <ele>722.57</ele>
        <time>2013-08-28T06:30:37Z</time>
      </trkpt>
      <trkpt lat="43.23259" lon="7.2221">
        <ele>723.53</ele>
        <time>2013-08-28T06:30:52Z</time>
      </trkpt>
      <trkpt lat="43.23213" lon="7.22385">
        <ele>722.57</ele>
        <time>2013-08-28T06:31:05Z</time>
      </trkpt>
      <trkpt lat="43.23147" lon="7.22546">
        <ele>719.2</ele>
        <time>2013-08-28T06:31:18Z</time>
      </trkpt>
      <trkpt lat="43.23135" lon="7.22569">
        <ele>718.72</ele>
        <time>2013-08-28T06:31:20Z</time>
      </trkpt>
      <trkpt lat="43.23127" lon="7.22623">
        <ele>716.8</ele>
        <time>2013-08-28T06:31:24Z</time>
      </trkpt>
      <trkpt lat="43.23131" lon="7.22651">
        <ele>715.84</ele>
        <time>2013-08-28T06:31:26Z</time>
      </trkpt>
      <trkpt lat="43.23133" lon="7.2282">
        <ele>712.95</ele>
        <time>2013-08-28T06:31:38Z</time>
      </trkpt>
      <trkpt lat="43.23112" lon="7.2296">
        <ele>711.99</ele>
        <time>2013-08-28T06:31:48Z</time>
      </trkpt>
      <trkpt lat="43.23072" lon="7.23138">
        <ele>715.36</ele>
        <time>2013-08-28T06:32:01Z</time>
      </trkpt>
      <trkpt lat="43.23042" lon="7.23245">
        <ele>720.65</ele>
        <time>2013-08-28T06:32:09Z</time>
      </trkpt>
      <trkpt lat="43.23029" lon="7.23285">
        <ele>723.05</ele>
        <time>2013-08-28T06:32:12Z</time>
      </trkpt>
      <trkpt lat="43.23019" lon="7.23324">
        <ele>725.45</ele>
        <time>2013-08-28T06:32:15Z</time>
      </trkpt>
      <trkpt lat="43.23005" lon="7.23361">
        <ele>727.86</ele>
        <time>2013-08-28T06:32:18Z</time>
      </trkpt>
      <trkpt lat="43.22997" lon="7.23387">
        <ele>729.78</ele>
        <time>2013-08-28T06:32:20Z</time>
      </trkpt>
      <trkpt lat="43.2296" lon="7.2347">
        <ele>736.99</ele>
        <time>2013-08-28T06:32:27Z</time>
      </trkpt>
      <trkpt lat="43.22889" lon="7.23584">
        <ele>748.04</ele>
        <time>2013-08-28T06:32:38Z</time>
      </trkpt>
      <trkpt lat="43.22835" lon="7.23661">
        <ele>753.81</ele>
        <time>2013-08-28T06:32:46Z</time>
      </trkpt>
      <trkpt lat="43.22788" lon="7.23712">
        <ele>757.66</ele>
        <time>2013-08-28T06:32:52Z</time>
      </trkpt>
      <trkpt lat="43.22701" lon="7.23782">
        <ele>763.42</ele>
        <time>2013-08-28T06:33:02Z</time>
      </trkpt>
      <trkpt lat="43.22609" lon="7.23841">
        <ele>766.79</ele>
        <time>2013-08-28T06:33:12Z</time>
      </trkpt>
      <trkpt lat="43.22575" lon="7.23919">
        <ele>767.27</ele>
        <time>2013-08-28T06:33:19Z</time>
      </trkpt>
      <trkpt lat="43.22582" lon="7.23948">
        <ele>767.27</ele>
        <time>2013-08-28T06:33:21Z</time>
      </trkpt>
      <trkpt lat="43.22605" lon="7.23999">
        <ele>769.19</ele>
        <time>2013-08-28T06:33:25Z</time>
      </trkpt>
      <trkpt lat="43.22695" lon="7.24119">
        <ele>772.08</ele>
        <time>2013-08-28T06:33:36Z</time>
      </trkpt>
      <trkpt lat="43.22773" lon="7.24249">
        <ele>776.88</ele>
        <time>2013-08-28T06:33:47Z</time>
      </trkpt>
      <trkpt lat="43.22834" lon="7.2439">
        <ele>781.21</ele>
        <time>2013-08-28T06:33:58Z</time>
      </trkpt>
      <trkpt lat="43.22869" lon="7.24512">
        <ele>784.09</ele>
        <time>2013-08-28T06:34:07Z</time>
      </trkpt>
      <trkpt lat="43.22895" lon="7.24678">
        <ele>786.02</ele>
        <time>2013-08-28T06:34:19Z</time>
      </trkpt>
      <trkpt lat="43.229" lon="7.24871">
        <ele>789.38</ele>
        <time>2013-08-28T06:34:33Z</time>
      </trkpt>
      <trkpt lat="43.2289" lon="7.25051">
        <ele>794.19</ele>
        <time>2013-08-28T06:34:46Z</time>
      </trkpt>
      <trkpt lat="43.22866" lon="7.25172">
        <ele>797.07</ele>
        <time>2013-08-28T06:34:55Z</time>
      </trkpt>
      <trkpt lat="43.22866" lon="7.25227">
        <ele>797.55</ele>
        <time>2013-08-28T06:34:59Z</time>
      </trkpt>
      <trkpt lat="43.22862" lon="7.2531">
        <ele>798.51</ele>
        <time>2013-08-28T06:35:05Z</time>
      </trkpt>
      <trkpt lat="43.22855" lon="7.25366">
        <ele>798.03</ele>
        <time>2013-08-28T06:35:09Z</time>
      </trkpt>
      <trkpt lat="43.22855" lon="7.2542">
        <ele>798.99</ele>
        <time>2013-08-28T06:35:13Z</time>
      </trkpt>
      <trkpt lat="43.2286" lon="7.25586">
        <ele>799.95</ele>
        <time>2013-08-28T06:35:25Z</time>
      </trkpt>
      <trkpt lat="43.22865" lon="7.2578">
        <ele>799.95</ele>
        <time>2013-08-28T06:35:39Z</time>
      </trkpt>
      <trkpt lat="43.22858" lon="7.25969">
        <ele>802.84</ele>
        <time>2013-08-28T06:35:53Z</time>
      </trkpt>
      <trkpt lat="43.22858" lon="7.25983">
        <ele>802.84</ele>
        <time>2013-08-28T06:35:54Z</time>
      </trkpt>
      <trkpt lat="43.22898" lon="7.26028">
        <ele>801.4</ele>
        <time>2013-08-28T06:35:59Z</time>
      </trkpt>
      <trkpt lat="43.22933" lon="7.25994">
        <ele>799.95</ele>
        <time>2013-08-28T06:36:02Z</time>
      </trkpt>
      <trkpt lat="43.22932" lon="7.25929">
        <ele>799.47</ele>
        <time>2013-08-28T06:36:05Z</time>
      </trkpt>
      <trkpt lat="43.22887" lon="7.25893">
        <ele>800.44</ele>
        <time>2013-08-28T06:36:09Z</time>
      </trkpt>
      <trkpt lat="43.22856" lon="7.25934">
        <ele>799.95</ele>
        <time>2013-08-28T06:36:13Z</time>
      </trkpt>
      <trkpt lat="43.22854" lon="7.25977">
        <ele>800.92</ele>
        <time>2013-08-28T06:36:16Z</time>
      </trkpt>
      <trkpt lat="43.22848" lon="7.26044">
        <ele>803.32</ele>
        <time>2013-08-28T06:36:21Z</time>
      </trkpt>
      <trkpt lat="43.22837" lon="7.26126">
        <ele>804.76</ele>
        <time>2013-08-28T06:36:27Z</time>
      </trkpt>
      <trkpt lat="43.22828" lon="7.26166">
        <ele>805.24</ele>
        <time>2013-08-28T06:36:30Z</time>
      </trkpt>
      <trkpt lat="43.22822" lon="7.26207">
        <ele>805.72</ele>
        <time>2013-08-28T06:36:33Z</time>
      </trkpt>
      <trkpt lat="43.22813" lon="7.26245">
        <ele>806.2</ele>
        <time>2013-08-28T06:36:36Z</time>
      </trkpt>
      <trkpt lat="43.22808" lon="7.26378">
        <ele>807.64</ele>
        <time>2013-08-28T06:36:46Z</time>
      </trkpt>
      <trkpt lat="43.22801" lon="7.26482">
        <ele>808.13</ele>
        <time>2013-08-28T06:36:54Z</time>
      </trkpt>
      <trkpt lat="43.22825" lon="7.26534">
        <ele>807.16</ele>
        <time>2013-08-28T06:36:59Z</time>
      </trkpt>
      <trkpt lat="43.22874" lon="7.26514">
        <ele>805.72</ele>
        <time>2013-08-28T06:37:03Z</time>
      </trkpt>
      <trkpt lat="43.22889" lon="7.26438">
        <ele>802.84</ele>
        <time>2013-08-28T06:37:07Z</time>
      </trkpt>
      <trkpt lat="43.22851" lon="7.26387">
        <ele>799.95</ele>
        <time>2013-08-28T06:37:11Z</time>
      </trkpt>
      <trkpt lat="43.22814" lon="7.26412">
        <ele>798.51</ele>
        <time>2013-08-28T06:37:15Z</time>
      </trkpt>
      <trkpt lat="43.2281" lon="7.26424">
        <ele>798.51</ele>
        <time>2013-08-28T06:37:16Z</time>
      </trkpt>
      <trkpt lat="43.22791" lon="7.26471">
        <ele>798.51</ele>
        <time>2013-08-28T06:37:20Z</time>
      </trkpt>
      <trkpt lat="43.22775" lon="7.26508">
        <ele>798.03</ele>
        <time>2013-08-28T06:37:23Z</time>
      </trkpt>
      <trkpt lat="43.22739" lon="7.26572">
        <ele>798.99</ele>
        <time>2013-08-28T06:37:29Z</time>
      </trkpt>
      <trkpt lat="43.22712" lon="7.26614">
        <ele>798.99</ele>
        <time>2013-08-28T06:37:33Z</time>
      </trkpt>
      <trkpt lat="43.22699" lon="7.26635">
        <ele>798.99</ele>
        <time>2013-08-28T06:37:35Z</time>
      </trkpt>
      <trkpt lat="43.22677" lon="7.26663">
        <ele>798.03</ele>
        <time>2013-08-28T06:37:38Z</time>
      </trkpt>
      <trkpt lat="43.22648" lon="7.26703">
        <ele>796.59</ele>
        <time>2013-08-28T06:37:42Z</time>
      </trkpt>
      <trkpt lat="43.22559" lon="7.26809">
        <ele>793.22</ele>
        <time>2013-08-28T06:37:53Z</time>
      </trkpt>
      <trkpt lat="43.22442" lon="7.26896">
        <ele>791.78</ele>
        <time>2013-08-28T06:38:05Z</time>
      </trkpt>
      <trkpt lat="43.22367" lon="7.26931">
        <ele>791.78</ele>
        <time>2013-08-28T06:38:12Z</time>
      </trkpt>
      <trkpt lat="43.22332" lon="7.26939">
        <ele>792.26</ele>
        <time>2013-08-28T06:38:15Z</time>
      </trkpt>
      <trkpt lat="43.223" lon="7.26952">
        <ele>794.19</ele>
        <time>2013-08-28T06:38:18Z</time>
      </trkpt>
      <trkpt lat="43.22254" lon="7.26961">
        <ele>795.63</ele>
        <time>2013-08-28T06:38:22Z</time>
      </trkpt>
      <trkpt lat="43.22231" lon="7.26967">
        <ele>796.59</ele>
        <time>2013-08-28T06:38:24Z</time>
      </trkpt>
      <trkpt lat="43.22196" lon="7.26968">
        <ele>797.07</ele>
        <time>2013-08-28T06:38:27Z</time>
      </trkpt>
      <trkpt lat="43.22161" lon="7.26975">
        <ele>798.03</ele>
        <time>2013-08-28T06:38:30Z</time>
      </trkpt>
      <trkpt lat="43.22127" lon="7.26973">
        <ele>799.95</ele>
        <time>2013-08-28T06:38:33Z</time>
      </trkpt>
      <trkpt lat="43.22093" lon="7.26974">
        <ele>801.4</ele>
        <time>2013-08-28T06:38:36Z</time>
      </trkpt>
      <trkpt lat="43.22058" lon="7.26969">
        <ele>802.84</ele>
        <time>2013-08-28T06:38:39Z</time>
      </trkpt>
      <trkpt lat="43.22023" lon="7.26967">
        <ele>804.76</ele>
        <time>2013-08-28T06:38:42Z</time>
      </trkpt>
      <trkpt lat="43.21989" lon="7.26957">
        <ele>807.16</ele>
        <time>2013-08-28T06:38:45Z</time>
      </trkpt>
      <trkpt lat="43.21956" lon="7.2695">
        <ele>810.05</ele>
        <time>2013-08-28T06:38:48Z</time>
      </trkpt>
      <trkpt lat="43.21934" lon="7.26945">
        <ele>811.01</ele>
        <time>2013-08-28T06:38:50Z</time>
      </trkpt>
      <trkpt lat="43.21874" lon="7.26968">
        <ele>811.97</ele>
        <time>2013-08-28T06:38:56Z</time>
      </trkpt>
      <trkpt lat="43.21858" lon="7.27005">
        <ele>813.41</ele>
        <time>2013-08-28T06:38:59Z</time>
      </trkpt>
      <trkpt lat="43.21829" lon="7.27154">
        <ele>815.34</ele>
        <time>2013-08-28T06:39:10Z</time>
      </trkpt>
      <trkpt lat="43.21827" lon="7.27168">
        <ele>815.34</ele>
        <time>2013-08-28T06:39:11Z</time>
      </trkpt>
      <trkpt lat="43.21816" lon="7.27208">
        <ele>816.78</ele>
        <time>2013-08-28T06:39:14Z</time>
      </trkpt>
      <trkpt lat="43.21809" lon="7.27248">
        <ele>818.22</ele>
        <time>2013-08-28T06:39:17Z</time>
      </trkpt>
      <trkpt lat="43.21761" lon="7.27372">
        <ele>823.03</ele>
        <time>2013-08-28T06:39:27Z</time>
      </trkpt>
      <trkpt lat="43.21689" lon="7.27494">
        <ele>828.79</ele>
        <time>2013-08-28T06:39:38Z</time>
      </trkpt>
      <trkpt lat="43.21617" lon="7.27601">
        <ele>830.24</ele>
        <time>2013-08-28T06:39:48Z</time>
      </trkpt>
      <trkpt lat="43.21594" lon="7.27646">
        <ele>833.6</ele>
        <time>2013-08-28T06:39:52Z</time>
      </trkpt>
      <trkpt lat="43.21579" lon="7.27683">
        <ele>834.56</ele>
        <time>2013-08-28T06:39:55Z</time>
      </trkpt>
      <trkpt lat="43.21508" lon="7.27802">
        <ele>841.77</ele>
        <time>2013-08-28T06:40:06Z</time>
      </trkpt>
      <trkpt lat="43.21429" lon="7.27894">
        <ele>847.06</ele>
        <time>2013-08-28T06:40:16Z</time>
      </trkpt>
      <trkpt lat="43.21406" lon="7.27921">
        <ele>848.02</ele>
        <time>2013-08-28T06:40:19Z</time>
      </trkpt>
      <trkpt lat="43.213" lon="7.27997">
        <ele>851.87</ele>
        <time>2013-08-28T06:40:30Z</time>
      </trkpt>
      <trkpt lat="43.21195" lon="7.28071">
        <ele>855.71</ele>
        <time>2013-08-28T06:40:41Z</time>
      </trkpt>
      <trkpt lat="43.21098" lon="7.28135">
        <ele>855.71</ele>
        <time>2013-08-28T06:40:51Z</time>
      </trkpt>
      <trkpt lat="43.2105" lon="7.28164">
        <ele>857.63</ele>
        <time>2013-08-28T06:40:56Z</time>
      </trkpt>
      <trkpt lat="43.2102" lon="7.28202">
        <ele>857.63</ele>
        <time>2013-08-28T06:41:00Z</time>
      </trkpt>
      <trkpt lat="43.20965" lon="7.28328">
        <ele>857.63</ele>
        <time>2013-08-28T06:41:11Z</time>
      </trkpt>
      <trkpt lat="43.20924" lon="7.28405">
        <ele>857.15</ele>
        <time>2013-08-28T06:41:18Z</time>
      </trkpt>
      <trkpt lat="43.20883" lon="7.28467">
        <ele>857.63</ele>
        <time>2013-08-28T06:41:24Z</time>
      </trkpt>
      <trkpt lat="43.2083" lon="7.28534">
        <ele>858.11</ele>
        <time>2013-08-28T06:41:31Z</time>
      </trkpt>
      <trkpt lat="43.2078" lon="7.28587">
        <ele>858.11</ele>
        <time>2013-08-28T06:41:37Z</time>
      </trkpt>
      <trkpt lat="43.2068" lon="7.28673">
        <ele>857.15</ele>
        <time>2013-08-28T06:41:48Z</time>
      </trkpt>
      <trkpt lat="43.20591" lon="7.28735">
        <ele>855.71</ele>
        <time>2013-08-28T06:41:57Z</time>
      </trkpt>
      <trkpt lat="43.2053" lon="7.2877">
        <ele>855.71</ele>
        <time>2013-08-28T06:42:03Z</time>
      </trkpt>
      <trkpt lat="43.20498" lon="7.28809">
        <ele>854.75</ele>
        <time>2013-08-28T06:42:07Z</time>
      </trkpt>
      <trkpt lat="43.20409" lon="7.28997">
        <ele>856.19</ele>
        <time>2013-08-28T06:42:23Z</time>
      </trkpt>
      <trkpt lat="43.20322" lon="7.29139">
        <ele>861.96</ele>
        <time>2013-08-28T06:42:36Z</time>
      </trkpt>
      <trkpt lat="43.20207" lon="7.29268">
        <ele>874.94</ele>
        <time>2013-08-28T06:42:50Z</time>
      </trkpt>
      <trkpt lat="43.2009" lon="7.29353">
        <ele>888.4</ele>
        <time>2013-08-28T06:43:02Z</time>
      </trkpt>
      <trkpt lat="43.19952" lon="7.29427">
        <ele>901.37</ele>
        <time>2013-08-28T06:43:15Z</time>
      </trkpt>
      <trkpt lat="43.19873" lon="7.29456">
        <ele>907.62</ele>
        <time>2013-08-28T06:43:22Z</time>
      </trkpt>
      <trkpt lat="43.19835" lon="7.29507">
        <ele>910.03</ele>
        <time>2013-08-28T06:43:27Z</time>
      </trkpt>
      <trkpt lat="43.19814" lon="7.29676">
        <ele>918.2</ele>
        <time>2013-08-28T06:43:39Z</time>
      </trkpt>
      <trkpt lat="43.19812" lon="7.29846">
        <ele>930.21</ele>
        <time>2013-08-28T06:43:51Z</time>
      </trkpt>
      <trkpt lat="43.19828" lon="7.30043">
        <ele>945.11</ele>
        <time>2013-08-28T06:44:05Z</time>
      </trkpt>
      <trkpt lat="43.19831" lon="7.30057">
        <ele>946.07</ele>
        <time>2013-08-28T06:44:06Z</time>
      </trkpt>
      <trkpt lat="43.19809" lon="7.30118">
        <ele>948.96</ele>
        <time>2013-08-28T06:44:11Z</time>
      </trkpt>
      <trkpt lat="43.19758" lon="7.30104">
        <ele>949.92</ele>
        <time>2013-08-28T06:44:15Z</time>
      </trkpt>
      <trkpt lat="43.19744" lon="7.30045">
        <ele>948.48</ele>
        <time>2013-08-28T06:44:18Z</time>
      </trkpt>
      <trkpt lat="43.19769" lon="7.29993">
        <ele>947.52</ele>
        <time>2013-08-28T06:44:21Z</time>
      </trkpt>
      <trkpt lat="43.19787" lon="7.29975">
        <ele>945.59</ele>
        <time>2013-08-28T06:44:23Z</time>
      </trkpt>
      <trkpt lat="43.19817" lon="7.30063">
        <ele>952.32</ele>
        <time>2013-08-28T06:44:27Z</time>
      </trkpt>
      <trkpt lat="43.19813" lon="7.30077">
        <ele>951.36</ele>
        <time>2013-08-28T06:44:28Z</time>
      </trkpt>
      <trkpt lat="43.19804" lon="7.30103">
        <ele>952.32</ele>
        <time>2013-08-28T06:44:30Z</time>
      </trkpt>
      <trkpt lat="43.1979" lon="7.30189">
        <ele>952.8</ele>
        <time>2013-08-28T06:44:36Z</time>
      </trkpt>
      <trkpt lat="43.19796" lon="7.30273">
        <ele>955.69</ele>
        <time>2013-08-28T06:44:42Z</time>
      </trkpt>
      <trkpt lat="43.19852" lon="7.30443">
        <ele>964.34</ele>
        <time>2013-08-28T06:44:55Z</time>
      </trkpt>
      <trkpt lat="43.1988" lon="7.30487">
        <ele>966.74</ele>
        <time>2013-08-28T06:44:59Z</time>
      </trkpt>
      <trkpt lat="43.19883" lon="7.30551">
        <ele>969.63</ele>
        <time>2013-08-28T06:45:04Z</time>
      </trkpt>
      <trkpt lat="43.19866" lon="7.30573">
        <ele>970.59</ele>
        <time>2013-08-28T06:45:06Z</time>
      </trkpt>
      <trkpt lat="43.19841" lon="7.30601">
        <ele>972.99</ele>
        <time>2013-08-28T06:45:09Z</time>
      </trkpt>
      <trkpt lat="43.19809" lon="7.30677">
        <ele>975.88</ele>
        <time>2013-08-28T06:45:15Z</time>
      </trkpt>
      <trkpt lat="43.19785" lon="7.30829">
        <ele>985.01</ele>
        <time>2013-08-28T06:45:26Z</time>
      </trkpt>
      <trkpt lat="43.19791" lon="7.30926">
        <ele>989.33</ele>
        <time>2013-08-28T06:45:33Z</time>
      </trkpt>
      <trkpt lat="43.19856" lon="7.31057">
        <ele>996.06</ele>
        <time>2013-08-28T06:45:44Z</time>
      </trkpt>
      <trkpt lat="43.19903" lon="7.31119">
        <ele>999.91</ele>
        <time>2013-08-28T06:45:50Z</time>
      </trkpt>
      <trkpt lat="43.19912" lon="7.31198">
        <ele>1002.79</ele>
        <time>2013-08-28T06:45:56Z</time>
      </trkpt>
      <trkpt lat="43.19911" lon="7.31255">
        <ele>1004.23</ele>
        <time>2013-08-28T06:46:00Z</time>
      </trkpt>
      <trkpt lat="43.1999" lon="7.3141">
        <ele>1014.81</ele>
        <time>2013-08-28T06:46:13Z</time>
      </trkpt>
      <trkpt lat="43.2002" lon="7.31451">
        <ele>1016.73</ele>
        <time>2013-08-28T06:46:17Z</time>
      </trkpt>
      <trkpt lat="43.20041" lon="7.31501">
        <ele>1019.13</ele>
        <time>2013-08-28T06:46:21Z</time>
      </trkpt>
      <trkpt lat="43.20093" lon="7.31645">
        <ele>1022.5</ele>
        <time>2013-08-28T06:46:32Z</time>
      </trkpt>
      <trkpt lat="43.20142" lon="7.31779">
        <ele>1025.86</ele>
        <time>2013-08-28T06:46:42Z</time>
      </trkpt>
      <trkpt lat="43.20168" lon="7.31828">
        <ele>1027.79</ele>
        <time>2013-08-28T06:46:46Z</time>
      </trkpt>
      <trkpt lat="43.20247" lon="7.31956">
        <ele>1032.11</ele>
        <time>2013-08-28T06:46:57Z</time>
      </trkpt>
      <trkpt lat="43.2032" lon="7.32031">
        <ele>1035</ele>
        <time>2013-08-28T06:47:05Z</time>
      </trkpt>
      <trkpt lat="43.20353" lon="7.32074">
        <ele>1036.44</ele>
        <time>2013-08-28T06:47:09Z</time>
      </trkpt>
      <trkpt lat="43.20445" lon="7.32172">
        <ele>1038.36</ele>
        <time>2013-08-28T06:47:19Z</time>
      </trkpt>
      <trkpt lat="43.20493" lon="7.32219">
        <ele>1038.84</ele>
        <time>2013-08-28T06:47:24Z</time>
      </trkpt>
      <trkpt lat="43.20562" lon="7.32304">
        <ele>1040.28</ele>
        <time>2013-08-28T06:47:32Z</time>
      </trkpt>
      <trkpt lat="43.20581" lon="7.32387">
        <ele>1040.28</ele>
        <time>2013-08-28T06:47:38Z</time>
      </trkpt>
      <trkpt lat="43.20574" lon="7.32415">
        <ele>1040.76</ele>
        <time>2013-08-28T06:47:40Z</time>
      </trkpt>
      <trkpt lat="43.20565" lon="7.32474">
        <ele>1040.76</ele>
        <time>2013-08-28T06:47:44Z</time>
      </trkpt>
      <trkpt lat="43.20584" lon="7.32559">
        <ele>1041.25</ele>
        <time>2013-08-28T06:47:50Z</time>
      </trkpt>
      <trkpt lat="43.20589" lon="7.3264">
        <ele>1042.69</ele>
        <time>2013-08-28T06:47:56Z</time>
      </trkpt>
      <trkpt lat="43.20576" lon="7.32668">
        <ele>1043.17</ele>
        <time>2013-08-28T06:47:58Z</time>
      </trkpt>
      <trkpt lat="43.20538" lon="7.32826">
        <ele>1041.73</ele>
        <time>2013-08-28T06:48:09Z</time>
      </trkpt>
      <trkpt lat="43.20522" lon="7.33031">
        <ele>1039.8</ele>
        <time>2013-08-28T06:48:22Z</time>
      </trkpt>
      <trkpt lat="43.20521" lon="7.33093">
        <ele>1039.32</ele>
        <time>2013-08-28T06:48:26Z</time>
      </trkpt>
      <trkpt lat="43.20532" lon="7.33189">
        <ele>1038.36</ele>
        <time>2013-08-28T06:48:32Z</time>
      </trkpt>
      <trkpt lat="43.20543" lon="7.33235">
        <ele>1036.92</ele>
        <time>2013-08-28T06:48:35Z</time>
      </trkpt>
      <trkpt lat="43.20533" lon="7.33327">
        <ele>1036.44</ele>
        <time>2013-08-28T06:48:41Z</time>
      </trkpt>
      <trkpt lat="43.20484" lon="7.33366">
        <ele>1036.44</ele>
        <time>2013-08-28T06:48:46Z</time>
      </trkpt>
      <trkpt lat="43.20434" lon="7.33319">
        <ele>1036.92</ele>
        <time>2013-08-28T06:48:51Z</time>
      </trkpt>
      <trkpt lat="43.20452" lon="7.3325">
        <ele>1033.55</ele>
        <time>2013-08-28T06:48:55Z</time>
      </trkpt>
      <trkpt lat="43.20502" lon="7.3325">
        <ele>1030.19</ele>
        <time>2013-08-28T06:48:59Z</time>
      </trkpt>
      <trkpt lat="43.20521" lon="7.33309">
        <ele>1029.23</ele>
        <time>2013-08-28T06:49:03Z</time>
      </trkpt>
      <trkpt lat="43.2052" lon="7.33326">
        <ele>1028.75</ele>
        <time>2013-08-28T06:49:04Z</time>
      </trkpt>
      <trkpt lat="43.20511" lon="7.33517">
        <ele>1032.59</ele>
        <time>2013-08-28T06:49:16Z</time>
      </trkpt>
      <trkpt lat="43.20525" lon="7.33611">
        <ele>1035.96</ele>
        <time>2013-08-28T06:49:22Z</time>
      </trkpt>
      <trkpt lat="43.20518" lon="7.33686">
        <ele>1038.36</ele>
        <time>2013-08-28T06:49:27Z</time>
      </trkpt>
      <trkpt lat="43.20509" lon="7.33715">
        <ele>1038.84</ele>
        <time>2013-08-28T06:49:29Z</time>
      </trkpt>
      <trkpt lat="43.20496" lon="7.3382">
        <ele>1042.21</ele>
        <time>2013-08-28T06:49:36Z</time>
      </trkpt>
      <trkpt lat="43.20503" lon="7.33883">
        <ele>1042.69</ele>
        <time>2013-08-28T06:49:40Z</time>
      </trkpt>
      <trkpt lat="43.20544" lon="7.33935">
        <ele>1043.17</ele>
        <time>2013-08-28T06:49:45Z</time>
      </trkpt>
      <trkpt lat="43.2059" lon="7.339">
        <ele>1042.21</ele>
        <time>2013-08-28T06:49:49Z</time>
      </trkpt>
      <trkpt lat="43.20581" lon="7.33827">
        <ele>1043.17</ele>
        <time>2013-08-28T06:49:53Z</time>
      </trkpt>
      <trkpt lat="43.20533" lon="7.33801">
        <ele>1044.61</ele>
        <time>2013-08-28T06:49:57Z</time>
      </trkpt>
      <trkpt lat="43.20494" lon="7.33837">
        <ele>1045.57</ele>
        <time>2013-08-28T06:50:01Z</time>
      </trkpt>
      <trkpt lat="43.20484" lon="7.3388">
        <ele>1047.97</ele>
        <time>2013-08-28T06:50:04Z</time>
      </trkpt>
      <trkpt lat="43.20486" lon="7.34063">
        <ele>1055.18</ele>
        <time>2013-08-28T06:50:16Z</time>
      </trkpt>
      <trkpt lat="43.20535" lon="7.34249">
        <ele>1062.39</ele>
        <time>2013-08-28T06:50:29Z</time>
      </trkpt>
      <trkpt lat="43.20544" lon="7.34277">
        <ele>1063.84</ele>
        <time>2013-08-28T06:50:31Z</time>
      </trkpt>
      <trkpt lat="43.20545" lon="7.34333">
        <ele>1065.28</ele>
        <time>2013-08-28T06:50:35Z</time>
      </trkpt>
      <trkpt lat="43.20528" lon="7.34477">
        <ele>1050.86</ele>
        <time>2013-08-28T06:50:45Z</time>
      </trkpt>
      <trkpt lat="43.20527" lon="7.3465">
        <ele>1040.76</ele>
        <time>2013-08-28T06:50:56Z</time>
      </trkpt>
      <trkpt lat="43.2051" lon="7.348">
        <ele>1046.05</ele>
        <time>2013-08-28T06:51:06Z</time>
      </trkpt>
      <trkpt lat="43.2046" lon="7.34989">
        <ele>1056.15</ele>
        <time>2013-08-28T06:51:19Z</time>
      </trkpt>
      <trkpt lat="43.20391" lon="7.35154">
        <ele>1068.64</ele>
        <time>2013-08-28T06:51:31Z</time>
      </trkpt>
      <trkpt lat="43.20376" lon="7.35179">
        <ele>1070.57</ele>
        <time>2013-08-28T06:51:33Z</time>
      </trkpt>
      <trkpt lat="43.20315" lon="7.35217">
        <ele>1076.81</ele>
        <time>2013-08-28T06:51:39Z</time>
      </trkpt>
      <trkpt lat="43.20292" lon="7.35219">
        <ele>1079.22</ele>
        <time>2013-08-28T06:51:41Z</time>
      </trkpt>
      <trkpt lat="43.20246" lon="7.35205">
        <ele>1082.58</ele>
        <time>2013-08-28T06:51:45Z</time>
      </trkpt>
      <trkpt lat="43.20187" lon="7.35237">
        <ele>1086.91</ele>
        <time>2013-08-28T06:51:51Z</time>
      </trkpt>
      <trkpt lat="43.20191" lon="7.35298">
        <ele>1089.79</ele>
        <time>2013-08-28T06:51:55Z</time>
      </trkpt>
      <trkpt lat="43.20233" lon="7.35329">
        <ele>1093.64</ele>
        <time>2013-08-28T06:51:59Z</time>
      </trkpt>
      <trkpt lat="43.20279" lon="7.35297">
        <ele>1096.04</ele>
        <time>2013-08-28T06:52:03Z</time>
      </trkpt>
      <trkpt lat="43.2029" lon="7.35228">
        <ele>1099.89</ele>
        <time>2013-08-28T06:52:07Z</time>
      </trkpt>
      <trkpt lat="43.20286" lon="7.35212">
        <ele>1100.85</ele>
        <time>2013-08-28T06:52:08Z</time>
      </trkpt>
      <trkpt lat="43.20289" lon="7.35109">
        <ele>1101.33</ele>
        <time>2013-08-28T06:52:14Z</time>
      </trkpt>
      <trkpt lat="43.20345" lon="7.35077">
        <ele>1103.25</ele>
        <time>2013-08-28T06:52:19Z</time>
      </trkpt>
      <trkpt lat="43.20394" lon="7.35129">
        <ele>1107.1</ele>
        <time>2013-08-28T06:52:24Z</time>
      </trkpt>
      <trkpt lat="43.20397" lon="7.35192">
        <ele>1111.9</ele>
        <time>2013-08-28T06:52:28Z</time>
      </trkpt>
      <trkpt lat="43.2038" lon="7.35413">
        <ele>1125.84</ele>
        <time>2013-08-28T06:52:42Z</time>
      </trkpt>
      <trkpt lat="43.20337" lon="7.35641">
        <ele>1139.3</ele>
        <time>2013-08-28T06:52:57Z</time>
      </trkpt>
      <trkpt lat="43.20248" lon="7.3588">
        <ele>1152.28</ele>
        <time>2013-08-28T06:53:14Z</time>
      </trkpt>
      <trkpt lat="43.20181" lon="7.36013">
        <ele>1151.8</ele>
        <time>2013-08-28T06:53:24Z</time>
      </trkpt>
      <trkpt lat="43.20151" lon="7.36152">
        <ele>1156.12</ele>
        <time>2013-08-28T06:53:33Z</time>
      </trkpt>
      <trkpt lat="43.20124" lon="7.36358">
        <ele>1164.29</ele>
        <time>2013-08-28T06:53:46Z</time>
      </trkpt>
      <trkpt lat="43.20131" lon="7.36421">
        <ele>1166.22</ele>
        <time>2013-08-28T06:53:50Z</time>
      </trkpt>
      <trkpt lat="43.20136" lon="7.36469">
        <ele>1168.62</ele>
        <time>2013-08-28T06:53:53Z</time>
      </trkpt>
      <trkpt lat="43.20142" lon="7.36516">
        <ele>1171.02</ele>
        <time>2013-08-28T06:53:56Z</time>
      </trkpt>
      <trkpt lat="43.20133" lon="7.36592">
        <ele>1173.43</ele>
        <time>2013-08-28T06:54:01Z</time>
      </trkpt>
      <trkpt lat="43.20089" lon="7.3675">
        <ele>1168.14</ele>
        <time>2013-08-28T06:54:12Z</time>
      </trkpt>
      <trkpt lat="43.20057" lon="7.3695">
        <ele>1147.47</ele>
        <time>2013-08-28T06:54:25Z</time>
      </trkpt>
      <trkpt lat="43.2002" lon="7.37145">
        <ele>1126.32</ele>
        <time>2013-08-28T06:54:38Z</time>
      </trkpt>
      <trkpt lat="43.20004" lon="7.37349">
        <ele>1103.25</ele>
        <time>2013-08-28T06:54:51Z</time>
      </trkpt>
      <trkpt lat="43.20026" lon="7.37569">
        <ele>1076.81</ele>
        <time>2013-08-28T06:55:05Z</time>
      </trkpt>
      <trkpt lat="43.20076" lon="7.37816">
        <ele>1046.53</ele>
        <time>2013-08-28T06:55:22Z</time>
      </trkpt>
      <trkpt lat="43.20126" lon="7.38022">
        <ele>1020.58</ele>
        <time>2013-08-28T06:55:37Z</time>
      </trkpt>
      <trkpt lat="43.20159" lon="7.38143">
        <ele>1009.04</ele>
        <time>2013-08-28T06:55:46Z</time>
      </trkpt>
      <trkpt lat="43.20158" lon="7.38199">
        <ele>1001.35</ele>
        <time>2013-08-28T06:55:50Z</time>
      </trkpt>
      <trkpt lat="43.20115" lon="7.3845">
        <ele>971.55</ele>
        <time>2013-08-28T06:56:08Z</time>
      </trkpt>
      <trkpt lat="43.20097" lon="7.38704">
        <ele>943.19</ele>
        <time>2013-08-28T06:56:26Z</time>
      </trkpt>
      <trkpt lat="43.201" lon="7.39005">
        <ele>901.85</ele>
        <time>2013-08-28T06:56:47Z</time>
      </trkpt>
      <trkpt lat="43.20131" lon="7.39331">
        <ele>853.79</ele>
        <time>2013-08-28T06:57:09Z</time>
      </trkpt>
      <trkpt lat="43.20137" lon="7.3936">
        <ele>849.46</ele>
        <time>2013-08-28T06:57:11Z</time>
      </trkpt>
      <trkpt lat="43.20126" lon="7.3943">
        <ele>837.93</ele>
        <time>2013-08-28T06:57:16Z</time>
      </trkpt>
      <trkpt lat="43.20041" lon="7.39616">
        <ele>806.68</ele>
        <time>2013-08-28T06:57:31Z</time>
      </trkpt>
      <trkpt lat="43.19957" lon="7.39823">
        <ele>776.88</ele>
        <time>2013-08-28T06:57:47Z</time>
      </trkpt>
      <trkpt lat="43.19894" lon="7.40017">
        <ele>752.85</ele>
        <time>2013-08-28T06:58:02Z</time>
      </trkpt>
      <trkpt lat="43.19846" lon="7.40215">
        <ele>730.74</ele>
        <time>2013-08-28T06:58:17Z</time>
      </trkpt>
      <trkpt lat="43.19829" lon="7.40352">
        <ele>711.03</ele>
        <time>2013-08-28T06:58:27Z</time>
      </trkpt>
      <trkpt lat="43.19825" lon="7.4051">
        <ele>691.33</ele>
        <time>2013-08-28T06:58:38Z</time>
      </trkpt>
      <trkpt lat="43.19823" lon="7.40708">
        <ele>667.29</ele>
        <time>2013-08-28T06:58:52Z</time>
      </trkpt>
      <trkpt lat="43.19801" lon="7.40872">
        <ele>645.66</ele>
        <time>2013-08-28T06:59:04Z</time>
      </trkpt>
      <trkpt lat="43.19797" lon="7.41025">
        <ele>623.55</ele>
        <time>2013-08-28T06:59:15Z</time>
      </trkpt>
      <trkpt lat="43.19813" lon="7.41163">
        <ele>605.77</ele>
        <time>2013-08-28T06:59:25Z</time>
      </trkpt>
      <trkpt lat="43.19822" lon="7.412">
        <ele>600.96</ele>
        <time>2013-08-28T06:59:28Z</time>
      </trkpt>
      <trkpt lat="43.19833" lon="7.41235">
        <ele>596.15</ele>
        <time>2013-08-28T06:59:31Z</time>
      </trkpt>
      <trkpt lat="43.19832" lon="7.41299">
        <ele>586.54</ele>
        <time>2013-08-28T06:59:36Z</time>
      </trkpt>
      <trkpt lat="43.19815" lon="7.41406">
        <ele>571.16</ele>
        <time>2013-08-28T06:59:44Z</time>
      </trkpt>
      <trkpt lat="43.1978" lon="7.4155">
        <ele>562.51</ele>
        <time>2013-08-28T06:59:55Z</time>
      </trkpt>
      <trkpt lat="43.19734" lon="7.41737">
        <ele>569.72</ele>
        <time>2013-08-28T07:00:09Z</time>
      </trkpt>
      <trkpt lat="43.19709" lon="7.41851">
        <ele>582.7</ele>
        <time>2013-08-28T07:00:18Z</time>
      </trkpt>
      <trkpt lat="43.19704" lon="7.41876">
        <ele>585.58</ele>
        <time>2013-08-28T07:00:20Z</time>
      </trkpt>
      <trkpt lat="43.19653" lon="7.42018">
        <ele>594.23</ele>
        <time>2013-08-28T07:00:32Z</time>
      </trkpt>
      <trkpt lat="43.19586" lon="7.42176">
        <ele>599.52</ele>
        <time>2013-08-28T07:00:45Z</time>
      </trkpt>
      <trkpt lat="43.19525" lon="7.42356">
        <ele>603.85</ele>
        <time>2013-08-28T07:00:59Z</time>
      </trkpt>
      <trkpt lat="43.19518" lon="7.42381">
        <ele>604.33</ele>
        <time>2013-08-28T07:01:01Z</time>
      </trkpt>
      <trkpt lat="43.19464" lon="7.42501">
        <ele>605.77</ele>
        <time>2013-08-28T07:01:11Z</time>
      </trkpt>
      <trkpt lat="43.19418" lon="7.42668">
        <ele>607.69</ele>
        <time>2013-08-28T07:01:24Z</time>
      </trkpt>
      <trkpt lat="43.19412" lon="7.42693">
        <ele>608.17</ele>
        <time>2013-08-28T07:01:26Z</time>
      </trkpt>
      <trkpt lat="43.19354" lon="7.42806">
        <ele>608.17</ele>
        <time>2013-08-28T07:01:36Z</time>
      </trkpt>
      <trkpt lat="43.19286" lon="7.42943">
        <ele>605.77</ele>
        <time>2013-08-28T07:01:48Z</time>
      </trkpt>
      <trkpt lat="43.19224" lon="7.43096">
        <ele>603.36</ele>
        <time>2013-08-28T07:02:01Z</time>
      </trkpt>
      <trkpt lat="43.19185" lon="7.43228">
        <ele>601.44</ele>
        <time>2013-08-28T07:02:12Z</time>
      </trkpt>
      <trkpt lat="43.19131" lon="7.43376">
        <ele>599.52</ele>
        <time>2013-08-28T07:02:25Z</time>
      </trkpt>
      <trkpt lat="43.19088" lon="7.43491">
        <ele>597.12</ele>
        <time>2013-08-28T07:02:35Z</time>
      </trkpt>
      <trkpt lat="43.19078" lon="7.43543">
        <ele>594.71</ele>
        <time>2013-08-28T07:02:39Z</time>
      </trkpt>
      <trkpt lat="43.19029" lon="7.43693">
        <ele>600.48</ele>
        <time>2013-08-28T07:02:51Z</time>
      </trkpt>
      <trkpt lat="43.19012" lon="7.43728">
        <ele>601.92</ele>
        <time>2013-08-28T07:02:54Z</time>
      </trkpt>
      <trkpt lat="43.18954" lon="7.43858">
        <ele>606.25</ele>
        <time>2013-08-28T07:03:05Z</time>
      </trkpt>
      <trkpt lat="43.18897" lon="7.43961">
        <ele>610.57</ele>
        <time>2013-08-28T07:03:14Z</time>
      </trkpt>
      <trkpt lat="43.1882" lon="7.4408">
        <ele>617.78</ele>
        <time>2013-08-28T07:03:25Z</time>
      </trkpt>
      <trkpt lat="43.18722" lon="7.44199">
        <ele>626.44</ele>
        <time>2013-08-28T07:03:37Z</time>
      </trkpt>
      <trkpt lat="43.18611" lon="7.44282">
        <ele>636.53</ele>
        <time>2013-08-28T07:03:48Z</time>
      </trkpt>
      <trkpt lat="43.18472" lon="7.44366">
        <ele>647.59</ele>
        <time>2013-08-28T07:04:01Z</time>
      </trkpt>
      <trkpt lat="43.18405" lon="7.44398">
        <ele>651.91</ele>
        <time>2013-08-28T07:04:07Z</time>
      </trkpt>
      <trkpt lat="43.18361" lon="7.44457">
        <ele>655.76</ele>
        <time>2013-08-28T07:04:13Z</time>
      </trkpt>
      <trkpt lat="43.18324" lon="7.44613">
        <ele>661.52</ele>
        <time>2013-08-28T07:04:25Z</time>
      </trkpt>
      <trkpt lat="43.18295" lon="7.44759">
        <ele>666.33</ele>
        <time>2013-08-28T07:04:36Z</time>
      </trkpt>
      <trkpt lat="43.18288" lon="7.44895">
        <ele>670.66</ele>
        <time>2013-08-28T07:04:46Z</time>
      </trkpt>
      <trkpt lat="43.18289" lon="7.44936">
        <ele>673.54</ele>
        <time>2013-08-28T07:04:49Z</time>
      </trkpt>
      <trkpt lat="43.18289" lon="7.44977">
        <ele>675.94</ele>
        <time>2013-08-28T07:04:52Z</time>
      </trkpt>
      <trkpt lat="43.18299" lon="7.45099">
        <ele>681.23</ele>
        <time>2013-08-28T07:05:01Z</time>
      </trkpt>
      <trkpt lat="43.18292" lon="7.4514">
        <ele>680.27</ele>
        <time>2013-08-28T07:05:04Z</time>
      </trkpt>
      <trkpt lat="43.18295" lon="7.45212">
        <ele>681.23</ele>
        <time>2013-08-28T07:05:09Z</time>
      </trkpt>
      <trkpt lat="43.18281" lon="7.45292">
        <ele>681.23</ele>
        <time>2013-08-28T07:05:15Z</time>
      </trkpt>
      <trkpt lat="43.18264" lon="7.45312">
        <ele>682.19</ele>
        <time>2013-08-28T07:05:17Z</time>
      </trkpt>
      <trkpt lat="43.18168" lon="7.45431">
        <ele>674.98</ele>
        <time>2013-08-28T07:05:29Z</time>
      </trkpt>
      <trkpt lat="43.18082" lon="7.4556">
        <ele>642.78</ele>
        <time>2013-08-28T07:05:41Z</time>
      </trkpt>
      <trkpt lat="43.18036" lon="7.45619">
        <ele>626.44</ele>
        <time>2013-08-28T07:05:47Z</time>
      </trkpt>
      <trkpt lat="43.18017" lon="7.45667">
        <ele>614.9</ele>
        <time>2013-08-28T07:05:51Z</time>
      </trkpt>
      <trkpt lat="43.17983" lon="7.45717">
        <ele>602.88</ele>
        <time>2013-08-28T07:05:56Z</time>
      </trkpt>
      <trkpt lat="43.1796" lon="7.45761">
        <ele>591.83</ele>
        <time>2013-08-28T07:06:00Z</time>
      </trkpt>
      <trkpt lat="43.17953" lon="7.45786">
        <ele>587.02</ele>
        <time>2013-08-28T07:06:02Z</time>
      </trkpt>
      <trkpt lat="43.17926" lon="7.45825">
        <ele>576.93</ele>
        <time>2013-08-28T07:06:06Z</time>
      </trkpt>
      <trkpt lat="43.17909" lon="7.45843">
        <ele>572.12</ele>
        <time>2013-08-28T07:06:08Z</time>
      </trkpt>
      <trkpt lat="43.17889" lon="7.45888">
        <ele>562.99</ele>
        <time>2013-08-28T07:06:12Z</time>
      </trkpt>
      <trkpt lat="43.17851" lon="7.46016">
        <ele>538.48</ele>
        <time>2013-08-28T07:06:23Z</time>
      </trkpt>
      <trkpt lat="43.178" lon="7.46175">
        <ele>507.23</ele>
        <time>2013-08-28T07:06:36Z</time>
      </trkpt>
      <trkpt lat="43.17772" lon="7.46319">
        <ele>479.84</ele>
        <time>2013-08-28T07:06:47Z</time>
      </trkpt>
      <trkpt lat="43.17769" lon="7.46332">
        <ele>477.43</ele>
        <time>2013-08-28T07:06:48Z</time>
      </trkpt>
      <trkpt lat="43.17767" lon="7.46424">
        <ele>463.49</ele>
        <time>2013-08-28T07:06:55Z</time>
      </trkpt>
      <trkpt lat="43.17764" lon="7.4649">
        <ele>452.92</ele>
        <time>2013-08-28T07:07:00Z</time>
      </trkpt>
      <trkpt lat="43.17767" lon="7.46576">
        <ele>437.54</ele>
        <time>2013-08-28T07:07:07Z</time>
      </trkpt>
      <trkpt lat="43.17785" lon="7.46618">
        <ele>428.89</ele>
        <time>2013-08-28T07:07:11Z</time>
      </trkpt>
      <trkpt lat="43.17797" lon="7.46671">
        <ele>418.79</ele>
        <time>2013-08-28T07:07:16Z</time>
      </trkpt>
      <trkpt lat="43.17817" lon="7.46813">
        <ele>396.68</ele>
        <time>2013-08-28T07:07:28Z</time>
      </trkpt>
      <trkpt lat="43.17851" lon="7.46886">
        <ele>383.22</ele>
        <time>2013-08-28T07:07:35Z</time>
      </trkpt>
      <trkpt lat="43.17875" lon="7.46918">
        <ele>377.94</ele>
        <time>2013-08-28T07:07:39Z</time>
      </trkpt>
      <trkpt lat="43.17924" lon="7.4698">
        <ele>366.88</ele>
        <time>2013-08-28T07:07:47Z</time>
      </trkpt>
      <trkpt lat="43.18019" lon="7.47023">
        <ele>356.31</ele>
        <time>2013-08-28T07:07:58Z</time>
      </trkpt>
      <trkpt lat="43.18047" lon="7.47025">
        <ele>354.86</ele>
        <time>2013-08-28T07:08:01Z</time>
      </trkpt>
      <trkpt lat="43.18065" lon="7.47065">
        <ele>348.62</ele>
        <time>2013-08-28T07:08:06Z</time>
      </trkpt>
      <trkpt lat="43.18052" lon="7.4709">
        <ele>345.73</ele>
        <time>2013-08-28T07:08:08Z</time>
      </trkpt>
      <trkpt lat="43.18035" lon="7.4711">
        <ele>343.81</ele>
        <time>2013-08-28T07:08:10Z</time>
      </trkpt>
      <trkpt lat="43.17977" lon="7.47235">
        <ele>325.06</ele>
        <time>2013-08-28T07:08:20Z</time>
      </trkpt>
      <trkpt lat="43.17946" lon="7.47282">
        <ele>316.89</ele>
        <time>2013-08-28T07:08:24Z</time>
      </trkpt>
      <trkpt lat="43.17914" lon="7.47309">
        <ele>315.45</ele>
        <time>2013-08-28T07:08:27Z</time>
      </trkpt>
      <trkpt lat="43.17849" lon="7.47383">
        <ele>315.45</ele>
        <time>2013-08-28T07:08:34Z</time>
      </trkpt>
      <trkpt lat="43.178" lon="7.47403">
        <ele>315.45</ele>
        <time>2013-08-28T07:08:38Z</time>
      </trkpt>
      <trkpt lat="43.17736" lon="7.47448">
        <ele>317.37</ele>
        <time>2013-08-28T07:08:44Z</time>
      </trkpt>
      <trkpt lat="43.17669" lon="7.476">
        <ele>324.1</ele>
        <time>2013-08-28T07:08:57Z</time>
      </trkpt>
      <trkpt lat="43.17643" lon="7.47724">
        <ele>328.91</ele>
        <time>2013-08-28T07:09:07Z</time>
      </trkpt>
      <trkpt lat="43.17607" lon="7.47805">
        <ele>333.23</ele>
        <time>2013-08-28T07:09:14Z</time>
      </trkpt>
      <trkpt lat="43.17566" lon="7.47882">
        <ele>337.56</ele>
        <time>2013-08-28T07:09:21Z</time>
      </trkpt>
      <trkpt lat="43.17446" lon="7.47981">
        <ele>351.5</ele>
        <time>2013-08-28T07:09:33Z</time>
      </trkpt>
      <trkpt lat="43.17383" lon="7.48025">
        <ele>359.67</ele>
        <time>2013-08-28T07:09:39Z</time>
      </trkpt>
      <trkpt lat="43.17311" lon="7.48067">
        <ele>370.24</ele>
        <time>2013-08-28T07:09:46Z</time>
      </trkpt>
      <trkpt lat="43.17182" lon="7.48117">
        <ele>381.78</ele>
        <time>2013-08-28T07:09:57Z</time>
      </trkpt>
      <trkpt lat="43.17074" lon="7.48154">
        <ele>388.99</ele>
        <time>2013-08-28T07:10:06Z</time>
      </trkpt>
      <trkpt lat="43.16954" lon="7.48188">
        <ele>397.16</ele>
        <time>2013-08-28T07:10:16Z</time>
      </trkpt>
      <trkpt lat="43.16847" lon="7.4821">
        <ele>404.85</ele>
        <time>2013-08-28T07:10:25Z</time>
      </trkpt>
      <trkpt lat="43.16669" lon="7.48204">
        <ele>420.23</ele>
        <time>2013-08-28T07:10:39Z</time>
      </trkpt>
      <trkpt lat="43.16631" lon="7.48199">
        <ele>422.64</ele>
        <time>2013-08-28T07:10:42Z</time>
      </trkpt>
      <trkpt lat="43.16564" lon="7.48226">
        <ele>427.92</ele>
        <time>2013-08-28T07:10:48Z</time>
      </trkpt>
      <trkpt lat="43.16445" lon="7.48362">
        <ele>444.27</ele>
        <time>2013-08-28T07:11:03Z</time>
      </trkpt>
      <trkpt lat="43.16376" lon="7.4847">
        <ele>454.84</ele>
        <time>2013-08-28T07:11:14Z</time>
      </trkpt>
      <trkpt lat="43.163" lon="7.4857">
        <ele>465.42</ele>
        <time>2013-08-28T07:11:25Z</time>
      </trkpt>
      <trkpt lat="43.1619" lon="7.48722">
        <ele>472.14</ele>
        <time>2013-08-28T07:11:40Z</time>
      </trkpt>
      <trkpt lat="43.16132" lon="7.48833">
        <ele>481.76</ele>
        <time>2013-08-28T07:11:50Z</time>
      </trkpt>
      <trkpt lat="43.1608" lon="7.48931">
        <ele>491.37</ele>
        <time>2013-08-28T07:11:59Z</time>
      </trkpt>
      <trkpt lat="43.16065" lon="7.48968">
        <ele>494.26</ele>
        <time>2013-08-28T07:12:02Z</time>
      </trkpt>
      <trkpt lat="43.16008" lon="7.49028">
        <ele>501.95</ele>
        <time>2013-08-28T07:12:09Z</time>
      </trkpt>
      <trkpt lat="43.16001" lon="7.49036">
        <ele>502.91</ele>
        <time>2013-08-28T07:12:10Z</time>
      </trkpt>
      <trkpt lat="43.15985" lon="7.49078">
        <ele>506.75</ele>
        <time>2013-08-28T07:12:14Z</time>
      </trkpt>
      <trkpt lat="43.15937" lon="7.4926">
        <ele>517.33</ele>
        <time>2013-08-28T07:12:30Z</time>
      </trkpt>
      <trkpt lat="43.15884" lon="7.49426">
        <ele>521.17</ele>
        <time>2013-08-28T07:12:45Z</time>
      </trkpt>
      <trkpt lat="43.15858" lon="7.49538">
        <ele>518.77</ele>
        <time>2013-08-28T07:12:55Z</time>
      </trkpt>
      <trkpt lat="43.1586" lon="7.49606">
        <ele>517.81</ele>
        <time>2013-08-28T07:13:01Z</time>
      </trkpt>
      <trkpt lat="43.15864" lon="7.49627">
        <ele>517.81</ele>
        <time>2013-08-28T07:13:03Z</time>
      </trkpt>
      <trkpt lat="43.15857" lon="7.49681">
        <ele>518.77</ele>
        <time>2013-08-28T07:13:08Z</time>
      </trkpt>
      <trkpt lat="43.15814" lon="7.49812">
        <ele>516.85</ele>
        <time>2013-08-28T07:13:20Z</time>
      </trkpt>
      <trkpt lat="43.15796" lon="7.49891">
        <ele>515.4</ele>
        <time>2013-08-28T07:13:27Z</time>
      </trkpt>
      <trkpt lat="43.1578" lon="7.49933">
        <ele>515.4</ele>
        <time>2013-08-28T07:13:31Z</time>
      </trkpt>
      <trkpt lat="43.15702" lon="7.50073">
        <ele>517.33</ele>
        <time>2013-08-28T07:13:45Z</time>
      </trkpt>
      <trkpt lat="43.15684" lon="7.501">
        <ele>518.29</ele>
        <time>2013-08-28T07:13:48Z</time>
      </trkpt>
      <trkpt lat="43.15658" lon="7.50148">
        <ele>519.25</ele>
        <time>2013-08-28T07:13:53Z</time>
      </trkpt>
      <trkpt lat="43.15575" lon="7.50277">
        <ele>518.29</ele>
        <time>2013-08-28T07:14:07Z</time>
      </trkpt>
      <trkpt lat="43.15493" lon="7.50399">
        <ele>516.85</ele>
        <time>2013-08-28T07:14:20Z</time>
      </trkpt>
      <trkpt lat="43.15413" lon="7.50533">
        <ele>521.65</ele>
        <time>2013-08-28T07:14:34Z</time>
      </trkpt>
      <trkpt lat="43.15334" lon="7.50653">
        <ele>518.77</ele>
        <time>2013-08-28T07:14:47Z</time>
      </trkpt>
      <trkpt lat="43.15265" lon="7.50758">
        <ele>520.21</ele>
        <time>2013-08-28T07:14:58Z</time>
      </trkpt>
      <trkpt lat="43.1519" lon="7.50854">
        <ele>520.69</ele>
        <time>2013-08-28T07:15:09Z</time>
      </trkpt>
      <trkpt lat="43.15166" lon="7.50892">
        <ele>519.73</ele>
        <time>2013-08-28T07:15:13Z</time>
      </trkpt>
      <trkpt lat="43.15074" lon="7.50994">
        <ele>524.06</ele>
        <time>2013-08-28T07:15:25Z</time>
      </trkpt>
      <trkpt lat="43.1499" lon="7.51105">
        <ele>532.71</ele>
        <time>2013-08-28T07:15:37Z</time>
      </trkpt>
      <trkpt lat="43.14894" lon="7.51219">
        <ele>534.63</ele>
        <time>2013-08-28T07:15:50Z</time>
      </trkpt>
      <trkpt lat="43.14827" lon="7.51347">
        <ele>534.15</ele>
        <time>2013-08-28T07:16:02Z</time>
      </trkpt>
      <trkpt lat="43.14751" lon="7.51485">
        <ele>536.55</ele>
        <time>2013-08-28T07:16:15Z</time>
      </trkpt>
      <trkpt lat="43.14708" lon="7.51558">
        <ele>537.03</ele>
        <time>2013-08-28T07:16:22Z</time>
      </trkpt>
      <trkpt lat="43.1465" lon="7.51695">
        <ele>540.4</ele>
        <time>2013-08-28T07:16:34Z</time>
      </trkpt>
      <trkpt lat="43.14601" lon="7.51828">
        <ele>543.28</ele>
        <time>2013-08-28T07:16:45Z</time>
      </trkpt>
      <trkpt lat="43.14581" lon="7.51954">
        <ele>543.76</ele>
        <time>2013-08-28T07:16:55Z</time>
      </trkpt>
      <trkpt lat="43.14583" lon="7.52092">
        <ele>545.69</ele>
        <time>2013-08-28T07:17:06Z</time>
      </trkpt>
      <trkpt lat="43.14587" lon="7.52153">
        <ele>545.2</ele>
        <time>2013-08-28T07:17:11Z</time>
      </trkpt>
      <trkpt lat="43.14583" lon="7.5219">
        <ele>546.65</ele>
        <time>2013-08-28T07:17:14Z</time>
      </trkpt>
      <trkpt lat="43.14582" lon="7.52227">
        <ele>545.69</ele>
        <time>2013-08-28T07:17:17Z</time>
      </trkpt>
      <trkpt lat="43.14574" lon="7.52281">
        <ele>545.2</ele>
        <time>2013-08-28T07:17:21Z</time>
      </trkpt>
      <trkpt lat="43.14571" lon="7.52306">
        <ele>545.69</ele>
        <time>2013-08-28T07:17:23Z</time>
      </trkpt>
      <trkpt lat="43.14561" lon="7.52344">
        <ele>546.17</ele>
        <time>2013-08-28T07:17:26Z</time>
      </trkpt>
      <trkpt lat="43.14552" lon="7.52383">
        <ele>547.13</ele>
        <time>2013-08-28T07:17:29Z</time>
      </trkpt>
      <trkpt lat="43.14541" lon="7.52416">
        <ele>548.57</ele>
        <time>2013-08-28T07:17:32Z</time>
      </trkpt>
      <trkpt lat="43.1453" lon="7.52451">
        <ele>547.61</ele>
        <time>2013-08-28T07:17:35Z</time>
      </trkpt>
      <trkpt lat="43.14498" lon="7.5253">
        <ele>547.13</ele>
        <time>2013-08-28T07:17:42Z</time>
      </trkpt>
      <trkpt lat="43.14435" lon="7.5265">
        <ele>540.4</ele>
        <time>2013-08-28T07:17:53Z</time>
      </trkpt>
      <trkpt lat="43.1441" lon="7.52695">
        <ele>539.44</ele>
        <time>2013-08-28T07:17:57Z</time>
      </trkpt>
      <trkpt lat="43.14397" lon="7.52731">
        <ele>538.96</ele>
        <time>2013-08-28T07:18:00Z</time>
      </trkpt>
      <trkpt lat="43.14371" lon="7.52772">
        <ele>538.48</ele>
        <time>2013-08-28T07:18:04Z</time>
      </trkpt>
      <trkpt lat="43.14241" lon="7.52899">
        <ele>535.11</ele>
        <time>2013-08-28T07:18:19Z</time>
      </trkpt>
      <trkpt lat="43.14235" lon="7.5291">
        <ele>535.59</ele>
        <time>2013-08-28T07:18:20Z</time>
      </trkpt>
      <trkpt lat="43.14155" lon="7.52992">
        <ele>536.07</ele>
        <time>2013-08-28T07:18:29Z</time>
      </trkpt>
      <trkpt lat="43.14057" lon="7.53076">
        <ele>533.19</ele>
        <time>2013-08-28T07:18:39Z</time>
      </trkpt>
      <trkpt lat="43.1396" lon="7.5315">
        <ele>522.61</ele>
        <time>2013-08-28T07:18:49Z</time>
      </trkpt>
      <trkpt lat="43.13932" lon="7.53184">
        <ele>521.65</ele>
        <time>2013-08-28T07:18:53Z</time>
      </trkpt>
      <trkpt lat="43.13843" lon="7.53313">
        <ele>518.29</ele>
        <time>2013-08-28T07:19:06Z</time>
      </trkpt>
      <trkpt lat="43.13771" lon="7.53425">
        <ele>512.52</ele>
        <time>2013-08-28T07:19:17Z</time>
      </trkpt>
      <trkpt lat="43.13682" lon="7.53562">
        <ele>512.52</ele>
        <time>2013-08-28T07:19:31Z</time>
      </trkpt>
      <trkpt lat="43.13611" lon="7.53685">
        <ele>516.85</ele>
        <time>2013-08-28T07:19:43Z</time>
      </trkpt>
      <trkpt lat="43.13545" lon="7.53777">
        <ele>522.61</ele>
        <time>2013-08-28T07:19:53Z</time>
      </trkpt>
      <trkpt lat="43.13508" lon="7.53821">
        <ele>525.02</ele>
        <time>2013-08-28T07:19:58Z</time>
      </trkpt>
      <trkpt lat="43.13475" lon="7.5388">
        <ele>528.38</ele>
        <time>2013-08-28T07:20:04Z</time>
      </trkpt>
      <trkpt lat="43.13396" lon="7.53973">
        <ele>536.07</ele>
        <time>2013-08-28T07:20:15Z</time>
      </trkpt>
      <trkpt lat="43.13284" lon="7.54112">
        <ele>545.2</ele>
        <time>2013-08-28T07:20:30Z</time>
      </trkpt>
      <trkpt lat="43.13186" lon="7.54262">
        <ele>548.57</ele>
        <time>2013-08-28T07:20:45Z</time>
      </trkpt>
      <trkpt lat="43.13123" lon="7.5441">
        <ele>552.9</ele>
        <time>2013-08-28T07:20:58Z</time>
      </trkpt>
      <trkpt lat="43.1308" lon="7.54554">
        <ele>563.95</ele>
        <time>2013-08-28T07:21:10Z</time>
      </trkpt>
      <trkpt lat="43.13073" lon="7.5468">
        <ele>569.24</ele>
        <time>2013-08-28T07:21:20Z</time>
      </trkpt>
      <trkpt lat="43.1308" lon="7.54741">
        <ele>570.2</ele>
        <time>2013-08-28T07:21:25Z</time>
      </trkpt>
      <trkpt lat="43.13106" lon="7.54819">
        <ele>571.16</ele>
        <time>2013-08-28T07:21:32Z</time>
      </trkpt>
      <trkpt lat="43.13175" lon="7.54922">
        <ele>571.64</ele>
        <time>2013-08-28T07:21:43Z</time>
      </trkpt>
      <trkpt lat="43.13171" lon="7.54977">
        <ele>574.04</ele>
        <time>2013-08-28T07:21:48Z</time>
      </trkpt>
      <trkpt lat="43.13163" lon="7.54987">
        <ele>574.53</ele>
        <time>2013-08-28T07:21:49Z</time>
      </trkpt>
      <trkpt lat="43.13096" lon="7.55083">
        <ele>579.81</ele>
        <time>2013-08-28T07:21:59Z</time>
      </trkpt>
      <trkpt lat="43.13016" lon="7.55235">
        <ele>583.18</ele>
        <time>2013-08-28T07:22:13Z</time>
      </trkpt>
      <trkpt lat="43.12983" lon="7.55353">
        <ele>584.14</ele>
        <time>2013-08-28T07:22:23Z</time>
      </trkpt>
      <trkpt lat="43.12971" lon="7.55482">
        <ele>588.95</ele>
        <time>2013-08-28T07:22:33Z</time>
      </trkpt>
      <trkpt lat="43.12989" lon="7.55583">
        <ele>596.15</ele>
        <time>2013-08-28T07:22:41Z</time>
      </trkpt>
      <trkpt lat="43.13027" lon="7.55654">
        <ele>600.48</ele>
        <time>2013-08-28T07:22:48Z</time>
      </trkpt>
      <trkpt lat="43.13067" lon="7.5571">
        <ele>601.92</ele>
        <time>2013-08-28T07:22:54Z</time>
      </trkpt>
      <trkpt lat="43.13061" lon="7.55771">
        <ele>601.92</ele>
        <time>2013-08-28T07:22:59Z</time>
      </trkpt>
      <trkpt lat="43.13045" lon="7.5579">
        <ele>603.36</ele>
        <time>2013-08-28T07:23:01Z</time>
      </trkpt>
      <trkpt lat="43.12963" lon="7.55881">
        <ele>604.81</ele>
        <time>2013-08-28T07:23:11Z</time>
      </trkpt>
      <trkpt lat="43.12941" lon="7.55927">
        <ele>600.48</ele>
        <time>2013-08-28T07:23:15Z</time>
      </trkpt>
      <trkpt lat="43.12911" lon="7.55983">
        <ele>593.27</ele>
        <time>2013-08-28T07:23:20Z</time>
      </trkpt>
      <trkpt lat="43.12893" lon="7.5603">
        <ele>587.02</ele>
        <time>2013-08-28T07:23:24Z</time>
      </trkpt>
      <trkpt lat="43.12892" lon="7.56115">
        <ele>574.04</ele>
        <time>2013-08-28T07:23:31Z</time>
      </trkpt>
      <trkpt lat="43.12874" lon="7.56182">
        <ele>562.51</ele>
        <time>2013-08-28T07:23:37Z</time>
      </trkpt>
      <trkpt lat="43.12791" lon="7.56324">
        <ele>532.71</ele>
        <time>2013-08-28T07:23:51Z</time>
      </trkpt>
      <trkpt lat="43.12713" lon="7.56474">
        <ele>508.19</ele>
        <time>2013-08-28T07:24:05Z</time>
      </trkpt>
      <trkpt lat="43.12706" lon="7.56497">
        <ele>504.83</ele>
        <time>2013-08-28T07:24:07Z</time>
      </trkpt>
      <trkpt lat="43.12702" lon="7.56547">
        <ele>498.58</ele>
        <time>2013-08-28T07:24:11Z</time>
      </trkpt>
      <trkpt lat="43.12707" lon="7.5661">
        <ele>490.89</ele>
        <time>2013-08-28T07:24:16Z</time>
      </trkpt>
      <trkpt lat="43.12718" lon="7.56657">
        <ele>484.64</ele>
        <time>2013-08-28T07:24:20Z</time>
      </trkpt>
      <trkpt lat="43.12708" lon="7.56729">
        <ele>474.07</ele>
        <time>2013-08-28T07:24:26Z</time>
      </trkpt>
      <trkpt lat="43.12703" lon="7.56768">
        <ele>468.3</ele>
        <time>2013-08-28T07:24:29Z</time>
      </trkpt>
      <trkpt lat="43.12703" lon="7.56806">
        <ele>463.97</ele>
        <time>2013-08-28T07:24:32Z</time>
      </trkpt>
      <trkpt lat="43.12716" lon="7.56878">
        <ele>457.24</ele>
        <time>2013-08-28T07:24:38Z</time>
      </trkpt>
      <trkpt lat="43.12745" lon="7.56937">
        <ele>457.24</ele>
        <time>2013-08-28T07:24:44Z</time>
      </trkpt>
      <trkpt lat="43.12758" lon="7.56953">
        <ele>458.21</ele>
        <time>2013-08-28T07:24:46Z</time>
      </trkpt>
      <trkpt lat="43.12764" lon="7.57021">
        <ele>460.13</ele>
        <time>2013-08-28T07:24:52Z</time>
      </trkpt>
      <trkpt lat="43.12748" lon="7.57068">
        <ele>463.49</ele>
        <time>2013-08-28T07:24:56Z</time>
      </trkpt>
      <trkpt lat="43.12735" lon="7.57123">
        <ele>465.42</ele>
        <time>2013-08-28T07:25:01Z</time>
      </trkpt>
      <trkpt lat="43.12669" lon="7.5723">
        <ele>467.34</ele>
        <time>2013-08-28T07:25:12Z</time>
      </trkpt>
      <trkpt lat="43.12611" lon="7.57373">
        <ele>467.34</ele>
        <time>2013-08-28T07:25:25Z</time>
      </trkpt>
      <trkpt lat="43.12542" lon="7.57514">
        <ele>473.59</ele>
        <time>2013-08-28T07:25:39Z</time>
      </trkpt>
      <trkpt lat="43.12473" lon="7.57629">
        <ele>480.32</ele>
        <time>2013-08-28T07:25:51Z</time>
      </trkpt>
      <trkpt lat="43.12417" lon="7.57748">
        <ele>487.53</ele>
        <time>2013-08-28T07:26:03Z</time>
      </trkpt>
      <trkpt lat="43.12369" lon="7.57868">
        <ele>501.95</ele>
        <time>2013-08-28T07:26:15Z</time>
      </trkpt>
      <trkpt lat="43.1232" lon="7.57982">
        <ele>514.92</ele>
        <time>2013-08-28T07:26:26Z</time>
      </trkpt>
      <trkpt lat="43.12249" lon="7.58124">
        <ele>530.3</ele>
        <time>2013-08-28T07:26:40Z</time>
      </trkpt>
      <trkpt lat="43.12245" lon="7.58135">
        <ele>531.27</ele>
        <time>2013-08-28T07:26:41Z</time>
      </trkpt>
      <trkpt lat="43.1223" lon="7.58203">
        <ele>535.11</ele>
        <time>2013-08-28T07:26:47Z</time>
      </trkpt>
      <trkpt lat="43.12233" lon="7.5836">
        <ele>548.57</ele>
        <time>2013-08-28T07:27:01Z</time>
      </trkpt>
      <trkpt lat="43.12223" lon="7.58472">
        <ele>562.51</ele>
        <time>2013-08-28T07:27:10Z</time>
      </trkpt>
      <trkpt lat="43.12211" lon="7.58544">
        <ele>575.97</ele>
        <time>2013-08-28T07:27:16Z</time>
      </trkpt>
      <trkpt lat="43.12177" lon="7.58636">
        <ele>594.23</ele>
        <time>2013-08-28T07:27:24Z</time>
      </trkpt>
      <trkpt lat="43.12171" lon="7.58647">
        <ele>596.15</ele>
        <time>2013-08-28T07:27:25Z</time>
      </trkpt>
      <trkpt lat="43.12149" lon="7.58691">
        <ele>604.81</ele>
        <time>2013-08-28T07:27:29Z</time>
      </trkpt>
      <trkpt lat="43.12107" lon="7.58747">
        <ele>614.42</ele>
        <time>2013-08-28T07:27:35Z</time>
      </trkpt>
      <trkpt lat="43.12082" lon="7.5877">
        <ele>616.34</ele>
        <time>2013-08-28T07:27:38Z</time>
      </trkpt>
      <trkpt lat="43.12067" lon="7.58828">
        <ele>612.02</ele>
        <time>2013-08-28T07:27:43Z</time>
      </trkpt>
      <trkpt lat="43.12086" lon="7.58853">
        <ele>605.77</ele>
        <time>2013-08-28T07:27:46Z</time>
      </trkpt>
      <trkpt lat="43.12161" lon="7.58946">
        <ele>577.41</ele>
        <time>2013-08-28T07:27:58Z</time>
      </trkpt>
      <trkpt lat="43.12211" lon="7.58974">
        <ele>566.35</ele>
        <time>2013-08-28T07:28:04Z</time>
      </trkpt>
      <trkpt lat="43.12333" lon="7.58979">
        <ele>553.38</ele>
        <time>2013-08-28T07:28:16Z</time>
      </trkpt>
      <trkpt lat="43.1237" lon="7.59003">
        <ele>548.09</ele>
        <time>2013-08-28T07:28:21Z</time>
      </trkpt>
      <trkpt lat="43.12359" lon="7.5904">
        <ele>544.72</ele>
        <time>2013-08-28T07:28:24Z</time>
      </trkpt>
      <trkpt lat="43.12319" lon="7.59095">
        <ele>536.55</ele>
        <time>2013-08-28T07:28:30Z</time>
      </trkpt>
      <trkpt lat="43.12271" lon="7.59204">
        <ele>529.34</ele>
        <time>2013-08-28T07:28:40Z</time>
      </trkpt>
      <trkpt lat="43.12266" lon="7.59215">
        <ele>528.86</ele>
        <time>2013-08-28T07:28:41Z</time>
      </trkpt>
      <trkpt lat="43.12262" lon="7.59262">
        <ele>525.5</ele>
        <time>2013-08-28T07:28:45Z</time>
      </trkpt>
      <trkpt lat="43.12236" lon="7.59331">
        <ele>519.25</ele>
        <time>2013-08-28T07:28:51Z</time>
      </trkpt>
      <trkpt lat="43.12213" lon="7.59408">
        <ele>511.56</ele>
        <time>2013-08-28T07:28:58Z</time>
      </trkpt>
      <trkpt lat="43.1223" lon="7.59469">
        <ele>507.71</ele>
        <time>2013-08-28T07:29:04Z</time>
      </trkpt>
      <trkpt lat="43.12214" lon="7.59525">
        <ele>502.91</ele>
        <time>2013-08-28T07:29:09Z</time>
      </trkpt>
      <trkpt lat="43.12217" lon="7.59535">
        <ele>501.46</ele>
        <time>2013-08-28T07:29:10Z</time>
      </trkpt>
      <trkpt lat="43.12228" lon="7.59569">
        <ele>499.06</ele>
        <time>2013-08-28T07:29:13Z</time>
      </trkpt>
      <trkpt lat="43.12225" lon="7.59615">
        <ele>497.14</ele>
        <time>2013-08-28T07:29:17Z</time>
      </trkpt>
      <trkpt lat="43.12214" lon="7.59651">
        <ele>496.18</ele>
        <time>2013-08-28T07:29:20Z</time>
      </trkpt>
      <trkpt lat="43.12187" lon="7.59772">
        <ele>499.54</ele>
        <time>2013-08-28T07:29:30Z</time>
      </trkpt>
      <trkpt lat="43.12125" lon="7.59958">
        <ele>521.65</ele>
        <time>2013-08-28T07:29:46Z</time>
      </trkpt>
      <trkpt lat="43.12079" lon="7.60111">
        <ele>541.84</ele>
        <time>2013-08-28T07:29:59Z</time>
      </trkpt>
      <trkpt lat="43.1206" lon="7.60205">
        <ele>550.97</ele>
        <time>2013-08-28T07:30:07Z</time>
      </trkpt>
      <trkpt lat="43.1206" lon="7.60252">
        <ele>549.53</ele>
        <time>2013-08-28T07:30:11Z</time>
      </trkpt>
      <trkpt lat="43.12048" lon="7.60339">
        <ele>540.88</ele>
        <time>2013-08-28T07:30:18Z</time>
      </trkpt>
      <trkpt lat="43.1205" lon="7.60391">
        <ele>535.59</ele>
        <time>2013-08-28T07:30:22Z</time>
      </trkpt>
      <trkpt lat="43.1202" lon="7.60435">
        <ele>526.94</ele>
        <time>2013-08-28T07:30:26Z</time>
      </trkpt>
      <trkpt lat="43.12023" lon="7.60486">
        <ele>518.77</ele>
        <time>2013-08-28T07:30:30Z</time>
      </trkpt>
      <trkpt lat="43.11999" lon="7.60531">
        <ele>511.56</ele>
        <time>2013-08-28T07:30:34Z</time>
      </trkpt>
      <trkpt lat="43.11989" lon="7.6058">
        <ele>502.91</ele>
        <time>2013-08-28T07:30:38Z</time>
      </trkpt>
      <trkpt lat="43.11977" lon="7.60612">
        <ele>497.62</ele>
        <time>2013-08-28T07:30:41Z</time>
      </trkpt>
      <trkpt lat="43.11964" lon="7.60632">
        <ele>494.26</ele>
        <time>2013-08-28T07:30:43Z</time>
      </trkpt>
      <trkpt lat="43.11942" lon="7.60701">
        <ele>484.16</ele>
        <time>2013-08-28T07:30:50Z</time>
      </trkpt>
      <trkpt lat="43.11943" lon="7.60753">
        <ele>480.8</ele>
        <time>2013-08-28T07:30:55Z</time>
      </trkpt>
      <trkpt lat="43.11969" lon="7.6081">
        <ele>471.66</ele>
        <time>2013-08-28T07:31:00Z</time>
      </trkpt>
      <trkpt lat="43.12009" lon="7.60844">
        <ele>460.61</ele>
        <time>2013-08-28T07:31:04Z</time>
      </trkpt>
      <trkpt lat="43.12058" lon="7.60871">
        <ele>440.9</ele>
        <time>2013-08-28T07:31:09Z</time>
      </trkpt>
      <trkpt lat="43.12127" lon="7.60912">
        <ele>423.12</ele>
        <time>2013-08-28T07:31:14Z</time>
      </trkpt>
      <trkpt lat="43.12174" lon="7.60935">
        <ele>418.31</ele>
        <time>2013-08-28T07:31:19Z</time>
      </trkpt>
      <trkpt lat="43.12216" lon="7.60935">
        <ele>425.04</ele>
        <time>2013-08-28T07:31:24Z</time>
      </trkpt>
      <trkpt lat="43.12256" lon="7.60976">
        <ele>426.96</ele>
        <time>2013-08-28T07:31:31Z</time>
      </trkpt>
      <trkpt lat="43.12281" lon="7.61044">
        <ele>429.37</ele>
        <time>2013-08-28T07:31:39Z</time>
      </trkpt>
      <trkpt lat="43.12287" lon="7.61073">
        <ele>428.89</ele>
        <time>2013-08-28T07:31:42Z</time>
      </trkpt>
      <trkpt lat="43.12301" lon="7.61114">
        <ele>426</ele>
        <time>2013-08-28T07:31:46Z</time>
      </trkpt>
      <trkpt lat="43.12296" lon="7.61168">
        <ele>429.37</ele>
        <time>2013-08-28T07:31:52Z</time>
      </trkpt>
      <trkpt lat="43.12287" lon="7.61176">
        <ele>428.89</ele>
        <time>2013-08-28T07:31:53Z</time>
      </trkpt>
      <trkpt lat="43.1227" lon="7.61189">
        <ele>429.37</ele>
        <time>2013-08-28T07:31:55Z</time>
      </trkpt>
      <trkpt lat="43.12212" lon="7.61286">
        <ele>430.33</ele>
        <time>2013-08-28T07:32:05Z</time>
      </trkpt>
      <trkpt lat="43.12177" lon="7.61379">
        <ele>431.77</ele>
        <time>2013-08-28T07:32:14Z</time>
      </trkpt>
      <trkpt lat="43.12168" lon="7.6143">
        <ele>432.73</ele>
        <time>2013-08-28T07:32:19Z</time>
      </trkpt>
      <trkpt lat="43.1217" lon="7.61472">
        <ele>435.13</ele>
        <time>2013-08-28T07:32:23Z</time>
      </trkpt>
      <trkpt lat="43.12164" lon="7.61517">
        <ele>439.46</ele>
        <time>2013-08-28T07:32:27Z</time>
      </trkpt>
      <trkpt lat="43.12166" lon="7.61563">
        <ele>443.31</ele>
        <time>2013-08-28T07:32:31Z</time>
      </trkpt>
      <trkpt lat="43.12164" lon="7.61625">
        <ele>453.88</ele>
        <time>2013-08-28T07:32:37Z</time>
      </trkpt>
      <trkpt lat="43.12152" lon="7.61645">
        <ele>456.28</ele>
        <time>2013-08-28T07:32:39Z</time>
      </trkpt>
      <trkpt lat="43.12145" lon="7.61727">
        <ele>470.7</ele>
        <time>2013-08-28T07:32:46Z</time>
      </trkpt>
      <trkpt lat="43.12138" lon="7.61764">
        <ele>477.43</ele>
        <time>2013-08-28T07:32:49Z</time>
      </trkpt>
      <trkpt lat="43.12113" lon="7.61819">
        <ele>487.53</ele>
        <time>2013-08-28T07:32:54Z</time>
      </trkpt>
      <trkpt lat="43.12095" lon="7.61863">
        <ele>494.74</ele>
        <time>2013-08-28T07:32:58Z</time>
      </trkpt>
      <trkpt lat="43.12089" lon="7.61897">
        <ele>499.54</ele>
        <time>2013-08-28T07:33:01Z</time>
      </trkpt>
      <trkpt lat="43.12049" lon="7.61939">
        <ele>507.23</ele>
        <time>2013-08-28T07:33:06Z</time>
      </trkpt>
      <trkpt lat="43.12022" lon="7.61937">
        <ele>512.52</ele>
        <time>2013-08-28T07:33:08Z</time>
      </trkpt>
      <trkpt lat="43.11968" lon="7.61961">
        <ele>524.54</ele>
        <time>2013-08-28T07:33:14Z</time>
      </trkpt>
      <trkpt lat="43.11984" lon="7.62014">
        <ele>528.38</ele>
        <time>2013-08-28T07:33:18Z</time>
      </trkpt>
      <trkpt lat="43.12026" lon="7.62004">
        <ele>531.27</ele>
        <time>2013-08-28T07:33:22Z</time>
      </trkpt>
      <trkpt lat="43.12062" lon="7.62002">
        <ele>539.92</ele>
        <time>2013-08-28T07:33:26Z</time>
      </trkpt>
      <trkpt lat="43.12111" lon="7.62019">
        <ele>536.07</ele>
        <time>2013-08-28T07:33:32Z</time>
      </trkpt>
      <trkpt lat="43.12135" lon="7.62055">
        <ele>534.15</ele>
        <time>2013-08-28T07:33:37Z</time>
      </trkpt>
      <trkpt lat="43.12123" lon="7.62085">
        <ele>531.75</ele>
        <time>2013-08-28T07:33:40Z</time>
      </trkpt>
      <trkpt lat="43.12113" lon="7.62155">
        <ele>521.17</ele>
        <time>2013-08-28T07:33:47Z</time>
      </trkpt>
      <trkpt lat="43.12133" lon="7.62172">
        <ele>518.77</ele>
        <time>2013-08-28T07:33:49Z</time>
      </trkpt>
      <trkpt lat="43.12166" lon="7.62196">
        <ele>518.29</ele>
        <time>2013-08-28T07:33:54Z</time>
      </trkpt>
      <trkpt lat="43.1217" lon="7.62259">
        <ele>515.4</ele>
        <time>2013-08-28T07:34:00Z</time>
      </trkpt>
      <trkpt lat="43.12141" lon="7.62304">
        <ele>519.25</ele>
        <time>2013-08-28T07:34:05Z</time>
      </trkpt>
      <trkpt lat="43.12142" lon="7.62317">
        <ele>519.73</ele>
        <time>2013-08-28T07:34:06Z</time>
      </trkpt>
      <trkpt lat="43.12145" lon="7.62341">
        <ele>521.65</ele>
        <time>2013-08-28T07:34:08Z</time>
      </trkpt>
      <trkpt lat="43.1214" lon="7.62385">
        <ele>525.5</ele>
        <time>2013-08-28T07:34:12Z</time>
      </trkpt>
      <trkpt lat="43.12151" lon="7.62459">
        <ele>524.54</ele>
        <time>2013-08-28T07:34:19Z</time>
      </trkpt>
      <trkpt lat="43.12124" lon="7.62489">
        <ele>520.69</ele>
        <time>2013-08-28T07:34:23Z</time>
      </trkpt>
      <trkpt lat="43.12057" lon="7.6255">
        <ele>521.65</ele>
        <time>2013-08-28T07:34:31Z</time>
      </trkpt>
      <trkpt lat="43.12045" lon="7.62569">
        <ele>522.13</ele>
        <time>2013-08-28T07:34:33Z</time>
      </trkpt>
      <trkpt lat="43.12047" lon="7.62623">
        <ele>521.17</ele>
        <time>2013-08-28T07:34:38Z</time>
      </trkpt>
      <trkpt lat="43.12075" lon="7.62665">
        <ele>523.09</ele>
        <time>2013-08-28T07:34:43Z</time>
      </trkpt>
      <trkpt lat="43.12059" lon="7.627">
        <ele>520.69</ele>
        <time>2013-08-28T07:34:46Z</time>
      </trkpt>
      <trkpt lat="43.12044" lon="7.62719">
        <ele>520.69</ele>
        <time>2013-08-28T07:34:48Z</time>
      </trkpt>
      <trkpt lat="43.12009" lon="7.62834">
        <ele>518.77</ele>
        <time>2013-08-28T07:34:57Z</time>
      </trkpt>
      <trkpt lat="43.11996" lon="7.62874">
        <ele>517.81</ele>
        <time>2013-08-28T07:35:00Z</time>
      </trkpt>
      <trkpt lat="43.12001" lon="7.6292">
        <ele>517.81</ele>
        <time>2013-08-28T07:35:04Z</time>
      </trkpt>
      <trkpt lat="43.12003" lon="7.62983">
        <ele>516.37</ele>
        <time>2013-08-28T07:35:10Z</time>
      </trkpt>
      <trkpt lat="43.11991" lon="7.63012">
        <ele>516.85</ele>
        <time>2013-08-28T07:35:13Z</time>
      </trkpt>
      <trkpt lat="43.11963" lon="7.63068">
        <ele>521.17</ele>
        <time>2013-08-28T07:35:19Z</time>
      </trkpt>
      <trkpt lat="43.11935" lon="7.63097">
        <ele>525.98</ele>
        <time>2013-08-28T07:35:24Z</time>
      </trkpt>
      <trkpt lat="43.11951" lon="7.63129">
        <ele>525.98</ele>
        <time>2013-08-28T07:35:27Z</time>
      </trkpt>
      <trkpt lat="43.11966" lon="7.63198">
        <ele>529.34</ele>
        <time>2013-08-28T07:35:34Z</time>
      </trkpt>
      <trkpt lat="43.11973" lon="7.63262">
        <ele>530.3</ele>
        <time>2013-08-28T07:35:39Z</time>
      </trkpt>
      <trkpt lat="43.11967" lon="7.63285">
        <ele>531.27</ele>
        <time>2013-08-28T07:35:41Z</time>
      </trkpt>
      <trkpt lat="43.11947" lon="7.63401">
        <ele>529.82</ele>
        <time>2013-08-28T07:35:50Z</time>
      </trkpt>
      <trkpt lat="43.11937" lon="7.63471">
        <ele>528.38</ele>
        <time>2013-08-28T07:35:56Z</time>
      </trkpt>
      <trkpt lat="43.11917" lon="7.63503">
        <ele>527.42</ele>
        <time>2013-08-28T07:35:59Z</time>
      </trkpt>
      <trkpt lat="43.11856" lon="7.63606">
        <ele>529.34</ele>
        <time>2013-08-28T07:36:09Z</time>
      </trkpt>
      <trkpt lat="43.1176" lon="7.6374">
        <ele>530.79</ele>
        <time>2013-08-28T07:36:22Z</time>
      </trkpt>
      <trkpt lat="43.11635" lon="7.63895">
        <ele>541.84</ele>
        <time>2013-08-28T07:36:38Z</time>
      </trkpt>
      <trkpt lat="43.11599" lon="7.63931">
        <ele>547.61</ele>
        <time>2013-08-28T07:36:42Z</time>
      </trkpt>
      <trkpt lat="43.11578" lon="7.63979">
        <ele>553.38</ele>
        <time>2013-08-28T07:36:46Z</time>
      </trkpt>
      <trkpt lat="43.11559" lon="7.64038">
        <ele>560.59</ele>
        <time>2013-08-28T07:36:51Z</time>
      </trkpt>
      <trkpt lat="43.11486" lon="7.64171">
        <ele>577.41</ele>
        <time>2013-08-28T07:37:03Z</time>
      </trkpt>
      <trkpt lat="43.11404" lon="7.64322">
        <ele>594.71</ele>
        <time>2013-08-28T07:37:17Z</time>
      </trkpt>
      <trkpt lat="43.1139" lon="7.64342">
        <ele>595.19</ele>
        <time>2013-08-28T07:37:19Z</time>
      </trkpt>
      <trkpt lat="43.1133" lon="7.64469">
        <ele>591.83</ele>
        <time>2013-08-28T07:37:30Z</time>
      </trkpt>
      <trkpt lat="43.11307" lon="7.64516">
        <ele>589.43</ele>
        <time>2013-08-28T07:37:34Z</time>
      </trkpt>
      <trkpt lat="43.11296" lon="7.64568">
        <ele>587.5</ele>
        <time>2013-08-28T07:37:38Z</time>
      </trkpt>
      <trkpt lat="43.1125" lon="7.64678">
        <ele>580.77</ele>
        <time>2013-08-28T07:37:47Z</time>
      </trkpt>
      <trkpt lat="43.11175" lon="7.64834">
        <ele>576.93</ele>
        <time>2013-08-28T07:38:00Z</time>
      </trkpt>
      <trkpt lat="43.11116" lon="7.64995">
        <ele>563.47</ele>
        <time>2013-08-28T07:38:12Z</time>
      </trkpt>
      <trkpt lat="43.11098" lon="7.65101">
        <ele>552.41</ele>
        <time>2013-08-28T07:38:19Z</time>
      </trkpt>
      <trkpt lat="43.11097" lon="7.65239">
        <ele>540.88</ele>
        <time>2013-08-28T07:38:28Z</time>
      </trkpt>
      <trkpt lat="43.11081" lon="7.65294">
        <ele>534.15</ele>
        <time>2013-08-28T07:38:32Z</time>
      </trkpt>
      <trkpt lat="43.11061" lon="7.65318">
        <ele>529.34</ele>
        <time>2013-08-28T07:38:34Z</time>
      </trkpt>
      <trkpt lat="43.11009" lon="7.6542">
        <ele>511.08</ele>
        <time>2013-08-28T07:38:41Z</time>
      </trkpt>
      <trkpt lat="43.10982" lon="7.65504">
        <ele>496.18</ele>
        <time>2013-08-28T07:38:46Z</time>
      </trkpt>
      <trkpt lat="43.10986" lon="7.65573">
        <ele>489.45</ele>
        <time>2013-08-28T07:38:50Z</time>
      </trkpt>
      <trkpt lat="43.10986" lon="7.65627">
        <ele>489.45</ele>
        <time>2013-08-28T07:38:54Z</time>
      </trkpt>
      <trkpt lat="43.10998" lon="7.65709">
        <ele>482.24</ele>
        <time>2013-08-28T07:38:59Z</time>
      </trkpt>
      <trkpt lat="43.11006" lon="7.65786">
        <ele>475.51</ele>
        <time>2013-08-28T07:39:04Z</time>
      </trkpt>
      <trkpt lat="43.10987" lon="7.65842">
        <ele>470.22</ele>
        <time>2013-08-28T07:39:08Z</time>
      </trkpt>
      <trkpt lat="43.10904" lon="7.65974">
        <ele>452.44</ele>
        <time>2013-08-28T07:39:18Z</time>
      </trkpt>
      <trkpt lat="43.10858" lon="7.6609">
        <ele>438.02</ele>
        <time>2013-08-28T07:39:25Z</time>
      </trkpt>
      <trkpt lat="43.10822" lon="7.66144">
        <ele>431.29</ele>
        <time>2013-08-28T07:39:29Z</time>
      </trkpt>
      <trkpt lat="43.10768" lon="7.66203">
        <ele>424.56</ele>
        <time>2013-08-28T07:39:34Z</time>
      </trkpt>
      <trkpt lat="43.10697" lon="7.66314">
        <ele>405.33</ele>
        <time>2013-08-28T07:39:43Z</time>
      </trkpt>
      <trkpt lat="43.10688" lon="7.66325">
        <ele>404.37</ele>
        <time>2013-08-28T07:39:44Z</time>
      </trkpt>
      <trkpt lat="43.1058" lon="7.66445">
        <ele>382.74</ele>
        <time>2013-08-28T07:39:55Z</time>
      </trkpt>
      <trkpt lat="43.10501" lon="7.66548">
        <ele>374.57</ele>
        <time>2013-08-28T07:40:04Z</time>
      </trkpt>
      <trkpt lat="43.10474" lon="7.66583">
        <ele>372.65</ele>
        <time>2013-08-28T07:40:07Z</time>
      </trkpt>
      <trkpt lat="43.10428" lon="7.66705">
        <ele>369.76</ele>
        <time>2013-08-28T07:40:14Z</time>
      </trkpt>
      <trkpt lat="43.10417" lon="7.66736">
        <ele>370.73</ele>
        <time>2013-08-28T07:40:16Z</time>
      </trkpt>
      <trkpt lat="43.10314" lon="7.66896">
        <ele>360.15</ele>
        <time>2013-08-28T07:40:28Z</time>
      </trkpt>
      <trkpt lat="43.10237" lon="7.67003">
        <ele>356.31</ele>
        <time>2013-08-28T07:40:37Z</time>
      </trkpt>
      <trkpt lat="43.10145" lon="7.67101">
        <ele>353.42</ele>
        <time>2013-08-28T07:40:47Z</time>
      </trkpt>
      <trkpt lat="43.1003" lon="7.6724">
        <ele>351.02</ele>
        <time>2013-08-28T07:40:59Z</time>
      </trkpt>
      <trkpt lat="43.09895" lon="7.6737">
        <ele>351.5</ele>
        <time>2013-08-28T07:41:12Z</time>
      </trkpt>
      <trkpt lat="43.0978" lon="7.67458">
        <ele>354.38</ele>
        <time>2013-08-28T07:41:23Z</time>
      </trkpt>
      <trkpt lat="43.09749" lon="7.67476">
        <ele>357.75</ele>
        <time>2013-08-28T07:41:26Z</time>
      </trkpt>
      <trkpt lat="43.09697" lon="7.67483">
        <ele>355.83</ele>
        <time>2013-08-28T07:41:31Z</time>
      </trkpt>
      <trkpt lat="43.09672" lon="7.67479">
        <ele>354.38</ele>
        <time>2013-08-28T07:41:33Z</time>
      </trkpt>
      <trkpt lat="43.09612" lon="7.67455">
        <ele>355.34</ele>
        <time>2013-08-28T07:41:39Z</time>
      </trkpt>
      <trkpt lat="43.09565" lon="7.67475">
        <ele>351.5</ele>
        <time>2013-08-28T07:41:43Z</time>
      </trkpt>
      <trkpt lat="43.09545" lon="7.67498">
        <ele>352.46</ele>
        <time>2013-08-28T07:41:45Z</time>
      </trkpt>
      <trkpt lat="43.09513" lon="7.67561">
        <ele>352.46</ele>
        <time>2013-08-28T07:41:49Z</time>
      </trkpt>
      <trkpt lat="43.09455" lon="7.67651">
        <ele>349.58</ele>
        <time>2013-08-28T07:41:55Z</time>
      </trkpt>
      <trkpt lat="43.09382" lon="7.67802">
        <ele>351.5</ele>
        <time>2013-08-28T07:42:04Z</time>
      </trkpt>
      <trkpt lat="43.09362" lon="7.67852">
        <ele>355.34</ele>
        <time>2013-08-28T07:42:07Z</time>
      </trkpt>
      <trkpt lat="43.09317" lon="7.67949">
        <ele>360.63</ele>
        <time>2013-08-28T07:42:13Z</time>
      </trkpt>
      <trkpt lat="43.09259" lon="7.6805">
        <ele>371.21</ele>
        <time>2013-08-28T07:42:20Z</time>
      </trkpt>
      <trkpt lat="43.09203" lon="7.68123">
        <ele>380.34</ele>
        <time>2013-08-28T07:42:26Z</time>
      </trkpt>
      <trkpt lat="43.09131" lon="7.68196">
        <ele>388.03</ele>
        <time>2013-08-28T07:42:33Z</time>
      </trkpt>
      <trkpt lat="43.09014" lon="7.68295">
        <ele>395.24</ele>
        <time>2013-08-28T07:42:44Z</time>
      </trkpt>
      <trkpt lat="43.08935" lon="7.68349">
        <ele>398.12</ele>
        <time>2013-08-28T07:42:51Z</time>
      </trkpt>
      <trkpt lat="43.08855" lon="7.68378">
        <ele>401.01</ele>
        <time>2013-08-28T07:42:58Z</time>
      </trkpt>
      <trkpt lat="43.08791" lon="7.68381">
        <ele>404.85</ele>
        <time>2013-08-28T07:43:04Z</time>
      </trkpt>
      <trkpt lat="43.087" lon="7.68351">
        <ele>402.45</ele>
        <time>2013-08-28T07:43:13Z</time>
      </trkpt>
      <trkpt lat="43.08623" lon="7.68372">
        <ele>404.37</ele>
        <time>2013-08-28T07:43:20Z</time>
      </trkpt>
      <trkpt lat="43.08512" lon="7.68426">
        <ele>405.81</ele>
        <time>2013-08-28T07:43:30Z</time>
      </trkpt>
      <trkpt lat="43.08477" lon="7.68436">
        <ele>407.74</ele>
        <time>2013-08-28T07:43:33Z</time>
      </trkpt>
      <trkpt lat="43.08432" lon="7.68436">
        <ele>411.1</ele>
        <time>2013-08-28T07:43:37Z</time>
      </trkpt>
      <trkpt lat="43.0841" lon="7.68437">
        <ele>413.98</ele>
        <time>2013-08-28T07:43:39Z</time>
      </trkpt>
      <trkpt lat="43.08324" lon="7.68433">
        <ele>422.16</ele>
        <time>2013-08-28T07:43:47Z</time>
      </trkpt>
      <trkpt lat="43.08281" lon="7.68429">
        <ele>426.48</ele>
        <time>2013-08-28T07:43:51Z</time>
      </trkpt>
      <trkpt lat="43.08238" lon="7.68419">
        <ele>428.89</ele>
        <time>2013-08-28T07:43:55Z</time>
      </trkpt>
      <trkpt lat="43.08206" lon="7.68412">
        <ele>430.33</ele>
        <time>2013-08-28T07:43:58Z</time>
      </trkpt>
      <trkpt lat="43.08176" lon="7.68397">
        <ele>431.77</ele>
        <time>2013-08-28T07:44:01Z</time>
      </trkpt>
      <trkpt lat="43.08145" lon="7.68385">
        <ele>434.17</ele>
        <time>2013-08-28T07:44:04Z</time>
      </trkpt>
      <trkpt lat="43.08116" lon="7.68367">
        <ele>438.02</ele>
        <time>2013-08-28T07:44:07Z</time>
      </trkpt>
      <trkpt lat="43.08068" lon="7.68338">
        <ele>441.86</ele>
        <time>2013-08-28T07:44:12Z</time>
      </trkpt>
      <trkpt lat="43.0801" lon="7.68285">
        <ele>448.11</ele>
        <time>2013-08-28T07:44:19Z</time>
      </trkpt>
      <trkpt lat="43.07987" lon="7.68258">
        <ele>449.55</ele>
        <time>2013-08-28T07:44:22Z</time>
      </trkpt>
      <trkpt lat="43.07961" lon="7.68215">
        <ele>452.44</ele>
        <time>2013-08-28T07:44:26Z</time>
      </trkpt>
      <trkpt lat="43.07943" lon="7.68183">
        <ele>455.32</ele>
        <time>2013-08-28T07:44:29Z</time>
      </trkpt>
      <trkpt lat="43.07907" lon="7.68098">
        <ele>461.57</ele>
        <time>2013-08-28T07:44:36Z</time>
      </trkpt>
      <trkpt lat="43.07863" lon="7.68095">
        <ele>464.45</ele>
        <time>2013-08-28T07:44:40Z</time>
      </trkpt>
      <trkpt lat="43.07836" lon="7.68127">
        <ele>465.42</ele>
        <time>2013-08-28T07:44:43Z</time>
      </trkpt>
      <trkpt lat="43.07762" lon="7.68311">
        <ele>473.11</ele>
        <time>2013-08-28T07:44:55Z</time>
      </trkpt>
      <trkpt lat="43.07739" lon="7.68394">
        <ele>475.99</ele>
        <time>2013-08-28T07:45:00Z</time>
      </trkpt>
      <trkpt lat="43.07731" lon="7.68447">
        <ele>478.87</ele>
        <time>2013-08-28T07:45:03Z</time>
      </trkpt>
      <trkpt lat="43.07702" lon="7.68546">
        <ele>484.16</ele>
        <time>2013-08-28T07:45:09Z</time>
      </trkpt>
      <trkpt lat="43.07658" lon="7.68657">
        <ele>491.37</ele>
        <time>2013-08-28T07:45:16Z</time>
      </trkpt>
      <trkpt lat="43.07614" lon="7.68741">
        <ele>500.5</ele>
        <time>2013-08-28T07:45:22Z</time>
      </trkpt>
      <trkpt lat="43.07502" lon="7.68878">
        <ele>514.92</ele>
        <time>2013-08-28T07:45:34Z</time>
      </trkpt>
      <trkpt lat="43.07405" lon="7.6894">
        <ele>524.54</ele>
        <time>2013-08-28T07:45:43Z</time>
      </trkpt>
      <trkpt lat="43.07294" lon="7.68976">
        <ele>536.55</ele>
        <time>2013-08-28T07:45:53Z</time>
      </trkpt>
      <trkpt lat="43.07181" lon="7.68984">
        <ele>547.61</ele>
        <time>2013-08-28T07:46:03Z</time>
      </trkpt>
      <trkpt lat="43.07147" lon="7.68985">
        <ele>550.49</ele>
        <time>2013-08-28T07:46:06Z</time>
      </trkpt>
      <trkpt lat="43.07081" lon="7.68966">
        <ele>555.3</ele>
        <time>2013-08-28T07:46:12Z</time>
      </trkpt>
      <trkpt lat="43.07017" lon="7.68936">
        <ele>558.66</ele>
        <time>2013-08-28T07:46:18Z</time>
      </trkpt>
      <trkpt lat="43.06995" lon="7.68929">
        <ele>560.59</ele>
        <time>2013-08-28T07:46:20Z</time>
      </trkpt>
      <trkpt lat="43.06952" lon="7.68943">
        <ele>562.51</ele>
        <time>2013-08-28T07:46:24Z</time>
      </trkpt>
      <trkpt lat="43.06923" lon="7.68968">
        <ele>566.35</ele>
        <time>2013-08-28T07:46:27Z</time>
      </trkpt>
      <trkpt lat="43.0689" lon="7.69011">
        <ele>570.68</ele>
        <time>2013-08-28T07:46:31Z</time>
      </trkpt>
      <trkpt lat="43.06866" lon="7.69113">
        <ele>575.49</ele>
        <time>2013-08-28T07:46:38Z</time>
      </trkpt>
      <trkpt lat="43.06884" lon="7.69203">
        <ele>579.33</ele>
        <time>2013-08-28T07:46:44Z</time>
      </trkpt>
      <trkpt lat="43.06965" lon="7.69362">
        <ele>588.95</ele>
        <time>2013-08-28T07:46:56Z</time>
      </trkpt>
      <trkpt lat="43.06971" lon="7.69375">
        <ele>589.91</ele>
        <time>2013-08-28T07:46:57Z</time>
      </trkpt>
      <trkpt lat="43.06974" lon="7.69467">
        <ele>592.79</ele>
        <time>2013-08-28T07:47:03Z</time>
      </trkpt>
      <trkpt lat="43.06957" lon="7.69507">
        <ele>594.23</ele>
        <time>2013-08-28T07:47:06Z</time>
      </trkpt>
      <trkpt lat="43.0687" lon="7.69688">
        <ele>603.85</ele>
        <time>2013-08-28T07:47:20Z</time>
      </trkpt>
      <trkpt lat="43.06843" lon="7.69852">
        <ele>612.5</ele>
        <time>2013-08-28T07:47:31Z</time>
      </trkpt>
      <trkpt lat="43.0684" lon="7.69868">
        <ele>612.5</ele>
        <time>2013-08-28T07:47:32Z</time>
      </trkpt>
      <trkpt lat="43.06836" lon="7.69962">
        <ele>616.82</ele>
        <time>2013-08-28T07:47:38Z</time>
      </trkpt>
      <trkpt lat="43.06821" lon="7.70019">
        <ele>619.71</ele>
        <time>2013-08-28T07:47:42Z</time>
      </trkpt>
      <trkpt lat="43.06775" lon="7.70121">
        <ele>623.07</ele>
        <time>2013-08-28T07:47:50Z</time>
      </trkpt>
      <trkpt lat="43.06759" lon="7.70194">
        <ele>622.59</ele>
        <time>2013-08-28T07:47:55Z</time>
      </trkpt>
      <trkpt lat="43.06737" lon="7.70244">
        <ele>622.11</ele>
        <time>2013-08-28T07:47:59Z</time>
      </trkpt>
      <trkpt lat="43.06644" lon="7.70403">
        <ele>622.11</ele>
        <time>2013-08-28T07:48:13Z</time>
      </trkpt>
      <trkpt lat="43.06566" lon="7.70544">
        <ele>623.55</ele>
        <time>2013-08-28T07:48:25Z</time>
      </trkpt>
      <trkpt lat="43.06497" lon="7.70707">
        <ele>624.99</ele>
        <time>2013-08-28T07:48:38Z</time>
      </trkpt>
      <trkpt lat="43.06451" lon="7.708">
        <ele>626.44</ele>
        <time>2013-08-28T07:48:46Z</time>
      </trkpt>
      <trkpt lat="43.06436" lon="7.70856">
        <ele>625.47</ele>
        <time>2013-08-28T07:48:50Z</time>
      </trkpt>
      <trkpt lat="43.06413" lon="7.70919">
        <ele>625.47</ele>
        <time>2013-08-28T07:48:55Z</time>
      </trkpt>
      <trkpt lat="43.06316" lon="7.71073">
        <ele>624.03</ele>
        <time>2013-08-28T07:49:09Z</time>
      </trkpt>
      <trkpt lat="43.06224" lon="7.71212">
        <ele>620.67</ele>
        <time>2013-08-28T07:49:22Z</time>
      </trkpt>
      <trkpt lat="43.0621" lon="7.71234">
        <ele>620.67</ele>
        <time>2013-08-28T07:49:24Z</time>
      </trkpt>
      <trkpt lat="43.06157" lon="7.71304">
        <ele>618.75</ele>
        <time>2013-08-28T07:49:31Z</time>
      </trkpt>
      <trkpt lat="43.06115" lon="7.7142">
        <ele>615.86</ele>
        <time>2013-08-28T07:49:40Z</time>
      </trkpt>
      <trkpt lat="43.06028" lon="7.71618">
        <ele>607.21</ele>
        <time>2013-08-28T07:49:56Z</time>
      </trkpt>
      <trkpt lat="43.05987" lon="7.71689">
        <ele>604.33</ele>
        <time>2013-08-28T07:50:02Z</time>
      </trkpt>
      <trkpt lat="43.05923" lon="7.71822">
        <ele>611.54</ele>
        <time>2013-08-28T07:50:13Z</time>
      </trkpt>
      <trkpt lat="43.05845" lon="7.71938">
        <ele>615.86</ele>
        <time>2013-08-28T07:50:24Z</time>
      </trkpt>
      <trkpt lat="43.05799" lon="7.71993">
        <ele>619.23</ele>
        <time>2013-08-28T07:50:30Z</time>
      </trkpt>
      <trkpt lat="43.05775" lon="7.72057">
        <ele>618.75</ele>
        <time>2013-08-28T07:50:35Z</time>
      </trkpt>
      <trkpt lat="43.05725" lon="7.72172">
        <ele>622.11</ele>
        <time>2013-08-28T07:50:45Z</time>
      </trkpt>
      <trkpt lat="43.05667" lon="7.72349">
        <ele>620.19</ele>
        <time>2013-08-28T07:50:59Z</time>
      </trkpt>
      <trkpt lat="43.05594" lon="7.72543">
        <ele>612.98</ele>
        <time>2013-08-28T07:51:14Z</time>
      </trkpt>
      <trkpt lat="43.05516" lon="7.72679">
        <ele>609.61</ele>
        <time>2013-08-28T07:51:26Z</time>
      </trkpt>
      <trkpt lat="43.05448" lon="7.72849">
        <ele>603.36</ele>
        <time>2013-08-28T07:51:39Z</time>
      </trkpt>
      <trkpt lat="43.05441" lon="7.72897">
        <ele>601.92</ele>
        <time>2013-08-28T07:51:42Z</time>
      </trkpt>
      <trkpt lat="43.05421" lon="7.72949">
        <ele>600</ele>
        <time>2013-08-28T07:51:46Z</time>
      </trkpt>
      <trkpt lat="43.05337" lon="7.73109">
        <ele>595.19</ele>
        <time>2013-08-28T07:51:59Z</time>
      </trkpt>
      <trkpt lat="43.05263" lon="7.73275">
        <ele>592.79</ele>
        <time>2013-08-28T07:52:12Z</time>
      </trkpt>
      <trkpt lat="43.05199" lon="7.73432">
        <ele>593.27</ele>
        <time>2013-08-28T07:52:24Z</time>
      </trkpt>
      <trkpt lat="43.05132" lon="7.73598">
        <ele>591.83</ele>
        <time>2013-08-28T07:52:37Z</time>
      </trkpt>
      <trkpt lat="43.05048" lon="7.73744">
        <ele>587.98</ele>
        <time>2013-08-28T07:52:50Z</time>
      </trkpt>
      <trkpt lat="43.04944" lon="7.73906">
        <ele>583.18</ele>
        <time>2013-08-28T07:53:05Z</time>
      </trkpt>
      <trkpt lat="43.04851" lon="7.74011">
        <ele>580.77</ele>
        <time>2013-08-28T07:53:17Z</time>
      </trkpt>
      <trkpt lat="43.04784" lon="7.74079">
        <ele>577.41</ele>
        <time>2013-08-28T07:53:25Z</time>
      </trkpt>
      <trkpt lat="43.04734" lon="7.74176">
        <ele>575.01</ele>
        <time>2013-08-28T07:53:33Z</time>
      </trkpt>
      <trkpt lat="43.04644" lon="7.74299">
        <ele>575.01</ele>
        <time>2013-08-28T07:53:45Z</time>
      </trkpt>
      <trkpt lat="43.04534" lon="7.74452">
        <ele>575.97</ele>
        <time>2013-08-28T07:54:00Z</time>
      </trkpt>
      <trkpt lat="43.04465" lon="7.74533">
        <ele>575.01</ele>
        <time>2013-08-28T07:54:09Z</time>
      </trkpt>
      <trkpt lat="43.04405" lon="7.74586">
        <ele>574.53</ele>
        <time>2013-08-28T07:54:16Z</time>
      </trkpt>
      <trkpt lat="43.044" lon="7.74599">
        <ele>574.53</ele>
        <time>2013-08-28T07:54:17Z</time>
      </trkpt>
      <trkpt lat="43.04334" lon="7.74722">
        <ele>576.93</ele>
        <time>2013-08-28T07:54:28Z</time>
      </trkpt>
      <trkpt lat="43.04292" lon="7.74783">
        <ele>577.41</ele>
        <time>2013-08-28T07:54:34Z</time>
      </trkpt>
      <trkpt lat="43.04265" lon="7.74907">
        <ele>576.93</ele>
        <time>2013-08-28T07:54:43Z</time>
      </trkpt>
      <trkpt lat="43.04267" lon="7.74952">
        <ele>576.93</ele>
        <time>2013-08-28T07:54:46Z</time>
      </trkpt>
      <trkpt lat="43.04295" lon="7.75081">
        <ele>579.33</ele>
        <time>2013-08-28T07:54:55Z</time>
      </trkpt>
      <trkpt lat="43.04275" lon="7.75143">
        <ele>579.81</ele>
        <time>2013-08-28T07:55:00Z</time>
      </trkpt>
      <trkpt lat="43.04266" lon="7.75151">
        <ele>580.29</ele>
        <time>2013-08-28T07:55:01Z</time>
      </trkpt>
      <trkpt lat="43.0422" lon="7.75224">
        <ele>582.7</ele>
        <time>2013-08-28T07:55:08Z</time>
      </trkpt>
      <trkpt lat="43.04184" lon="7.75359">
        <ele>584.62</ele>
        <time>2013-08-28T07:55:18Z</time>
      </trkpt>
      <trkpt lat="43.04118" lon="7.75481">
        <ele>583.18</ele>
        <time>2013-08-28T07:55:29Z</time>
      </trkpt>
      <trkpt lat="43.04069" lon="7.75658">
        <ele>581.25</ele>
        <time>2013-08-28T07:55:42Z</time>
      </trkpt>
      <trkpt lat="43.04059" lon="7.75715">
        <ele>581.25</ele>
        <time>2013-08-28T07:55:46Z</time>
      </trkpt>
      <trkpt lat="43.04039" lon="7.75764">
        <ele>580.77</ele>
        <time>2013-08-28T07:55:50Z</time>
      </trkpt>
      <trkpt lat="43.0397" lon="7.75861">
        <ele>578.37</ele>
        <time>2013-08-28T07:56:00Z</time>
      </trkpt>
      <trkpt lat="43.03889" lon="7.75964">
        <ele>576.45</ele>
        <time>2013-08-28T07:56:11Z</time>
      </trkpt>
      <trkpt lat="43.03855" lon="7.76052">
        <ele>575.01</ele>
        <time>2013-08-28T07:56:18Z</time>
      </trkpt>
      <trkpt lat="43.03832" lon="7.76224">
        <ele>574.04</ele>
        <time>2013-08-28T07:56:30Z</time>
      </trkpt>
      <trkpt lat="43.03832" lon="7.764">
        <ele>573.08</ele>
        <time>2013-08-28T07:56:42Z</time>
      </trkpt>
      <trkpt lat="43.03822" lon="7.76575">
        <ele>578.85</ele>
        <time>2013-08-28T07:56:54Z</time>
      </trkpt>
      <trkpt lat="43.0377" lon="7.76731">
        <ele>589.91</ele>
        <time>2013-08-28T07:57:06Z</time>
      </trkpt>
      <trkpt lat="43.03684" lon="7.76853">
        <ele>601.92</ele>
        <time>2013-08-28T07:57:18Z</time>
      </trkpt>
      <trkpt lat="43.03566" lon="7.76937">
        <ele>614.42</ele>
        <time>2013-08-28T07:57:31Z</time>
      </trkpt>
      <trkpt lat="43.03432" lon="7.7696">
        <ele>627.88</ele>
        <time>2013-08-28T07:57:44Z</time>
      </trkpt>
      <trkpt lat="43.03391" lon="7.76965">
        <ele>629.8</ele>
        <time>2013-08-28T07:57:48Z</time>
      </trkpt>
      <trkpt lat="43.03351" lon="7.77005">
        <ele>634.61</ele>
        <time>2013-08-28T07:57:53Z</time>
      </trkpt>
      <trkpt lat="43.03269" lon="7.77195">
        <ele>649.51</ele>
        <time>2013-08-28T07:58:09Z</time>
      </trkpt>
      <trkpt lat="43.03182" lon="7.77366">
        <ele>651.91</ele>
        <time>2013-08-28T07:58:24Z</time>
      </trkpt>
      <trkpt lat="43.03084" lon="7.77541">
        <ele>652.39</ele>
        <time>2013-08-28T07:58:40Z</time>
      </trkpt>
      <trkpt lat="43.03006" lon="7.77677">
        <ele>656.72</ele>
        <time>2013-08-28T07:58:52Z</time>
      </trkpt>
      <trkpt lat="43.02991" lon="7.77715">
        <ele>658.64</ele>
        <time>2013-08-28T07:58:55Z</time>
      </trkpt>
      <trkpt lat="43.02949" lon="7.77776">
        <ele>662.01</ele>
        <time>2013-08-28T07:59:01Z</time>
      </trkpt>
      <trkpt lat="43.02896" lon="7.77898">
        <ele>667.77</ele>
        <time>2013-08-28T07:59:11Z</time>
      </trkpt>
      <trkpt lat="43.02803" lon="7.78067">
        <ele>674.02</ele>
        <time>2013-08-28T07:59:26Z</time>
      </trkpt>
      <trkpt lat="43.02687" lon="7.7826">
        <ele>681.71</ele>
        <time>2013-08-28T07:59:44Z</time>
      </trkpt>
      <trkpt lat="43.02582" lon="7.78374">
        <ele>687.96</ele>
        <time>2013-08-28T07:59:57Z</time>
      </trkpt>
      <trkpt lat="43.02545" lon="7.78395">
        <ele>688.44</ele>
        <time>2013-08-28T08:00:01Z</time>
      </trkpt>
      <trkpt lat="43.02508" lon="7.78441">
        <ele>689.88</ele>
        <time>2013-08-28T08:00:06Z</time>
      </trkpt>
      <trkpt lat="43.02455" lon="7.78612">
        <ele>694.69</ele>
        <time>2013-08-28T08:00:19Z</time>
      </trkpt>
      <trkpt lat="43.02386" lon="7.78787">
        <ele>699.02</ele>
        <time>2013-08-28T08:00:33Z</time>
      </trkpt>
      <trkpt lat="43.02278" lon="7.7896">
        <ele>702.38</ele>
        <time>2013-08-28T08:00:49Z</time>
      </trkpt>
      <trkpt lat="43.02197" lon="7.79127">
        <ele>702.86</ele>
        <time>2013-08-28T08:01:03Z</time>
      </trkpt>
      <trkpt lat="43.02081" lon="7.79422">
        <ele>705.75</ele>
        <time>2013-08-28T08:01:26Z</time>
      </trkpt>
      <trkpt lat="43.01957" lon="7.79703">
        <ele>705.75</ele>
        <time>2013-08-28T08:01:48Z</time>
      </trkpt>
      <trkpt lat="43.01864" lon="7.79853">
        <ele>705.26</ele>
        <time>2013-08-28T08:02:01Z</time>
      </trkpt>
      <trkpt lat="43.01733" lon="7.80017">
        <ele>706.71</ele>
        <time>2013-08-28T08:02:17Z</time>
      </trkpt>
      <trkpt lat="43.01664" lon="7.80173">
        <ele>705.26</ele>
        <time>2013-08-28T08:02:29Z</time>
      </trkpt>
      <trkpt lat="43.01563" lon="7.80446">
        <ele>707.67</ele>
        <time>2013-08-28T08:02:49Z</time>
      </trkpt>
      <trkpt lat="43.01455" lon="7.80717">
        <ele>705.75</ele>
        <time>2013-08-28T08:03:09Z</time>
      </trkpt>
      <trkpt lat="43.0137" lon="7.80861">
        <ele>708.63</ele>
        <time>2013-08-28T08:03:21Z</time>
      </trkpt>
      <trkpt lat="43.01258" lon="7.81023">
        <ele>706.71</ele>
        <time>2013-08-28T08:03:35Z</time>
      </trkpt>
      <trkpt lat="43.01162" lon="7.81141">
        <ele>708.15</ele>
        <time>2013-08-28T08:03:46Z</time>
      </trkpt>
      <trkpt lat="43.0112" lon="7.81265">
        <ele>713.44</ele>
        <time>2013-08-28T08:03:55Z</time>
      </trkpt>
      <trkpt lat="43.01016" lon="7.81538">
        <ele>723.53</ele>
        <time>2013-08-28T08:04:15Z</time>
      </trkpt>
      <trkpt lat="43.00917" lon="7.81748">
        <ele>731.22</ele>
        <time>2013-08-28T08:04:31Z</time>
      </trkpt>
      <trkpt lat="43.00783" lon="7.81963">
        <ele>736.03</ele>
        <time>2013-08-28T08:04:49Z</time>
      </trkpt>
      <trkpt lat="43.0068" lon="7.82102">
        <ele>737.47</ele>
        <time>2013-08-28T08:05:02Z</time>
      </trkpt>
      <trkpt lat="43.00578" lon="7.82225">
        <ele>736.99</ele>
        <time>2013-08-28T08:05:14Z</time>
      </trkpt>
      <trkpt lat="43.00543" lon="7.82263">
        <ele>739.39</ele>
        <time>2013-08-28T08:05:18Z</time>
      </trkpt>
      <trkpt lat="43.00493" lon="7.82379">
        <ele>743.72</ele>
        <time>2013-08-28T08:05:27Z</time>
      </trkpt>
      <trkpt lat="43.00405" lon="7.82605">
        <ele>751.41</ele>
        <time>2013-08-28T08:05:44Z</time>
      </trkpt>
      <trkpt lat="43.00303" lon="7.828">
        <ele>756.21</ele>
        <time>2013-08-28T08:06:00Z</time>
      </trkpt>
      <trkpt lat="43.00205" lon="7.82982">
        <ele>760.06</ele>
        <time>2013-08-28T08:06:15Z</time>
      </trkpt>
      <trkpt lat="43.00146" lon="7.83222">
        <ele>764.87</ele>
        <time>2013-08-28T08:06:32Z</time>
      </trkpt>
      <trkpt lat="43.00081" lon="7.83432">
        <ele>769.19</ele>
        <time>2013-08-28T08:06:47Z</time>
      </trkpt>
      <trkpt lat="42.99977" lon="7.83614">
        <ele>773.52</ele>
        <time>2013-08-28T08:07:02Z</time>
      </trkpt>
      <trkpt lat="42.99835" lon="7.83781">
        <ele>776.4</ele>
        <time>2013-08-28T08:07:18Z</time>
      </trkpt>
      <trkpt lat="42.99787" lon="7.83828">
        <ele>776.88</ele>
        <time>2013-08-28T08:07:23Z</time>
      </trkpt>
      <trkpt lat="42.99716" lon="7.83968">
        <ele>775.92</ele>
        <time>2013-08-28T08:07:34Z</time>
      </trkpt>
      <trkpt lat="42.99644" lon="7.84159">
        <ele>775.44</ele>
        <time>2013-08-28T08:07:48Z</time>
      </trkpt>
      <trkpt lat="42.99542" lon="7.84363">
        <ele>777.84</ele>
        <time>2013-08-28T08:08:04Z</time>
      </trkpt>
      <trkpt lat="42.99433" lon="7.84522">
        <ele>780.25</ele>
        <time>2013-08-28T08:08:18Z</time>
      </trkpt>
      <trkpt lat="42.99273" lon="7.847">
        <ele>785.05</ele>
        <time>2013-08-28T08:08:36Z</time>
      </trkpt>
      <trkpt lat="42.99085" lon="7.84861">
        <ele>789.38</ele>
        <time>2013-08-28T08:08:55Z</time>
      </trkpt>
      <trkpt lat="42.98873" lon="7.84976">
        <ele>793.22</ele>
        <time>2013-08-28T08:09:14Z</time>
      </trkpt>
      <trkpt lat="42.9882" lon="7.85038">
        <ele>794.19</ele>
        <time>2013-08-28T08:09:20Z</time>
      </trkpt>
      <trkpt lat="42.98766" lon="7.85225">
        <ele>794.67</ele>
        <time>2013-08-28T08:09:33Z</time>
      </trkpt>
      <trkpt lat="42.98717" lon="7.85383">
        <ele>794.19</ele>
        <time>2013-08-28T08:09:44Z</time>
      </trkpt>
      <trkpt lat="42.98641" lon="7.85538">
        <ele>797.55</ele>
        <time>2013-08-28T08:09:56Z</time>
      </trkpt>
      <trkpt lat="42.9853" lon="7.85697">
        <ele>803.32</ele>
        <time>2013-08-28T08:10:10Z</time>
      </trkpt>
      <trkpt lat="42.98379" lon="7.85842">
        <ele>810.53</ele>
        <time>2013-08-28T08:10:26Z</time>
      </trkpt>
      <trkpt lat="42.98216" lon="7.85939">
        <ele>815.82</ele>
        <time>2013-08-28T08:10:41Z</time>
      </trkpt>
      <trkpt lat="42.98038" lon="7.8599">
        <ele>825.43</ele>
        <time>2013-08-28T08:10:56Z</time>
      </trkpt>
      <trkpt lat="42.97852" lon="7.85996">
        <ele>837.93</ele>
        <time>2013-08-28T08:11:11Z</time>
      </trkpt>
      <trkpt lat="42.97796" lon="7.86051">
        <ele>841.29</ele>
        <time>2013-08-28T08:11:17Z</time>
      </trkpt>
      <trkpt lat="42.97723" lon="7.86212">
        <ele>849.94</ele>
        <time>2013-08-28T08:11:29Z</time>
      </trkpt>
      <trkpt lat="42.97598" lon="7.86385">
        <ele>858.11</ele>
        <time>2013-08-28T08:11:44Z</time>
      </trkpt>
      <trkpt lat="42.97435" lon="7.86524">
        <ele>862.92</ele>
        <time>2013-08-28T08:12:00Z</time>
      </trkpt>
      <trkpt lat="42.97414" lon="7.8654">
        <ele>863.4</ele>
        <time>2013-08-28T08:12:02Z</time>
      </trkpt>
      <trkpt lat="42.97386" lon="7.86623">
        <ele>864.84</ele>
        <time>2013-08-28T08:12:08Z</time>
      </trkpt>
      <trkpt lat="42.97423" lon="7.86678">
        <ele>866.29</ele>
        <time>2013-08-28T08:12:13Z</time>
      </trkpt>
      <trkpt lat="42.97445" lon="7.86689">
        <ele>866.77</ele>
        <time>2013-08-28T08:12:15Z</time>
      </trkpt>
      <trkpt lat="42.97552" lon="7.86773">
        <ele>871.09</ele>
        <time>2013-08-28T08:12:26Z</time>
      </trkpt>
      <trkpt lat="42.97649" lon="7.86875">
        <ele>874.94</ele>
        <time>2013-08-28T08:12:37Z</time>
      </trkpt>
      <trkpt lat="42.97733" lon="7.86997">
        <ele>878.78</ele>
        <time>2013-08-28T08:12:48Z</time>
      </trkpt>
      <trkpt lat="42.97731" lon="7.87088">
        <ele>880.22</ele>
        <time>2013-08-28T08:12:54Z</time>
      </trkpt>
      <trkpt lat="42.97726" lon="7.87102">
        <ele>880.71</ele>
        <time>2013-08-28T08:12:55Z</time>
      </trkpt>
      <trkpt lat="42.97657" lon="7.87249">
        <ele>884.55</ele>
        <time>2013-08-28T08:13:06Z</time>
      </trkpt>
      <trkpt lat="42.9757" lon="7.87379">
        <ele>887.43</ele>
        <time>2013-08-28T08:13:17Z</time>
      </trkpt>
      <trkpt lat="42.97467" lon="7.87488">
        <ele>890.32</ele>
        <time>2013-08-28T08:13:28Z</time>
      </trkpt>
      <trkpt lat="42.97322" lon="7.87596">
        <ele>893.68</ele>
        <time>2013-08-28T08:13:42Z</time>
      </trkpt>
      <trkpt lat="42.97147" lon="7.87673">
        <ele>893.2</ele>
        <time>2013-08-28T08:13:57Z</time>
      </trkpt>
      <trkpt lat="42.97039" lon="7.87701">
        <ele>892.24</ele>
        <time>2013-08-28T08:14:06Z</time>
      </trkpt>
      <trkpt lat="42.96965" lon="7.87774">
        <ele>891.28</ele>
        <time>2013-08-28T08:14:14Z</time>
      </trkpt>
      <trkpt lat="42.96958" lon="7.87786">
        <ele>891.28</ele>
        <time>2013-08-28T08:14:15Z</time>
      </trkpt>
      <trkpt lat="42.96881" lon="7.87985">
        <ele>890.8</ele>
        <time>2013-08-28T08:14:30Z</time>
      </trkpt>
      <trkpt lat="42.96822" lon="7.88224">
        <ele>891.76</ele>
        <time>2013-08-28T08:14:47Z</time>
      </trkpt>
      <trkpt lat="42.96753" lon="7.88457">
        <ele>894.16</ele>
        <time>2013-08-28T08:15:04Z</time>
      </trkpt>
      <trkpt lat="42.96633" lon="7.88727">
        <ele>894.64</ele>
        <time>2013-08-28T08:15:25Z</time>
      </trkpt>
      <trkpt lat="42.96502" lon="7.88919">
        <ele>897.53</ele>
        <time>2013-08-28T08:15:42Z</time>
      </trkpt>
      <trkpt lat="42.964" lon="7.89085">
        <ele>899.93</ele>
        <time>2013-08-28T08:15:56Z</time>
      </trkpt>
      <trkpt lat="42.96295" lon="7.89323">
        <ele>901.85</ele>
        <time>2013-08-28T08:16:14Z</time>
      </trkpt>
      <trkpt lat="42.96227" lon="7.89595">
        <ele>907.14</ele>
        <time>2013-08-28T08:16:33Z</time>
      </trkpt>
      <trkpt lat="42.9619" lon="7.89889">
        <ele>915.31</ele>
        <time>2013-08-28T08:16:53Z</time>
      </trkpt>
      <trkpt lat="42.96125" lon="7.90132">
        <ele>923.48</ele>
        <time>2013-08-28T08:17:10Z</time>
      </trkpt>
      <trkpt lat="42.96031" lon="7.90324">
        <ele>930.69</ele>
        <time>2013-08-28T08:17:25Z</time>
      </trkpt>
      <trkpt lat="42.95879" lon="7.90535">
        <ele>941.27</ele>
        <time>2013-08-28T08:17:44Z</time>
      </trkpt>
      <trkpt lat="42.95759" lon="7.90656">
        <ele>947.52</ele>
        <time>2013-08-28T08:17:57Z</time>
      </trkpt>
      <trkpt lat="42.9561" lon="7.9075">
        <ele>953.28</ele>
        <time>2013-08-28T08:18:11Z</time>
      </trkpt>
      <trkpt lat="42.95462" lon="7.90802">
        <ele>958.09</ele>
        <time>2013-08-28T08:18:24Z</time>
      </trkpt>
      <trkpt lat="42.95412" lon="7.90861">
        <ele>959.05</ele>
        <time>2013-08-28T08:18:30Z</time>
      </trkpt>
      <trkpt lat="42.95344" lon="7.91032">
        <ele>960.98</ele>
        <time>2013-08-28T08:18:43Z</time>
      </trkpt>
      <trkpt lat="42.95314" lon="7.91223">
        <ele>963.86</ele>
        <time>2013-08-28T08:18:56Z</time>
      </trkpt>
      <trkpt lat="42.95309" lon="7.91467">
        <ele>967.7</ele>
        <time>2013-08-28T08:19:12Z</time>
      </trkpt>
      <trkpt lat="42.95301" lon="7.91496">
        <ele>968.18</ele>
        <time>2013-08-28T08:19:14Z</time>
      </trkpt>
      <trkpt lat="42.95235" lon="7.91624">
        <ele>971.07</ele>
        <time>2013-08-28T08:19:24Z</time>
      </trkpt>
      <trkpt lat="42.95121" lon="7.9178">
        <ele>975.88</ele>
        <time>2013-08-28T08:19:38Z</time>
      </trkpt>
      <trkpt lat="42.94966" lon="7.91926">
        <ele>978.76</ele>
        <time>2013-08-28T08:19:54Z</time>
      </trkpt>
      <trkpt lat="42.94779" lon="7.92029">
        <ele>981.64</ele>
        <time>2013-08-28T08:20:11Z</time>
      </trkpt>
      <trkpt lat="42.94597" lon="7.92073">
        <ele>987.89</ele>
        <time>2013-08-28T08:20:26Z</time>
      </trkpt>
      <trkpt lat="42.94472" lon="7.92074">
        <ele>990.3</ele>
        <time>2013-08-28T08:20:36Z</time>
      </trkpt>
      <trkpt lat="42.94397" lon="7.92125">
        <ele>990.78</ele>
        <time>2013-08-28T08:20:43Z</time>
      </trkpt>
      <trkpt lat="42.94285" lon="7.92248">
        <ele>992.7</ele>
        <time>2013-08-28T08:20:55Z</time>
      </trkpt>
      <trkpt lat="42.94173" lon="7.92346">
        <ele>994.62</ele>
        <time>2013-08-28T08:21:06Z</time>
      </trkpt>
      <trkpt lat="42.94042" lon="7.92436">
        <ele>997.99</ele>
        <time>2013-08-28T08:21:18Z</time>
      </trkpt>
      <trkpt lat="42.93985" lon="7.92535">
        <ele>998.47</ele>
        <time>2013-08-28T08:21:26Z</time>
      </trkpt>
      <trkpt lat="42.93909" lon="7.9273">
        <ele>998.95</ele>
        <time>2013-08-28T08:21:40Z</time>
      </trkpt>
      <trkpt lat="42.93831" lon="7.92889">
        <ele>997.51</ele>
        <time>2013-08-28T08:21:52Z</time>
      </trkpt>
      <trkpt lat="42.93799" lon="7.93022">
        <ele>997.02</ele>
        <time>2013-08-28T08:22:01Z</time>
      </trkpt>
      <trkpt lat="42.93772" lon="7.93188">
        <ele>997.51</ele>
        <time>2013-08-28T08:22:12Z</time>
      </trkpt>
      <trkpt lat="42.93732" lon="7.93365">
        <ele>998.95</ele>
        <time>2013-08-28T08:22:24Z</time>
      </trkpt>
      <trkpt lat="42.93656" lon="7.93538">
        <ele>999.91</ele>
        <time>2013-08-28T08:22:37Z</time>
      </trkpt>
      <trkpt lat="42.93531" lon="7.93719">
        <ele>1003.27</ele>
        <time>2013-08-28T08:22:53Z</time>
      </trkpt>
      <trkpt lat="42.9343" lon="7.9382">
        <ele>1007.12</ele>
        <time>2013-08-28T08:23:04Z</time>
      </trkpt>
      <trkpt lat="42.93337" lon="7.93909">
        <ele>1010.48</ele>
        <time>2013-08-28T08:23:14Z</time>
      </trkpt>
      <trkpt lat="42.93206" lon="7.94097">
        <ele>1013.37</ele>
        <time>2013-08-28T08:23:31Z</time>
      </trkpt>
      <trkpt lat="42.93059" lon="7.94271">
        <ele>1015.29</ele>
        <time>2013-08-28T08:23:48Z</time>
      </trkpt>
      <trkpt lat="42.92946" lon="7.94384">
        <ele>1014.33</ele>
        <time>2013-08-28T08:24:00Z</time>
      </trkpt>
      <trkpt lat="42.92833" lon="7.94474">
        <ele>1013.85</ele>
        <time>2013-08-28T08:24:11Z</time>
      </trkpt>
      <trkpt lat="42.92725" lon="7.94544">
        <ele>1013.85</ele>
        <time>2013-08-28T08:24:21Z</time>
      </trkpt>
      <trkpt lat="42.9263" lon="7.94634">
        <ele>1014.33</ele>
        <time>2013-08-28T08:24:31Z</time>
      </trkpt>
      <trkpt lat="42.92491" lon="7.94845">
        <ele>1011.93</ele>
        <time>2013-08-28T08:24:49Z</time>
      </trkpt>
      <trkpt lat="42.92364" lon="7.95032">
        <ele>1011.93</ele>
        <time>2013-08-28T08:25:05Z</time>
      </trkpt>
      <trkpt lat="42.92291" lon="7.95113">
        <ele>1012.41</ele>
        <time>2013-08-28T08:25:13Z</time>
      </trkpt>
      <trkpt lat="42.92229" lon="7.95248">
        <ele>1011.93</ele>
        <time>2013-08-28T08:25:23Z</time>
      </trkpt>
      <trkpt lat="42.92128" lon="7.95463">
        <ele>1013.85</ele>
        <time>2013-08-28T08:25:39Z</time>
      </trkpt>
      <trkpt lat="42.91992" lon="7.95639">
        <ele>1019.62</ele>
        <time>2013-08-28T08:25:55Z</time>
      </trkpt>
      <trkpt lat="42.91847" lon="7.95747">
        <ele>1026.34</ele>
        <time>2013-08-28T08:26:09Z</time>
      </trkpt>
      <trkpt lat="42.91811" lon="7.95788">
        <ele>1027.79</ele>
        <time>2013-08-28T08:26:13Z</time>
      </trkpt>
      <trkpt lat="42.91725" lon="7.96013">
        <ele>1035</ele>
        <time>2013-08-28T08:26:29Z</time>
      </trkpt>
      <trkpt lat="42.91634" lon="7.96256">
        <ele>1041.73</ele>
        <time>2013-08-28T08:26:46Z</time>
      </trkpt>
      <trkpt lat="42.91506" lon="7.96463">
        <ele>1048.45</ele>
        <time>2013-08-28T08:27:03Z</time>
      </trkpt>
      <trkpt lat="42.9148" lon="7.96495">
        <ele>1049.9</ele>
        <time>2013-08-28T08:27:06Z</time>
      </trkpt>
      <trkpt lat="42.91454" lon="7.96547">
        <ele>1050.86</ele>
        <time>2013-08-28T08:27:10Z</time>
      </trkpt>
      <trkpt lat="42.914" lon="7.96743">
        <ele>1054.7</ele>
        <time>2013-08-28T08:27:23Z</time>
      </trkpt>
      <trkpt lat="42.91347" lon="7.96973">
        <ele>1059.51</ele>
        <time>2013-08-28T08:27:38Z</time>
      </trkpt>
      <trkpt lat="42.91272" lon="7.97277">
        <ele>1068.16</ele>
        <time>2013-08-28T08:27:58Z</time>
      </trkpt>
      <trkpt lat="42.91186" lon="7.97638">
        <ele>1078.26</ele>
        <time>2013-08-28T08:28:22Z</time>
      </trkpt>
      <trkpt lat="42.91083" lon="7.97997">
        <ele>1084.02</ele>
        <time>2013-08-28T08:28:46Z</time>
      </trkpt>
      <trkpt lat="42.90954" lon="7.98367">
        <ele>1088.83</ele>
        <time>2013-08-28T08:29:11Z</time>
      </trkpt>
      <trkpt lat="42.90842" lon="7.98643">
        <ele>1095.08</ele>
        <time>2013-08-28T08:29:30Z</time>
      </trkpt>
      <trkpt lat="42.9072" lon="7.98909">
        <ele>1099.89</ele>
        <time>2013-08-28T08:29:49Z</time>
      </trkpt>
      <trkpt lat="42.90624" lon="7.99101">
        <ele>1104.21</ele>
        <time>2013-08-28T08:30:03Z</time>
      </trkpt>
      <trkpt lat="42.90519" lon="7.99307">
        <ele>1111.9</ele>
        <time>2013-08-28T08:30:18Z</time>
      </trkpt>
      <trkpt lat="42.90382" lon="7.99486">
        <ele>1121.03</ele>
        <time>2013-08-28T08:30:33Z</time>
      </trkpt>
      <trkpt lat="42.90342" lon="7.99526">
        <ele>1123.92</ele>
        <time>2013-08-28T08:30:37Z</time>
      </trkpt>
      <trkpt lat="42.90272" lon="7.99667">
        <ele>1129.21</ele>
        <time>2013-08-28T08:30:47Z</time>
      </trkpt>
      <trkpt lat="42.9018" lon="7.9989">
        <ele>1138.34</ele>
        <time>2013-08-28T08:31:02Z</time>
      </trkpt>
      <trkpt lat="42.90045" lon="8.00211">
        <ele>1156.6</ele>
        <time>2013-08-28T08:31:24Z</time>
      </trkpt>
      <trkpt lat="42.89923" lon="8.00496">
        <ele>1172.47</ele>
        <time>2013-08-28T08:31:44Z</time>
      </trkpt>
      <trkpt lat="42.89767" lon="8.00814">
        <ele>1196.02</ele>
        <time>2013-08-28T08:32:08Z</time>
      </trkpt>
      <trkpt lat="42.89586" lon="8.01191">
        <ele>1225.82</ele>
        <time>2013-08-28T08:32:37Z</time>
      </trkpt>
      <trkpt lat="42.89499" lon="8.0141">
        <ele>1239.76</ele>
        <time>2013-08-28T08:32:53Z</time>
      </trkpt>
      <trkpt lat="42.89434" lon="8.01594">
        <ele>1248.89</ele>
        <time>2013-08-28T08:33:06Z</time>
      </trkpt>
      <trkpt lat="42.8938" lon="8.01751">
        <ele>1255.62</ele>
        <time>2013-08-28T08:33:17Z</time>
      </trkpt>
      <trkpt lat="42.89329" lon="8.01926">
        <ele>1262.83</ele>
        <time>2013-08-28T08:33:29Z</time>
      </trkpt>
      <trkpt lat="42.89295" lon="8.02091">
        <ele>1271</ele>
        <time>2013-08-28T08:33:40Z</time>
      </trkpt>
      <trkpt lat="42.8926" lon="8.0232">
        <ele>1284.46</ele>
        <time>2013-08-28T08:33:55Z</time>
      </trkpt>
      <trkpt lat="42.89229" lon="8.02519">
        <ele>1296.48</ele>
        <time>2013-08-28T08:34:08Z</time>
      </trkpt>
      <trkpt lat="42.89173" lon="8.02728">
        <ele>1308.01</ele>
        <time>2013-08-28T08:34:22Z</time>
      </trkpt>
      <trkpt lat="42.89081" lon="8.02922">
        <ele>1320.03</ele>
        <time>2013-08-28T08:34:36Z</time>
      </trkpt>
      <trkpt lat="42.88978" lon="8.03089">
        <ele>1333.01</ele>
        <time>2013-08-28T08:34:49Z</time>
      </trkpt>
      <trkpt lat="42.88874" lon="8.03254">
        <ele>1347.43</ele>
        <time>2013-08-28T08:35:02Z</time>
      </trkpt>
      <trkpt lat="42.88791" lon="8.03382">
        <ele>1358</ele>
        <time>2013-08-28T08:35:12Z</time>
      </trkpt>
      <trkpt lat="42.88673" lon="8.03588">
        <ele>1372.9</ele>
        <time>2013-08-28T08:35:27Z</time>
      </trkpt>
      <trkpt lat="42.88556" lon="8.03729">
        <ele>1385.4</ele>
        <time>2013-08-28T08:35:39Z</time>
      </trkpt>
      <trkpt lat="42.88446" lon="8.03854">
        <ele>1397.41</ele>
        <time>2013-08-28T08:35:50Z</time>
      </trkpt>
      <trkpt lat="42.88356" lon="8.04009">
        <ele>1408.47</ele>
        <time>2013-08-28T08:36:01Z</time>
      </trkpt>
      <trkpt lat="42.88237" lon="8.04152">
        <ele>1420</ele>
        <time>2013-08-28T08:36:13Z</time>
      </trkpt>
      <trkpt lat="42.8812" lon="8.04281">
        <ele>1428.18</ele>
        <time>2013-08-28T08:36:25Z</time>
      </trkpt>
      <trkpt lat="42.88014" lon="8.04469">
        <ele>1437.79</ele>
        <time>2013-08-28T08:36:39Z</time>
      </trkpt>
      <trkpt lat="42.87871" lon="8.0463">
        <ele>1451.73</ele>
        <time>2013-08-28T08:36:54Z</time>
      </trkpt>
      <trkpt lat="42.8785" lon="8.04648">
        <ele>1453.65</ele>
        <time>2013-08-28T08:36:56Z</time>
      </trkpt>
      <trkpt lat="42.87761" lon="8.04801">
        <ele>1466.15</ele>
        <time>2013-08-28T08:37:08Z</time>
      </trkpt>
      <trkpt lat="42.87648" lon="8.0501">
        <ele>1480.09</ele>
        <time>2013-08-28T08:37:24Z</time>
      </trkpt>
      <trkpt lat="42.87564" lon="8.05105">
        <ele>1487.3</ele>
        <time>2013-08-28T08:37:33Z</time>
      </trkpt>
      <trkpt lat="42.87473" lon="8.05257">
        <ele>1496.91</ele>
        <time>2013-08-28T08:37:45Z</time>
      </trkpt>
      <trkpt lat="42.87367" lon="8.05391">
        <ele>1505.56</ele>
        <time>2013-08-28T08:37:57Z</time>
      </trkpt>
      <trkpt lat="42.87294" lon="8.05542">
        <ele>1512.29</ele>
        <time>2013-08-28T08:38:08Z</time>
      </trkpt>
      <trkpt lat="42.87186" lon="8.05763">
        <ele>1520.94</ele>
        <time>2013-08-28T08:38:24Z</time>
      </trkpt>
      <trkpt lat="42.87028" lon="8.06095">
        <ele>1529.59</ele>
        <time>2013-08-28T08:38:48Z</time>
      </trkpt>
      <trkpt lat="42.86828" lon="8.06506">
        <ele>1540.17</ele>
        <time>2013-08-28T08:39:17Z</time>
      </trkpt>
      <trkpt lat="42.86599" lon="8.06915">
        <ele>1552.67</ele>
        <time>2013-08-28T08:39:47Z</time>
      </trkpt>
      <trkpt lat="42.86412" lon="8.07188">
        <ele>1564.2</ele>
        <time>2013-08-28T08:40:09Z</time>
      </trkpt>
      <trkpt lat="42.86201" lon="8.07476">
        <ele>1571.41</ele>
        <time>2013-08-28T08:40:33Z</time>
      </trkpt>
      <trkpt lat="42.86176" lon="8.07555">
        <ele>1572.85</ele>
        <time>2013-08-28T08:40:38Z</time>
      </trkpt>
      <trkpt lat="42.86155" lon="8.07815">
        <ele>1576.7</ele>
        <time>2013-08-28T08:40:53Z</time>
      </trkpt>
      <trkpt lat="42.86131" lon="8.08163">
        <ele>1580.06</ele>
        <time>2013-08-28T08:41:13Z</time>
      </trkpt>
      <trkpt lat="42.86105" lon="8.08564">
        <ele>1581.99</ele>
        <time>2013-08-28T08:41:36Z</time>
      </trkpt>
      <trkpt lat="42.86076" lon="8.08859">
        <ele>1581.99</ele>
        <time>2013-08-28T08:41:53Z</time>
      </trkpt>
      <trkpt lat="42.86039" lon="8.091">
        <ele>1581.99</ele>
        <time>2013-08-28T08:42:07Z</time>
      </trkpt>
      <trkpt lat="42.85999" lon="8.09357">
        <ele>1582.95</ele>
        <time>2013-08-28T08:42:22Z</time>
      </trkpt>
      <trkpt lat="42.85938" lon="8.09714">
        <ele>1585.83</ele>
        <time>2013-08-28T08:42:43Z</time>
      </trkpt>
      <trkpt lat="42.85871" lon="8.10108">
        <ele>1593.52</ele>
        <time>2013-08-28T08:43:06Z</time>
      </trkpt>
      <trkpt lat="42.85821" lon="8.10378">
        <ele>1602.17</ele>
        <time>2013-08-28T08:43:22Z</time>
      </trkpt>
      <trkpt lat="42.85753" lon="8.10713">
        <ele>1616.11</ele>
        <time>2013-08-28T08:43:42Z</time>
      </trkpt>
      <trkpt lat="42.85691" lon="8.11064">
        <ele>1634.38</ele>
        <time>2013-08-28T08:44:03Z</time>
      </trkpt>
      <trkpt lat="42.85632" lon="8.11419">
        <ele>1653.12</ele>
        <time>2013-08-28T08:44:24Z</time>
      </trkpt>
      <trkpt lat="42.8556" lon="8.11752">
        <ele>1667.06</ele>
        <time>2013-08-28T08:44:44Z</time>
      </trkpt>
      <trkpt lat="42.85464" lon="8.12166">
        <ele>1683.41</ele>
        <time>2013-08-28T08:45:09Z</time>
      </trkpt>
      <trkpt lat="42.85332" lon="8.12611">
        <ele>1705.04</ele>
        <time>2013-08-28T08:45:37Z</time>
      </trkpt>
      <trkpt lat="42.85326" lon="8.12681">
        <ele>1708.4</ele>
        <time>2013-08-28T08:45:41Z</time>
      </trkpt>
      <trkpt lat="42.85361" lon="8.13003">
        <ele>1719.46</ele>
        <time>2013-08-28T08:45:59Z</time>
      </trkpt>
      <trkpt lat="42.85405" lon="8.13364">
        <ele>1730.03</ele>
        <time>2013-08-28T08:46:19Z</time>
      </trkpt>
      <trkpt lat="42.85434" lon="8.13713">
        <ele>1737.72</ele>
        <time>2013-08-28T08:46:38Z</time>
      </trkpt>
      <trkpt lat="42.85447" lon="8.13954">
        <ele>1744.45</ele>
        <time>2013-08-28T08:46:51Z</time>
      </trkpt>
      <trkpt lat="42.8543" lon="8.14019">
        <ele>1745.41</ele>
        <time>2013-08-28T08:46:55Z</time>
      </trkpt>
      <trkpt lat="42.85335" lon="8.14172">
        <ele>1751.66</ele>
        <time>2013-08-28T08:47:07Z</time>
      </trkpt>
      <trkpt lat="42.85236" lon="8.14321">
        <ele>1757.43</ele>
        <time>2013-08-28T08:47:19Z</time>
      </trkpt>
      <trkpt lat="42.85127" lon="8.14484">
        <ele>1763.68</ele>
        <time>2013-08-28T08:47:32Z</time>
      </trkpt>
      <trkpt lat="42.84998" lon="8.14672">
        <ele>1767.52</ele>
        <time>2013-08-28T08:47:47Z</time>
      </trkpt>
      <trkpt lat="42.84849" lon="8.14895">
        <ele>1768.48</ele>
        <time>2013-08-28T08:48:04Z</time>
      </trkpt>
      <trkpt lat="42.847" lon="8.15118">
        <ele>1768.96</ele>
        <time>2013-08-28T08:48:21Z</time>
      </trkpt>
      <trkpt lat="42.8456" lon="8.15351">
        <ele>1771.85</ele>
        <time>2013-08-28T08:48:38Z</time>
      </trkpt>
      <trkpt lat="42.84368" lon="8.15713">
        <ele>1775.69</ele>
        <time>2013-08-28T08:49:03Z</time>
      </trkpt>
      <trkpt lat="42.8415" lon="8.16171">
        <ele>1785.79</ele>
        <time>2013-08-28T08:49:33Z</time>
      </trkpt>
      <trkpt lat="42.83933" lon="8.16686">
        <ele>1803.57</ele>
        <time>2013-08-28T08:50:05Z</time>
      </trkpt>
      <trkpt lat="42.83771" lon="8.17124">
        <ele>1819.91</ele>
        <time>2013-08-28T08:50:31Z</time>
      </trkpt>
      <trkpt lat="42.83656" lon="8.17473">
        <ele>1832.89</ele>
        <time>2013-08-28T08:50:51Z</time>
      </trkpt>
      <trkpt lat="42.83493" lon="8.18012">
        <ele>1850.19</ele>
        <time>2013-08-28T08:51:21Z</time>
      </trkpt>
      <trkpt lat="42.83347" lon="8.18527">
        <ele>1861.73</ele>
        <time>2013-08-28T08:51:49Z</time>
      </trkpt>
      <trkpt lat="42.8323" lon="8.18922">
        <ele>1868.46</ele>
        <time>2013-08-28T08:52:11Z</time>
      </trkpt>
      <trkpt lat="42.8305" lon="8.19423">
        <ele>1878.07</ele>
        <time>2013-08-28T08:52:40Z</time>
      </trkpt>
      <trkpt lat="42.82914" lon="8.19837">
        <ele>1886.24</ele>
        <time>2013-08-28T08:53:03Z</time>
      </trkpt>
      <trkpt lat="42.82781" lon="8.20231">
        <ele>1894.42</ele>
        <time>2013-08-28T08:53:25Z</time>
      </trkpt>
      <trkpt lat="42.82653" lon="8.20629">
        <ele>1898.26</ele>
        <time>2013-08-28T08:53:47Z</time>
      </trkpt>
      <trkpt lat="42.82508" lon="8.21059">
        <ele>1899.22</ele>
        <time>2013-08-28T08:54:11Z</time>
      </trkpt>
      <trkpt lat="42.82332" lon="8.21536">
        <ele>1902.11</ele>
        <time>2013-08-28T08:54:38Z</time>
      </trkpt>
      <trkpt lat="42.82179" lon="8.22016">
        <ele>1906.43</ele>
        <time>2013-08-28T08:55:04Z</time>
      </trkpt>
      <trkpt lat="42.81975" lon="8.22679">
        <ele>1921.33</ele>
        <time>2013-08-28T08:55:39Z</time>
      </trkpt>
      <trkpt lat="42.81824" lon="8.23228">
        <ele>1942</ele>
        <time>2013-08-28T08:56:07Z</time>
      </trkpt>
      <trkpt lat="42.81635" lon="8.23916">
        <ele>1973.72</ele>
        <time>2013-08-28T08:56:42Z</time>
      </trkpt>
      <trkpt lat="42.81479" lon="8.24464">
        <ele>1997.28</ele>
        <time>2013-08-28T08:57:10Z</time>
      </trkpt>
      <trkpt lat="42.81304" lon="8.25048">
        <ele>2024.19</ele>
        <time>2013-08-28T08:57:40Z</time>
      </trkpt>
      <trkpt lat="42.81143" lon="8.25473">
        <ele>2046.3</ele>
        <time>2013-08-28T08:58:03Z</time>
      </trkpt>
      <trkpt lat="42.80938" lon="8.25905">
        <ele>2068.89</ele>
        <time>2013-08-28T08:58:28Z</time>
      </trkpt>
      <trkpt lat="42.80678" lon="8.26358">
        <ele>2092.93</ele>
        <time>2013-08-28T08:58:56Z</time>
      </trkpt>
      <trkpt lat="42.80451" lon="8.26714">
        <ele>2104.46</ele>
        <time>2013-08-28T08:59:19Z</time>
      </trkpt>
      <trkpt lat="42.8031" lon="8.26955">
        <ele>2106.39</ele>
        <time>2013-08-28T08:59:34Z</time>
      </trkpt>
      <trkpt lat="42.80175" lon="8.27091">
        <ele>2108.31</ele>
        <time>2013-08-28T08:59:46Z</time>
      </trkpt>
      <trkpt lat="42.79908" lon="8.27364">
        <ele>2117.92</ele>
        <time>2013-08-28T09:00:10Z</time>
      </trkpt>
      <trkpt lat="42.79594" lon="8.27718">
        <ele>2133.3</ele>
        <time>2013-08-28T09:00:39Z</time>
      </trkpt>
      <trkpt lat="42.7932" lon="8.28066">
        <ele>2144.36</ele>
        <time>2013-08-28T09:01:05Z</time>
      </trkpt>
      <trkpt lat="42.79061" lon="8.28423">
        <ele>2151.09</ele>
        <time>2013-08-28T09:01:30Z</time>
      </trkpt>
      <trkpt lat="42.78814" lon="8.28844">
        <ele>2148.2</ele>
        <time>2013-08-28T09:01:56Z</time>
      </trkpt>
      <trkpt lat="42.78627" lon="8.29175">
        <ele>2138.11</ele>
        <time>2013-08-28T09:02:16Z</time>
      </trkpt>
      <trkpt lat="42.78519" lon="8.29265">
        <ele>2131.38</ele>
        <time>2013-08-28T09:02:25Z</time>
      </trkpt>
      <trkpt lat="42.78351" lon="8.29411">
        <ele>2119.36</ele>
        <time>2013-08-28T09:02:39Z</time>
      </trkpt>
      <trkpt lat="42.78132" lon="8.29625">
        <ele>2103.02</ele>
        <time>2013-08-28T09:02:58Z</time>
      </trkpt>
      <trkpt lat="42.77888" lon="8.29897">
        <ele>2089.08</ele>
        <time>2013-08-28T09:03:20Z</time>
      </trkpt>
      <trkpt lat="42.77557" lon="8.30279">
        <ele>2080.91</ele>
        <time>2013-08-28T09:03:50Z</time>
      </trkpt>
      <trkpt lat="42.77239" lon="8.30655">
        <ele>2085.72</ele>
        <time>2013-08-28T09:04:19Z</time>
      </trkpt>
      <trkpt lat="42.76994" lon="8.30944">
        <ele>2089.56</ele>
        <time>2013-08-28T09:04:41Z</time>
      </trkpt>
      <trkpt lat="42.76716" lon="8.31279">
        <ele>2091.97</ele>
        <time>2013-08-28T09:05:06Z</time>
      </trkpt>
      <trkpt lat="42.76402" lon="8.31699">
        <ele>2091.49</ele>
        <time>2013-08-28T09:05:35Z</time>
      </trkpt>
      <trkpt lat="42.7615" lon="8.32073">
        <ele>2090.52</ele>
        <time>2013-08-28T09:05:59Z</time>
      </trkpt>
      <trkpt lat="42.75878" lon="8.32526">
        <ele>2095.33</ele>
        <time>2013-08-28T09:06:26Z</time>
      </trkpt>
      <trkpt lat="42.75634" lon="8.32995">
        <ele>2106.39</ele>
        <time>2013-08-28T09:06:52Z</time>
      </trkpt>
      <trkpt lat="42.75383" lon="8.33517">
        <ele>2121.77</ele>
        <time>2013-08-28T09:07:20Z</time>
      </trkpt>
      <trkpt lat="42.7517" lon="8.33991">
        <ele>2134.26</ele>
        <time>2013-08-28T09:07:45Z</time>
      </trkpt>
      <trkpt lat="42.75052" lon="8.3422">
        <ele>2138.11</ele>
        <time>2013-08-28T09:07:58Z</time>
      </trkpt>
      <trkpt lat="42.74855" lon="8.3448">
        <ele>2140.51</ele>
        <time>2013-08-28T09:08:16Z</time>
      </trkpt>
      <trkpt lat="42.74669" lon="8.34758">
        <ele>2143.4</ele>
        <time>2013-08-28T09:08:34Z</time>
      </trkpt>
      <trkpt lat="42.74483" lon="8.35099">
        <ele>2141.47</ele>
        <time>2013-08-28T09:08:54Z</time>
      </trkpt>
      <trkpt lat="42.74318" lon="8.35475">
        <ele>2136.19</ele>
        <time>2013-08-28T09:09:14Z</time>
      </trkpt>
      <trkpt lat="42.74146" lon="8.35903">
        <ele>2131.38</ele>
        <time>2013-08-28T09:09:36Z</time>
      </trkpt>
      <trkpt lat="42.74005" lon="8.36299">
        <ele>2131.38</ele>
        <time>2013-08-28T09:09:56Z</time>
      </trkpt>
      <trkpt lat="42.73842" lon="8.36583">
        <ele>2129.94</ele>
        <time>2013-08-28T09:10:13Z</time>
      </trkpt>
      <trkpt lat="42.73572" lon="8.37106">
        <ele>2130.9</ele>
        <time>2013-08-28T09:10:43Z</time>
      </trkpt>
      <trkpt lat="42.73437" lon="8.37266">
        <ele>2130.9</ele>
        <time>2013-08-28T09:10:55Z</time>
      </trkpt>
      <trkpt lat="42.73185" lon="8.37594">
        <ele>2132.34</ele>
        <time>2013-08-28T09:11:18Z</time>
      </trkpt>
      <trkpt lat="42.7306" lon="8.37783">
        <ele>2133.3</ele>
        <time>2013-08-28T09:11:30Z</time>
      </trkpt>
      <trkpt lat="42.73039" lon="8.37814">
        <ele>2133.3</ele>
        <time>2013-08-28T09:11:32Z</time>
      </trkpt>
      <trkpt lat="42.72901" lon="8.3792">
        <ele>2132.82</ele>
        <time>2013-08-28T09:11:43Z</time>
      </trkpt>
      <trkpt lat="42.72617" lon="8.38161">
        <ele>2131.86</ele>
        <time>2013-08-28T09:12:06Z</time>
      </trkpt>
      <trkpt lat="42.72268" lon="8.38482">
        <ele>2128.02</ele>
        <time>2013-08-28T09:12:35Z</time>
      </trkpt>
      <trkpt lat="42.71968" lon="8.38801">
        <ele>2126.57</ele>
        <time>2013-08-28T09:13:01Z</time>
      </trkpt>
      <trkpt lat="42.71687" lon="8.39164">
        <ele>2129.94</ele>
        <time>2013-08-28T09:13:27Z</time>
      </trkpt>
      <trkpt lat="42.71447" lon="8.39537">
        <ele>2135.23</ele>
        <time>2013-08-28T09:13:51Z</time>
      </trkpt>
      <trkpt lat="42.71274" lon="8.3986">
        <ele>2140.99</ele>
        <time>2013-08-28T09:14:10Z</time>
      </trkpt>
      <trkpt lat="42.71134" lon="8.40171">
        <ele>2146.28</ele>
        <time>2013-08-28T09:14:27Z</time>
      </trkpt>
      <trkpt lat="42.70975" lon="8.4057">
        <ele>2152.05</ele>
        <time>2013-08-28T09:14:48Z</time>
      </trkpt>
      <trkpt lat="42.70829" lon="8.40835">
        <ele>2157.82</ele>
        <time>2013-08-28T09:15:04Z</time>
      </trkpt>
      <trkpt lat="42.70625" lon="8.41256">
        <ele>2167.91</ele>
        <time>2013-08-28T09:15:28Z</time>
      </trkpt>
      <trkpt lat="42.70418" lon="8.41737">
        <ele>2178.48</ele>
        <time>2013-08-28T09:15:54Z</time>
      </trkpt>
      <trkpt lat="42.70254" lon="8.42186">
        <ele>2188.58</ele>
        <time>2013-08-28T09:16:17Z</time>
      </trkpt>
      <trkpt lat="42.70138" lon="8.42564">
        <ele>2197.23</ele>
        <time>2013-08-28T09:16:36Z</time>
      </trkpt>
      <trkpt lat="42.70011" lon="8.43053">
        <ele>2202.04</ele>
        <time>2013-08-28T09:17:00Z</time>
      </trkpt>
      <trkpt lat="42.69913" lon="8.43463">
        <ele>2204.92</ele>
        <time>2013-08-28T09:17:20Z</time>
      </trkpt>
      <trkpt lat="42.6985" lon="8.43753">
        <ele>2204.44</ele>
        <time>2013-08-28T09:17:34Z</time>
      </trkpt>
      <trkpt lat="42.6977" lon="8.43898">
        <ele>2203.96</ele>
        <time>2013-08-28T09:17:43Z</time>
      </trkpt>
      <trkpt lat="42.69641" lon="8.44052">
        <ele>2202.04</ele>
        <time>2013-08-28T09:17:55Z</time>
      </trkpt>
      <trkpt lat="42.69484" lon="8.44253">
        <ele>2199.63</ele>
        <time>2013-08-28T09:18:10Z</time>
      </trkpt>
      <trkpt lat="42.69327" lon="8.44486">
        <ele>2197.23</ele>
        <time>2013-08-28T09:18:26Z</time>
      </trkpt>
      <trkpt lat="42.69169" lon="8.44751">
        <ele>2195.31</ele>
        <time>2013-08-28T09:18:43Z</time>
      </trkpt>
      <trkpt lat="42.68982" lon="8.45127">
        <ele>2196.75</ele>
        <time>2013-08-28T09:19:05Z</time>
      </trkpt>
      <trkpt lat="42.6892" lon="8.45272">
        <ele>2197.71</ele>
        <time>2013-08-28T09:19:13Z</time>
      </trkpt>
      <trkpt lat="42.68822" lon="8.4539">
        <ele>2197.71</ele>
        <time>2013-08-28T09:19:22Z</time>
      </trkpt>
      <trkpt lat="42.68628" lon="8.4564">
        <ele>2199.15</ele>
        <time>2013-08-28T09:19:40Z</time>
      </trkpt>
      <trkpt lat="42.68436" lon="8.45965">
        <ele>2198.19</ele>
        <time>2013-08-28T09:20:00Z</time>
      </trkpt>
      <trkpt lat="42.68234" lon="8.46397">
        <ele>2197.23</ele>
        <time>2013-08-28T09:20:24Z</time>
      </trkpt>
      <trkpt lat="42.68129" lon="8.46604">
        <ele>2196.27</ele>
        <time>2013-08-28T09:20:36Z</time>
      </trkpt>
      <trkpt lat="42.68025" lon="8.46784">
        <ele>2194.35</ele>
        <time>2013-08-28T09:20:47Z</time>
      </trkpt>
      <trkpt lat="42.67916" lon="8.46988">
        <ele>2191.94</ele>
        <time>2013-08-28T09:20:59Z</time>
      </trkpt>
      <trkpt lat="42.67792" lon="8.47229">
        <ele>2190.02</ele>
        <time>2013-08-28T09:21:13Z</time>
      </trkpt>
      <trkpt lat="42.6767" lon="8.4747">
        <ele>2188.58</ele>
        <time>2013-08-28T09:21:27Z</time>
      </trkpt>
      <trkpt lat="42.6757" lon="8.47577">
        <ele>2187.14</ele>
        <time>2013-08-28T09:21:36Z</time>
      </trkpt>
      <trkpt lat="42.67322" lon="8.47839">
        <ele>2186.18</ele>
        <time>2013-08-28T09:21:58Z</time>
      </trkpt>
      <trkpt lat="42.67095" lon="8.48111">
        <ele>2186.66</ele>
        <time>2013-08-28T09:22:19Z</time>
      </trkpt>
      <trkpt lat="42.66916" lon="8.48249">
        <ele>2189.54</ele>
        <time>2013-08-28T09:22:34Z</time>
      </trkpt>
      <trkpt lat="42.66671" lon="8.4847">
        <ele>2195.79</ele>
        <time>2013-08-28T09:22:55Z</time>
      </trkpt>
      <trkpt lat="42.66499" lon="8.48634">
        <ele>2200.11</ele>
        <time>2013-08-28T09:23:10Z</time>
      </trkpt>
      <trkpt lat="42.66351" lon="8.48779">
        <ele>2203.48</ele>
        <time>2013-08-28T09:23:23Z</time>
      </trkpt>
      <trkpt lat="42.66177" lon="8.48971">
        <ele>2207.32</ele>
        <time>2013-08-28T09:23:39Z</time>
      </trkpt>
      <trkpt lat="42.65976" lon="8.49203">
        <ele>2211.65</ele>
        <time>2013-08-28T09:23:58Z</time>
      </trkpt>
      <trkpt lat="42.6581" lon="8.49405">
        <ele>2214.53</ele>
        <time>2013-08-28T09:24:14Z</time>
      </trkpt>
      <trkpt lat="42.65598" lon="8.49685">
        <ele>2218.38</ele>
        <time>2013-08-28T09:24:35Z</time>
      </trkpt>
      <trkpt lat="42.65377" lon="8.50018">
        <ele>2223.19</ele>
        <time>2013-08-28T09:24:58Z</time>
      </trkpt>
      <trkpt lat="42.65294" lon="8.50155">
        <ele>2225.11</ele>
        <time>2013-08-28T09:25:07Z</time>
      </trkpt>
      <trkpt lat="42.6517" lon="8.50269">
        <ele>2227.51</ele>
        <time>2013-08-28T09:25:18Z</time>
      </trkpt>
      <trkpt lat="42.65001" lon="8.50435">
        <ele>2231.36</ele>
        <time>2013-08-28T09:25:33Z</time>
      </trkpt>
      <trkpt lat="42.64824" lon="8.50625">
        <ele>2233.76</ele>
        <time>2013-08-28T09:25:49Z</time>
      </trkpt>
      <trkpt lat="42.64641" lon="8.50846">
        <ele>2234.24</ele>
        <time>2013-08-28T09:26:06Z</time>
      </trkpt>
      <trkpt lat="42.64504" lon="8.51027">
        <ele>2234.24</ele>
        <time>2013-08-28T09:26:19Z</time>
      </trkpt>
      <trkpt lat="42.64325" lon="8.51265">
        <ele>2234.24</ele>
        <time>2013-08-28T09:26:36Z</time>
      </trkpt>
      <trkpt lat="42.64122" lon="8.51561">
        <ele>2231.36</ele>
        <time>2013-08-28T09:26:56Z</time>
      </trkpt>
      <trkpt lat="42.63928" lon="8.51903">
        <ele>2226.07</ele>
        <time>2013-08-28T09:27:17Z</time>
      </trkpt>
      <trkpt lat="42.63892" lon="8.51969">
        <ele>2224.63</ele>
        <time>2013-08-28T09:27:21Z</time>
      </trkpt>
      <trkpt lat="42.63796" lon="8.52049">
        <ele>2222.22</ele>
        <time>2013-08-28T09:27:29Z</time>
      </trkpt>
      <trkpt lat="42.63645" lon="8.52152">
        <ele>2219.82</ele>
        <time>2013-08-28T09:27:41Z</time>
      </trkpt>
      <trkpt lat="42.6348" lon="8.52255">
        <ele>2220.3</ele>
        <time>2013-08-28T09:27:54Z</time>
      </trkpt>
      <trkpt lat="42.63276" lon="8.52373">
        <ele>2223.67</ele>
        <time>2013-08-28T09:28:10Z</time>
      </trkpt>
      <trkpt lat="42.62981" lon="8.52517">
        <ele>2229.92</ele>
        <time>2013-08-28T09:28:33Z</time>
      </trkpt>
      <trkpt lat="42.62696" lon="8.52631">
        <ele>2236.64</ele>
        <time>2013-08-28T09:28:55Z</time>
      </trkpt>
      <trkpt lat="42.62412" lon="8.52762">
        <ele>2243.37</ele>
        <time>2013-08-28T09:29:17Z</time>
      </trkpt>
      <trkpt lat="42.62076" lon="8.52951">
        <ele>2247.7</ele>
        <time>2013-08-28T09:29:43Z</time>
      </trkpt>
      <trkpt lat="42.61759" lon="8.53181">
        <ele>2249.62</ele>
        <time>2013-08-28T09:30:08Z</time>
      </trkpt>
      <trkpt lat="42.61489" lon="8.53411">
        <ele>2251.54</ele>
        <time>2013-08-28T09:30:30Z</time>
      </trkpt>
      <trkpt lat="42.61197" lon="8.53706">
        <ele>2254.43</ele>
        <time>2013-08-28T09:30:55Z</time>
      </trkpt>
      <trkpt lat="42.60873" lon="8.54079">
        <ele>2260.68</ele>
        <time>2013-08-28T09:31:24Z</time>
      </trkpt>
      <trkpt lat="42.6053" lon="8.54526">
        <ele>2267.89</ele>
        <time>2013-08-28T09:31:56Z</time>
      </trkpt>
      <trkpt lat="42.60195" lon="8.54993">
        <ele>2278.94</ele>
        <time>2013-08-28T09:32:28Z</time>
      </trkpt>
      <trkpt lat="42.59903" lon="8.55407">
        <ele>2291.44</ele>
        <time>2013-08-28T09:32:56Z</time>
      </trkpt>
      <trkpt lat="42.59779" lon="8.55587">
        <ele>2299.13</ele>
        <time>2013-08-28T09:33:08Z</time>
      </trkpt>
      <trkpt lat="42.59656" lon="8.55677">
        <ele>2304.42</ele>
        <time>2013-08-28T09:33:18Z</time>
      </trkpt>
      <trkpt lat="42.59407" lon="8.55847">
        <ele>2317.88</ele>
        <time>2013-08-28T09:33:38Z</time>
      </trkpt>
      <trkpt lat="42.59102" lon="8.56047">
        <ele>2337.1</ele>
        <time>2013-08-28T09:34:02Z</time>
      </trkpt>
      <trkpt lat="42.58843" lon="8.56208">
        <ele>2356.81</ele>
        <time>2013-08-28T09:34:22Z</time>
      </trkpt>
      <trkpt lat="42.58555" lon="8.56381">
        <ele>2378.44</ele>
        <time>2013-08-28T09:34:44Z</time>
      </trkpt>
      <trkpt lat="42.58455" lon="8.56471">
        <ele>2384.69</ele>
        <time>2013-08-28T09:34:52Z</time>
      </trkpt>
      <trkpt lat="42.583" lon="8.56655">
        <ele>2394.78</ele>
        <time>2013-08-28T09:35:05Z</time>
      </trkpt>
      <trkpt lat="42.5812" lon="8.56866">
        <ele>2406.8</ele>
        <time>2013-08-28T09:35:20Z</time>
      </trkpt>
      <trkpt lat="42.57916" lon="8.57105">
        <ele>2419.3</ele>
        <time>2013-08-28T09:35:37Z</time>
      </trkpt>
      <trkpt lat="42.57628" lon="8.57395">
        <ele>2434.68</ele>
        <time>2013-08-28T09:36:00Z</time>
      </trkpt>
      <trkpt lat="42.57322" lon="8.57669">
        <ele>2446.21</ele>
        <time>2013-08-28T09:36:24Z</time>
      </trkpt>
      <trkpt lat="42.57141" lon="8.57817">
        <ele>2451.02</ele>
        <time>2013-08-28T09:36:38Z</time>
      </trkpt>
      <trkpt lat="42.57015" lon="8.57987">
        <ele>2453.42</ele>
        <time>2013-08-28T09:36:49Z</time>
      </trkpt>
      <trkpt lat="42.56897" lon="8.58133">
        <ele>2454.86</ele>
        <time>2013-08-28T09:36:59Z</time>
      </trkpt>
      <trkpt lat="42.56754" lon="8.5822">
        <ele>2455.34</ele>
        <time>2013-08-28T09:37:10Z</time>
      </trkpt>
      <trkpt lat="42.56531" lon="8.58335">
        <ele>2459.19</ele>
        <time>2013-08-28T09:37:27Z</time>
      </trkpt>
      <trkpt lat="42.56348" lon="8.58427">
        <ele>2464.96</ele>
        <time>2013-08-28T09:37:41Z</time>
      </trkpt>
      <trkpt lat="42.5617" lon="8.58511">
        <ele>2472.65</ele>
        <time>2013-08-28T09:37:55Z</time>
      </trkpt>
      <trkpt lat="42.55948" lon="8.58607">
        <ele>2482.74</ele>
        <time>2013-08-28T09:38:13Z</time>
      </trkpt>
      <trkpt lat="42.55672" lon="8.58697">
        <ele>2495.24</ele>
        <time>2013-08-28T09:38:36Z</time>
      </trkpt>
      <trkpt lat="42.55491" lon="8.58729">
        <ele>2503.41</ele>
        <time>2013-08-28T09:38:51Z</time>
      </trkpt>
      <trkpt lat="42.55358" lon="8.58744">
        <ele>2509.18</ele>
        <time>2013-08-28T09:39:02Z</time>
      </trkpt>
      <trkpt lat="42.55304" lon="8.5878">
        <ele>2511.1</ele>
        <time>2013-08-28T09:39:06Z</time>
      </trkpt>
      <trkpt lat="42.55086" lon="8.59044">
        <ele>2522.64</ele>
        <time>2013-08-28T09:39:23Z</time>
      </trkpt>
      <trkpt lat="42.54853" lon="8.5938">
        <ele>2537.54</ele>
        <time>2013-08-28T09:39:42Z</time>
      </trkpt>
      <trkpt lat="42.5464" lon="8.59761">
        <ele>2552.44</ele>
        <time>2013-08-28T09:40:01Z</time>
      </trkpt>
      <trkpt lat="42.54432" lon="8.60221">
        <ele>2565.42</ele>
        <time>2013-08-28T09:40:22Z</time>
      </trkpt>
      <trkpt lat="42.54257" lon="8.60658">
        <ele>2574.55</ele>
        <time>2013-08-28T09:40:41Z</time>
      </trkpt>
      <trkpt lat="42.54076" lon="8.61064">
        <ele>2581.76</ele>
        <time>2013-08-28T09:40:59Z</time>
      </trkpt>
      <trkpt lat="42.53929" lon="8.61244">
        <ele>2587.04</ele>
        <time>2013-08-28T09:41:10Z</time>
      </trkpt>
      <trkpt lat="42.53633" lon="8.61544">
        <ele>2597.14</ele>
        <time>2013-08-28T09:41:31Z</time>
      </trkpt>
      <trkpt lat="42.53214" lon="8.61961">
        <ele>2605.31</ele>
        <time>2013-08-28T09:42:01Z</time>
      </trkpt>
      <trkpt lat="42.5287" lon="8.62311">
        <ele>2609.64</ele>
        <time>2013-08-28T09:42:26Z</time>
      </trkpt>
      <trkpt lat="42.52532" lon="8.62682">
        <ele>2615.88</ele>
        <time>2013-08-28T09:42:51Z</time>
      </trkpt>
      <trkpt lat="42.52263" lon="8.62985">
        <ele>2619.73</ele>
        <time>2013-08-28T09:43:11Z</time>
      </trkpt>
      <trkpt lat="42.52035" lon="8.63249">
        <ele>2624.06</ele>
        <time>2013-08-28T09:43:28Z</time>
      </trkpt>
      <trkpt lat="42.5181" lon="8.63526">
        <ele>2631.27</ele>
        <time>2013-08-28T09:43:45Z</time>
      </trkpt>
      <trkpt lat="42.5164" lon="8.63745">
        <ele>2639.92</ele>
        <time>2013-08-28T09:43:58Z</time>
      </trkpt>
      <trkpt lat="42.51615" lon="8.63781">
        <ele>2640.88</ele>
        <time>2013-08-28T09:44:00Z</time>
      </trkpt>
      <trkpt lat="42.51559" lon="8.63828">
        <ele>2643.28</ele>
        <time>2013-08-28T09:44:04Z</time>
      </trkpt>
      <trkpt lat="42.51487" lon="8.63867">
        <ele>2647.13</ele>
        <time>2013-08-28T09:44:09Z</time>
      </trkpt>
      <trkpt lat="42.51444" lon="8.63886">
        <ele>2649.05</ele>
        <time>2013-08-28T09:44:12Z</time>
      </trkpt>
      <trkpt lat="42.51316" lon="8.63961">
        <ele>2655.78</ele>
        <time>2013-08-28T09:44:21Z</time>
      </trkpt>
      <trkpt lat="42.51221" lon="8.64063">
        <ele>2662.03</ele>
        <time>2013-08-28T09:44:28Z</time>
      </trkpt>
      <trkpt lat="42.51136" lon="8.64233">
        <ele>2669.24</ele>
        <time>2013-08-28T09:44:36Z</time>
      </trkpt>
      <trkpt lat="42.51001" lon="8.64518">
        <ele>2685.58</ele>
        <time>2013-08-28T09:44:49Z</time>
      </trkpt>
      <trkpt lat="42.5086" lon="8.64834">
        <ele>2703.36</ele>
        <time>2013-08-28T09:45:03Z</time>
      </trkpt>
      <trkpt lat="42.5067" lon="8.65303">
        <ele>2729.8</ele>
        <time>2013-08-28T09:45:23Z</time>
      </trkpt>
      <trkpt lat="42.50522" lon="8.65648">
        <ele>2747.59</ele>
        <time>2013-08-28T09:45:38Z</time>
      </trkpt>
      <trkpt lat="42.50455" lon="8.6572">
        <ele>2752.39</ele>
        <time>2013-08-28T09:45:43Z</time>
      </trkpt>
      <trkpt lat="42.50284" lon="8.65815">
        <ele>2767.29</ele>
        <time>2013-08-28T09:45:55Z</time>
      </trkpt>
      <trkpt lat="42.50082" lon="8.65861">
        <ele>2786.04</ele>
        <time>2013-08-28T09:46:10Z</time>
      </trkpt>
      <trkpt lat="42.49825" lon="8.65931">
        <ele>2805.26</ele>
        <time>2013-08-28T09:46:29Z</time>
      </trkpt>
      <trkpt lat="42.49532" lon="8.66048">
        <ele>2819.68</ele>
        <time>2013-08-28T09:46:50Z</time>
      </trkpt>
      <trkpt lat="42.4929" lon="8.66173">
        <ele>2830.74</ele>
        <time>2013-08-28T09:47:07Z</time>
      </trkpt>
      <trkpt lat="42.49145" lon="8.6619">
        <ele>2835.55</ele>
        <time>2013-08-28T09:47:18Z</time>
      </trkpt>
      <trkpt lat="42.48966" lon="8.6623">
        <ele>2842.28</ele>
        <time>2013-08-28T09:47:31Z</time>
      </trkpt>
      <trkpt lat="42.4871" lon="8.66333">
        <ele>2852.37</ele>
        <time>2013-08-28T09:47:49Z</time>
      </trkpt>
      <trkpt lat="42.48494" lon="8.66444">
        <ele>2860.06</ele>
        <time>2013-08-28T09:48:04Z</time>
      </trkpt>
      <trkpt lat="42.4827" lon="8.66507">
        <ele>2867.27</ele>
        <time>2013-08-28T09:48:20Z</time>
      </trkpt>
      <trkpt lat="42.48025" lon="8.66594">
        <ele>2871.11</ele>
        <time>2013-08-28T09:48:37Z</time>
      </trkpt>
      <trkpt lat="42.47801" lon="8.66692">
        <ele>2873.52</ele>
        <time>2013-08-28T09:48:52Z</time>
      </trkpt>
      <trkpt lat="42.47545" lon="8.66828">
        <ele>2877.36</ele>
        <time>2013-08-28T09:49:09Z</time>
      </trkpt>
      <trkpt lat="42.47286" lon="8.66991">
        <ele>2881.69</ele>
        <time>2013-08-28T09:49:26Z</time>
      </trkpt>
      <trkpt lat="42.4706" lon="8.67149">
        <ele>2883.13</ele>
        <time>2013-08-28T09:49:41Z</time>
      </trkpt>
      <trkpt lat="42.46946" lon="8.6717">
        <ele>2881.69</ele>
        <time>2013-08-28T09:49:49Z</time>
      </trkpt>
      <trkpt lat="42.46775" lon="8.67195">
        <ele>2881.69</ele>
        <time>2013-08-28T09:50:01Z</time>
      </trkpt>
      <trkpt lat="42.46554" lon="8.67255">
        <ele>2883.13</ele>
        <time>2013-08-28T09:50:16Z</time>
      </trkpt>
      <trkpt lat="42.46271" lon="8.67369">
        <ele>2886.98</ele>
        <time>2013-08-28T09:50:35Z</time>
      </trkpt>
      <trkpt lat="42.45985" lon="8.67511">
        <ele>2891.78</ele>
        <time>2013-08-28T09:50:54Z</time>
      </trkpt>
      <trkpt lat="42.45717" lon="8.67663">
        <ele>2896.11</ele>
        <time>2013-08-28T09:51:12Z</time>
      </trkpt>
      <trkpt lat="42.4536" lon="8.67883">
        <ele>2903.32</ele>
        <time>2013-08-28T09:51:36Z</time>
      </trkpt>
      <trkpt lat="42.44976" lon="8.68119">
        <ele>2907.65</ele>
        <time>2013-08-28T09:52:02Z</time>
      </trkpt>
      <trkpt lat="42.44674" lon="8.68308">
        <ele>2912.93</ele>
        <time>2013-08-28T09:52:22Z</time>
      </trkpt>
      <trkpt lat="42.44417" lon="8.68476">
        <ele>2917.26</ele>
        <time>2013-08-28T09:52:39Z</time>
      </trkpt>
      <trkpt lat="42.44207" lon="8.68613">
        <ele>2922.06</ele>
        <time>2013-08-28T09:52:53Z</time>
      </trkpt>
      <trkpt lat="42.44153" lon="8.68616">
        <ele>2921.1</ele>
        <time>2013-08-28T09:52:57Z</time>
      </trkpt>
      <trkpt lat="42.44025" lon="8.68569">
        <ele>2926.39</ele>
        <time>2013-08-28T09:53:09Z</time>
      </trkpt>
      <trkpt lat="42.43863" lon="8.6853">
        <ele>2930.24</ele>
        <time>2013-08-28T09:53:23Z</time>
      </trkpt>
      <trkpt lat="42.43658" lon="8.68501">
        <ele>2934.56</ele>
        <time>2013-08-28T09:53:40Z</time>
      </trkpt>
      <trkpt lat="42.43521" lon="8.68489">
        <ele>2936.48</ele>
        <time>2013-08-28T09:53:51Z</time>
      </trkpt>
      <trkpt lat="42.43448" lon="8.68486">
        <ele>2936.48</ele>
        <time>2013-08-28T09:53:57Z</time>
      </trkpt>
      <trkpt lat="42.43334" lon="8.6854">
        <ele>2934.08</ele>
        <time>2013-08-28T09:54:05Z</time>
      </trkpt>
      <trkpt lat="42.43106" lon="8.68731">
        <ele>2932.64</ele>
        <time>2013-08-28T09:54:21Z</time>
      </trkpt>
      <trkpt lat="42.42849" lon="8.68971">
        <ele>2930.24</ele>
        <time>2013-08-28T09:54:39Z</time>
      </trkpt>
      <trkpt lat="42.42558" lon="8.69234">
        <ele>2923.51</ele>
        <time>2013-08-28T09:54:59Z</time>
      </trkpt>
      <trkpt lat="42.42283" lon="8.6951">
        <ele>2915.34</ele>
        <time>2013-08-28T09:55:18Z</time>
      </trkpt>
      <trkpt lat="42.42082" lon="8.69711">
        <ele>2908.13</ele>
        <time>2013-08-28T09:55:32Z</time>
      </trkpt>
      <trkpt lat="42.419" lon="8.69796">
        <ele>2902.84</ele>
        <time>2013-08-28T09:55:44Z</time>
      </trkpt>
      <trkpt lat="42.41673" lon="8.69927">
        <ele>2897.07</ele>
        <time>2013-08-28T09:55:59Z</time>
      </trkpt>
      <trkpt lat="42.41414" lon="8.70108">
        <ele>2888.9</ele>
        <time>2013-08-28T09:56:16Z</time>
      </trkpt>
      <trkpt lat="42.41131" lon="8.70346">
        <ele>2883.13</ele>
        <time>2013-08-28T09:56:35Z</time>
      </trkpt>
      <trkpt lat="42.40837" lon="8.70611">
        <ele>2878.81</ele>
        <time>2013-08-28T09:56:55Z</time>
      </trkpt>
      <trkpt lat="42.40576" lon="8.70878">
        <ele>2876.4</ele>
        <time>2013-08-28T09:57:13Z</time>
      </trkpt>
      <trkpt lat="42.40363" lon="8.71123">
        <ele>2875.92</ele>
        <time>2013-08-28T09:57:28Z</time>
      </trkpt>
      <trkpt lat="42.40242" lon="8.71191">
        <ele>2875.92</ele>
        <time>2013-08-28T09:57:36Z</time>
      </trkpt>
      <trkpt lat="42.39938" lon="8.71334">
        <ele>2878.32</ele>
        <time>2013-08-28T09:57:56Z</time>
      </trkpt>
      <trkpt lat="42.39573" lon="8.71498">
        <ele>2884.57</ele>
        <time>2013-08-28T09:58:20Z</time>
      </trkpt>
      <trkpt lat="42.393" lon="8.71638">
        <ele>2892.26</ele>
        <time>2013-08-28T09:58:38Z</time>
      </trkpt>
      <trkpt lat="42.39041" lon="8.71807">
        <ele>2899.95</ele>
        <time>2013-08-28T09:58:55Z</time>
      </trkpt>
      <trkpt lat="42.38736" lon="8.7203">
        <ele>2909.57</ele>
        <time>2013-08-28T09:59:15Z</time>
      </trkpt>
      <trkpt lat="42.38492" lon="8.72226">
        <ele>2914.85</ele>
        <time>2013-08-28T09:59:31Z</time>
      </trkpt>
      <trkpt lat="42.38181" lon="8.72514">
        <ele>2918.7</ele>
        <time>2013-08-28T09:59:52Z</time>
      </trkpt>
      <trkpt lat="42.37879" lon="8.72839">
        <ele>2928.31</ele>
        <time>2013-08-28T10:00:13Z</time>
      </trkpt>
      <trkpt lat="42.37593" lon="8.73205">
        <ele>2941.29</ele>
        <time>2013-08-28T10:00:34Z</time>
      </trkpt>
      <trkpt lat="42.37348" lon="8.73602">
        <ele>2950.42</ele>
        <time>2013-08-28T10:00:54Z</time>
      </trkpt>
      <trkpt lat="42.37113" lon="8.74086">
        <ele>2961</ele>
        <time>2013-08-28T10:01:16Z</time>
      </trkpt>
      <trkpt lat="42.36977" lon="8.74406">
        <ele>2970.13</ele>
        <time>2013-08-28T10:01:30Z</time>
      </trkpt>
      <trkpt lat="42.36909" lon="8.74487">
        <ele>2972.53</ele>
        <time>2013-08-28T10:01:35Z</time>
      </trkpt>
      <trkpt lat="42.36712" lon="8.74568">
        <ele>2984.55</ele>
        <time>2013-08-28T10:01:48Z</time>
      </trkpt>
      <trkpt lat="42.36423" lon="8.74696">
        <ele>3004.26</ele>
        <time>2013-08-28T10:02:07Z</time>
      </trkpt>
      <trkpt lat="42.3609" lon="8.74876">
        <ele>3030.21</ele>
        <time>2013-08-28T10:02:29Z</time>
      </trkpt>
      <trkpt lat="42.35765" lon="8.75091">
        <ele>3054.25</ele>
        <time>2013-08-28T10:02:51Z</time>
      </trkpt>
      <trkpt lat="42.35417" lon="8.75346">
        <ele>3075.88</ele>
        <time>2013-08-28T10:03:15Z</time>
      </trkpt>
      <trkpt lat="42.35093" lon="8.75584">
        <ele>3091.26</ele>
        <time>2013-08-28T10:03:37Z</time>
      </trkpt>
      <trkpt lat="42.34743" lon="8.75905">
        <ele>3101.83</ele>
        <time>2013-08-28T10:04:01Z</time>
      </trkpt>
      <trkpt lat="42.34584" lon="8.76064">
        <ele>3102.79</ele>
        <time>2013-08-28T10:04:12Z</time>
      </trkpt>
      <trkpt lat="42.34464" lon="8.76117">
        <ele>3100.87</ele>
        <time>2013-08-28T10:04:20Z</time>
      </trkpt>
      <trkpt lat="42.34257" lon="8.76187">
        <ele>3094.14</ele>
        <time>2013-08-28T10:04:34Z</time>
      </trkpt>
      <trkpt lat="42.34001" lon="8.76299">
        <ele>3081.16</ele>
        <time>2013-08-28T10:04:51Z</time>
      </trkpt>
      <trkpt lat="42.3373" lon="8.76444">
        <ele>3065.3</ele>
        <time>2013-08-28T10:05:09Z</time>
      </trkpt>
      <trkpt lat="42.33435" lon="8.76624">
        <ele>3049.92</ele>
        <time>2013-08-28T10:05:29Z</time>
      </trkpt>
      <trkpt lat="42.33235" lon="8.76682">
        <ele>3037.42</ele>
        <time>2013-08-28T10:05:43Z</time>
      </trkpt>
      <trkpt lat="42.33007" lon="8.7676">
        <ele>3023</ele>
        <time>2013-08-28T10:05:59Z</time>
      </trkpt>
      <trkpt lat="42.32964" lon="8.76775">
        <ele>3020.6</ele>
        <time>2013-08-28T10:06:02Z</time>
      </trkpt>
      <trkpt lat="42.32854" lon="8.76766">
        <ele>3010.99</ele>
        <time>2013-08-28T10:06:11Z</time>
      </trkpt>
      <trkpt lat="42.32677" lon="8.76743">
        <ele>2994.16</ele>
        <time>2013-08-28T10:06:26Z</time>
      </trkpt>
      <trkpt lat="42.32473" lon="8.76731">
        <ele>2975.42</ele>
        <time>2013-08-28T10:06:43Z</time>
      </trkpt>
      <trkpt lat="42.3226" lon="8.76738">
        <ele>2956.19</ele>
        <time>2013-08-28T10:07:01Z</time>
      </trkpt>
      <trkpt lat="42.32042" lon="8.76753">
        <ele>2941.77</ele>
        <time>2013-08-28T10:07:19Z</time>
      </trkpt>
      <trkpt lat="42.31733" lon="8.76805">
        <ele>2932.64</ele>
        <time>2013-08-28T10:07:43Z</time>
      </trkpt>
      <trkpt lat="42.31491" lon="8.76857">
        <ele>2925.91</ele>
        <time>2013-08-28T10:08:01Z</time>
      </trkpt>
      <trkpt lat="42.31245" lon="8.76922">
        <ele>2923.99</ele>
        <time>2013-08-28T10:08:19Z</time>
      </trkpt>
      <trkpt lat="42.30958" lon="8.77013">
        <ele>2927.35</ele>
        <time>2013-08-28T10:08:39Z</time>
      </trkpt>
      <trkpt lat="42.30764" lon="8.7708">
        <ele>2932.64</ele>
        <time>2013-08-28T10:08:52Z</time>
      </trkpt>
      <trkpt lat="42.30448" lon="8.772">
        <ele>2945.14</ele>
        <time>2013-08-28T10:09:13Z</time>
      </trkpt>
      <trkpt lat="42.30156" lon="8.77324">
        <ele>2954.27</ele>
        <time>2013-08-28T10:09:32Z</time>
      </trkpt>
      <trkpt lat="42.2983" lon="8.77478">
        <ele>2960.52</ele>
        <time>2013-08-28T10:09:53Z</time>
      </trkpt>
      <trkpt lat="42.29549" lon="8.77634">
        <ele>2960.04</ele>
        <time>2013-08-28T10:10:11Z</time>
      </trkpt>
      <trkpt lat="42.2931" lon="8.77776">
        <ele>2956.67</ele>
        <time>2013-08-28T10:10:26Z</time>
      </trkpt>
      <trkpt lat="42.29034" lon="8.77943">
        <ele>2952.83</ele>
        <time>2013-08-28T10:10:43Z</time>
      </trkpt>
      <trkpt lat="42.28715" lon="8.7814">
        <ele>2944.17</ele>
        <time>2013-08-28T10:11:03Z</time>
      </trkpt>
      <trkpt lat="42.28446" lon="8.78298">
        <ele>2936</ele>
        <time>2013-08-28T10:11:20Z</time>
      </trkpt>
      <trkpt lat="42.28292" lon="8.78364">
        <ele>2934.08</ele>
        <time>2013-08-28T10:11:30Z</time>
      </trkpt>
      <trkpt lat="42.28096" lon="8.78451">
        <ele>2931.2</ele>
        <time>2013-08-28T10:11:43Z</time>
      </trkpt>
      <trkpt lat="42.27944" lon="8.7851">
        <ele>2931.2</ele>
        <time>2013-08-28T10:11:53Z</time>
      </trkpt>
      <trkpt lat="42.27763" lon="8.7858">
        <ele>2931.2</ele>
        <time>2013-08-28T10:12:05Z</time>
      </trkpt>
      <trkpt lat="42.27572" lon="8.78653">
        <ele>2932.64</ele>
        <time>2013-08-28T10:12:18Z</time>
      </trkpt>
      <trkpt lat="42.27366" lon="8.78738">
        <ele>2933.12</ele>
        <time>2013-08-28T10:12:32Z</time>
      </trkpt>
      <trkpt lat="42.27164" lon="8.78815">
        <ele>2933.12</ele>
        <time>2013-08-28T10:12:46Z</time>
      </trkpt>
      <trkpt lat="42.26917" lon="8.78906">
        <ele>2930.24</ele>
        <time>2013-08-28T10:13:03Z</time>
      </trkpt>
      <trkpt lat="42.26646" lon="8.79006">
        <ele>2923.03</ele>
        <time>2013-08-28T10:13:22Z</time>
      </trkpt>
      <trkpt lat="42.26289" lon="8.79143">
        <ele>2907.65</ele>
        <time>2013-08-28T10:13:47Z</time>
      </trkpt>
      <trkpt lat="42.25985" lon="8.7926">
        <ele>2890.34</ele>
        <time>2013-08-28T10:14:08Z</time>
      </trkpt>
      <trkpt lat="42.25618" lon="8.79395">
        <ele>2875.44</ele>
        <time>2013-08-28T10:14:33Z</time>
      </trkpt>
      <trkpt lat="42.25294" lon="8.79519">
        <ele>2868.23</ele>
        <time>2013-08-28T10:14:55Z</time>
      </trkpt>
      <trkpt lat="42.24954" lon="8.79654">
        <ele>2865.83</ele>
        <time>2013-08-28T10:15:18Z</time>
      </trkpt>
      <trkpt lat="42.24658" lon="8.79777">
        <ele>2865.83</ele>
        <time>2013-08-28T10:15:38Z</time>
      </trkpt>
      <trkpt lat="42.24369" lon="8.799">
        <ele>2868.23</ele>
        <time>2013-08-28T10:15:58Z</time>
      </trkpt>
      <trkpt lat="42.24055" lon="8.80046">
        <ele>2865.35</ele>
        <time>2013-08-28T10:16:20Z</time>
      </trkpt>
      <trkpt lat="42.23758" lon="8.80187">
        <ele>2860.06</ele>
        <time>2013-08-28T10:16:41Z</time>
      </trkpt>
      <trkpt lat="42.23486" lon="8.80319">
        <ele>2856.69</ele>
        <time>2013-08-28T10:17:00Z</time>
      </trkpt>
      <trkpt lat="42.23128" lon="8.8048">
        <ele>2861.98</ele>
        <time>2013-08-28T10:17:25Z</time>
      </trkpt>
      <trkpt lat="42.22817" lon="8.80592">
        <ele>2871.11</ele>
        <time>2013-08-28T10:17:47Z</time>
      </trkpt>
      <trkpt lat="42.22535" lon="8.8069">
        <ele>2879.77</ele>
        <time>2013-08-28T10:18:07Z</time>
      </trkpt>
      <trkpt lat="42.22249" lon="8.80794">
        <ele>2891.3</ele>
        <time>2013-08-28T10:18:27Z</time>
      </trkpt>
      <trkpt lat="42.2201" lon="8.80911">
        <ele>2899.47</ele>
        <time>2013-08-28T10:18:44Z</time>
      </trkpt>
      <trkpt lat="42.21785" lon="8.81056">
        <ele>2901.4</ele>
        <time>2013-08-28T10:19:00Z</time>
      </trkpt>
      <trkpt lat="42.21487" lon="8.81284">
        <ele>2909.57</ele>
        <time>2013-08-28T10:19:21Z</time>
      </trkpt>
      <trkpt lat="42.21459" lon="8.81307">
        <ele>2911.01</ele>
        <time>2013-08-28T10:19:23Z</time>
      </trkpt>
      <trkpt lat="42.21314" lon="8.81351">
        <ele>2916.3</ele>
        <time>2013-08-28T10:19:34Z</time>
      </trkpt>
      <trkpt lat="42.21015" lon="8.81448">
        <ele>2929.75</ele>
        <time>2013-08-28T10:19:57Z</time>
      </trkpt>
      <trkpt lat="42.20805" lon="8.81536">
        <ele>2932.64</ele>
        <time>2013-08-28T10:20:14Z</time>
      </trkpt>
      <trkpt lat="42.20631" lon="8.8162">
        <ele>2934.08</ele>
        <time>2013-08-28T10:20:28Z</time>
      </trkpt>
      <trkpt lat="42.20482" lon="8.81698">
        <ele>2934.56</ele>
        <time>2013-08-28T10:20:40Z</time>
      </trkpt>
      <trkpt lat="42.20308" lon="8.81791">
        <ele>2935.52</ele>
        <time>2013-08-28T10:20:54Z</time>
      </trkpt>
      <trkpt lat="42.20183" lon="8.81857">
        <ele>2938.41</ele>
        <time>2013-08-28T10:21:04Z</time>
      </trkpt>
      <trkpt lat="42.20045" lon="8.8193">
        <ele>2944.17</ele>
        <time>2013-08-28T10:21:15Z</time>
      </trkpt>
      <trkpt lat="42.19783" lon="8.82061">
        <ele>2953.31</ele>
        <time>2013-08-28T10:21:36Z</time>
      </trkpt>
      <trkpt lat="42.19547" lon="8.82172">
        <ele>2963.4</ele>
        <time>2013-08-28T10:21:55Z</time>
      </trkpt>
      <trkpt lat="42.19272" lon="8.8229">
        <ele>2974.46</ele>
        <time>2013-08-28T10:22:17Z</time>
      </trkpt>
      <trkpt lat="42.19051" lon="8.82409">
        <ele>2983.59</ele>
        <time>2013-08-28T10:22:34Z</time>
      </trkpt>
      <trkpt lat="42.1881" lon="8.8255">
        <ele>2993.68</ele>
        <time>2013-08-28T10:22:52Z</time>
      </trkpt>
      <trkpt lat="42.18635" lon="8.82658">
        <ele>3001.37</ele>
        <time>2013-08-28T10:23:05Z</time>
      </trkpt>
      <trkpt lat="42.18392" lon="8.82818">
        <ele>3010.03</ele>
        <time>2013-08-28T10:23:23Z</time>
      </trkpt>
      <trkpt lat="42.18162" lon="8.82981">
        <ele>3015.31</ele>
        <time>2013-08-28T10:23:40Z</time>
      </trkpt>
      <trkpt lat="42.17931" lon="8.83144">
        <ele>3017.72</ele>
        <time>2013-08-28T10:23:57Z</time>
      </trkpt>
      <trkpt lat="42.17739" lon="8.83292">
        <ele>3019.64</ele>
        <time>2013-08-28T10:24:11Z</time>
      </trkpt>
      <trkpt lat="42.17462" lon="8.83529">
        <ele>3023.96</ele>
        <time>2013-08-28T10:24:31Z</time>
      </trkpt>
      <trkpt lat="42.17224" lon="8.83743">
        <ele>3029.73</ele>
        <time>2013-08-28T10:24:48Z</time>
      </trkpt>
      <trkpt lat="42.17072" lon="8.83808">
        <ele>3034.06</ele>
        <time>2013-08-28T10:24:59Z</time>
      </trkpt>
      <trkpt lat="42.16861" lon="8.83907">
        <ele>3037.42</ele>
        <time>2013-08-28T10:25:14Z</time>
      </trkpt>
      <trkpt lat="42.16518" lon="8.84084">
        <ele>3037.42</ele>
        <time>2013-08-28T10:25:38Z</time>
      </trkpt>
      <trkpt lat="42.16125" lon="8.84316">
        <ele>3038.86</ele>
        <time>2013-08-28T10:26:06Z</time>
      </trkpt>
      <trkpt lat="42.15664" lon="8.84622">
        <ele>3052.32</ele>
        <time>2013-08-28T10:26:39Z</time>
      </trkpt>
      <trkpt lat="42.15368" lon="8.84866">
        <ele>3068.19</ele>
        <time>2013-08-28T10:27:00Z</time>
      </trkpt>
      <trkpt lat="42.15106" lon="8.85126">
        <ele>3083.09</ele>
        <time>2013-08-28T10:27:19Z</time>
      </trkpt>
      <trkpt lat="42.14859" lon="8.85393">
        <ele>3093.18</ele>
        <time>2013-08-28T10:27:37Z</time>
      </trkpt>
      <trkpt lat="42.14596" lon="8.85683">
        <ele>3099.91</ele>
        <time>2013-08-28T10:27:56Z</time>
      </trkpt>
      <trkpt lat="42.1429" lon="8.8604">
        <ele>3097.51</ele>
        <time>2013-08-28T10:28:18Z</time>
      </trkpt>
      <trkpt lat="42.14021" lon="8.86394">
        <ele>3086.93</ele>
        <time>2013-08-28T10:28:38Z</time>
      </trkpt>
      <trkpt lat="42.13839" lon="8.86655">
        <ele>3078.76</ele>
        <time>2013-08-28T10:28:52Z</time>
      </trkpt>
      <trkpt lat="42.13765" lon="8.86709">
        <ele>3074.43</ele>
        <time>2013-08-28T10:28:57Z</time>
      </trkpt>
      <trkpt lat="42.13588" lon="8.8673">
        <ele>3067.22</ele>
        <time>2013-08-28T10:29:10Z</time>
      </trkpt>
      <trkpt lat="42.13263" lon="8.86759">
        <ele>3059.05</ele>
        <time>2013-08-28T10:29:34Z</time>
      </trkpt>
      <trkpt lat="42.12914" lon="8.86793">
        <ele>3054.73</ele>
        <time>2013-08-28T10:30:00Z</time>
      </trkpt>
      <trkpt lat="42.12462" lon="8.8684">
        <ele>3056.17</ele>
        <time>2013-08-28T10:30:33Z</time>
      </trkpt>
      <trkpt lat="42.12139" lon="8.86894">
        <ele>3057.13</ele>
        <time>2013-08-28T10:30:56Z</time>
      </trkpt>
      <trkpt lat="42.11879" lon="8.86961">
        <ele>3058.09</ele>
        <time>2013-08-28T10:31:14Z</time>
      </trkpt>
      <trkpt lat="42.11508" lon="8.87085">
        <ele>3063.86</ele>
        <time>2013-08-28T10:31:39Z</time>
      </trkpt>
      <trkpt lat="42.11129" lon="8.87231">
        <ele>3072.99</ele>
        <time>2013-08-28T10:32:04Z</time>
      </trkpt>
      <trkpt lat="42.10793" lon="8.87375">
        <ele>3083.57</ele>
        <time>2013-08-28T10:32:26Z</time>
      </trkpt>
      <trkpt lat="42.1055" lon="8.87495">
        <ele>3089.33</ele>
        <time>2013-08-28T10:32:42Z</time>
      </trkpt>
      <trkpt lat="42.10358" lon="8.87565">
        <ele>3093.18</ele>
        <time>2013-08-28T10:32:55Z</time>
      </trkpt>
      <trkpt lat="42.1015" lon="8.87646">
        <ele>3096.06</ele>
        <time>2013-08-28T10:33:09Z</time>
      </trkpt>
      <trkpt lat="42.09908" lon="8.87752">
        <ele>3097.51</ele>
        <time>2013-08-28T10:33:25Z</time>
      </trkpt>
      <trkpt lat="42.09618" lon="8.87899">
        <ele>3099.43</ele>
        <time>2013-08-28T10:33:44Z</time>
      </trkpt>
      <trkpt lat="42.09345" lon="8.88077">
        <ele>3100.39</ele>
        <time>2013-08-28T10:34:02Z</time>
      </trkpt>
      <trkpt lat="42.09089" lon="8.88286">
        <ele>3099.43</ele>
        <time>2013-08-28T10:34:19Z</time>
      </trkpt>
      <trkpt lat="42.08808" lon="8.8857">
        <ele>3100.87</ele>
        <time>2013-08-28T10:34:38Z</time>
      </trkpt>
      <trkpt lat="42.0851" lon="8.88918">
        <ele>3104.23</ele>
        <time>2013-08-28T10:34:59Z</time>
      </trkpt>
      <trkpt lat="42.08176" lon="8.89319">
        <ele>3106.16</ele>
        <time>2013-08-28T10:35:23Z</time>
      </trkpt>
      <trkpt lat="42.07957" lon="8.89568">
        <ele>3104.23</ele>
        <time>2013-08-28T10:35:39Z</time>
      </trkpt>
      <trkpt lat="42.07786" lon="8.89651">
        <ele>3097.99</ele>
        <time>2013-08-28T10:35:51Z</time>
      </trkpt>
      <trkpt lat="42.07394" lon="8.89861">
        <ele>3090.78</ele>
        <time>2013-08-28T10:36:18Z</time>
      </trkpt>
      <trkpt lat="42.07148" lon="8.90011">
        <ele>3093.18</ele>
        <time>2013-08-28T10:36:34Z</time>
      </trkpt>
      <trkpt lat="42.07017" lon="8.90046">
        <ele>3094.14</ele>
        <time>2013-08-28T10:36:43Z</time>
      </trkpt>
      <trkpt lat="42.06975" lon="8.90052">
        <ele>3094.14</ele>
        <time>2013-08-28T10:36:46Z</time>
      </trkpt>
      <trkpt lat="42.06899" lon="8.9002">
        <ele>3094.14</ele>
        <time>2013-08-28T10:36:54Z</time>
      </trkpt>
      <trkpt lat="42.06894" lon="8.90013">
        <ele>3094.14</ele>
        <time>2013-08-28T10:36:55Z</time>
      </trkpt>
      <trkpt lat="42.06824" lon="8.89928">
        <ele>3094.62</ele>
        <time>2013-08-28T10:37:08Z</time>
      </trkpt>
      <trkpt lat="42.06786" lon="8.89882">
        <ele>3095.1</ele>
        <time>2013-08-28T10:37:15Z</time>
      </trkpt>
      <trkpt lat="42.06726" lon="8.89859">
        <ele>3093.66</ele>
        <time>2013-08-28T10:37:21Z</time>
      </trkpt>
      <trkpt lat="42.06697" lon="8.89865">
        <ele>3094.14</ele>
        <time>2013-08-28T10:37:23Z</time>
      </trkpt>
      <trkpt lat="42.06433" lon="8.89972">
        <ele>3096.06</ele>
        <time>2013-08-28T10:37:40Z</time>
      </trkpt>
      <trkpt lat="42.06186" lon="8.90095">
        <ele>3097.99</ele>
        <time>2013-08-28T10:37:56Z</time>
      </trkpt>
      <trkpt lat="42.05869" lon="8.90282">
        <ele>3096.06</ele>
        <time>2013-08-28T10:38:17Z</time>
      </trkpt>
      <trkpt lat="42.05633" lon="8.9043">
        <ele>3091.26</ele>
        <time>2013-08-28T10:38:33Z</time>
      </trkpt>
      <trkpt lat="42.05449" lon="8.90528">
        <ele>3086.93</ele>
        <time>2013-08-28T10:38:46Z</time>
      </trkpt>
      <trkpt lat="42.05255" lon="8.90582">
        <ele>3081.16</ele>
        <time>2013-08-28T10:39:00Z</time>
      </trkpt>
      <trkpt lat="42.05039" lon="8.90664">
        <ele>3075.88</ele>
        <time>2013-08-28T10:39:15Z</time>
      </trkpt>
      <trkpt lat="42.04802" lon="8.90771">
        <ele>3070.59</ele>
        <time>2013-08-28T10:39:31Z</time>
      </trkpt>
      <trkpt lat="42.04581" lon="8.90886">
        <ele>3065.78</ele>
        <time>2013-08-28T10:39:46Z</time>
      </trkpt>
      <trkpt lat="42.04342" lon="8.91019">
        <ele>3060.49</ele>
        <time>2013-08-28T10:40:02Z</time>
      </trkpt>
      <trkpt lat="42.0408" lon="8.9118">
        <ele>3057.61</ele>
        <time>2013-08-28T10:40:19Z</time>
      </trkpt>
      <trkpt lat="42.03767" lon="8.91392">
        <ele>3057.13</ele>
        <time>2013-08-28T10:40:39Z</time>
      </trkpt>
      <trkpt lat="42.03566" lon="8.91548">
        <ele>3056.17</ele>
        <time>2013-08-28T10:40:52Z</time>
      </trkpt>
      <trkpt lat="42.03402" lon="8.91605">
        <ele>3053.28</ele>
        <time>2013-08-28T10:41:03Z</time>
      </trkpt>
      <trkpt lat="42.03105" lon="8.91714">
        <ele>3048.96</ele>
        <time>2013-08-28T10:41:23Z</time>
      </trkpt>
      <trkpt lat="42.02814" lon="8.91819">
        <ele>3050.88</ele>
        <time>2013-08-28T10:41:43Z</time>
      </trkpt>
      <trkpt lat="42.02549" lon="8.91909">
        <ele>3059.05</ele>
        <time>2013-08-28T10:42:02Z</time>
      </trkpt>
      <trkpt lat="42.02369" lon="8.91961">
        <ele>3067.7</ele>
        <time>2013-08-28T10:42:15Z</time>
      </trkpt>
      <trkpt lat="42.02196" lon="8.91985">
        <ele>3079.24</ele>
        <time>2013-08-28T10:42:28Z</time>
      </trkpt>
      <trkpt lat="42.02025" lon="8.91998">
        <ele>3093.66</ele>
        <time>2013-08-28T10:42:41Z</time>
      </trkpt>
      <trkpt lat="42.01828" lon="8.9208">
        <ele>3106.16</ele>
        <time>2013-08-28T10:42:54Z</time>
      </trkpt>
      <trkpt lat="42.01528" lon="8.92222">
        <ele>3118.65</ele>
        <time>2013-08-28T10:43:13Z</time>
      </trkpt>
      <trkpt lat="42.01224" lon="8.92419">
        <ele>3119.62</ele>
        <time>2013-08-28T10:43:32Z</time>
      </trkpt>
      <trkpt lat="42.01002" lon="8.92562">
        <ele>3112.41</ele>
        <time>2013-08-28T10:43:46Z</time>
      </trkpt>
      <trkpt lat="42.00843" lon="8.92628">
        <ele>3107.6</ele>
        <time>2013-08-28T10:43:56Z</time>
      </trkpt>
      <trkpt lat="42.00656" lon="8.92723">
        <ele>3105.2</ele>
        <time>2013-08-28T10:44:08Z</time>
      </trkpt>
      <trkpt lat="42.00462" lon="8.9283">
        <ele>3108.56</ele>
        <time>2013-08-28T10:44:21Z</time>
      </trkpt>
      <trkpt lat="42.00238" lon="8.92949">
        <ele>3118.65</ele>
        <time>2013-08-28T10:44:36Z</time>
      </trkpt>
      <trkpt lat="42.00056" lon="8.93037">
        <ele>3129.23</ele>
        <time>2013-08-28T10:44:48Z</time>
      </trkpt>
      <trkpt lat="41.9981" lon="8.9316">
        <ele>3141.25</ele>
        <time>2013-08-28T10:45:04Z</time>
      </trkpt>
      <trkpt lat="41.99599" lon="8.93264">
        <ele>3147.01</ele>
        <time>2013-08-28T10:45:18Z</time>
      </trkpt>
      <trkpt lat="41.99422" lon="8.93351">
        <ele>3150.38</ele>
        <time>2013-08-28T10:45:30Z</time>
      </trkpt>
      <trkpt lat="41.99248" lon="8.93449">
        <ele>3154.7</ele>
        <time>2013-08-28T10:45:42Z</time>
      </trkpt>
      <trkpt lat="41.99044" lon="8.93556">
        <ele>3157.59</ele>
        <time>2013-08-28T10:45:56Z</time>
      </trkpt>
      <trkpt lat="41.98821" lon="8.93671">
        <ele>3159.03</ele>
        <time>2013-08-28T10:46:11Z</time>
      </trkpt>
      <trkpt lat="41.9864" lon="8.93764">
        <ele>3158.55</ele>
        <time>2013-08-28T10:46:23Z</time>
      </trkpt>
      <trkpt lat="41.98475" lon="8.9385">
        <ele>3158.07</ele>
        <time>2013-08-28T10:46:34Z</time>
      </trkpt>
      <trkpt lat="41.98355" lon="8.93918">
        <ele>3157.11</ele>
        <time>2013-08-28T10:46:42Z</time>
      </trkpt>
      <trkpt lat="41.98204" lon="8.94006">
        <ele>3153.26</ele>
        <time>2013-08-28T10:46:52Z</time>
      </trkpt>
      <trkpt lat="41.98067" lon="8.94083">
        <ele>3149.9</ele>
        <time>2013-08-28T10:47:01Z</time>
      </trkpt>
      <trkpt lat="41.97889" lon="8.94192">
        <ele>3146.05</ele>
        <time>2013-08-28T10:47:13Z</time>
      </trkpt>
      <trkpt lat="41.97695" lon="8.94314">
        <ele>3142.21</ele>
        <time>2013-08-28T10:47:26Z</time>
      </trkpt>
      <trkpt lat="41.97515" lon="8.94426">
        <ele>3139.32</ele>
        <time>2013-08-28T10:47:38Z</time>
      </trkpt>
      <trkpt lat="41.9732" lon="8.94547">
        <ele>3135.48</ele>
        <time>2013-08-28T10:47:51Z</time>
      </trkpt>
      <trkpt lat="41.97095" lon="8.9469">
        <ele>3130.19</ele>
        <time>2013-08-28T10:48:06Z</time>
      </trkpt>
      <trkpt lat="41.96859" lon="8.94854">
        <ele>3127.31</ele>
        <time>2013-08-28T10:48:22Z</time>
      </trkpt>
      <trkpt lat="41.96639" lon="8.95015">
        <ele>3126.83</ele>
        <time>2013-08-28T10:48:37Z</time>
      </trkpt>
      <trkpt lat="41.96398" lon="8.95224">
        <ele>3129.23</ele>
        <time>2013-08-28T10:48:54Z</time>
      </trkpt>
      <trkpt lat="41.96162" lon="8.95439">
        <ele>3133.07</ele>
        <time>2013-08-28T10:49:11Z</time>
      </trkpt>
      <trkpt lat="41.96121" lon="8.95476">
        <ele>3134.04</ele>
        <time>2013-08-28T10:49:14Z</time>
      </trkpt>
      <trkpt lat="41.96068" lon="8.95502">
        <ele>3134.04</ele>
        <time>2013-08-28T10:49:18Z</time>
      </trkpt>
      <trkpt lat="41.95935" lon="8.95519">
        <ele>3136.44</ele>
        <time>2013-08-28T10:49:29Z</time>
      </trkpt>
      <trkpt lat="41.95789" lon="8.95543">
        <ele>3139.8</ele>
        <time>2013-08-28T10:49:41Z</time>
      </trkpt>
      <trkpt lat="41.95622" lon="8.95558">
        <ele>3143.17</ele>
        <time>2013-08-28T10:49:55Z</time>
      </trkpt>
      <trkpt lat="41.95501" lon="8.9556">
        <ele>3146.53</ele>
        <time>2013-08-28T10:50:05Z</time>
      </trkpt>
      <trkpt lat="41.95339" lon="8.95567">
        <ele>3153.74</ele>
        <time>2013-08-28T10:50:18Z</time>
      </trkpt>
      <trkpt lat="41.95198" lon="8.95575">
        <ele>3159.99</ele>
        <time>2013-08-28T10:50:29Z</time>
      </trkpt>
      <trkpt lat="41.95004" lon="8.95591">
        <ele>3170.57</ele>
        <time>2013-08-28T10:50:44Z</time>
      </trkpt>
      <trkpt lat="41.94811" lon="8.95594">
        <ele>3179.22</ele>
        <time>2013-08-28T10:50:59Z</time>
      </trkpt>
      <trkpt lat="41.94665" lon="8.95601">
        <ele>3184.5</ele>
        <time>2013-08-28T10:51:10Z</time>
      </trkpt>
      <trkpt lat="41.94451" lon="8.95623">
        <ele>3189.79</ele>
        <time>2013-08-28T10:51:26Z</time>
      </trkpt>
      <trkpt lat="41.94215" lon="8.95659">
        <ele>3197</ele>
        <time>2013-08-28T10:51:44Z</time>
      </trkpt>
      <trkpt lat="41.93948" lon="8.9571">
        <ele>3204.21</ele>
        <time>2013-08-28T10:52:04Z</time>
      </trkpt>
      <trkpt lat="41.93708" lon="8.95761">
        <ele>3212.86</ele>
        <time>2013-08-28T10:52:21Z</time>
      </trkpt>
      <trkpt lat="41.93517" lon="8.95818">
        <ele>3219.11</ele>
        <time>2013-08-28T10:52:34Z</time>
      </trkpt>
      <trkpt lat="41.93278" lon="8.95903">
        <ele>3225.36</ele>
        <time>2013-08-28T10:52:50Z</time>
      </trkpt>
      <trkpt lat="41.93001" lon="8.96024">
        <ele>3229.69</ele>
        <time>2013-08-28T10:53:08Z</time>
      </trkpt>
      <trkpt lat="41.92799" lon="8.96116">
        <ele>3230.17</ele>
        <time>2013-08-28T10:53:21Z</time>
      </trkpt>
      <trkpt lat="41.92572" lon="8.96185">
        <ele>3228.73</ele>
        <time>2013-08-28T10:53:36Z</time>
      </trkpt>
      <trkpt lat="41.92279" lon="8.96312">
        <ele>3224.4</ele>
        <time>2013-08-28T10:53:55Z</time>
      </trkpt>
      <trkpt lat="41.92001" lon="8.96464">
        <ele>3217.67</ele>
        <time>2013-08-28T10:54:13Z</time>
      </trkpt>
      <trkpt lat="41.91768" lon="8.96614">
        <ele>3217.67</ele>
        <time>2013-08-28T10:54:28Z</time>
      </trkpt>
      <trkpt lat="41.91474" lon="8.96834">
        <ele>3211.42</ele>
        <time>2013-08-28T10:54:47Z</time>
      </trkpt>
      <trkpt lat="41.91259" lon="8.97015">
        <ele>3214.31</ele>
        <time>2013-08-28T10:55:01Z</time>
      </trkpt>
      <trkpt lat="41.90984" lon="8.97257">
        <ele>3217.67</ele>
        <time>2013-08-28T10:55:19Z</time>
      </trkpt>
      <trkpt lat="41.9077" lon="8.97452">
        <ele>3217.19</ele>
        <time>2013-08-28T10:55:33Z</time>
      </trkpt>
      <trkpt lat="41.90577" lon="8.97666">
        <ele>3205.17</ele>
        <time>2013-08-28T10:55:46Z</time>
      </trkpt>
      <trkpt lat="41.90396" lon="8.97925">
        <ele>3183.54</ele>
        <time>2013-08-28T10:55:59Z</time>
      </trkpt>
      <trkpt lat="41.90241" lon="8.98229">
        <ele>3159.99</ele>
        <time>2013-08-28T10:56:12Z</time>
      </trkpt>
      <trkpt lat="41.90181" lon="8.9838">
        <ele>3149.42</ele>
        <time>2013-08-28T10:56:18Z</time>
      </trkpt>
      <trkpt lat="41.90125" lon="8.98443">
        <ele>3140.28</ele>
        <time>2013-08-28T10:56:22Z</time>
      </trkpt>
      <trkpt lat="41.8998" lon="8.98522">
        <ele>3123.46</ele>
        <time>2013-08-28T10:56:32Z</time>
      </trkpt>
      <trkpt lat="41.89795" lon="8.98665">
        <ele>3102.79</ele>
        <time>2013-08-28T10:56:45Z</time>
      </trkpt>
      <trkpt lat="41.8964" lon="8.98783">
        <ele>3084.05</ele>
        <time>2013-08-28T10:56:56Z</time>
      </trkpt>
      <trkpt lat="41.89485" lon="8.98854">
        <ele>3065.3</ele>
        <time>2013-08-28T10:57:07Z</time>
      </trkpt>
      <trkpt lat="41.89309" lon="8.98971">
        <ele>3048</ele>
        <time>2013-08-28T10:57:19Z</time>
      </trkpt>
      <trkpt lat="41.89149" lon="8.99107">
        <ele>3036.46</ele>
        <time>2013-08-28T10:57:30Z</time>
      </trkpt>
      <trkpt lat="41.89021" lon="8.99136">
        <ele>3022.04</ele>
        <time>2013-08-28T10:57:40Z</time>
      </trkpt>
      <trkpt lat="41.88933" lon="8.99121">
        <ele>3006.66</ele>
        <time>2013-08-28T10:57:49Z</time>
      </trkpt>
      <trkpt lat="41.88785" lon="8.99124">
        <ele>2984.55</ele>
        <time>2013-08-28T10:58:02Z</time>
      </trkpt>
      <trkpt lat="41.88631" lon="8.99152">
        <ele>2979.26</ele>
        <time>2013-08-28T10:58:14Z</time>
      </trkpt>
      <trkpt lat="41.88434" lon="8.99206">
        <ele>2980.22</ele>
        <time>2013-08-28T10:58:29Z</time>
      </trkpt>
      <trkpt lat="41.88234" lon="8.99276">
        <ele>2989.36</ele>
        <time>2013-08-28T10:58:44Z</time>
      </trkpt>
      <trkpt lat="41.8819" lon="8.99276">
        <ele>2991.28</ele>
        <time>2013-08-28T10:58:48Z</time>
      </trkpt>
      <trkpt lat="41.88138" lon="8.99262">
        <ele>2995.12</ele>
        <time>2013-08-28T10:58:54Z</time>
      </trkpt>
      <trkpt lat="41.88048" lon="8.99216">
        <ele>3002.82</ele>
        <time>2013-08-28T10:59:07Z</time>
      </trkpt>
      <trkpt lat="41.88016" lon="8.99204">
        <ele>3003.78</ele>
        <time>2013-08-28T10:59:11Z</time>
      </trkpt>
      <trkpt lat="41.87915" lon="8.99193">
        <ele>2994.16</ele>
        <time>2013-08-28T10:59:22Z</time>
      </trkpt>
      <trkpt lat="41.87754" lon="8.99206">
        <ele>2967.73</ele>
        <time>2013-08-28T10:59:36Z</time>
      </trkpt>
      <trkpt lat="41.87635" lon="8.99241">
        <ele>2947.54</ele>
        <time>2013-08-28T10:59:45Z</time>
      </trkpt>
      <trkpt lat="41.87584" lon="8.99238">
        <ele>2936.97</ele>
        <time>2013-08-28T10:59:50Z</time>
      </trkpt>
      <trkpt lat="41.87559" lon="8.99223">
        <ele>2928.79</ele>
        <time>2013-08-28T10:59:54Z</time>
      </trkpt>
      <trkpt lat="41.87537" lon="8.99204">
        <ele>2918.7</ele>
        <time>2013-08-28T10:59:59Z</time>
      </trkpt>
      <trkpt lat="41.8753" lon="8.99177">
        <ele>2902.36</ele>
        <time>2013-08-28T11:00:07Z</time>
      </trkpt>
      <trkpt lat="41.87533" lon="8.99171">
        <ele>2898.03</ele>
        <time>2013-08-28T11:00:09Z</time>
      </trkpt>
      <trkpt lat="41.87537" lon="8.99159">
        <ele>2889.38</ele>
        <time>2013-08-28T11:00:13Z</time>
      </trkpt>
      <trkpt lat="41.8753" lon="8.99138">
        <ele>2875.92</ele>
        <time>2013-08-28T11:00:19Z</time>
      </trkpt>
      <trkpt lat="41.87507" lon="8.99127">
        <ele>2866.79</ele>
        <time>2013-08-28T11:00:23Z</time>
      </trkpt>
      <trkpt lat="41.87386" lon="8.99126">
        <ele>2846.12</ele>
        <time>2013-08-28T11:00:34Z</time>
      </trkpt>
      <trkpt lat="41.87238" lon="8.99145">
        <ele>2836.99</ele>
        <time>2013-08-28T11:00:46Z</time>
      </trkpt>
      <trkpt lat="41.87075" lon="8.99192">
        <ele>2830.26</ele>
        <time>2013-08-28T11:00:58Z</time>
      </trkpt>
      <trkpt lat="41.86989" lon="8.99236">
        <ele>2826.89</ele>
        <time>2013-08-28T11:01:04Z</time>
      </trkpt>
      <trkpt lat="41.86905" lon="8.99254">
        <ele>2821.13</ele>
        <time>2013-08-28T11:01:11Z</time>
      </trkpt>
      <trkpt lat="41.86806" lon="8.99264">
        <ele>2815.36</ele>
        <time>2013-08-28T11:01:20Z</time>
      </trkpt>
      <trkpt lat="41.86714" lon="8.99274">
        <ele>2810.55</ele>
        <time>2013-08-28T11:01:28Z</time>
      </trkpt>
      <trkpt lat="41.86579" lon="8.99323">
        <ele>2810.55</ele>
        <time>2013-08-28T11:01:38Z</time>
      </trkpt>
      <trkpt lat="41.86408" lon="8.9941">
        <ele>2809.11</ele>
        <time>2013-08-28T11:01:50Z</time>
      </trkpt>
      <trkpt lat="41.86283" lon="8.9947">
        <ele>2809.11</ele>
        <time>2013-08-28T11:01:59Z</time>
      </trkpt>
      <trkpt lat="41.86204" lon="8.99509">
        <ele>2808.63</ele>
        <time>2013-08-28T11:02:05Z</time>
      </trkpt>
      <trkpt lat="41.86093" lon="8.99569">
        <ele>2808.63</ele>
        <time>2013-08-28T11:02:13Z</time>
      </trkpt>
      <trkpt lat="41.85978" lon="8.99647">
        <ele>2810.55</ele>
        <time>2013-08-28T11:02:21Z</time>
      </trkpt>
      <trkpt lat="41.85866" lon="8.99724">
        <ele>2811.99</ele>
        <time>2013-08-28T11:02:29Z</time>
      </trkpt>
      <trkpt lat="41.85752" lon="8.99811">
        <ele>2811.99</ele>
        <time>2013-08-28T11:02:37Z</time>
      </trkpt>
      <trkpt lat="41.85635" lon="8.99901">
        <ele>2811.51</ele>
        <time>2013-08-28T11:02:45Z</time>
      </trkpt>
      <trkpt lat="41.8551" lon="8.99993">
        <ele>2812.47</ele>
        <time>2013-08-28T11:02:54Z</time>
      </trkpt>
      <trkpt lat="41.85453" lon="9.00007">
        <ele>2811.99</ele>
        <time>2013-08-28T11:03:00Z</time>
      </trkpt>
      <trkpt lat="41.85369" lon="9.00027">
        <ele>2812.47</ele>
        <time>2013-08-28T11:03:09Z</time>
      </trkpt>
      <trkpt lat="41.85271" lon="9.00054">
        <ele>2812.96</ele>
        <time>2013-08-28T11:03:20Z</time>
      </trkpt>
      <trkpt lat="41.85138" lon="9.00101">
        <ele>2810.07</ele>
        <time>2013-08-28T11:03:33Z</time>
      </trkpt>
      <trkpt lat="41.8497" lon="9.0017">
        <ele>2806.71</ele>
        <time>2013-08-28T11:03:49Z</time>
      </trkpt>
      <trkpt lat="41.84836" lon="9.00222">
        <ele>2803.82</ele>
        <time>2013-08-28T11:04:02Z</time>
      </trkpt>
      <trkpt lat="41.84706" lon="9.00279">
        <ele>2801.9</ele>
        <time>2013-08-28T11:04:14Z</time>
      </trkpt>
      <trkpt lat="41.84539" lon="9.00355">
        <ele>2800.46</ele>
        <time>2013-08-28T11:04:29Z</time>
      </trkpt>
      <trkpt lat="41.84375" lon="9.00427">
        <ele>2799.98</ele>
        <time>2013-08-28T11:04:44Z</time>
      </trkpt>
      <trkpt lat="41.84245" lon="9.00493">
        <ele>2799.5</ele>
        <time>2013-08-28T11:04:55Z</time>
      </trkpt>
      <trkpt lat="41.84105" lon="9.00566">
        <ele>2797.57</ele>
        <time>2013-08-28T11:05:07Z</time>
      </trkpt>
      <trkpt lat="41.83957" lon="9.00629">
        <ele>2793.25</ele>
        <time>2013-08-28T11:05:20Z</time>
      </trkpt>
      <trkpt lat="41.83796" lon="9.00688">
        <ele>2787</ele>
        <time>2013-08-28T11:05:35Z</time>
      </trkpt>
      <trkpt lat="41.83736" lon="9.00704">
        <ele>2785.56</ele>
        <time>2013-08-28T11:05:43Z</time>
      </trkpt>
      <trkpt lat="41.83727" lon="9.00706">
        <ele>2783.63</ele>
        <time>2013-08-28T11:05:49Z</time>
      </trkpt>
      <trkpt lat="41.83735" lon="9.00712">
        <ele>2782.67</ele>
        <time>2013-08-28T11:05:57Z</time>
      </trkpt>
      <trkpt lat="41.83714" lon="9.00721">
        <ele>2781.23</ele>
        <time>2013-08-28T11:06:03Z</time>
      </trkpt>
      <trkpt lat="41.83642" lon="9.0075">
        <ele>2780.75</ele>
        <time>2013-08-28T11:06:11Z</time>
      </trkpt>
      <trkpt lat="41.83561" lon="9.00788">
        <ele>2779.79</ele>
        <time>2013-08-28T11:06:20Z</time>
      </trkpt>
      <trkpt lat="41.83456" lon="9.00846">
        <ele>2777.87</ele>
        <time>2013-08-28T11:06:31Z</time>
      </trkpt>
      <trkpt lat="41.8335" lon="9.00907">
        <ele>2776.42</ele>
        <time>2013-08-28T11:06:42Z</time>
      </trkpt>
      <trkpt lat="41.83227" lon="9.0098">
        <ele>2775.46</ele>
        <time>2013-08-28T11:06:55Z</time>
      </trkpt>
      <trkpt lat="41.83021" lon="9.01095">
        <ele>2773.06</ele>
        <time>2013-08-28T11:07:16Z</time>
      </trkpt>
      <trkpt lat="41.82889" lon="9.01165">
        <ele>2774.5</ele>
        <time>2013-08-28T11:07:29Z</time>
      </trkpt>
      <trkpt lat="41.8285" lon="9.01178">
        <ele>2778.35</ele>
        <time>2013-08-28T11:07:38Z</time>
      </trkpt>
      <trkpt lat="41.82843" lon="9.01186">
        <ele>2781.71</ele>
        <time>2013-08-28T11:07:45Z</time>
      </trkpt>
      <trkpt lat="41.82838" lon="9.01191">
        <ele>2783.15</ele>
        <time>2013-08-28T11:07:49Z</time>
      </trkpt>
      <trkpt lat="41.82798" lon="9.01206">
        <ele>2787.96</ele>
        <time>2013-08-28T11:07:59Z</time>
      </trkpt>
      <trkpt lat="41.82753" lon="9.01227">
        <ele>2792.77</ele>
        <time>2013-08-28T11:08:09Z</time>
      </trkpt>
      <trkpt lat="41.82687" lon="9.01254">
        <ele>2796.13</ele>
        <time>2013-08-28T11:08:21Z</time>
      </trkpt>
      <trkpt lat="41.82609" lon="9.01287">
        <ele>2800.94</ele>
        <time>2013-08-28T11:08:35Z</time>
      </trkpt>
      <trkpt lat="41.82476" lon="9.01341">
        <ele>2804.78</ele>
        <time>2013-08-28T11:08:57Z</time>
      </trkpt>
      <trkpt lat="41.82336" lon="9.01398">
        <ele>2809.11</ele>
        <time>2013-08-28T11:09:17Z</time>
      </trkpt>
      <trkpt lat="41.82242" lon="9.01442">
        <ele>2811.51</ele>
        <time>2013-08-28T11:09:30Z</time>
      </trkpt>
      <trkpt lat="41.8215" lon="9.01484">
        <ele>2812.96</ele>
        <time>2013-08-28T11:09:44Z</time>
      </trkpt>
      <trkpt lat="41.82078" lon="9.01518">
        <ele>2813.92</ele>
        <time>2013-08-28T11:09:56Z</time>
      </trkpt>
      <trkpt lat="41.82082" lon="9.01526">
        <ele>2815.36</ele>
        <time>2013-08-28T11:10:00Z</time>
      </trkpt>
      <trkpt lat="41.8214" lon="9.01584">
        <ele>2814.88</ele>
        <time>2013-08-28T11:10:06Z</time>
      </trkpt>
      <trkpt lat="41.82153" lon="9.01603">
        <ele>2814.4</ele>
        <time>2013-08-28T11:10:07Z</time>
      </trkpt>
      <trkpt lat="41.82202" lon="9.01778">
        <ele>2814.4</ele>
        <time>2013-08-28T11:10:13Z</time>
      </trkpt>
      <trkpt lat="41.8219" lon="9.01918">
        <ele>2814.4</ele>
        <time>2013-08-28T11:10:17Z</time>
      </trkpt>
      <trkpt lat="41.82131" lon="9.02049">
        <ele>2814.4</ele>
        <time>2013-08-28T11:10:22Z</time>
      </trkpt>
      <trkpt lat="41.82088" lon="9.02095">
        <ele>2814.88</ele>
        <time>2013-08-28T11:10:25Z</time>
      </trkpt>
      <trkpt lat="41.81989" lon="9.0216">
        <ele>2819.68</ele>
        <time>2013-08-28T11:10:34Z</time>
      </trkpt>
      <trkpt lat="41.81877" lon="9.02212">
        <ele>2825.93</ele>
        <time>2013-08-28T11:10:48Z</time>
      </trkpt>
      <trkpt lat="41.81701" lon="9.0229">
        <ele>2837.95</ele>
        <time>2013-08-28T11:11:10Z</time>
      </trkpt>
      <trkpt lat="41.81556" lon="9.02347">
        <ele>2846.12</ele>
        <time>2013-08-28T11:11:26Z</time>
      </trkpt>
      <trkpt lat="41.81445" lon="9.02396">
        <ele>2848.52</ele>
        <time>2013-08-28T11:11:37Z</time>
      </trkpt>
      <trkpt lat="41.81399" lon="9.02406">
        <ele>2851.41</ele>
        <time>2013-08-28T11:11:48Z</time>
      </trkpt>
      <trkpt lat="41.81395" lon="9.0241">
        <ele>2852.85</ele>
        <time>2013-08-28T11:11:54Z</time>
      </trkpt>
      <trkpt lat="41.81414" lon="9.02426">
        <ele>2855.73</ele>
        <time>2013-08-28T11:12:03Z</time>
      </trkpt>
      <trkpt lat="41.81382" lon="9.02436">
        <ele>2855.73</ele>
        <time>2013-08-28T11:12:09Z</time>
      </trkpt>
      <trkpt lat="41.81371" lon="9.02442">
        <ele>2856.21</ele>
        <time>2013-08-28T11:12:10Z</time>
      </trkpt>
      <trkpt lat="41.81239" lon="9.02492">
        <ele>2856.69</ele>
        <time>2013-08-28T11:12:21Z</time>
      </trkpt>
      <trkpt lat="41.81151" lon="9.0252">
        <ele>2855.73</ele>
        <time>2013-08-28T11:12:29Z</time>
      </trkpt>
      <trkpt lat="41.81039" lon="9.02542">
        <ele>2855.25</ele>
        <time>2013-08-28T11:12:40Z</time>
      </trkpt>
      <trkpt lat="41.81029" lon="9.02544">
        <ele>2855.25</ele>
        <time>2013-08-28T11:12:41Z</time>
      </trkpt>
      <trkpt lat="41.80941" lon="9.02556">
        <ele>2855.25</ele>
        <time>2013-08-28T11:12:50Z</time>
      </trkpt>
      <trkpt lat="41.8086" lon="9.02581">
        <ele>2856.69</ele>
        <time>2013-08-28T11:12:57Z</time>
      </trkpt>
      <trkpt lat="41.80833" lon="9.02593">
        <ele>2857.66</ele>
        <time>2013-08-28T11:12:59Z</time>
      </trkpt>
      <trkpt lat="41.808" lon="9.02599">
        <ele>2856.21</ele>
        <time>2013-08-28T11:13:02Z</time>
      </trkpt>
      <trkpt lat="41.80697" lon="9.02633">
        <ele>2855.73</ele>
        <time>2013-08-28T11:13:10Z</time>
      </trkpt>
      <trkpt lat="41.80591" lon="9.02674">
        <ele>2855.73</ele>
        <time>2013-08-28T11:13:18Z</time>
      </trkpt>
      <trkpt lat="41.805" lon="9.02704">
        <ele>2854.29</ele>
        <time>2013-08-28T11:13:25Z</time>
      </trkpt>
      <trkpt lat="41.80421" lon="9.02704">
        <ele>2850.45</ele>
        <time>2013-08-28T11:13:33Z</time>
      </trkpt>
      <trkpt lat="41.80361" lon="9.02695">
        <ele>2848.52</ele>
        <time>2013-08-28T11:13:41Z</time>
      </trkpt>
      <trkpt lat="41.80302" lon="9.02685">
        <ele>2847.08</ele>
        <time>2013-08-28T11:13:49Z</time>
      </trkpt>
      <trkpt lat="41.80279" lon="9.02679">
        <ele>2846.12</ele>
        <time>2013-08-28T11:13:52Z</time>
      </trkpt>
      <trkpt lat="41.80189" lon="9.02669">
        <ele>2844.2</ele>
        <time>2013-08-28T11:14:02Z</time>
      </trkpt>
      <trkpt lat="41.80079" lon="9.02668">
        <ele>2841.31</ele>
        <time>2013-08-28T11:14:13Z</time>
      </trkpt>
      <trkpt lat="41.79971" lon="9.02679">
        <ele>2840.35</ele>
        <time>2013-08-28T11:14:22Z</time>
      </trkpt>
      <trkpt lat="41.79856" lon="9.02703">
        <ele>2840.83</ele>
        <time>2013-08-28T11:14:31Z</time>
      </trkpt>
      <trkpt lat="41.79686" lon="9.02761">
        <ele>2844.2</ele>
        <time>2013-08-28T11:14:43Z</time>
      </trkpt>
      <trkpt lat="41.79552" lon="9.02797">
        <ele>2846.12</ele>
        <time>2013-08-28T11:14:53Z</time>
      </trkpt>
      <trkpt lat="41.7937" lon="9.0285">
        <ele>2850.93</ele>
        <time>2013-08-28T11:15:06Z</time>
      </trkpt>
      <trkpt lat="41.79178" lon="9.02921">
        <ele>2856.21</ele>
        <time>2013-08-28T11:15:19Z</time>
      </trkpt>
      <trkpt lat="41.79024" lon="9.02999">
        <ele>2860.06</ele>
        <time>2013-08-28T11:15:29Z</time>
      </trkpt>
      <trkpt lat="41.78834" lon="9.03103">
        <ele>2864.39</ele>
        <time>2013-08-28T11:15:41Z</time>
      </trkpt>
      <trkpt lat="41.78658" lon="9.03211">
        <ele>2871.6</ele>
        <time>2013-08-28T11:15:52Z</time>
      </trkpt>
      <trkpt lat="41.78569" lon="9.03239">
        <ele>2873.52</ele>
        <time>2013-08-28T11:15:58Z</time>
      </trkpt>
      <trkpt lat="41.78394" lon="9.03293">
        <ele>2877.84</ele>
        <time>2013-08-28T11:16:10Z</time>
      </trkpt>
      <trkpt lat="41.78277" lon="9.03334">
        <ele>2880.25</ele>
        <time>2013-08-28T11:16:18Z</time>
      </trkpt>
      <trkpt lat="41.78125" lon="9.034">
        <ele>2883.13</ele>
        <time>2013-08-28T11:16:28Z</time>
      </trkpt>
      <trkpt lat="41.78007" lon="9.03403">
        <ele>2884.57</ele>
        <time>2013-08-28T11:16:38Z</time>
      </trkpt>
      <trkpt lat="41.77841" lon="9.03399">
        <ele>2886.02</ele>
        <time>2013-08-28T11:16:53Z</time>
      </trkpt>
      <trkpt lat="41.7775" lon="9.03379">
        <ele>2885.53</ele>
        <time>2013-08-28T11:17:03Z</time>
      </trkpt>
      <trkpt lat="41.77718" lon="9.03363">
        <ele>2884.57</ele>
        <time>2013-08-28T11:17:07Z</time>
      </trkpt>
      <trkpt lat="41.77626" lon="9.0334">
        <ele>2884.57</ele>
        <time>2013-08-28T11:17:17Z</time>
      </trkpt>
      <trkpt lat="41.77537" lon="9.03323">
        <ele>2884.57</ele>
        <time>2013-08-28T11:17:26Z</time>
      </trkpt>
      <trkpt lat="41.77412" lon="9.03318">
        <ele>2884.09</ele>
        <time>2013-08-28T11:17:37Z</time>
      </trkpt>
      <trkpt lat="41.77222" lon="9.03324">
        <ele>2882.65</ele>
        <time>2013-08-28T11:17:53Z</time>
      </trkpt>
      <trkpt lat="41.7708" lon="9.03348">
        <ele>2879.29</ele>
        <time>2013-08-28T11:18:04Z</time>
      </trkpt>
      <trkpt lat="41.76968" lon="9.03382">
        <ele>2874</ele>
        <time>2013-08-28T11:18:12Z</time>
      </trkpt>
      <trkpt lat="41.76893" lon="9.03379">
        <ele>2871.11</ele>
        <time>2013-08-28T11:18:19Z</time>
      </trkpt>
      <trkpt lat="41.76784" lon="9.03342">
        <ele>2864.87</ele>
        <time>2013-08-28T11:18:32Z</time>
      </trkpt>
      <trkpt lat="41.7667" lon="9.0332">
        <ele>2864.87</ele>
        <time>2013-08-28T11:18:46Z</time>
      </trkpt>
      <trkpt lat="41.76622" lon="9.03306">
        <ele>2863.42</ele>
        <time>2013-08-28T11:18:53Z</time>
      </trkpt>
      <trkpt lat="41.766" lon="9.03295">
        <ele>2861.02</ele>
        <time>2013-08-28T11:18:57Z</time>
      </trkpt>
      <trkpt lat="41.76522" lon="9.03285">
        <ele>2855.73</ele>
        <time>2013-08-28T11:19:06Z</time>
      </trkpt>
      <trkpt lat="41.76407" lon="9.03288">
        <ele>2851.41</ele>
        <time>2013-08-28T11:19:18Z</time>
      </trkpt>
      <trkpt lat="41.7629" lon="9.03305">
        <ele>2850.93</ele>
        <time>2013-08-28T11:19:29Z</time>
      </trkpt>
      <trkpt lat="41.76173" lon="9.03333">
        <ele>2849.97</ele>
        <time>2013-08-28T11:19:39Z</time>
      </trkpt>
      <trkpt lat="41.7605" lon="9.03365">
        <ele>2851.41</ele>
        <time>2013-08-28T11:19:49Z</time>
      </trkpt>
      <trkpt lat="41.7594" lon="9.034">
        <ele>2856.21</ele>
        <time>2013-08-28T11:19:58Z</time>
      </trkpt>
      <trkpt lat="41.75814" lon="9.03449">
        <ele>2864.39</ele>
        <time>2013-08-28T11:20:08Z</time>
      </trkpt>
      <trkpt lat="41.75696" lon="9.035">
        <ele>2873.04</ele>
        <time>2013-08-28T11:20:17Z</time>
      </trkpt>
      <trkpt lat="41.75627" lon="9.03507">
        <ele>2881.69</ele>
        <time>2013-08-28T11:20:24Z</time>
      </trkpt>
      <trkpt lat="41.75537" lon="9.03504">
        <ele>2891.78</ele>
        <time>2013-08-28T11:20:34Z</time>
      </trkpt>
      <trkpt lat="41.75436" lon="9.03497">
        <ele>2906.68</ele>
        <time>2013-08-28T11:20:46Z</time>
      </trkpt>
      <trkpt lat="41.75392" lon="9.03489">
        <ele>2912.45</ele>
        <time>2013-08-28T11:20:52Z</time>
      </trkpt>
      <trkpt lat="41.75351" lon="9.03488">
        <ele>2918.22</ele>
        <time>2013-08-28T11:20:57Z</time>
      </trkpt>
      <trkpt lat="41.75269" lon="9.03478">
        <ele>2928.31</ele>
        <time>2013-08-28T11:21:07Z</time>
      </trkpt>
      <trkpt lat="41.75159" lon="9.03483">
        <ele>2939.85</ele>
        <time>2013-08-28T11:21:18Z</time>
      </trkpt>
      <trkpt lat="41.75017" lon="9.03493">
        <ele>2950.42</ele>
        <time>2013-08-28T11:21:31Z</time>
      </trkpt>
      <trkpt lat="41.74873" lon="9.03514">
        <ele>2956.67</ele>
        <time>2013-08-28T11:21:43Z</time>
      </trkpt>
      <trkpt lat="41.74741" lon="9.03539">
        <ele>2958.11</ele>
        <time>2013-08-28T11:21:53Z</time>
      </trkpt>
      <trkpt lat="41.74595" lon="9.03584">
        <ele>2962.92</ele>
        <time>2013-08-28T11:22:04Z</time>
      </trkpt>
      <trkpt lat="41.7445" lon="9.03617">
        <ele>2961.48</ele>
        <time>2013-08-28T11:22:16Z</time>
      </trkpt>
      <trkpt lat="41.74346" lon="9.03616">
        <ele>2957.63</ele>
        <time>2013-08-28T11:22:26Z</time>
      </trkpt>
      <trkpt lat="41.74274" lon="9.036">
        <ele>2954.75</ele>
        <time>2013-08-28T11:22:35Z</time>
      </trkpt>
      <trkpt lat="41.74192" lon="9.03582">
        <ele>2947.54</ele>
        <time>2013-08-28T11:22:46Z</time>
      </trkpt>
      <trkpt lat="41.74137" lon="9.03566">
        <ele>2943.21</ele>
        <time>2013-08-28T11:22:55Z</time>
      </trkpt>
      <trkpt lat="41.74123" lon="9.03559">
        <ele>2941.29</ele>
        <time>2013-08-28T11:22:58Z</time>
      </trkpt>
      <trkpt lat="41.74111" lon="9.03554">
        <ele>2939.37</ele>
        <time>2013-08-28T11:23:01Z</time>
      </trkpt>
      <trkpt lat="41.74098" lon="9.03544">
        <ele>2936.97</ele>
        <time>2013-08-28T11:23:05Z</time>
      </trkpt>
      <trkpt lat="41.74052" lon="9.03522">
        <ele>2932.64</ele>
        <time>2013-08-28T11:23:16Z</time>
      </trkpt>
      <trkpt lat="41.73996" lon="9.03494">
        <ele>2924.95</ele>
        <time>2013-08-28T11:23:30Z</time>
      </trkpt>
      <trkpt lat="41.73969" lon="9.03474">
        <ele>2918.22</ele>
        <time>2013-08-28T11:23:39Z</time>
      </trkpt>
      <trkpt lat="41.73955" lon="9.03461">
        <ele>2913.89</ele>
        <time>2013-08-28T11:23:45Z</time>
      </trkpt>
      <trkpt lat="41.73944" lon="9.03456">
        <ele>2911.49</ele>
        <time>2013-08-28T11:23:48Z</time>
      </trkpt>
      <trkpt lat="41.7393" lon="9.03445">
        <ele>2905.72</ele>
        <time>2013-08-28T11:23:56Z</time>
      </trkpt>
      <trkpt lat="41.73929" lon="9.03444">
        <ele>2905.24</ele>
        <time>2013-08-28T11:23:57Z</time>
      </trkpt>
      <trkpt lat="41.73882" lon="9.03442">
        <ele>2899.47</ele>
        <time>2013-08-28T11:24:03Z</time>
      </trkpt>
      <trkpt lat="41.73803" lon="9.03466">
        <ele>2893.71</ele>
        <time>2013-08-28T11:24:09Z</time>
      </trkpt>
      <trkpt lat="41.73707" lon="9.03502">
        <ele>2888.9</ele>
        <time>2013-08-28T11:24:16Z</time>
      </trkpt>
      <trkpt lat="41.73611" lon="9.03538">
        <ele>2881.69</ele>
        <time>2013-08-28T11:24:23Z</time>
      </trkpt>
      <trkpt lat="41.73583" lon="9.03551">
        <ele>2880.25</ele>
        <time>2013-08-28T11:24:25Z</time>
      </trkpt>
      <trkpt lat="41.73476" lon="9.03588">
        <ele>2874</ele>
        <time>2013-08-28T11:24:33Z</time>
      </trkpt>
      <trkpt lat="41.73341" lon="9.03635">
        <ele>2865.35</ele>
        <time>2013-08-28T11:24:43Z</time>
      </trkpt>
      <trkpt lat="41.73202" lon="9.03679">
        <ele>2852.37</ele>
        <time>2013-08-28T11:24:53Z</time>
      </trkpt>
      <trkpt lat="41.73101" lon="9.0373">
        <ele>2844.68</ele>
        <time>2013-08-28T11:25:00Z</time>
      </trkpt>
      <trkpt lat="41.72998" lon="9.03752">
        <ele>2833.62</ele>
        <time>2013-08-28T11:25:10Z</time>
      </trkpt>
      <trkpt lat="41.72876" lon="9.0378">
        <ele>2819.2</ele>
        <time>2013-08-28T11:25:22Z</time>
      </trkpt>
      <trkpt lat="41.72746" lon="9.03809">
        <ele>2806.23</ele>
        <time>2013-08-28T11:25:35Z</time>
      </trkpt>
      <trkpt lat="41.72597" lon="9.03839">
        <ele>2792.29</ele>
        <time>2013-08-28T11:25:50Z</time>
      </trkpt>
      <trkpt lat="41.72418" lon="9.03878">
        <ele>2779.79</ele>
        <time>2013-08-28T11:26:07Z</time>
      </trkpt>
      <trkpt lat="41.7231" lon="9.03897">
        <ele>2773.06</ele>
        <time>2013-08-28T11:26:18Z</time>
      </trkpt>
      <trkpt lat="41.72171" lon="9.03922">
        <ele>2764.89</ele>
        <time>2013-08-28T11:26:32Z</time>
      </trkpt>
      <trkpt lat="41.72044" lon="9.03942">
        <ele>2757.2</ele>
        <time>2013-08-28T11:26:45Z</time>
      </trkpt>
      <trkpt lat="41.71907" lon="9.03964">
        <ele>2751.91</ele>
        <time>2013-08-28T11:26:59Z</time>
      </trkpt>
      <trkpt lat="41.71817" lon="9.03977">
        <ele>2749.03</ele>
        <time>2013-08-28T11:27:08Z</time>
      </trkpt>
      <trkpt lat="41.71723" lon="9.03987">
        <ele>2745.18</ele>
        <time>2013-08-28T11:27:18Z</time>
      </trkpt>
      <trkpt lat="41.71644" lon="9.03991">
        <ele>2743.74</ele>
        <time>2013-08-28T11:27:27Z</time>
      </trkpt>
      <trkpt lat="41.71564" lon="9.0399">
        <ele>2742.3</ele>
        <time>2013-08-28T11:27:37Z</time>
      </trkpt>
      <trkpt lat="41.71486" lon="9.03984">
        <ele>2740.86</ele>
        <time>2013-08-28T11:27:48Z</time>
      </trkpt>
      <trkpt lat="41.71443" lon="9.03975">
        <ele>2740.38</ele>
        <time>2013-08-28T11:27:56Z</time>
      </trkpt>
      <trkpt lat="41.71353" lon="9.03962">
        <ele>2738.45</ele>
        <time>2013-08-28T11:28:12Z</time>
      </trkpt>
      <trkpt lat="41.71283" lon="9.03953">
        <ele>2737.01</ele>
        <time>2013-08-28T11:28:23Z</time>
      </trkpt>
      <trkpt lat="41.71217" lon="9.03942">
        <ele>2734.61</ele>
        <time>2013-08-28T11:28:33Z</time>
      </trkpt>
      <trkpt lat="41.71123" lon="9.03937">
        <ele>2732.2</ele>
        <time>2013-08-28T11:28:46Z</time>
      </trkpt>
      <trkpt lat="41.71026" lon="9.03936">
        <ele>2728.36</ele>
        <time>2013-08-28T11:28:59Z</time>
      </trkpt>
      <trkpt lat="41.70914" lon="9.03938">
        <ele>2723.55</ele>
        <time>2013-08-28T11:29:14Z</time>
      </trkpt>
      <trkpt lat="41.70762" lon="9.03942">
        <ele>2712.5</ele>
        <time>2013-08-28T11:29:35Z</time>
      </trkpt>
      <trkpt lat="41.70628" lon="9.03945">
        <ele>2700.48</ele>
        <time>2013-08-28T11:29:53Z</time>
      </trkpt>
      <trkpt lat="41.70506" lon="9.03942">
        <ele>2690.87</ele>
        <time>2013-08-28T11:30:11Z</time>
      </trkpt>
      <trkpt lat="41.70356" lon="9.0393">
        <ele>2679.81</ele>
        <time>2013-08-28T11:30:37Z</time>
      </trkpt>
      <trkpt lat="41.70257" lon="9.03923">
        <ele>2673.08</ele>
        <time>2013-08-28T11:30:56Z</time>
      </trkpt>
      <trkpt lat="41.70234" lon="9.03916">
        <ele>2670.2</ele>
        <time>2013-08-28T11:31:09Z</time>
      </trkpt>
      <trkpt lat="41.70173" lon="9.03905">
        <ele>2668.28</ele>
        <time>2013-08-28T11:31:22Z</time>
      </trkpt>
      <trkpt lat="41.70089" lon="9.03891">
        <ele>2666.35</ele>
        <time>2013-08-28T11:31:38Z</time>
      </trkpt>
      <trkpt lat="41.69988" lon="9.03874">
        <ele>2664.91</ele>
        <time>2013-08-28T11:31:56Z</time>
      </trkpt>
      <trkpt lat="41.69887" lon="9.03854">
        <ele>2663.47</ele>
        <time>2013-08-28T11:32:13Z</time>
      </trkpt>
      <trkpt lat="41.69849" lon="9.03837">
        <ele>2662.51</ele>
        <time>2013-08-28T11:32:23Z</time>
      </trkpt>
      <trkpt lat="41.69807" lon="9.03815">
        <ele>2661.07</ele>
        <time>2013-08-28T11:32:35Z</time>
      </trkpt>
      <trkpt lat="41.69756" lon="9.03784">
        <ele>2657.22</ele>
        <time>2013-08-28T11:32:50Z</time>
      </trkpt>
      <trkpt lat="41.69695" lon="9.03746">
        <ele>2651.93</ele>
        <time>2013-08-28T11:33:07Z</time>
      </trkpt>
      <trkpt lat="41.69681" lon="9.03737">
        <ele>2650.49</ele>
        <time>2013-08-28T11:33:11Z</time>
      </trkpt>
      <trkpt lat="41.697" lon="9.03732">
        <ele>2647.13</ele>
        <time>2013-08-28T11:33:18Z</time>
      </trkpt>
      <trkpt lat="41.69706" lon="9.03735">
        <ele>2646.65</ele>
        <time>2013-08-28T11:33:19Z</time>
      </trkpt>
      <trkpt lat="41.69767" lon="9.03761">
        <ele>2642.32</ele>
        <time>2013-08-28T11:33:28Z</time>
      </trkpt>
      <trkpt lat="41.69783" lon="9.03759">
        <ele>2640.88</ele>
        <time>2013-08-28T11:33:33Z</time>
      </trkpt>
      <trkpt lat="41.69814" lon="9.03743">
        <ele>2633.67</ele>
        <time>2013-08-28T11:33:49Z</time>
      </trkpt>
      <trkpt lat="41.69799" lon="9.03732">
        <ele>2629.82</ele>
        <time>2013-08-28T11:33:55Z</time>
      </trkpt>
      <trkpt lat="41.69741" lon="9.03709">
        <ele>2623.09</ele>
        <time>2013-08-28T11:34:07Z</time>
      </trkpt>
      <trkpt lat="41.69661" lon="9.03679">
        <ele>2610.12</ele>
        <time>2013-08-28T11:34:24Z</time>
      </trkpt>
      <trkpt lat="41.69559" lon="9.0364">
        <ele>2587.53</ele>
        <time>2013-08-28T11:34:49Z</time>
      </trkpt>
      <trkpt lat="41.69474" lon="9.03613">
        <ele>2563.01</ele>
        <time>2013-08-28T11:35:10Z</time>
      </trkpt>
      <trkpt lat="41.694" lon="9.03598">
        <ele>2539.94</ele>
        <time>2013-08-28T11:35:27Z</time>
      </trkpt>
      <trkpt lat="41.69318" lon="9.03592">
        <ele>2502.45</ele>
        <time>2013-08-28T11:35:47Z</time>
      </trkpt>
      <trkpt lat="41.69254" lon="9.036">
        <ele>2473.61</ele>
        <time>2013-08-28T11:36:02Z</time>
      </trkpt>
      <trkpt lat="41.692" lon="9.03612">
        <ele>2439</ele>
        <time>2013-08-28T11:36:18Z</time>
      </trkpt>
      <trkpt lat="41.69144" lon="9.03617">
        <ele>2382.76</ele>
        <time>2013-08-28T11:36:32Z</time>
      </trkpt>
      <trkpt lat="41.69109" lon="9.03622">
        <ele>2333.74</ele>
        <time>2013-08-28T11:36:45Z</time>
      </trkpt>
      <trkpt lat="41.69085" lon="9.0363">
        <ele>2292.4</ele>
        <time>2013-08-28T11:36:57Z</time>
      </trkpt>
      <trkpt lat="41.69047" lon="9.03653">
        <ele>2243.37</ele>
        <time>2013-08-28T11:37:10Z</time>
      </trkpt>
      <trkpt lat="41.6902" lon="9.03672">
        <ele>2210.21</ele>
        <time>2013-08-28T11:37:22Z</time>
      </trkpt>
      <trkpt lat="41.68997" lon="9.03682">
        <ele>2188.1</ele>
        <time>2013-08-28T11:37:33Z</time>
      </trkpt>
      <trkpt lat="41.68963" lon="9.03693">
        <ele>2163.1</ele>
        <time>2013-08-28T11:37:48Z</time>
      </trkpt>
      <trkpt lat="41.68912" lon="9.03706">
        <ele>2130.9</ele>
        <time>2013-08-28T11:38:08Z</time>
      </trkpt>
      <trkpt lat="41.68857" lon="9.0372">
        <ele>2108.31</ele>
        <time>2013-08-28T11:38:23Z</time>
      </trkpt>
      <trkpt lat="41.68806" lon="9.03727">
        <ele>2096.77</ele>
        <time>2013-08-28T11:38:33Z</time>
      </trkpt>
      <trkpt lat="41.68722" lon="9.03743">
        <ele>2085.24</ele>
        <time>2013-08-28T11:38:47Z</time>
      </trkpt>
      <trkpt lat="41.68678" lon="9.03746">
        <ele>2077.55</ele>
        <time>2013-08-28T11:38:58Z</time>
      </trkpt>
      <trkpt lat="41.68676" lon="9.03745">
        <ele>2076.59</ele>
        <time>2013-08-28T11:39:14Z</time>
      </trkpt>
      <trkpt lat="41.68632" lon="9.03734">
        <ele>2064.57</ele>
        <time>2013-08-28T11:39:28Z</time>
      </trkpt>
      <trkpt lat="41.6858" lon="9.0372">
        <ele>2054.47</ele>
        <time>2013-08-28T11:39:46Z</time>
      </trkpt>
      <trkpt lat="41.68511" lon="9.03702">
        <ele>2046.3</ele>
        <time>2013-08-28T11:40:07Z</time>
      </trkpt>
      <trkpt lat="41.68427" lon="9.03723">
        <ele>2043.9</ele>
        <time>2013-08-28T11:40:16Z</time>
      </trkpt>
      <trkpt lat="41.6827" lon="9.03759">
        <ele>2042.94</ele>
        <time>2013-08-28T11:40:33Z</time>
      </trkpt>
      <trkpt lat="41.68132" lon="9.0378">
        <ele>2046.78</ele>
        <time>2013-08-28T11:40:50Z</time>
      </trkpt>
      <trkpt lat="41.68009" lon="9.03794">
        <ele>2054.47</ele>
        <time>2013-08-28T11:41:07Z</time>
      </trkpt>
      <trkpt lat="41.67949" lon="9.03795">
        <ele>2054.96</ele>
        <time>2013-08-28T11:41:20Z</time>
      </trkpt>
      <trkpt lat="41.67879" lon="9.03789">
        <ele>2059.76</ele>
        <time>2013-08-28T11:41:37Z</time>
      </trkpt>
      <trkpt lat="41.67815" lon="9.03785">
        <ele>2066.01</ele>
        <time>2013-08-28T11:41:52Z</time>
      </trkpt>
      <trkpt lat="41.67762" lon="9.03779">
        <ele>2073.7</ele>
        <time>2013-08-28T11:42:05Z</time>
      </trkpt>
      <trkpt lat="41.67694" lon="9.03777">
        <ele>2084.28</ele>
        <time>2013-08-28T11:42:21Z</time>
      </trkpt>
      <trkpt lat="41.67632" lon="9.03785">
        <ele>2096.29</ele>
        <time>2013-08-28T11:42:36Z</time>
      </trkpt>
      <trkpt lat="41.67541" lon="9.03804">
        <ele>2114.56</ele>
        <time>2013-08-28T11:42:59Z</time>
      </trkpt>
      <trkpt lat="41.67473" lon="9.03813">
        <ele>2132.82</ele>
        <time>2013-08-28T11:43:19Z</time>
      </trkpt>
      <trkpt lat="41.6741" lon="9.03826">
        <ele>2147.72</ele>
        <time>2013-08-28T11:43:38Z</time>
      </trkpt>
      <trkpt lat="41.67409" lon="9.03826">
        <ele>2148.68</ele>
        <time>2013-08-28T11:43:39Z</time>
      </trkpt>
      <trkpt lat="41.67443" lon="9.0384">
        <ele>2155.89</ele>
        <time>2013-08-28T11:43:47Z</time>
      </trkpt>
      <trkpt lat="41.67531" lon="9.03898">
        <ele>2162.14</ele>
        <time>2013-08-28T11:43:56Z</time>
      </trkpt>
      <trkpt lat="41.67617" lon="9.04011">
        <ele>2165.99</ele>
        <time>2013-08-28T11:44:03Z</time>
      </trkpt>
      <trkpt lat="41.67641" lon="9.04047">
        <ele>2166.95</ele>
        <time>2013-08-28T11:44:05Z</time>
      </trkpt>
      <trkpt lat="41.67672" lon="9.04196">
        <ele>2166.95</ele>
        <time>2013-08-28T11:44:10Z</time>
      </trkpt>
      <trkpt lat="41.67642" lon="9.0431">
        <ele>2169.35</ele>
        <time>2013-08-28T11:44:14Z</time>
      </trkpt>
      <trkpt lat="41.67594" lon="9.04364">
        <ele>2171.76</ele>
        <time>2013-08-28T11:44:18Z</time>
      </trkpt>
      <trkpt lat="41.67535" lon="9.04395">
        <ele>2178.48</ele>
        <time>2013-08-28T11:44:26Z</time>
      </trkpt>
      <trkpt lat="41.67506" lon="9.04406">
        <ele>2185.69</ele>
        <time>2013-08-28T11:44:37Z</time>
      </trkpt>
      <trkpt lat="41.67466" lon="9.04426">
        <ele>2191.94</ele>
        <time>2013-08-28T11:44:53Z</time>
      </trkpt>
      <trkpt lat="41.67449" lon="9.04433">
        <ele>2181.85</ele>
        <time>2013-08-28T11:44:58Z</time>
      </trkpt>
      <trkpt lat="41.67369" lon="9.04464">
        <ele>2157.82</ele>
        <time>2013-08-28T11:45:13Z</time>
      </trkpt>
      <trkpt lat="41.67254" lon="9.04517">
        <ele>2136.19</ele>
        <time>2013-08-28T11:45:28Z</time>
      </trkpt>
      <trkpt lat="41.67117" lon="9.04601">
        <ele>2117.44</ele>
        <time>2013-08-28T11:45:42Z</time>
      </trkpt>
      <trkpt lat="41.66965" lon="9.04713">
        <ele>2117.44</ele>
        <time>2013-08-28T11:45:57Z</time>
      </trkpt>
      <trkpt lat="41.66938" lon="9.04724">
        <ele>2108.31</ele>
        <time>2013-08-28T11:46:05Z</time>
      </trkpt>
      <trkpt lat="41.66894" lon="9.04739">
        <ele>2091</ele>
        <time>2013-08-28T11:46:19Z</time>
      </trkpt>
      <trkpt lat="41.66813" lon="9.04762">
        <ele>2071.3</ele>
        <time>2013-08-28T11:46:33Z</time>
      </trkpt>
      <trkpt lat="41.66785" lon="9.04763">
        <ele>2056.4</ele>
        <time>2013-08-28T11:46:42Z</time>
      </trkpt>
      <trkpt lat="41.66745" lon="9.04762">
        <ele>2035.73</ele>
        <time>2013-08-28T11:46:55Z</time>
      </trkpt>
      <trkpt lat="41.66703" lon="9.0476">
        <ele>2007.37</ele>
        <time>2013-08-28T11:47:11Z</time>
      </trkpt>
      <trkpt lat="41.66697" lon="9.04758">
        <ele>1997.76</ele>
        <time>2013-08-28T11:47:20Z</time>
      </trkpt>
      <trkpt lat="41.66668" lon="9.04755">
        <ele>1977.57</ele>
        <time>2013-08-28T11:47:30Z</time>
      </trkpt>
      <trkpt lat="41.66599" lon="9.04761">
        <ele>1953.54</ele>
        <time>2013-08-28T11:47:44Z</time>
      </trkpt>
      <trkpt lat="41.66488" lon="9.04789">
        <ele>1928.54</ele>
        <time>2013-08-28T11:47:59Z</time>
      </trkpt>
      <trkpt lat="41.66351" lon="9.04831">
        <ele>1900.18</ele>
        <time>2013-08-28T11:48:15Z</time>
      </trkpt>
      <trkpt lat="41.66234" lon="9.04857">
        <ele>1875.67</ele>
        <time>2013-08-28T11:48:28Z</time>
      </trkpt>
      <trkpt lat="41.66131" lon="9.04889">
        <ele>1855</ele>
        <time>2013-08-28T11:48:38Z</time>
      </trkpt>
      <trkpt lat="41.66121" lon="9.04892">
        <ele>1853.56</ele>
        <time>2013-08-28T11:48:39Z</time>
      </trkpt>
      <trkpt lat="41.66106" lon="9.04884">
        <ele>1843.95</ele>
        <time>2013-08-28T11:48:44Z</time>
      </trkpt>
      <trkpt lat="41.66131" lon="9.04844">
        <ele>1815.11</ele>
        <time>2013-08-28T11:48:59Z</time>
      </trkpt>
      <trkpt lat="41.66137" lon="9.04802">
        <ele>1787.23</ele>
        <time>2013-08-28T11:49:13Z</time>
      </trkpt>
      <trkpt lat="41.66147" lon="9.04782">
        <ele>1771.37</ele>
        <time>2013-08-28T11:49:22Z</time>
      </trkpt>
      <trkpt lat="41.66143" lon="9.04761">
        <ele>1753.58</ele>
        <time>2013-08-28T11:49:31Z</time>
      </trkpt>
      <trkpt lat="41.66142" lon="9.04759">
        <ele>1751.66</ele>
        <time>2013-08-28T11:49:32Z</time>
      </trkpt>
      <trkpt lat="41.66137" lon="9.04727">
        <ele>1726.67</ele>
        <time>2013-08-28T11:49:44Z</time>
      </trkpt>
      <trkpt lat="41.66117" lon="9.04692">
        <ele>1698.31</ele>
        <time>2013-08-28T11:49:57Z</time>
      </trkpt>
      <trkpt lat="41.66109" lon="9.04686">
        <ele>1692.06</ele>
        <time>2013-08-28T11:50:00Z</time>
      </trkpt>
      <trkpt lat="41.66093" lon="9.04672">
        <ele>1676.2</ele>
        <time>2013-08-28T11:50:07Z</time>
      </trkpt>
      <trkpt lat="41.66052" lon="9.04658">
        <ele>1657.93</ele>
        <time>2013-08-28T11:50:17Z</time>
      </trkpt>
      <trkpt lat="41.66029" lon="9.04629">
        <ele>1640.63</ele>
        <time>2013-08-28T11:50:29Z</time>
      </trkpt>
      <trkpt lat="41.66013" lon="9.04603">
        <ele>1643.99</ele>
        <time>2013-08-28T11:50:41Z</time>
      </trkpt>
      <trkpt lat="41.66013" lon="9.04601">
        <ele>1645.43</ele>
        <time>2013-08-28T11:50:44Z</time>
      </trkpt>
      <trkpt lat="41.66007" lon="9.04587">
        <ele>1649.76</ele>
        <time>2013-08-28T11:50:50Z</time>
      </trkpt>
      <trkpt lat="41.65987" lon="9.04558">
        <ele>1661.3</ele>
        <time>2013-08-28T11:51:03Z</time>
      </trkpt>
      <trkpt lat="41.65964" lon="9.04528">
        <ele>1670.91</ele>
        <time>2013-08-28T11:51:15Z</time>
      </trkpt>
      <trkpt lat="41.65936" lon="9.04496">
        <ele>1679.56</ele>
        <time>2013-08-28T11:51:26Z</time>
      </trkpt>
      <trkpt lat="41.65908" lon="9.04474">
        <ele>1685.81</ele>
        <time>2013-08-28T11:51:32Z</time>
      </trkpt>
      <trkpt lat="41.659" lon="9.04454">
        <ele>1690.62</ele>
        <time>2013-08-28T11:51:37Z</time>
      </trkpt>
      <trkpt lat="41.65906" lon="9.04397">
        <ele>1707.92</ele>
        <time>2013-08-28T11:51:53Z</time>
      </trkpt>
      <trkpt lat="41.65897" lon="9.04366">
        <ele>1715.61</ele>
        <time>2013-08-28T11:52:02Z</time>
      </trkpt>
      <trkpt lat="41.659" lon="9.04354">
        <ele>1718.49</ele>
        <time>2013-08-28T11:52:06Z</time>
      </trkpt>
      <trkpt lat="41.65918" lon="9.0431">
        <ele>1727.15</ele>
        <time>2013-08-28T11:52:20Z</time>
      </trkpt>
      <trkpt lat="41.65915" lon="9.04263">
        <ele>1738.2</ele>
        <time>2013-08-28T11:52:34Z</time>
      </trkpt>
      <trkpt lat="41.65903" lon="9.04215">
        <ele>1754.06</ele>
        <time>2013-08-28T11:52:48Z</time>
      </trkpt>
      <trkpt lat="41.65879" lon="9.04172">
        <ele>1767.52</ele>
        <time>2013-08-28T11:53:01Z</time>
      </trkpt>
      <trkpt lat="41.65832" lon="9.04112">
        <ele>1789.15</ele>
        <time>2013-08-28T11:53:19Z</time>
      </trkpt>
      <trkpt lat="41.65821" lon="9.04098">
        <ele>1793.48</ele>
        <time>2013-08-28T11:53:23Z</time>
      </trkpt>
      <trkpt lat="41.65823" lon="9.04067">
        <ele>1791.07</ele>
        <time>2013-08-28T11:53:33Z</time>
      </trkpt>
      <trkpt lat="41.65808" lon="9.04025">
        <ele>1772.33</ele>
        <time>2013-08-28T11:53:45Z</time>
      </trkpt>
      <trkpt lat="41.65826" lon="9.03988">
        <ele>1756.95</ele>
        <time>2013-08-28T11:53:57Z</time>
      </trkpt>
      <trkpt lat="41.65818" lon="9.0394">
        <ele>1739.64</ele>
        <time>2013-08-28T11:54:10Z</time>
      </trkpt>
      <trkpt lat="41.65785" lon="9.03902">
        <ele>1727.15</ele>
        <time>2013-08-28T11:54:22Z</time>
      </trkpt>
      <trkpt lat="41.65779" lon="9.03895">
        <ele>1725.22</ele>
        <time>2013-08-28T11:54:24Z</time>
      </trkpt>
      <trkpt lat="41.65742" lon="9.0387">
        <ele>1717.05</ele>
        <time>2013-08-28T11:54:33Z</time>
      </trkpt>
      <trkpt lat="41.65743" lon="9.03831">
        <ele>1716.57</ele>
        <time>2013-08-28T11:54:44Z</time>
      </trkpt>
      <trkpt lat="41.6576" lon="9.03793">
        <ele>1725.22</ele>
        <time>2013-08-28T11:54:57Z</time>
      </trkpt>
      <trkpt lat="41.65754" lon="9.03745">
        <ele>1735.8</ele>
        <time>2013-08-28T11:55:09Z</time>
      </trkpt>
      <trkpt lat="41.65753" lon="9.03715">
        <ele>1743.97</ele>
        <time>2013-08-28T11:55:16Z</time>
      </trkpt>
      <trkpt lat="41.6575" lon="9.03677">
        <ele>1748.29</ele>
        <time>2013-08-28T11:55:26Z</time>
      </trkpt>
      <trkpt lat="41.6575" lon="9.03673">
        <ele>1748.29</ele>
        <time>2013-08-28T11:55:27Z</time>
      </trkpt>
      <trkpt lat="41.65754" lon="9.03647">
        <ele>1755.99</ele>
        <time>2013-08-28T11:55:34Z</time>
      </trkpt>
      <trkpt lat="41.65755" lon="9.0363">
        <ele>1759.83</ele>
        <time>2013-08-28T11:55:39Z</time>
      </trkpt>
      <trkpt lat="41.65756" lon="9.03597">
        <ele>1767.04</ele>
        <time>2013-08-28T11:55:50Z</time>
      </trkpt>
      <trkpt lat="41.65746" lon="9.03557">
        <ele>1764.16</ele>
        <time>2013-08-28T11:56:03Z</time>
      </trkpt>
      <trkpt lat="41.65709" lon="9.03513">
        <ele>1749.26</ele>
        <time>2013-08-28T11:56:16Z</time>
      </trkpt>
      <trkpt lat="41.65706" lon="9.0351">
        <ele>1748.78</ele>
        <time>2013-08-28T11:56:17Z</time>
      </trkpt>
      <trkpt lat="41.65709" lon="9.03496">
        <ele>1745.41</ele>
        <time>2013-08-28T11:56:22Z</time>
      </trkpt>
      <trkpt lat="41.6574" lon="9.03465">
        <ele>1745.89</ele>
        <time>2013-08-28T11:56:35Z</time>
      </trkpt>
      <trkpt lat="41.65766" lon="9.03421">
        <ele>1754.54</ele>
        <time>2013-08-28T11:56:51Z</time>
      </trkpt>
      <trkpt lat="41.65774" lon="9.03345">
        <ele>1764.16</ele>
        <time>2013-08-28T11:57:15Z</time>
      </trkpt>
      <trkpt lat="41.65755" lon="9.03278">
        <ele>1770.41</ele>
        <time>2013-08-28T11:57:36Z</time>
      </trkpt>
      <trkpt lat="41.65738" lon="9.03241">
        <ele>1774.25</ele>
        <time>2013-08-28T11:57:47Z</time>
      </trkpt>
      <trkpt lat="41.65727" lon="9.03198">
        <ele>1779.06</ele>
        <time>2013-08-28T11:57:59Z</time>
      </trkpt>
      <trkpt lat="41.65721" lon="9.03159">
        <ele>1781.94</ele>
        <time>2013-08-28T11:58:09Z</time>
      </trkpt>
      <trkpt lat="41.65722" lon="9.03129">
        <ele>1786.75</ele>
        <time>2013-08-28T11:58:17Z</time>
      </trkpt>
      <trkpt lat="41.65721" lon="9.03099">
        <ele>1791.07</ele>
        <time>2013-08-28T11:58:26Z</time>
      </trkpt>
      <trkpt lat="41.6572" lon="9.03095">
        <ele>1791.07</ele>
        <time>2013-08-28T11:58:27Z</time>
      </trkpt>
      <trkpt lat="41.65717" lon="9.03088">
        <ele>1792.03</ele>
        <time>2013-08-28T11:58:29Z</time>
      </trkpt>
      <trkpt lat="41.65735" lon="9.03055">
        <ele>1796.36</ele>
        <time>2013-08-28T11:58:40Z</time>
      </trkpt>
      <trkpt lat="41.65753" lon="9.03003">
        <ele>1803.57</ele>
        <time>2013-08-28T11:58:56Z</time>
      </trkpt>
      <trkpt lat="41.65747" lon="9.02953">
        <ele>1793.48</ele>
        <time>2013-08-28T11:59:10Z</time>
      </trkpt>
      <trkpt lat="41.65701" lon="9.02898">
        <ele>1770.41</ele>
        <time>2013-08-28T11:59:25Z</time>
      </trkpt>
      <trkpt lat="41.65647" lon="9.02868">
        <ele>1754.06</ele>
        <time>2013-08-28T11:59:35Z</time>
      </trkpt>
      <trkpt lat="41.6564" lon="9.02851">
        <ele>1746.85</ele>
        <time>2013-08-28T11:59:40Z</time>
      </trkpt>
      <trkpt lat="41.65646" lon="9.02812">
        <ele>1730.03</ele>
        <time>2013-08-28T11:59:52Z</time>
      </trkpt>
      <trkpt lat="41.65614" lon="9.02747">
        <ele>1707.92</ele>
        <time>2013-08-28T12:00:08Z</time>
      </trkpt>
      <trkpt lat="41.6556" lon="9.027">
        <ele>1690.62</ele>
        <time>2013-08-28T12:00:20Z</time>
      </trkpt>
      <trkpt lat="41.65484" lon="9.02656">
        <ele>1670.91</ele>
        <time>2013-08-28T12:00:31Z</time>
      </trkpt>
      <trkpt lat="41.65459" lon="9.02622">
        <ele>1661.3</ele>
        <time>2013-08-28T12:00:37Z</time>
      </trkpt>
      <trkpt lat="41.65449" lon="9.02584">
        <ele>1651.68</ele>
        <time>2013-08-28T12:00:43Z</time>
      </trkpt>
      <trkpt lat="41.65398" lon="9.02511">
        <ele>1630.53</ele>
        <time>2013-08-28T12:00:56Z</time>
      </trkpt>
      <trkpt lat="41.65328" lon="9.02442">
        <ele>1606.98</ele>
        <time>2013-08-28T12:01:09Z</time>
      </trkpt>
      <trkpt lat="41.65312" lon="9.02412">
        <ele>1598.33</ele>
        <time>2013-08-28T12:01:14Z</time>
      </trkpt>
      <trkpt lat="41.65305" lon="9.0237">
        <ele>1585.35</ele>
        <time>2013-08-28T12:01:21Z</time>
      </trkpt>
      <trkpt lat="41.65291" lon="9.02328">
        <ele>1571.89</ele>
        <time>2013-08-28T12:01:28Z</time>
      </trkpt>
      <trkpt lat="41.65262" lon="9.02267">
        <ele>1553.15</ele>
        <time>2013-08-28T12:01:38Z</time>
      </trkpt>
      <trkpt lat="41.65257" lon="9.02249">
        <ele>1546.9</ele>
        <time>2013-08-28T12:01:41Z</time>
      </trkpt>
      <trkpt lat="41.6524" lon="9.02213">
        <ele>1537.29</ele>
        <time>2013-08-28T12:01:47Z</time>
      </trkpt>
      <trkpt lat="41.65199" lon="9.02137">
        <ele>1516.14</ele>
        <time>2013-08-28T12:01:59Z</time>
      </trkpt>
      <trkpt lat="41.65181" lon="9.02107">
        <ele>1514.21</ele>
        <time>2013-08-28T12:02:04Z</time>
      </trkpt>
      <trkpt lat="41.65167" lon="9.02081">
        <ele>1515.66</ele>
        <time>2013-08-28T12:02:09Z</time>
      </trkpt>
      <trkpt lat="41.6516" lon="9.02057">
        <ele>1515.18</ele>
        <time>2013-08-28T12:02:13Z</time>
      </trkpt>
      <trkpt lat="41.65156" lon="9.02009">
        <ele>1517.1</ele>
        <time>2013-08-28T12:02:23Z</time>
      </trkpt>
      <trkpt lat="41.65153" lon="9.01982">
        <ele>1517.1</ele>
        <time>2013-08-28T12:02:28Z</time>
      </trkpt>
      <trkpt lat="41.65158" lon="9.01914">
        <ele>1517.1</ele>
        <time>2013-08-28T12:02:42Z</time>
      </trkpt>
      <trkpt lat="41.65156" lon="9.01902">
        <ele>1516.62</ele>
        <time>2013-08-28T12:02:44Z</time>
      </trkpt>
      <trkpt lat="41.65154" lon="9.01885">
        <ele>1516.14</ele>
        <time>2013-08-28T12:02:47Z</time>
      </trkpt>
      <trkpt lat="41.65148" lon="9.01869">
        <ele>1516.62</ele>
        <time>2013-08-28T12:02:50Z</time>
      </trkpt>
      <trkpt lat="41.65132" lon="9.0181">
        <ele>1516.62</ele>
        <time>2013-08-28T12:03:00Z</time>
      </trkpt>
      <trkpt lat="41.65129" lon="9.01797">
        <ele>1519.02</ele>
        <time>2013-08-28T12:03:02Z</time>
      </trkpt>
      <trkpt lat="41.65119" lon="9.01768">
        <ele>1523.35</ele>
        <time>2013-08-28T12:03:07Z</time>
      </trkpt>
      <trkpt lat="41.65115" lon="9.01755">
        <ele>1523.83</ele>
        <time>2013-08-28T12:03:09Z</time>
      </trkpt>
      <trkpt lat="41.65118" lon="9.01715">
        <ele>1526.23</ele>
        <time>2013-08-28T12:03:16Z</time>
      </trkpt>
      <trkpt lat="41.65119" lon="9.01693">
        <ele>1526.71</ele>
        <time>2013-08-28T12:03:20Z</time>
      </trkpt>
      <trkpt lat="41.65106" lon="9.01622">
        <ele>1528.63</ele>
        <time>2013-08-28T12:03:30Z</time>
      </trkpt>
      <trkpt lat="41.65107" lon="9.01586">
        <ele>1531.52</ele>
        <time>2013-08-28T12:03:36Z</time>
      </trkpt>
      <trkpt lat="41.65109" lon="9.0153">
        <ele>1532.48</ele>
        <time>2013-08-28T12:03:46Z</time>
      </trkpt>
      <trkpt lat="41.65108" lon="9.01503">
        <ele>1532.96</ele>
        <time>2013-08-28T12:03:51Z</time>
      </trkpt>
      <trkpt lat="41.6511" lon="9.01471">
        <ele>1535.36</ele>
        <time>2013-08-28T12:03:58Z</time>
      </trkpt>
      <trkpt lat="41.65117" lon="9.01431">
        <ele>1536.8</ele>
        <time>2013-08-28T12:04:06Z</time>
      </trkpt>
      <trkpt lat="41.65119" lon="9.01416">
        <ele>1537.77</ele>
        <time>2013-08-28T12:04:09Z</time>
      </trkpt>
      <trkpt lat="41.6511" lon="9.01401">
        <ele>1540.17</ele>
        <time>2013-08-28T12:04:13Z</time>
      </trkpt>
      <trkpt lat="41.65072" lon="9.01377">
        <ele>1530.56</ele>
        <time>2013-08-28T12:04:18Z</time>
      </trkpt>
      <trkpt lat="41.64972" lon="9.01343">
        <ele>1511.81</ele>
        <time>2013-08-28T12:04:28Z</time>
      </trkpt>
      <trkpt lat="41.64965" lon="9.01325">
        <ele>1500.76</ele>
        <time>2013-08-28T12:04:33Z</time>
      </trkpt>
      <trkpt lat="41.64945" lon="9.01448">
        <ele>1483.45</ele>
        <time>2013-08-28T12:04:38Z</time>
      </trkpt>
      <trkpt lat="41.6491" lon="9.01437">
        <ele>1469.99</ele>
        <time>2013-08-28T12:04:41Z</time>
      </trkpt>
      <trkpt lat="41.64898" lon="9.01416">
        <ele>1455.57</ele>
        <time>2013-08-28T12:04:45Z</time>
      </trkpt>
      <trkpt lat="41.64867" lon="9.01384">
        <ele>1438.75</ele>
        <time>2013-08-28T12:04:50Z</time>
      </trkpt>
      <trkpt lat="41.64834" lon="9.01336">
        <ele>1422.41</ele>
        <time>2013-08-28T12:04:57Z</time>
      </trkpt>
      <trkpt lat="41.64835" lon="9.01296">
        <ele>1406.55</ele>
        <time>2013-08-28T12:05:04Z</time>
      </trkpt>
      <trkpt lat="41.64843" lon="9.01277">
        <ele>1397.89</ele>
        <time>2013-08-28T12:05:08Z</time>
      </trkpt>
      <trkpt lat="41.64833" lon="9.01243">
        <ele>1387.8</ele>
        <time>2013-08-28T12:05:14Z</time>
      </trkpt>
      <trkpt lat="41.6484" lon="9.0128">
        <ele>1411.83</ele>
        <time>2013-08-28T12:05:21Z</time>
      </trkpt>
      <trkpt lat="41.64816" lon="9.01329">
        <ele>1369.54</ele>
        <time>2013-08-28T12:05:24Z</time>
      </trkpt>
      <trkpt lat="41.64785" lon="9.01307">
        <ele>1369.05</ele>
        <time>2013-08-28T12:05:27Z</time>
      </trkpt>
      <trkpt lat="41.64785" lon="9.01312">
        <ele>1369.05</ele>
        <time>2013-08-28T12:05:29Z</time>
      </trkpt>
      <trkpt lat="41.64755" lon="9.0138">
        <ele>1383.96</ele>
        <time>2013-08-28T12:05:34Z</time>
      </trkpt>
      <trkpt lat="41.64723" lon="9.01315">
        <ele>1333.97</ele>
        <time>2013-08-28T12:05:38Z</time>
      </trkpt>
      <trkpt lat="41.6471" lon="9.01314">
        <ele>1316.18</ele>
        <time>2013-08-28T12:05:41Z</time>
      </trkpt>
      <trkpt lat="41.64729" lon="9.01311">
        <ele>1313.3</ele>
        <time>2013-08-28T12:05:44Z</time>
      </trkpt>
      <trkpt lat="41.64742" lon="9.01302">
        <ele>1274.85</ele>
        <time>2013-08-28T12:05:50Z</time>
      </trkpt>
      <trkpt lat="41.64759" lon="9.0129">
        <ele>1273.88</ele>
        <time>2013-08-28T12:05:53Z</time>
      </trkpt>
      <trkpt lat="41.64748" lon="9.01414">
        <ele>1250.81</ele>
        <time>2013-08-28T12:05:58Z</time>
      </trkpt>
      <trkpt lat="41.64725" lon="9.01403">
        <ele>1250.81</ele>
        <time>2013-08-28T12:06:01Z</time>
      </trkpt>
      <trkpt lat="41.6472" lon="9.01427">
        <ele>1250.81</ele>
        <time>2013-08-28T12:06:03Z</time>
      </trkpt>
      <trkpt lat="41.64712" lon="9.01462">
        <ele>1223.9</ele>
        <time>2013-08-28T12:06:09Z</time>
      </trkpt>
      <trkpt lat="41.64702" lon="9.01456">
        <ele>1204.19</ele>
        <time>2013-08-28T12:06:11Z</time>
      </trkpt>
      <trkpt lat="41.64695" lon="9.01445">
        <ele>1201.79</ele>
        <time>2013-08-28T12:06:13Z</time>
      </trkpt>
      <trkpt lat="41.64676" lon="9.01411">
        <ele>1190.25</ele>
        <time>2013-08-28T12:06:20Z</time>
      </trkpt>
      <trkpt lat="41.64682" lon="9.01509">
        <ele>1166.22</ele>
        <time>2013-08-28T12:06:25Z</time>
      </trkpt>
      <trkpt lat="41.64632" lon="9.0152">
        <ele>1154.68</ele>
        <time>2013-08-28T12:06:28Z</time>
      </trkpt>
      <trkpt lat="41.64623" lon="9.015">
        <ele>1146.99</ele>
        <time>2013-08-28T12:06:31Z</time>
      </trkpt>
      <trkpt lat="41.64626" lon="9.01482">
        <ele>1145.55</ele>
        <time>2013-08-28T12:06:34Z</time>
      </trkpt>
      <trkpt lat="41.64611" lon="9.01444">
        <ele>1136.42</ele>
        <time>2013-08-28T12:06:40Z</time>
      </trkpt>
      <trkpt lat="41.64612" lon="9.01402">
        <ele>1125.36</ele>
        <time>2013-08-28T12:06:49Z</time>
      </trkpt>
      <trkpt lat="41.64611" lon="9.01391">
        <ele>1122.48</ele>
        <time>2013-08-28T12:06:51Z</time>
      </trkpt>
      <trkpt lat="41.64603" lon="9.01363">
        <ele>1114.79</ele>
        <time>2013-08-28T12:06:56Z</time>
      </trkpt>
      <trkpt lat="41.64544" lon="9.01285">
        <ele>1099.4</ele>
        <time>2013-08-28T12:07:08Z</time>
      </trkpt>
      <trkpt lat="41.64463" lon="9.01216">
        <ele>1079.22</ele>
        <time>2013-08-28T12:07:20Z</time>
      </trkpt>
      <trkpt lat="41.64391" lon="9.01156">
        <ele>1059.51</ele>
        <time>2013-08-28T12:07:30Z</time>
      </trkpt>
      <trkpt lat="41.64288" lon="9.01084">
        <ele>1037.88</ele>
        <time>2013-08-28T12:07:43Z</time>
      </trkpt>
      <trkpt lat="41.64201" lon="9.0102">
        <ele>1023.46</ele>
        <time>2013-08-28T12:07:54Z</time>
      </trkpt>
      <trkpt lat="41.64095" lon="9.0094">
        <ele>1004.72</ele>
        <time>2013-08-28T12:08:08Z</time>
      </trkpt>
      <trkpt lat="41.64007" lon="9.00881">
        <ele>985.01</ele>
        <time>2013-08-28T12:08:19Z</time>
      </trkpt>
      <trkpt lat="41.63989" lon="9.00857">
        <ele>975.39</ele>
        <time>2013-08-28T12:08:24Z</time>
      </trkpt>
      <trkpt lat="41.63987" lon="9.00811">
        <ele>960.98</ele>
        <time>2013-08-28T12:08:34Z</time>
      </trkpt>
      <trkpt lat="41.63955" lon="9.00715">
        <ele>941.27</ele>
        <time>2013-08-28T12:08:51Z</time>
      </trkpt>
      <trkpt lat="41.63925" lon="9.00647">
        <ele>936.46</ele>
        <time>2013-08-28T12:09:02Z</time>
      </trkpt>
      <trkpt lat="41.63912" lon="9.00623">
        <ele>937.9</ele>
        <time>2013-08-28T12:09:06Z</time>
      </trkpt>
      <trkpt lat="41.63903" lon="9.006">
        <ele>938.86</ele>
        <time>2013-08-28T12:09:10Z</time>
      </trkpt>
      <trkpt lat="41.63877" lon="9.00539">
        <ele>948</ele>
        <time>2013-08-28T12:09:21Z</time>
      </trkpt>
      <trkpt lat="41.63877" lon="9.00472">
        <ele>959.05</ele>
        <time>2013-08-28T12:09:35Z</time>
      </trkpt>
      <trkpt lat="41.63894" lon="9.00417">
        <ele>963.86</ele>
        <time>2013-08-28T12:09:47Z</time>
      </trkpt>
      <trkpt lat="41.63902" lon="9.00359">
        <ele>970.59</ele>
        <time>2013-08-28T12:09:59Z</time>
      </trkpt>
      <trkpt lat="41.63909" lon="9.00302">
        <ele>979.24</ele>
        <time>2013-08-28T12:10:10Z</time>
      </trkpt>
      <trkpt lat="41.6394" lon="9.00245">
        <ele>989.81</ele>
        <time>2013-08-28T12:10:24Z</time>
      </trkpt>
      <trkpt lat="41.63985" lon="9.002">
        <ele>1002.79</ele>
        <time>2013-08-28T12:10:39Z</time>
      </trkpt>
      <trkpt lat="41.63996" lon="9.00189">
        <ele>1007.6</ele>
        <time>2013-08-28T12:10:43Z</time>
      </trkpt>
      <trkpt lat="41.63995" lon="9.00173">
        <ele>1009.04</ele>
        <time>2013-08-28T12:10:46Z</time>
      </trkpt>
      <trkpt lat="41.63992" lon="9.00136">
        <ele>1012.41</ele>
        <time>2013-08-28T12:10:53Z</time>
      </trkpt>
      <trkpt lat="41.63987" lon="9.00121">
        <ele>1012.89</ele>
        <time>2013-08-28T12:10:56Z</time>
      </trkpt>
      <trkpt lat="41.63991" lon="9.00087">
        <ele>1017.21</ele>
        <time>2013-08-28T12:11:03Z</time>
      </trkpt>
      <trkpt lat="41.63996" lon="9.00071">
        <ele>1019.13</ele>
        <time>2013-08-28T12:11:07Z</time>
      </trkpt>
      <trkpt lat="41.63981" lon="9.00041">
        <ele>1018.17</ele>
        <time>2013-08-28T12:11:13Z</time>
      </trkpt>
      <trkpt lat="41.63996" lon="9.00015">
        <ele>1021.06</ele>
        <time>2013-08-28T12:11:20Z</time>
      </trkpt>
      <trkpt lat="41.63999" lon="9.00006">
        <ele>1022.02</ele>
        <time>2013-08-28T12:11:22Z</time>
      </trkpt>
      <trkpt lat="41.63991" lon="8.99943">
        <ele>1032.59</ele>
        <time>2013-08-28T12:11:35Z</time>
      </trkpt>
      <trkpt lat="41.63987" lon="8.99915">
        <ele>1035.96</ele>
        <time>2013-08-28T12:11:41Z</time>
      </trkpt>
      <trkpt lat="41.63966" lon="8.99856">
        <ele>1035</ele>
        <time>2013-08-28T12:11:51Z</time>
      </trkpt>
      <trkpt lat="41.63961" lon="8.99815">
        <ele>1037.88</ele>
        <time>2013-08-28T12:12:01Z</time>
      </trkpt>
      <trkpt lat="41.6397" lon="8.99805">
        <ele>1038.36</ele>
        <time>2013-08-28T12:12:06Z</time>
      </trkpt>
      <trkpt lat="41.63963" lon="8.9976">
        <ele>1034.52</ele>
        <time>2013-08-28T12:12:17Z</time>
      </trkpt>
      <trkpt lat="41.63954" lon="8.99707">
        <ele>1030.67</ele>
        <time>2013-08-28T12:12:28Z</time>
      </trkpt>
      <trkpt lat="41.63938" lon="8.9965">
        <ele>1032.11</ele>
        <time>2013-08-28T12:12:40Z</time>
      </trkpt>
      <trkpt lat="41.63935" lon="8.99607">
        <ele>1032.11</ele>
        <time>2013-08-28T12:12:51Z</time>
      </trkpt>
      <trkpt lat="41.63929" lon="8.99545">
        <ele>1035</ele>
        <time>2013-08-28T12:13:05Z</time>
      </trkpt>
      <trkpt lat="41.63923" lon="8.99514">
        <ele>1035.96</ele>
        <time>2013-08-28T12:13:11Z</time>
      </trkpt>
      <trkpt lat="41.63923" lon="8.99482">
        <ele>1031.63</ele>
        <time>2013-08-28T12:13:17Z</time>
      </trkpt>
      <trkpt lat="41.63916" lon="8.9941">
        <ele>1034.04</ele>
        <time>2013-08-28T12:13:32Z</time>
      </trkpt>
      <trkpt lat="41.63911" lon="8.99389">
        <ele>1029.23</ele>
        <time>2013-08-28T12:13:37Z</time>
      </trkpt>
      <trkpt lat="41.63911" lon="8.99361">
        <ele>1017.69</ele>
        <time>2013-08-28T12:13:43Z</time>
      </trkpt>
      <trkpt lat="41.63934" lon="8.99375">
        <ele>1008.08</ele>
        <time>2013-08-28T12:13:48Z</time>
      </trkpt>
      <trkpt lat="41.63942" lon="8.99388">
        <ele>1005.68</ele>
        <time>2013-08-28T12:13:49Z</time>
      </trkpt>
      <trkpt lat="41.63955" lon="8.99415">
        <ele>1002.79</ele>
        <time>2013-08-28T12:13:51Z</time>
      </trkpt>
      <trkpt lat="41.63856" lon="8.99456">
        <ele>996.54</ele>
        <time>2013-08-28T12:13:55Z</time>
      </trkpt>
      <trkpt lat="41.63861" lon="8.99446">
        <ele>976.36</ele>
        <time>2013-08-28T12:13:59Z</time>
      </trkpt>
      <trkpt lat="41.63875" lon="8.99425">
        <ele>964.34</ele>
        <time>2013-08-28T12:14:06Z</time>
      </trkpt>
      <trkpt lat="41.63874" lon="8.99416">
        <ele>961.94</ele>
        <time>2013-08-28T12:14:08Z</time>
      </trkpt>
      <trkpt lat="41.63858" lon="8.99335">
        <ele>943.67</ele>
        <time>2013-08-28T12:14:25Z</time>
      </trkpt>
      <trkpt lat="41.6384" lon="8.99263">
        <ele>923.96</ele>
        <time>2013-08-28T12:14:39Z</time>
      </trkpt>
      <trkpt lat="41.63835" lon="8.99244">
        <ele>918.2</ele>
        <time>2013-08-28T12:14:42Z</time>
      </trkpt>
      <trkpt lat="41.63831" lon="8.99209">
        <ele>905.22</ele>
        <time>2013-08-28T12:14:49Z</time>
      </trkpt>
      <trkpt lat="41.63827" lon="8.99153">
        <ele>885.99</ele>
        <time>2013-08-28T12:15:02Z</time>
      </trkpt>
      <trkpt lat="41.63827" lon="8.99114">
        <ele>872.05</ele>
        <time>2013-08-28T12:15:12Z</time>
      </trkpt>
      <trkpt lat="41.6382" lon="8.99079">
        <ele>856.67</ele>
        <time>2013-08-28T12:15:21Z</time>
      </trkpt>
      <trkpt lat="41.63828" lon="8.99071">
        <ele>849.94</ele>
        <time>2013-08-28T12:15:25Z</time>
      </trkpt>
      <trkpt lat="41.63838" lon="8.9907">
        <ele>845.14</ele>
        <time>2013-08-28T12:15:28Z</time>
      </trkpt>
      <trkpt lat="41.63828" lon="8.99047">
        <ele>831.68</ele>
        <time>2013-08-28T12:15:35Z</time>
      </trkpt>
      <trkpt lat="41.63811" lon="8.99016">
        <ele>819.66</ele>
        <time>2013-08-28T12:15:42Z</time>
      </trkpt>
      <trkpt lat="41.63825" lon="8.9897">
        <ele>800.44</ele>
        <time>2013-08-28T12:15:56Z</time>
      </trkpt>
      <trkpt lat="41.63825" lon="8.98927">
        <ele>803.8</ele>
        <time>2013-08-28T12:16:08Z</time>
      </trkpt>
      <trkpt lat="41.63835" lon="8.98888">
        <ele>805.24</ele>
        <time>2013-08-28T12:16:20Z</time>
      </trkpt>
      <trkpt lat="41.63853" lon="8.98857">
        <ele>797.07</ele>
        <time>2013-08-28T12:16:31Z</time>
      </trkpt>
      <trkpt lat="41.63854" lon="8.98845">
        <ele>796.11</ele>
        <time>2013-08-28T12:16:34Z</time>
      </trkpt>
      <trkpt lat="41.63863" lon="8.98841">
        <ele>798.99</ele>
        <time>2013-08-28T12:16:38Z</time>
      </trkpt>
      <trkpt lat="41.63877" lon="8.98845">
        <ele>801.4</ele>
        <time>2013-08-28T12:16:41Z</time>
      </trkpt>
      <trkpt lat="41.63875" lon="8.98829">
        <ele>806.68</ele>
        <time>2013-08-28T12:16:46Z</time>
      </trkpt>
      <trkpt lat="41.63874" lon="8.98809">
        <ele>811.97</ele>
        <time>2013-08-28T12:16:50Z</time>
      </trkpt>
      <trkpt lat="41.63882" lon="8.98769">
        <ele>828.79</ele>
        <time>2013-08-28T12:16:59Z</time>
      </trkpt>
      <trkpt lat="41.6388" lon="8.98758">
        <ele>833.12</ele>
        <time>2013-08-28T12:17:01Z</time>
      </trkpt>
      <trkpt lat="41.63882" lon="8.9872">
        <ele>850.42</ele>
        <time>2013-08-28T12:17:09Z</time>
      </trkpt>
      <trkpt lat="41.63878" lon="8.98695">
        <ele>857.15</ele>
        <time>2013-08-28T12:17:15Z</time>
      </trkpt>
      <trkpt lat="41.63878" lon="8.9866">
        <ele>862.44</ele>
        <time>2013-08-28T12:17:21Z</time>
      </trkpt>
      <trkpt lat="41.63883" lon="8.98647">
        <ele>866.77</ele>
        <time>2013-08-28T12:17:24Z</time>
      </trkpt>
      <trkpt lat="41.63902" lon="8.98623">
        <ele>863.88</ele>
        <time>2013-08-28T12:17:31Z</time>
      </trkpt>
      <trkpt lat="41.63907" lon="8.9857">
        <ele>850.42</ele>
        <time>2013-08-28T12:17:42Z</time>
      </trkpt>
      <trkpt lat="41.6392" lon="8.98528">
        <ele>856.67</ele>
        <time>2013-08-28T12:17:52Z</time>
      </trkpt>
      <trkpt lat="41.63924" lon="8.98459">
        <ele>863.4</ele>
        <time>2013-08-28T12:18:04Z</time>
      </trkpt>
      <trkpt lat="41.63928" lon="8.98419">
        <ele>872.53</ele>
        <time>2013-08-28T12:18:11Z</time>
      </trkpt>
      <trkpt lat="41.6394" lon="8.98336">
        <ele>880.71</ele>
        <time>2013-08-28T12:18:26Z</time>
      </trkpt>
      <trkpt lat="41.63934" lon="8.98259">
        <ele>878.78</ele>
        <time>2013-08-28T12:18:37Z</time>
      </trkpt>
      <trkpt lat="41.63929" lon="8.98238">
        <ele>878.78</ele>
        <time>2013-08-28T12:18:40Z</time>
      </trkpt>
      <trkpt lat="41.63934" lon="8.98161">
        <ele>886.95</ele>
        <time>2013-08-28T12:18:51Z</time>
      </trkpt>
      <trkpt lat="41.63952" lon="8.98083">
        <ele>906.66</ele>
        <time>2013-08-28T12:19:04Z</time>
      </trkpt>
      <trkpt lat="41.63958" lon="8.9806">
        <ele>910.99</ele>
        <time>2013-08-28T12:19:08Z</time>
      </trkpt>
      <trkpt lat="41.63978" lon="8.98004">
        <ele>923.96</ele>
        <time>2013-08-28T12:19:18Z</time>
      </trkpt>
      <trkpt lat="41.63981" lon="8.97977">
        <ele>931.17</ele>
        <time>2013-08-28T12:19:22Z</time>
      </trkpt>
      <trkpt lat="41.63988" lon="8.97948">
        <ele>938.86</ele>
        <time>2013-08-28T12:19:27Z</time>
      </trkpt>
      <trkpt lat="41.64001" lon="8.97924">
        <ele>949.92</ele>
        <time>2013-08-28T12:19:33Z</time>
      </trkpt>
      <trkpt lat="41.64017" lon="8.97893">
        <ele>961.46</ele>
        <time>2013-08-28T12:19:40Z</time>
      </trkpt>
      <trkpt lat="41.64026" lon="8.97881">
        <ele>965.3</ele>
        <time>2013-08-28T12:19:43Z</time>
      </trkpt>
      <trkpt lat="41.64043" lon="8.97859">
        <ele>974.43</ele>
        <time>2013-08-28T12:19:49Z</time>
      </trkpt>
      <trkpt lat="41.64065" lon="8.97821">
        <ele>985.97</ele>
        <time>2013-08-28T12:20:00Z</time>
      </trkpt>
      <trkpt lat="41.64069" lon="8.97768">
        <ele>999.91</ele>
        <time>2013-08-28T12:20:10Z</time>
      </trkpt>
      <trkpt lat="41.64066" lon="8.97702">
        <ele>1014.33</ele>
        <time>2013-08-28T12:20:22Z</time>
      </trkpt>
      <trkpt lat="41.64055" lon="8.97614">
        <ele>1022.98</ele>
        <time>2013-08-28T12:20:36Z</time>
      </trkpt>
      <trkpt lat="41.64057" lon="8.97587">
        <ele>1026.34</ele>
        <time>2013-08-28T12:20:41Z</time>
      </trkpt>
      <trkpt lat="41.64046" lon="8.975">
        <ele>1031.63</ele>
        <time>2013-08-28T12:20:56Z</time>
      </trkpt>
      <trkpt lat="41.64032" lon="8.97449">
        <ele>1039.32</ele>
        <time>2013-08-28T12:21:06Z</time>
      </trkpt>
      <trkpt lat="41.64024" lon="8.97428">
        <ele>1041.73</ele>
        <time>2013-08-28T12:21:10Z</time>
      </trkpt>
      <trkpt lat="41.64018" lon="8.97408">
        <ele>1042.21</ele>
        <time>2013-08-28T12:21:13Z</time>
      </trkpt>
      <trkpt lat="41.64005" lon="8.9737">
        <ele>1046.53</ele>
        <time>2013-08-28T12:21:19Z</time>
      </trkpt>
      <trkpt lat="41.63948" lon="8.97282">
        <ele>1058.55</ele>
        <time>2013-08-28T12:21:31Z</time>
      </trkpt>
      <trkpt lat="41.63938" lon="8.97266">
        <ele>1060.47</ele>
        <time>2013-08-28T12:21:33Z</time>
      </trkpt>
      <trkpt lat="41.63919" lon="8.97209">
        <ele>1072.97</ele>
        <time>2013-08-28T12:21:42Z</time>
      </trkpt>
      <trkpt lat="41.63897" lon="8.97172">
        <ele>1075.37</ele>
        <time>2013-08-28T12:21:48Z</time>
      </trkpt>
      <trkpt lat="41.63881" lon="8.9712">
        <ele>1082.1</ele>
        <time>2013-08-28T12:21:58Z</time>
      </trkpt>
      <trkpt lat="41.63857" lon="8.97058">
        <ele>1088.83</ele>
        <time>2013-08-28T12:22:07Z</time>
      </trkpt>
      <trkpt lat="41.63813" lon="8.96962">
        <ele>1100.85</ele>
        <time>2013-08-28T12:22:21Z</time>
      </trkpt>
      <trkpt lat="41.63799" lon="8.96924">
        <ele>1103.73</ele>
        <time>2013-08-28T12:22:27Z</time>
      </trkpt>
      <trkpt lat="41.63756" lon="8.9683">
        <ele>1108.06</ele>
        <time>2013-08-28T12:22:41Z</time>
      </trkpt>
      <trkpt lat="41.6372" lon="8.9675">
        <ele>1117.19</ele>
        <time>2013-08-28T12:22:54Z</time>
      </trkpt>
      <trkpt lat="41.63717" lon="8.96735">
        <ele>1117.19</ele>
        <time>2013-08-28T12:22:58Z</time>
      </trkpt>
      <trkpt lat="41.63708" lon="8.9672">
        <ele>1116.71</ele>
        <time>2013-08-28T12:23:01Z</time>
      </trkpt>
      <trkpt lat="41.63696" lon="8.96693">
        <ele>1116.23</ele>
        <time>2013-08-28T12:23:06Z</time>
      </trkpt>
      <trkpt lat="41.63687" lon="8.96676">
        <ele>1118.15</ele>
        <time>2013-08-28T12:23:09Z</time>
      </trkpt>
      <trkpt lat="41.63668" lon="8.96619">
        <ele>1116.71</ele>
        <time>2013-08-28T12:23:17Z</time>
      </trkpt>
      <trkpt lat="41.63622" lon="8.96539">
        <ele>1122</ele>
        <time>2013-08-28T12:23:27Z</time>
      </trkpt>
      <trkpt lat="41.63611" lon="8.96524">
        <ele>1122.48</ele>
        <time>2013-08-28T12:23:29Z</time>
      </trkpt>
      <trkpt lat="41.63594" lon="8.96492">
        <ele>1123.92</ele>
        <time>2013-08-28T12:23:33Z</time>
      </trkpt>
      <trkpt lat="41.63579" lon="8.96468">
        <ele>1124.4</ele>
        <time>2013-08-28T12:23:36Z</time>
      </trkpt>
      <trkpt lat="41.63554" lon="8.96421">
        <ele>1123.92</ele>
        <time>2013-08-28T12:23:42Z</time>
      </trkpt>
      <trkpt lat="41.63548" lon="8.9639">
        <ele>1122.96</ele>
        <time>2013-08-28T12:23:49Z</time>
      </trkpt>
      <trkpt lat="41.63528" lon="8.96324">
        <ele>1110.94</ele>
        <time>2013-08-28T12:24:00Z</time>
      </trkpt>
      <trkpt lat="41.63518" lon="8.96285">
        <ele>1103.25</ele>
        <time>2013-08-28T12:24:05Z</time>
      </trkpt>
      <trkpt lat="41.63489" lon="8.96204">
        <ele>1097.96</ele>
        <time>2013-08-28T12:24:16Z</time>
      </trkpt>
      <trkpt lat="41.63472" lon="8.96152">
        <ele>1104.21</ele>
        <time>2013-08-28T12:24:23Z</time>
      </trkpt>
      <trkpt lat="41.63468" lon="8.96126">
        <ele>1108.06</ele>
        <time>2013-08-28T12:24:27Z</time>
      </trkpt>
      <trkpt lat="41.6347" lon="8.96105">
        <ele>1111.42</ele>
        <time>2013-08-28T12:24:31Z</time>
      </trkpt>
      <trkpt lat="41.63478" lon="8.96048">
        <ele>1122.96</ele>
        <time>2013-08-28T12:24:42Z</time>
      </trkpt>
      <trkpt lat="41.63467" lon="8.95995">
        <ele>1132.09</ele>
        <time>2013-08-28T12:24:51Z</time>
      </trkpt>
      <trkpt lat="41.63452" lon="8.95953">
        <ele>1140.26</ele>
        <time>2013-08-28T12:24:58Z</time>
      </trkpt>
      <trkpt lat="41.63439" lon="8.95927">
        <ele>1145.07</ele>
        <time>2013-08-28T12:25:02Z</time>
      </trkpt>
      <trkpt lat="41.63417" lon="8.95858">
        <ele>1150.35</ele>
        <time>2013-08-28T12:25:13Z</time>
      </trkpt>
      <trkpt lat="41.63412" lon="8.95815">
        <ele>1164.29</ele>
        <time>2013-08-28T12:25:22Z</time>
      </trkpt>
      <trkpt lat="41.6341" lon="8.95759">
        <ele>1180.16</ele>
        <time>2013-08-28T12:25:33Z</time>
      </trkpt>
      <trkpt lat="41.63427" lon="8.95719">
        <ele>1195.54</ele>
        <time>2013-08-28T12:25:45Z</time>
      </trkpt>
      <trkpt lat="41.63463" lon="8.95696">
        <ele>1202.27</ele>
        <time>2013-08-28T12:25:56Z</time>
      </trkpt>
      <trkpt lat="41.63506" lon="8.95673">
        <ele>1209</ele>
        <time>2013-08-28T12:26:08Z</time>
      </trkpt>
      <trkpt lat="41.63514" lon="8.95671">
        <ele>1210.44</ele>
        <time>2013-08-28T12:26:10Z</time>
      </trkpt>
      <trkpt lat="41.63594" lon="8.9568">
        <ele>1226.3</ele>
        <time>2013-08-28T12:26:27Z</time>
      </trkpt>
      <trkpt lat="41.63645" lon="8.95704">
        <ele>1237.35</ele>
        <time>2013-08-28T12:26:36Z</time>
      </trkpt>
      <trkpt lat="41.6367" lon="8.95695">
        <ele>1246.49</ele>
        <time>2013-08-28T12:26:43Z</time>
      </trkpt>
      <trkpt lat="41.63672" lon="8.95671">
        <ele>1253.22</ele>
        <time>2013-08-28T12:26:48Z</time>
      </trkpt>
      <trkpt lat="41.6367" lon="8.95654">
        <ele>1256.58</ele>
        <time>2013-08-28T12:26:51Z</time>
      </trkpt>
      <trkpt lat="41.63658" lon="8.95599">
        <ele>1271.96</ele>
        <time>2013-08-28T12:27:02Z</time>
      </trkpt>
      <trkpt lat="41.63658" lon="8.95549">
        <ele>1291.67</ele>
        <time>2013-08-28T12:27:15Z</time>
      </trkpt>
      <trkpt lat="41.6366" lon="8.95503">
        <ele>1290.23</ele>
        <time>2013-08-28T12:27:26Z</time>
      </trkpt>
      <trkpt lat="41.63666" lon="8.95465">
        <ele>1294.55</ele>
        <time>2013-08-28T12:27:35Z</time>
      </trkpt>
      <trkpt lat="41.63691" lon="8.95441">
        <ele>1306.09</ele>
        <time>2013-08-28T12:27:47Z</time>
      </trkpt>
      <trkpt lat="41.63693" lon="8.9544">
        <ele>1307.05</ele>
        <time>2013-08-28T12:27:48Z</time>
      </trkpt>
      <trkpt lat="41.63696" lon="8.95427">
        <ele>1312.34</ele>
        <time>2013-08-28T12:27:53Z</time>
      </trkpt>
      <trkpt lat="41.63683" lon="8.95412">
        <ele>1318.1</ele>
        <time>2013-08-28T12:27:57Z</time>
      </trkpt>
      <trkpt lat="41.63679" lon="8.95389">
        <ele>1320.51</ele>
        <time>2013-08-28T12:28:04Z</time>
      </trkpt>
      <trkpt lat="41.63688" lon="8.95382">
        <ele>1323.39</ele>
        <time>2013-08-28T12:28:07Z</time>
      </trkpt>
      <trkpt lat="41.63695" lon="8.9538">
        <ele>1325.8</ele>
        <time>2013-08-28T12:28:09Z</time>
      </trkpt>
      <trkpt lat="41.63711" lon="8.95359">
        <ele>1333.97</ele>
        <time>2013-08-28T12:28:17Z</time>
      </trkpt>
      <trkpt lat="41.63725" lon="8.95344">
        <ele>1339.73</ele>
        <time>2013-08-28T12:28:23Z</time>
      </trkpt>
      <trkpt lat="41.63742" lon="8.95339">
        <ele>1343.58</ele>
        <time>2013-08-28T12:28:29Z</time>
      </trkpt>
      <trkpt lat="41.63736" lon="8.95316">
        <ele>1344.54</ele>
        <time>2013-08-28T12:28:35Z</time>
      </trkpt>
      <trkpt lat="41.6374" lon="8.95314">
        <ele>1344.06</ele>
        <time>2013-08-28T12:28:36Z</time>
      </trkpt>
      <trkpt lat="41.63751" lon="8.95309">
        <ele>1344.54</ele>
        <time>2013-08-28T12:28:39Z</time>
      </trkpt>
      <trkpt lat="41.63768" lon="8.95282">
        <ele>1351.75</ele>
        <time>2013-08-28T12:28:48Z</time>
      </trkpt>
      <trkpt lat="41.63785" lon="8.95264">
        <ele>1358.96</ele>
        <time>2013-08-28T12:28:54Z</time>
      </trkpt>
      <trkpt lat="41.63804" lon="8.9523">
        <ele>1369.05</ele>
        <time>2013-08-28T12:29:03Z</time>
      </trkpt>
      <trkpt lat="41.63834" lon="8.95201">
        <ele>1377.71</ele>
        <time>2013-08-28T12:29:14Z</time>
      </trkpt>
      <trkpt lat="41.63869" lon="8.95187">
        <ele>1391.17</ele>
        <time>2013-08-28T12:29:25Z</time>
      </trkpt>
      <trkpt lat="41.63908" lon="8.95153">
        <ele>1405.58</ele>
        <time>2013-08-28T12:29:40Z</time>
      </trkpt>
      <trkpt lat="41.63934" lon="8.95141">
        <ele>1404.62</ele>
        <time>2013-08-28T12:29:47Z</time>
      </trkpt>
      <trkpt lat="41.63949" lon="8.95139">
        <ele>1406.55</ele>
        <time>2013-08-28T12:29:51Z</time>
      </trkpt>
      <trkpt lat="41.64024" lon="8.95153">
        <ele>1419.52</ele>
        <time>2013-08-28T12:30:06Z</time>
      </trkpt>
      <trkpt lat="41.64042" lon="8.9516">
        <ele>1423.37</ele>
        <time>2013-08-28T12:30:09Z</time>
      </trkpt>
      <trkpt lat="41.6406" lon="8.95143">
        <ele>1430.58</ele>
        <time>2013-08-28T12:30:17Z</time>
      </trkpt>
      <trkpt lat="41.64094" lon="8.95114">
        <ele>1441.15</ele>
        <time>2013-08-28T12:30:30Z</time>
      </trkpt>
      <trkpt lat="41.6413" lon="8.95105">
        <ele>1444.04</ele>
        <time>2013-08-28T12:30:41Z</time>
      </trkpt>
      <trkpt lat="41.64152" lon="8.9508">
        <ele>1421.93</ele>
        <time>2013-08-28T12:30:52Z</time>
      </trkpt>
      <trkpt lat="41.64154" lon="8.95044">
        <ele>1396.45</ele>
        <time>2013-08-28T12:31:03Z</time>
      </trkpt>
      <trkpt lat="41.64154" lon="8.95003">
        <ele>1372.9</ele>
        <time>2013-08-28T12:31:15Z</time>
      </trkpt>
      <trkpt lat="41.64149" lon="8.94974">
        <ele>1358</ele>
        <time>2013-08-28T12:31:23Z</time>
      </trkpt>
      <trkpt lat="41.64158" lon="8.9496">
        <ele>1348.39</ele>
        <time>2013-08-28T12:31:28Z</time>
      </trkpt>
      <trkpt lat="41.64153" lon="8.94924">
        <ele>1333.01</ele>
        <time>2013-08-28T12:31:37Z</time>
      </trkpt>
      <trkpt lat="41.64161" lon="8.94888">
        <ele>1314.26</ele>
        <time>2013-08-28T12:31:48Z</time>
      </trkpt>
      <trkpt lat="41.64176" lon="8.94851">
        <ele>1289.27</ele>
        <time>2013-08-28T12:32:02Z</time>
      </trkpt>
      <trkpt lat="41.64166" lon="8.948">
        <ele>1265.23</ele>
        <time>2013-08-28T12:32:14Z</time>
      </trkpt>
      <trkpt lat="41.64155" lon="8.94752">
        <ele>1240.72</ele>
        <time>2013-08-28T12:32:25Z</time>
      </trkpt>
      <trkpt lat="41.64155" lon="8.94746">
        <ele>1238.32</ele>
        <time>2013-08-28T12:32:26Z</time>
      </trkpt>
      <trkpt lat="41.64143" lon="8.94714">
        <ele>1227.74</ele>
        <time>2013-08-28T12:32:31Z</time>
      </trkpt>
      <trkpt lat="41.64152" lon="8.94703">
        <ele>1215.72</ele>
        <time>2013-08-28T12:32:37Z</time>
      </trkpt>
      <trkpt lat="41.64139" lon="8.94675">
        <ele>1205.15</ele>
        <time>2013-08-28T12:32:42Z</time>
      </trkpt>
      <trkpt lat="41.64141" lon="8.94675">
        <ele>1203.23</ele>
        <time>2013-08-28T12:32:43Z</time>
      </trkpt>
      <trkpt lat="41.64145" lon="8.94674">
        <ele>1198.42</ele>
        <time>2013-08-28T12:32:45Z</time>
      </trkpt>
      <trkpt lat="41.64148" lon="8.94663">
        <ele>1189.77</ele>
        <time>2013-08-28T12:32:49Z</time>
      </trkpt>
      <trkpt lat="41.64132" lon="8.94601">
        <ele>1159.01</ele>
        <time>2013-08-28T12:33:03Z</time>
      </trkpt>
      <trkpt lat="41.64121" lon="8.94559">
        <ele>1136.42</ele>
        <time>2013-08-28T12:33:13Z</time>
      </trkpt>
      <trkpt lat="41.6412" lon="8.94539">
        <ele>1123.44</ele>
        <time>2013-08-28T12:33:19Z</time>
      </trkpt>
      <trkpt lat="41.641" lon="8.94488">
        <ele>1102.29</ele>
        <time>2013-08-28T12:33:28Z</time>
      </trkpt>
      <trkpt lat="41.64093" lon="8.94443">
        <ele>1076.33</ele>
        <time>2013-08-28T12:33:38Z</time>
      </trkpt>
      <trkpt lat="41.64084" lon="8.94382">
        <ele>1046.53</ele>
        <time>2013-08-28T12:33:50Z</time>
      </trkpt>
      <trkpt lat="41.64087" lon="8.94318">
        <ele>1016.25</ele>
        <time>2013-08-28T12:34:03Z</time>
      </trkpt>
      <trkpt lat="41.64087" lon="8.94271">
        <ele>991.74</ele>
        <time>2013-08-28T12:34:15Z</time>
      </trkpt>
      <trkpt lat="41.64083" lon="8.94237">
        <ele>973.95</ele>
        <time>2013-08-28T12:34:25Z</time>
      </trkpt>
      <trkpt lat="41.64083" lon="8.94209">
        <ele>954.25</ele>
        <time>2013-08-28T12:34:34Z</time>
      </trkpt>
      <trkpt lat="41.64067" lon="8.94178">
        <ele>942.71</ele>
        <time>2013-08-28T12:34:39Z</time>
      </trkpt>
      <trkpt lat="41.64002" lon="8.94109">
        <ele>919.16</ele>
        <time>2013-08-28T12:34:49Z</time>
      </trkpt>
      <trkpt lat="41.63979" lon="8.9409">
        <ele>912.43</ele>
        <time>2013-08-28T12:34:52Z</time>
      </trkpt>
      <trkpt lat="41.63968" lon="8.94065">
        <ele>900.41</ele>
        <time>2013-08-28T12:34:59Z</time>
      </trkpt>
      <trkpt lat="41.63971" lon="8.94053">
        <ele>897.53</ele>
        <time>2013-08-28T12:35:04Z</time>
      </trkpt>
      <trkpt lat="41.63977" lon="8.94015">
        <ele>908.58</ele>
        <time>2013-08-28T12:35:19Z</time>
      </trkpt>
      <trkpt lat="41.63979" lon="8.93998">
        <ele>903.3</ele>
        <time>2013-08-28T12:35:29Z</time>
      </trkpt>
      <trkpt lat="41.63965" lon="8.93953">
        <ele>901.85</ele>
        <time>2013-08-28T12:35:42Z</time>
      </trkpt>
      <trkpt lat="41.63954" lon="8.93926">
        <ele>906.18</ele>
        <time>2013-08-28T12:35:51Z</time>
      </trkpt>
      <trkpt lat="41.63954" lon="8.93921">
        <ele>907.14</ele>
        <time>2013-08-28T12:35:53Z</time>
      </trkpt>
      <trkpt lat="41.63941" lon="8.93896">
        <ele>913.39</ele>
        <time>2013-08-28T12:36:03Z</time>
      </trkpt>
      <trkpt lat="41.63933" lon="8.93877">
        <ele>907.62</ele>
        <time>2013-08-28T12:36:16Z</time>
      </trkpt>
      <trkpt lat="41.63933" lon="8.93875">
        <ele>906.18</ele>
        <time>2013-08-28T12:36:18Z</time>
      </trkpt>
      <trkpt lat="41.63936" lon="8.93875">
        <ele>907.14</ele>
        <time>2013-08-28T12:36:22Z</time>
      </trkpt>
      <trkpt lat="41.63935" lon="8.93868">
        <ele>908.1</ele>
        <time>2013-08-28T12:36:27Z</time>
      </trkpt>
      <trkpt lat="41.63938" lon="8.93862">
        <ele>911.95</ele>
        <time>2013-08-28T12:36:36Z</time>
      </trkpt>
      <trkpt lat="41.63947" lon="8.93859">
        <ele>907.14</ele>
        <time>2013-08-28T12:36:40Z</time>
      </trkpt>
      <trkpt lat="41.6395" lon="8.93846">
        <ele>898.01</ele>
        <time>2013-08-28T12:36:47Z</time>
      </trkpt>
      <trkpt lat="41.63951" lon="8.93843">
        <ele>895.12</ele>
        <time>2013-08-28T12:36:50Z</time>
      </trkpt>
      <trkpt lat="41.63941" lon="8.93806">
        <ele>887.43</ele>
        <time>2013-08-28T12:37:02Z</time>
      </trkpt>
      <trkpt lat="41.6394" lon="8.93778">
        <ele>885.51</ele>
        <time>2013-08-28T12:37:15Z</time>
      </trkpt>
      <trkpt lat="41.63936" lon="8.93747">
        <ele>884.07</ele>
        <time>2013-08-28T12:37:27Z</time>
      </trkpt>
      <trkpt lat="41.63935" lon="8.93718">
        <ele>884.07</ele>
        <time>2013-08-28T12:37:36Z</time>
      </trkpt>
      <trkpt lat="41.63925" lon="8.93679">
        <ele>886.47</ele>
        <time>2013-08-28T12:37:47Z</time>
      </trkpt>
      <trkpt lat="41.63919" lon="8.93661">
        <ele>889.36</ele>
        <time>2013-08-28T12:37:53Z</time>
      </trkpt>
      <trkpt lat="41.63905" lon="8.93642">
        <ele>893.2</ele>
        <time>2013-08-28T12:38:00Z</time>
      </trkpt>
      <trkpt lat="41.63924" lon="8.93671">
        <ele>883.59</ele>
        <time>2013-08-28T12:38:13Z</time>
      </trkpt>
      <trkpt lat="41.6395" lon="8.93706">
        <ele>874.94</ele>
        <time>2013-08-28T12:38:23Z</time>
      </trkpt>
      <trkpt lat="41.63985" lon="8.93745">
        <ele>870.61</ele>
        <time>2013-08-28T12:38:36Z</time>
      </trkpt>
      <trkpt lat="41.63987" lon="8.93736">
        <ele>872.05</ele>
        <time>2013-08-28T12:38:46Z</time>
      </trkpt>
      <trkpt lat="41.63986" lon="8.93726">
        <ele>873.5</ele>
        <time>2013-08-28T12:38:50Z</time>
      </trkpt>
      <trkpt lat="41.63983" lon="8.93719">
        <ele>874.94</ele>
        <time>2013-08-28T12:38:54Z</time>
      </trkpt>
      <trkpt lat="41.63998" lon="8.93732">
        <ele>873.01</ele>
        <time>2013-08-28T12:39:03Z</time>
      </trkpt>
      <trkpt lat="41.64005" lon="8.93729">
        <ele>871.09</ele>
        <time>2013-08-28T12:39:08Z</time>
      </trkpt>
      <trkpt lat="41.64009" lon="8.93729">
        <ele>870.61</ele>
        <time>2013-08-28T12:39:10Z</time>
      </trkpt>
      <trkpt lat="41.64012" lon="8.93727">
        <ele>869.17</ele>
        <time>2013-08-28T12:39:13Z</time>
      </trkpt>
      <trkpt lat="41.64016" lon="8.93723">
        <ele>865.8</ele>
        <time>2013-08-28T12:39:18Z</time>
      </trkpt>
      <trkpt lat="41.64025" lon="8.93723">
        <ele>862.44</ele>
        <time>2013-08-28T12:39:26Z</time>
      </trkpt>
      <trkpt lat="41.64039" lon="8.93725">
        <ele>859.56</ele>
        <time>2013-08-28T12:39:35Z</time>
      </trkpt>
      <trkpt lat="41.64053" lon="8.93723">
        <ele>857.63</ele>
        <time>2013-08-28T12:39:44Z</time>
      </trkpt>
      <trkpt lat="41.64075" lon="8.93746">
        <ele>861</ele>
        <time>2013-08-28T12:39:53Z</time>
      </trkpt>
      <trkpt lat="41.64106" lon="8.93763">
        <ele>853.31</ele>
        <time>2013-08-28T12:40:03Z</time>
      </trkpt>
      <trkpt lat="41.64123" lon="8.93781">
        <ele>852.35</ele>
        <time>2013-08-28T12:40:08Z</time>
      </trkpt>
      <trkpt lat="41.64131" lon="8.93786">
        <ele>851.87</ele>
        <time>2013-08-28T12:40:10Z</time>
      </trkpt>
      <trkpt lat="41.64183" lon="8.93852">
        <ele>851.38</ele>
        <time>2013-08-28T12:40:21Z</time>
      </trkpt>
      <trkpt lat="41.64238" lon="8.93924">
        <ele>846.58</ele>
        <time>2013-08-28T12:40:32Z</time>
      </trkpt>
      <trkpt lat="41.64293" lon="8.94007">
        <ele>850.9</ele>
        <time>2013-08-28T12:40:44Z</time>
      </trkpt>
      <trkpt lat="41.64319" lon="8.94045">
        <ele>851.38</ele>
        <time>2013-08-28T12:40:49Z</time>
      </trkpt>
      <trkpt lat="41.64331" lon="8.94066">
        <ele>852.35</ele>
        <time>2013-08-28T12:40:52Z</time>
      </trkpt>
      <trkpt lat="41.64361" lon="8.94107">
        <ele>853.31</ele>
        <time>2013-08-28T12:40:58Z</time>
      </trkpt>
      <trkpt lat="41.64381" lon="8.94133">
        <ele>854.75</ele>
        <time>2013-08-28T12:41:03Z</time>
      </trkpt>
      <trkpt lat="41.64396" lon="8.94147">
        <ele>859.08</ele>
        <time>2013-08-28T12:41:11Z</time>
      </trkpt>
      <trkpt lat="41.64399" lon="8.94144">
        <ele>859.08</ele>
        <time>2013-08-28T12:41:15Z</time>
      </trkpt>
      <trkpt lat="41.64397" lon="8.94137">
        <ele>857.15</ele>
        <time>2013-08-28T12:41:18Z</time>
      </trkpt>
      <trkpt lat="41.64383" lon="8.94104">
        <ele>860.04</ele>
        <time>2013-08-28T12:41:27Z</time>
      </trkpt>
      <trkpt lat="41.64375" lon="8.94082">
        <ele>860.52</ele>
        <time>2013-08-28T12:41:35Z</time>
      </trkpt>
      <trkpt lat="41.6436" lon="8.94038">
        <ele>855.23</ele>
        <time>2013-08-28T12:41:47Z</time>
      </trkpt>
      <trkpt lat="41.64364" lon="8.94029">
        <ele>855.71</ele>
        <time>2013-08-28T12:41:50Z</time>
      </trkpt>
      <trkpt lat="41.64358" lon="8.94">
        <ele>853.79</ele>
        <time>2013-08-28T12:41:58Z</time>
      </trkpt>
      <trkpt lat="41.64369" lon="8.93984">
        <ele>842.73</ele>
        <time>2013-08-28T12:42:08Z</time>
      </trkpt>
      <trkpt lat="41.64368" lon="8.93967">
        <ele>845.14</ele>
        <time>2013-08-28T12:42:16Z</time>
      </trkpt>
      <trkpt lat="41.64371" lon="8.93938">
        <ele>837.45</ele>
        <time>2013-08-28T12:42:29Z</time>
      </trkpt>
      <trkpt lat="41.6438" lon="8.93902">
        <ele>837.45</ele>
        <time>2013-08-28T12:42:43Z</time>
      </trkpt>
      <trkpt lat="41.64381" lon="8.93895">
        <ele>837.93</ele>
        <time>2013-08-28T12:42:45Z</time>
      </trkpt>
      <trkpt lat="41.644" lon="8.93887">
        <ele>840.81</ele>
        <time>2013-08-28T12:42:55Z</time>
      </trkpt>
      <trkpt lat="41.644" lon="8.93886">
        <ele>840.81</ele>
        <time>2013-08-28T12:42:57Z</time>
      </trkpt>
      <trkpt lat="41.64401" lon="8.93876">
        <ele>836.96</ele>
        <time>2013-08-28T12:43:01Z</time>
      </trkpt>
      <trkpt lat="41.64402" lon="8.93856">
        <ele>834.56</ele>
        <time>2013-08-28T12:43:08Z</time>
      </trkpt>
      <trkpt lat="41.64397" lon="8.93838">
        <ele>833.12</ele>
        <time>2013-08-28T12:43:12Z</time>
      </trkpt>
      <trkpt lat="41.64392" lon="8.93801">
        <ele>832.16</ele>
        <time>2013-08-28T12:43:24Z</time>
      </trkpt>
      <trkpt lat="41.64391" lon="8.938">
        <ele>832.64</ele>
        <time>2013-08-28T12:43:25Z</time>
      </trkpt>
      <trkpt lat="41.64389" lon="8.93762">
        <ele>827.35</ele>
        <time>2013-08-28T12:43:37Z</time>
      </trkpt>
      <trkpt lat="41.64382" lon="8.93736">
        <ele>818.7</ele>
        <time>2013-08-28T12:43:46Z</time>
      </trkpt>
      <trkpt lat="41.64378" lon="8.93726">
        <ele>816.3</ele>
        <time>2013-08-28T12:43:51Z</time>
      </trkpt>
      <trkpt lat="41.64378" lon="8.93714">
        <ele>813.89</ele>
        <time>2013-08-28T12:43:54Z</time>
      </trkpt>
      <trkpt lat="41.64387" lon="8.93708">
        <ele>810.05</ele>
        <time>2013-08-28T12:44:02Z</time>
      </trkpt>
      <trkpt lat="41.64387" lon="8.93705">
        <ele>808.61</ele>
        <time>2013-08-28T12:44:04Z</time>
      </trkpt>
      <trkpt lat="41.6438" lon="8.93683">
        <ele>803.32</ele>
        <time>2013-08-28T12:44:16Z</time>
      </trkpt>
      <trkpt lat="41.64382" lon="8.93677">
        <ele>803.32</ele>
        <time>2013-08-28T12:44:20Z</time>
      </trkpt>
      <trkpt lat="41.6438" lon="8.93666">
        <ele>799.47</ele>
        <time>2013-08-28T12:44:25Z</time>
      </trkpt>
      <trkpt lat="41.64379" lon="8.93636">
        <ele>789.86</ele>
        <time>2013-08-28T12:44:38Z</time>
      </trkpt>
      <trkpt lat="41.64387" lon="8.93628">
        <ele>787.94</ele>
        <time>2013-08-28T12:44:44Z</time>
      </trkpt>
      <trkpt lat="41.64392" lon="8.93623">
        <ele>786.98</ele>
        <time>2013-08-28T12:44:49Z</time>
      </trkpt>
      <trkpt lat="41.64405" lon="8.93608">
        <ele>780.25</ele>
        <time>2013-08-28T12:44:59Z</time>
      </trkpt>
      <trkpt lat="41.64421" lon="8.93612">
        <ele>779.77</ele>
        <time>2013-08-28T12:45:06Z</time>
      </trkpt>
      <trkpt lat="41.64423" lon="8.9361">
        <ele>780.25</ele>
        <time>2013-08-28T12:45:08Z</time>
      </trkpt>
      <trkpt lat="41.64425" lon="8.9359">
        <ele>774.48</ele>
        <time>2013-08-28T12:45:18Z</time>
      </trkpt>
      <trkpt lat="41.64441" lon="8.93577">
        <ele>749.97</ele>
        <time>2013-08-28T12:45:28Z</time>
      </trkpt>
      <trkpt lat="41.64446" lon="8.93569">
        <ele>736.51</ele>
        <time>2013-08-28T12:45:33Z</time>
      </trkpt>
      <trkpt lat="41.64465" lon="8.93576">
        <ele>723.53</ele>
        <time>2013-08-28T12:45:38Z</time>
      </trkpt>
      <trkpt lat="41.6448" lon="8.93589">
        <ele>716.32</ele>
        <time>2013-08-28T12:45:41Z</time>
      </trkpt>
      <trkpt lat="41.645" lon="8.93595">
        <ele>701.9</ele>
        <time>2013-08-28T12:45:47Z</time>
      </trkpt>
      <trkpt lat="41.6454" lon="8.93597">
        <ele>663.93</ele>
        <time>2013-08-28T12:46:00Z</time>
      </trkpt>
      <trkpt lat="41.64584" lon="8.93596">
        <ele>624.99</ele>
        <time>2013-08-28T12:46:14Z</time>
      </trkpt>
      <trkpt lat="41.64628" lon="8.93596">
        <ele>598.08</ele>
        <time>2013-08-28T12:46:27Z</time>
      </trkpt>
      <trkpt lat="41.6467" lon="8.93599">
        <ele>594.23</ele>
        <time>2013-08-28T12:46:41Z</time>
      </trkpt>
      <trkpt lat="41.64695" lon="8.93604">
        <ele>582.22</ele>
        <time>2013-08-28T12:46:50Z</time>
      </trkpt>
      <trkpt lat="41.64712" lon="8.93612">
        <ele>577.41</ele>
        <time>2013-08-28T12:46:54Z</time>
      </trkpt>
      <trkpt lat="41.64745" lon="8.93623">
        <ele>572.12</ele>
        <time>2013-08-28T12:47:03Z</time>
      </trkpt>
      <trkpt lat="41.64752" lon="8.93624">
        <ele>570.68</ele>
        <time>2013-08-28T12:47:06Z</time>
      </trkpt>
      <trkpt lat="41.64773" lon="8.9362">
        <ele>562.99</ele>
        <time>2013-08-28T12:47:15Z</time>
      </trkpt>
      <trkpt lat="41.64789" lon="8.93629">
        <ele>557.22</ele>
        <time>2013-08-28T12:47:19Z</time>
      </trkpt>
      <trkpt lat="41.64811" lon="8.93631">
        <ele>549.05</ele>
        <time>2013-08-28T12:47:26Z</time>
      </trkpt>
      <trkpt lat="41.64829" lon="8.93626">
        <ele>549.05</ele>
        <time>2013-08-28T12:47:36Z</time>
      </trkpt>
      <trkpt lat="41.64834" lon="8.9362">
        <ele>545.2</ele>
        <time>2013-08-28T12:47:39Z</time>
      </trkpt>
      <trkpt lat="41.6486" lon="8.93638">
        <ele>534.63</ele>
        <time>2013-08-28T12:47:46Z</time>
      </trkpt>
      <trkpt lat="41.6487" lon="8.93643">
        <ele>530.79</ele>
        <time>2013-08-28T12:47:48Z</time>
      </trkpt>
      <trkpt lat="41.6489" lon="8.93641">
        <ele>513.96</ele>
        <time>2013-08-28T12:47:55Z</time>
      </trkpt>
      <trkpt lat="41.64896" lon="8.93642">
        <ele>509.64</ele>
        <time>2013-08-28T12:47:57Z</time>
      </trkpt>
      <trkpt lat="41.64916" lon="8.93629">
        <ele>489.45</ele>
        <time>2013-08-28T12:48:07Z</time>
      </trkpt>
      <trkpt lat="41.64931" lon="8.93608">
        <ele>490.89</ele>
        <time>2013-08-28T12:48:20Z</time>
      </trkpt>
      <trkpt lat="41.64931" lon="8.93608">
        <ele>490.89</ele>
        <time>2013-08-28T12:48:21Z</time>
      </trkpt>
      <trkpt lat="41.64953" lon="8.93606">
        <ele>480.8</ele>
        <time>2013-08-28T12:48:29Z</time>
      </trkpt>
      <trkpt lat="41.64975" lon="8.93618">
        <ele>476.95</ele>
        <time>2013-08-28T12:48:34Z</time>
      </trkpt>
      <trkpt lat="41.64979" lon="8.93615">
        <ele>473.59</ele>
        <time>2013-08-28T12:48:37Z</time>
      </trkpt>
      <trkpt lat="41.65" lon="8.93625">
        <ele>467.82</ele>
        <time>2013-08-28T12:48:43Z</time>
      </trkpt>
      <trkpt lat="41.6502" lon="8.9364">
        <ele>463.97</ele>
        <time>2013-08-28T12:48:47Z</time>
      </trkpt>
      <trkpt lat="41.65033" lon="8.93646">
        <ele>462.53</ele>
        <time>2013-08-28T12:48:50Z</time>
      </trkpt>
      <trkpt lat="41.65048" lon="8.93655">
        <ele>461.57</ele>
        <time>2013-08-28T12:48:54Z</time>
      </trkpt>
      <trkpt lat="41.65052" lon="8.93656">
        <ele>460.13</ele>
        <time>2013-08-28T12:48:56Z</time>
      </trkpt>
      <trkpt lat="41.65061" lon="8.93653">
        <ele>454.36</ele>
        <time>2013-08-28T12:49:02Z</time>
      </trkpt>
      <trkpt lat="41.65064" lon="8.93655">
        <ele>453.4</ele>
        <time>2013-08-28T12:49:07Z</time>
      </trkpt>
      <trkpt lat="41.65067" lon="8.93645">
        <ele>451</ele>
        <time>2013-08-28T12:49:17Z</time>
      </trkpt>
      <trkpt lat="41.65073" lon="8.93638">
        <ele>447.63</ele>
        <time>2013-08-28T12:49:21Z</time>
      </trkpt>
      <trkpt lat="41.65089" lon="8.93631">
        <ele>440.9</ele>
        <time>2013-08-28T12:49:30Z</time>
      </trkpt>
      <trkpt lat="41.65094" lon="8.93622">
        <ele>437.06</ele>
        <time>2013-08-28T12:49:36Z</time>
      </trkpt>
      <trkpt lat="41.65106" lon="8.93618">
        <ele>435.13</ele>
        <time>2013-08-28T12:49:41Z</time>
      </trkpt>
      <trkpt lat="41.65128" lon="8.93631">
        <ele>436.1</ele>
        <time>2013-08-28T12:49:46Z</time>
      </trkpt>
      <trkpt lat="41.65146" lon="8.93635">
        <ele>429.85</ele>
        <time>2013-08-28T12:49:51Z</time>
      </trkpt>
      <trkpt lat="41.65173" lon="8.93655">
        <ele>420.23</ele>
        <time>2013-08-28T12:49:56Z</time>
      </trkpt>
      <trkpt lat="41.65202" lon="8.93658">
        <ele>406.77</ele>
        <time>2013-08-28T12:50:02Z</time>
      </trkpt>
      <trkpt lat="41.65202" lon="8.93649">
        <ele>393.32</ele>
        <time>2013-08-28T12:50:08Z</time>
      </trkpt>
      <trkpt lat="41.65227" lon="8.93665">
        <ele>383.7</ele>
        <time>2013-08-28T12:50:12Z</time>
      </trkpt>
      <trkpt lat="41.65241" lon="8.93678">
        <ele>378.9</ele>
        <time>2013-08-28T12:50:14Z</time>
      </trkpt>
      <trkpt lat="41.65266" lon="8.9369">
        <ele>367.36</ele>
        <time>2013-08-28T12:50:19Z</time>
      </trkpt>
      <trkpt lat="41.65243" lon="8.93684">
        <ele>352.94</ele>
        <time>2013-08-28T12:50:25Z</time>
      </trkpt>
      <trkpt lat="41.6527" lon="8.93698">
        <ele>338.52</ele>
        <time>2013-08-28T12:50:30Z</time>
      </trkpt>
      <trkpt lat="41.65321" lon="8.93741">
        <ele>321.7</ele>
        <time>2013-08-28T12:50:37Z</time>
      </trkpt>
      <trkpt lat="41.65287" lon="8.9376">
        <ele>305.36</ele>
        <time>2013-08-28T12:50:43Z</time>
      </trkpt>
      <trkpt lat="41.65275" lon="8.93773">
        <ele>303.43</ele>
        <time>2013-08-28T12:50:44Z</time>
      </trkpt>
      <trkpt lat="41.65244" lon="8.93812">
        <ele>296.7</ele>
        <time>2013-08-28T12:50:47Z</time>
      </trkpt>
      <trkpt lat="41.65201" lon="8.93842">
        <ele>285.17</ele>
        <time>2013-08-28T12:50:51Z</time>
      </trkpt>
      <trkpt lat="41.65196" lon="8.93845">
        <ele>279.4</ele>
        <time>2013-08-28T12:50:53Z</time>
      </trkpt>
      <trkpt lat="41.65242" lon="8.93909">
        <ele>263.06</ele>
        <time>2013-08-28T12:50:59Z</time>
      </trkpt>
      <trkpt lat="41.65254" lon="8.94011">
        <ele>251.04</ele>
        <time>2013-08-28T12:51:03Z</time>
      </trkpt>
      <trkpt lat="41.65251" lon="8.94039">
        <ele>249.12</ele>
        <time>2013-08-28T12:51:04Z</time>
      </trkpt>
      <trkpt lat="41.65216" lon="8.94276">
        <ele>228.45</ele>
        <time>2013-08-28T12:51:13Z</time>
      </trkpt>
      <trkpt lat="41.6514" lon="8.94486">
        <ele>202.01</ele>
        <time>2013-08-28T12:51:22Z</time>
      </trkpt>
      <trkpt lat="41.65062" lon="8.94696">
        <ele>179.9</ele>
        <time>2013-08-28T12:51:31Z</time>
      </trkpt>
      <trkpt lat="41.64999" lon="8.9492">
        <ele>161.64</ele>
        <time>2013-08-28T12:51:40Z</time>
      </trkpt>
      <trkpt lat="41.64993" lon="8.94994">
        <ele>158.27</ele>
        <time>2013-08-28T12:51:43Z</time>
      </trkpt>
      <trkpt lat="41.64991" lon="8.95053">
        <ele>153.95</ele>
        <time>2013-08-28T12:51:46Z</time>
      </trkpt>
      <trkpt lat="41.64976" lon="8.95167">
        <ele>151.54</ele>
        <time>2013-08-28T12:51:51Z</time>
      </trkpt>
      <trkpt lat="41.64973" lon="8.95185">
        <ele>150.58</ele>
        <time>2013-08-28T12:51:52Z</time>
      </trkpt>
      <trkpt lat="41.64917" lon="8.95278">
        <ele>145.78</ele>
        <time>2013-08-28T12:51:58Z</time>
      </trkpt>
      <trkpt lat="41.64903" lon="8.95336">
        <ele>146.74</ele>
        <time>2013-08-28T12:52:01Z</time>
      </trkpt>
      <trkpt lat="41.64881" lon="8.95594">
        <ele>146.74</ele>
        <time>2013-08-28T12:52:12Z</time>
      </trkpt>
      <trkpt lat="41.64878" lon="8.9562">
        <ele>145.3</ele>
        <time>2013-08-28T12:52:13Z</time>
      </trkpt>
      <trkpt lat="41.64853" lon="8.95702">
        <ele>138.57</ele>
        <time>2013-08-28T12:52:17Z</time>
      </trkpt>
      <trkpt lat="41.64802" lon="8.95804">
        <ele>127.51</ele>
        <time>2013-08-28T12:52:23Z</time>
      </trkpt>
      <trkpt lat="41.64771" lon="8.9589">
        <ele>125.59</ele>
        <time>2013-08-28T12:52:28Z</time>
      </trkpt>
      <trkpt lat="41.64744" lon="8.95926">
        <ele>125.59</ele>
        <time>2013-08-28T12:52:32Z</time>
      </trkpt>
      <trkpt lat="41.64682" lon="8.95984">
        <ele>107.81</ele>
        <time>2013-08-28T12:52:41Z</time>
      </trkpt>
      <trkpt lat="41.64586" lon="8.9606">
        <ele>80.41</ele>
        <time>2013-08-28T12:52:51Z</time>
      </trkpt>
      <trkpt lat="41.64531" lon="8.96111">
        <ele>71.27</ele>
        <time>2013-08-28T12:52:57Z</time>
      </trkpt>
      <trkpt lat="41.64461" lon="8.96176">
        <ele>65.51</ele>
        <time>2013-08-28T12:53:04Z</time>
      </trkpt>
      <trkpt lat="41.64426" lon="8.96203">
        <ele>56.37</ele>
        <time>2013-08-28T12:53:08Z</time>
      </trkpt>
      <trkpt lat="41.64396" lon="8.96194">
        <ele>44.84</ele>
        <time>2013-08-28T12:53:14Z</time>
      </trkpt>
      <trkpt lat="41.6439" lon="8.96188">
        <ele>41.95</ele>
        <time>2013-08-28T12:53:17Z</time>
      </trkpt>
      <trkpt lat="41.64384" lon="8.9618">
        <ele>38.11</ele>
        <time>2013-08-28T12:53:19Z</time>
      </trkpt>
      <trkpt lat="41.64374" lon="8.96172">
        <ele>30.42</ele>
        <time>2013-08-28T12:53:23Z</time>
      </trkpt>
      <trkpt lat="41.64376" lon="8.96163">
        <ele>19.36</ele>
        <time>2013-08-28T12:53:27Z</time>
      </trkpt>
      <trkpt lat="41.64389" lon="8.96146">
        <ele>1.58</ele>
        <time>2013-08-28T12:53:35Z</time>
      </trkpt>
      <trkpt lat="41.64395" lon="8.96145">
        <ele>-5.63</ele>
        <time>2013-08-28T12:53:39Z</time>
      </trkpt>
      <trkpt lat="41.64392" lon="8.96149">
        <ele>-6.59</ele>
        <time>2013-08-28T12:53:46Z</time>
      </trkpt>
      <trkpt lat="41.64391" lon="8.96152">
        <ele>-6.11</ele>
        <time>2013-08-28T12:53:49Z</time>
      </trkpt>
      <trkpt lat="41.64389" lon="8.96153">
        <ele>-6.11</ele>
        <time>2013-08-28T12:54:01Z</time>
      </trkpt>
      <trkpt lat="41.64389" lon="8.96153">
        <ele>-6.11</ele>
        <time>2013-08-28T12:54:16Z</time>
      </trkpt>
      <trkpt lat="41.64388" lon="8.96163">
        <ele>-6.59</ele>
        <time>2013-08-28T12:54:26Z</time>
      </trkpt>
      <trkpt lat="41.64389" lon="8.96161">
        <ele>-7.07</ele>
        <time>2013-08-28T12:54:46Z</time>
      </trkpt>
      <trkpt lat="41.64388" lon="8.96161">
        <ele>-7.55</ele>
        <time>2013-08-28T12:55:08Z</time>
      </trkpt>
      <trkpt lat="41.64387" lon="8.9616">
        <ele>-7.07</ele>
        <time>2013-08-28T12:55:42Z</time>
      </trkpt>
      <trkpt lat="41.64389" lon="8.96158">
        <ele>-6.59</ele>
        <time>2013-08-28T12:56:03Z</time>
      </trkpt>
      <trkpt lat="41.64389" lon="8.96158">
        <ele>-6.59</ele>
        <time>2013-08-28T12:56:30Z</time>
      </trkpt>
      <trkpt lat="41.64389" lon="8.96158">
        <ele>-6.59</ele>
        <time>2013-08-28T12:57:08Z</time>
      </trkpt>
      <trkpt lat="41.64389" lon="8.96158">
        <ele>-6.59</ele>
        <time>2013-08-28T12:57:49Z</time>
      </trkpt>
      <trkpt lat="41.64389" lon="8.96157">
        <ele>-6.59</ele>
        <time>2013-08-28T12:58:36Z</time>
      </trkpt>
      <trkpt lat="41.64389" lon="8.96157">
        <ele>-6.59</ele>
        <time>2013-08-28T12:59:27Z</time>
      </trkpt>
      <trkpt lat="41.64389" lon="8.96157">
        <ele>-6.59</ele>
        <time>2013-08-28T13:00:15Z</time>
      </trkpt>
      <trkpt lat="41.64389" lon="8.96157">
        <ele>-7.07</ele>
        <time>2013-08-28T13:01:00Z</time>
      </trkpt>
      <trkpt lat="41.64388" lon="8.96157">
        <ele>-6.59</ele>
        <time>2013-08-28T13:01:52Z</time>
      </trkpt>
      <trkpt lat="41.64388" lon="8.96157">
        <ele>-6.59</ele>
        <time>2013-08-28T13:02:40Z</time>
      </trkpt>
      <trkpt lat="41.64388" lon="8.96157">
        <ele>-6.59</ele>
        <time>2013-08-28T13:03:26Z</time>
      </trkpt>
      <trkpt lat="41.64389" lon="8.96157">
        <ele>-6.59</ele>
        <time>2013-08-28T13:04:21Z</time>
      </trkpt>
      <trkpt lat="41.64388" lon="8.96158">
        <ele>-5.63</ele>
        <time>2013-08-28T13:05:07Z</time>
      </trkpt>
      <trkpt lat="41.64388" lon="8.96158">
        <ele>-5.63</ele>
        <time>2013-08-28T13:05:50Z</time>
      </trkpt>
      <trkpt lat="41.64389" lon="8.96158">
        <ele>-5.15</ele>
        <time>2013-08-28T13:06:35Z</time>
      </trkpt>
      <trkpt lat="41.64389" lon="8.96158">
        <ele>-5.15</ele>
        <time>2013-08-28T13:07:26Z</time>
      </trkpt>
      <trkpt lat="41.64389" lon="8.96159">
        <ele>-4.67</ele>
        <time>2013-08-28T13:08:10Z</time>
      </trkpt>
      <trkpt lat="41.64389" lon="8.96159">
        <ele>-4.67</ele>
        <time>2013-08-28T13:08:50Z</time>
      </trkpt>
      <trkpt lat="41.64389" lon="8.96158">
        <ele>-4.19</ele>
        <time>2013-08-28T13:09:29Z</time>
      </trkpt>
      <trkpt lat="41.64389" lon="8.96158">
        <ele>-4.19</ele>
        <time>2013-08-28T13:10:05Z</time>
      </trkpt>
      <trkpt lat="41.64389" lon="8.96159">
        <ele>-4.19</ele>
        <time>2013-08-28T13:10:42Z</time>
      </trkpt>
      <trkpt lat="41.64389" lon="8.96159">
        <ele>-3.71</ele>
        <time>2013-08-28T13:11:15Z</time>
      </trkpt>
      <trkpt lat="41.64389" lon="8.96159">
        <ele>-3.71</ele>
        <time>2013-08-28T13:11:51Z</time>
      </trkpt>
      <trkpt lat="41.6439" lon="8.96159">
        <ele>-3.71</ele>
        <time>2013-08-28T13:12:26Z</time>
      </trkpt>
      <trkpt lat="41.6439" lon="8.96159">
        <ele>-3.23</ele>
        <time>2013-08-28T13:13:10Z</time>
      </trkpt>
      <trkpt lat="41.6439" lon="8.9616">
        <ele>-2.75</ele>
        <time>2013-08-28T13:13:44Z</time>
      </trkpt>
      <trkpt lat="41.6439" lon="8.9616">
        <ele>-2.75</ele>
        <time>2013-08-28T13:14:27Z</time>
      </trkpt>
      <trkpt lat="41.6439" lon="8.96159">
        <ele>-3.23</ele>
        <time>2013-08-28T13:15:10Z</time>
      </trkpt>
      <trkpt lat="41.64389" lon="8.96159">
        <ele>-3.71</ele>
        <time>2013-08-28T13:15:54Z</time>
      </trkpt>
      <trkpt lat="41.64389" lon="8.96159">
        <ele>-3.71</ele>
        <time>2013-08-28T13:16:31Z</time>
      </trkpt>
      <trkpt lat="41.64389" lon="8.96159">
        <ele>-3.71</ele>
        <time>2013-08-28T13:17:23Z</time>
      </trkpt>
      <trkpt lat="41.64389" lon="8.96158">
        <ele>-3.71</ele>
        <time>2013-08-28T13:18:08Z</time>
      </trkpt>
      <trkpt lat="41.64389" lon="8.96158">
        <ele>-3.71</ele>
        <time>2013-08-28T13:18:44Z</time>
      </trkpt>
      <trkpt lat="41.64389" lon="8.96158">
        <ele>-3.23</ele>
        <time>2013-08-28T13:19:34Z</time>
      </trkpt>
      <trkpt lat="41.64388" lon="8.96158">
        <ele>-3.23</ele>
        <time>2013-08-28T13:20:32Z</time>
      </trkpt>
      <trkpt lat="41.64388" lon="8.96158">
        <ele>-3.23</ele>
        <time>2013-08-28T13:21:21Z</time>
      </trkpt>
      <trkpt lat="41.64388" lon="8.96158">
        <ele>-3.23</ele>
        <time>2013-08-28T13:22:00Z</time>
      </trkpt>
      <trkpt lat="41.64388" lon="8.96158">
        <ele>-2.75</ele>
        <time>2013-08-28T13:22:47Z</time>
      </trkpt>
      <trkpt lat="41.64388" lon="8.96158">
        <ele>-2.75</ele>
        <time>2013-08-28T13:23:35Z</time>
      </trkpt>
      <trkpt lat="41.64388" lon="8.96159">
        <ele>-2.75</ele>
        <time>2013-08-28T13:24:25Z</time>
      </trkpt>
      <trkpt lat="41.64389" lon="8.96159">
        <ele>-2.27</ele>
        <time>2013-08-28T13:25:05Z</time>
      </trkpt>
      <trkpt lat="41.64389" lon="8.96158">
        <ele>-2.27</ele>
        <time>2013-08-28T13:25:54Z</time>
      </trkpt>
      <trkpt lat="41.64389" lon="8.96158">
        <ele>-2.75</ele>
        <time>2013-08-28T13:26:37Z</time>
      </trkpt>
      <trkpt lat="41.64388" lon="8.96159">
        <ele>-2.75</ele>
        <time>2013-08-28T13:27:30Z</time>
      </trkpt>
      <trkpt lat="41.64388" lon="8.96159">
        <ele>-2.75</ele>
        <time>2013-08-28T13:28:18Z</time>
      </trkpt>
      <trkpt lat="41.64388" lon="8.96159">
        <ele>-3.23</ele>
        <time>2013-08-28T13:29:05Z</time>
      </trkpt>
      <trkpt lat="41.64389" lon="8.96159">
        <ele>-3.71</ele>
        <time>2013-08-28T13:29:55Z</time>
      </trkpt>
      <trkpt lat="41.64389" lon="8.96159">
        <ele>-3.71</ele>
        <time>2013-08-28T13:30:47Z</time>
      </trkpt>
      <trkpt lat="41.64389" lon="8.96159">
        <ele>-3.71</ele>
        <time>2013-08-28T13:31:40Z</time>
      </trkpt>
      <trkpt lat="41.64389" lon="8.96159">
        <ele>-4.19</ele>
        <time>2013-08-28T13:32:23Z</time>
      </trkpt>
      <trkpt lat="41.64388" lon="8.96159">
        <ele>-4.19</ele>
        <time>2013-08-28T13:33:10Z</time>
      </trkpt>
      <trkpt lat="41.64388" lon="8.96159">
        <ele>-4.19</ele>
        <time>2013-08-28T13:33:51Z</time>
      </trkpt>
      <trkpt lat="41.64388" lon="8.96159">
        <ele>-4.19</ele>
        <time>2013-08-28T13:34:42Z</time>
      </trkpt>
      <trkpt lat="41.64388" lon="8.96159">
        <ele>-4.19</ele>
        <time>2013-08-28T13:35:17Z</time>
      </trkpt>
      <trkpt lat="41.64388" lon="8.96159">
        <ele>-4.19</ele>
        <time>2013-08-28T13:35:49Z</time>
      </trkpt>
      <trkpt lat="41.64388" lon="8.96159">
        <ele>-4.67</ele>
        <time>2013-08-28T13:36:26Z</time>
      </trkpt>
      <trkpt lat="41.64389" lon="8.96159">
        <ele>-4.19</ele>
        <time>2013-08-28T13:37:05Z</time>
      </trkpt>
      <trkpt lat="41.64389" lon="8.96159">
        <ele>-4.19</ele>
        <time>2013-08-28T13:37:54Z</time>
      </trkpt>
      <trkpt lat="41.64389" lon="8.96159">
        <ele>-4.67</ele>
        <time>2013-08-28T13:38:42Z</time>
      </trkpt>
      <trkpt lat="41.64389" lon="8.96159">
        <ele>-4.19</ele>
        <time>2013-08-28T13:39:23Z</time>
      </trkpt>
      <trkpt lat="41.64389" lon="8.96159">
        <ele>-4.19</ele>
        <time>2013-08-28T13:40:04Z</time>
      </trkpt>
      <trkpt lat="41.64389" lon="8.96158">
        <ele>-4.19</ele>
        <time>2013-08-28T13:40:51Z</time>
      </trkpt>
      <trkpt lat="41.64389" lon="8.96159">
        <ele>-4.67</ele>
        <time>2013-08-28T13:41:38Z</time>
      </trkpt>
      <trkpt lat="41.64389" lon="8.96159">
        <ele>-4.19</ele>
        <time>2013-08-28T13:42:16Z</time>
      </trkpt>
      <trkpt lat="41.64389" lon="8.96159">
        <ele>-4.19</ele>
        <time>2013-08-28T13:43:00Z</time>
      </trkpt>
      <trkpt lat="41.64389" lon="8.96158">
        <ele>-4.19</ele>
        <time>2013-08-28T13:43:50Z</time>
      </trkpt>
      <trkpt lat="41.64389" lon="8.96158">
        <ele>-4.19</ele>
        <time>2013-08-28T13:44:34Z</time>
      </trkpt>
      <trkpt lat="41.64389" lon="8.96158">
        <ele>-4.19</ele>
        <time>2013-08-28T13:45:13Z</time>
      </trkpt>
      <trkpt lat="41.64389" lon="8.96158">
        <ele>-4.19</ele>
        <time>2013-08-28T13:45:59Z</time>
      </trkpt>
      <trkpt lat="41.64389" lon="8.96158">
        <ele>-3.71</ele>
        <time>2013-08-28T13:46:46Z</time>
      </trkpt>
      <trkpt lat="41.64389" lon="8.96158">
        <ele>-3.71</ele>
        <time>2013-08-28T13:47:17Z</time>
      </trkpt>
      <trkpt lat="41.64389" lon="8.96158">
        <ele>-3.71</ele>
        <time>2013-08-28T13:47:52Z</time>
      </trkpt>
      <trkpt lat="41.64389" lon="8.96159">
        <ele>-4.19</ele>
        <time>2013-08-28T13:48:39Z</time>
      </trkpt>
      <trkpt lat="41.64389" lon="8.96159">
        <ele>-4.19</ele>
        <time>2013-08-28T13:49:31Z</time>
      </trkpt>
      <trkpt lat="41.64389" lon="8.96159">
        <ele>-4.19</ele>
        <time>2013-08-28T13:50:13Z</time>
      </trkpt>
      <trkpt lat="41.64385" lon="8.96148">
        <ele>-2.75</ele>
        <time>2013-08-28T13:50:35Z</time>
      </trkpt>
      <trkpt lat="41.64378" lon="8.96134">
        <ele>-1.3</ele>
        <time>2013-08-28T13:50:57Z</time>
      </trkpt>
      <trkpt lat="41.64377" lon="8.96131">
        <ele>-1.3</ele>
        <time>2013-08-28T13:51:19Z</time>
      </trkpt>
      <trkpt lat="41.64375" lon="8.96129">
        <ele>-0.82</ele>
        <time>2013-08-28T13:51:57Z</time>
      </trkpt>
      <trkpt lat="41.64371" lon="8.96121">
        <ele>0.14</ele>
        <time>2013-08-28T13:52:17Z</time>
      </trkpt>
      <trkpt lat="41.64372" lon="8.96121">
        <ele>0.14</ele>
        <time>2013-08-28T13:52:35Z</time>
      </trkpt>
      <trkpt lat="41.64372" lon="8.96121">
        <ele>0.14</ele>
        <time>2013-08-28T13:53:05Z</time>
      </trkpt>
      <trkpt lat="41.64371" lon="8.96106">
        <ele>3.02</ele>
        <time>2013-08-28T13:53:26Z</time>
      </trkpt>
      <trkpt lat="41.64371" lon="8.96106">
        <ele>3.02</ele>
        <time>2013-08-28T13:54:01Z</time>
      </trkpt>
      <trkpt lat="41.64371" lon="8.96106">
        <ele>3.02</ele>
        <time>2013-08-28T13:54:36Z</time>
      </trkpt>
      <trkpt lat="41.64371" lon="8.96107">
        <ele>3.02</ele>
        <time>2013-08-28T13:55:18Z</time>
      </trkpt>
      <trkpt lat="41.64371" lon="8.96106">
        <ele>3.02</ele>
        <time>2013-08-28T13:55:54Z</time>
      </trkpt>
      <trkpt lat="41.64371" lon="8.96106">
        <ele>3.5</ele>
        <time>2013-08-28T13:56:36Z</time>
      </trkpt>
      <trkpt lat="41.64371" lon="8.96106">
        <ele>3.5</ele>
        <time>2013-08-28T13:57:13Z</time>
      </trkpt>
      <trkpt lat="41.64371" lon="8.96106">
        <ele>3.02</ele>
        <time>2013-08-28T13:57:54Z</time>
      </trkpt>
      <trkpt lat="41.64371" lon="8.96106">
        <ele>3.5</ele>
        <time>2013-08-28T13:58:34Z</time>
      </trkpt>
      <trkpt lat="41.64371" lon="8.96106">
        <ele>3.5</ele>
        <time>2013-08-28T13:59:10Z</time>
      </trkpt>
      <trkpt lat="41.64371" lon="8.96106">
        <ele>3.5</ele>
        <time>2013-08-28T13:59:47Z</time>
      </trkpt>
      <trkpt lat="41.64371" lon="8.96106">
        <ele>3.98</ele>
        <time>2013-08-28T14:00:31Z</time>
      </trkpt>
      <trkpt lat="41.64371" lon="8.96106">
        <ele>3.5</ele>
        <time>2013-08-28T14:01:06Z</time>
      </trkpt>
      <trkpt lat="41.64371" lon="8.96106">
        <ele>3.98</ele>
        <time>2013-08-28T14:01:52Z</time>
      </trkpt>
      <trkpt lat="41.64371" lon="8.96105">
        <ele>3.98</ele>
        <time>2013-08-28T14:02:39Z</time>
      </trkpt>
      <trkpt lat="41.64371" lon="8.96105">
        <ele>3.98</ele>
        <time>2013-08-28T14:03:31Z</time>
      </trkpt>
      <trkpt lat="41.64371" lon="8.96105">
        <ele>3.98</ele>
        <time>2013-08-28T14:04:17Z</time>
      </trkpt>
      <trkpt lat="41.64371" lon="8.96105">
        <ele>4.46</ele>
        <time>2013-08-28T14:04:52Z</time>
      </trkpt>
      <trkpt lat="41.64372" lon="8.96105">
        <ele>4.46</ele>
        <time>2013-08-28T14:05:36Z</time>
      </trkpt>
      <trkpt lat="41.64372" lon="8.96105">
        <ele>4.46</ele>
        <time>2013-08-28T14:06:18Z</time>
      </trkpt>
      <trkpt lat="41.64372" lon="8.96106">
        <ele>3.98</ele>
        <time>2013-08-28T14:07:01Z</time>
      </trkpt>
      <trkpt lat="41.64372" lon="8.96106">
        <ele>4.46</ele>
        <time>2013-08-28T14:07:42Z</time>
      </trkpt>
      <trkpt lat="41.64371" lon="8.96106">
        <ele>4.46</ele>
        <time>2013-08-28T14:08:33Z</time>
      </trkpt>
      <trkpt lat="41.64371" lon="8.96106">
        <ele>4.46</ele>
        <time>2013-08-28T14:09:11Z</time>
      </trkpt>
      <trkpt lat="41.64371" lon="8.96106">
        <ele>4.46</ele>
        <time>2013-08-28T14:10:05Z</time>
      </trkpt>
      <trkpt lat="41.64371" lon="8.96106">
        <ele>4.46</ele>
        <time>2013-08-28T14:10:52Z</time>
      </trkpt>
      <trkpt lat="41.64371" lon="8.96106">
        <ele>4.46</ele>
        <time>2013-08-28T14:11:46Z</time>
      </trkpt>
      <trkpt lat="41.64371" lon="8.96107">
        <ele>4.94</ele>
        <time>2013-08-28T14:12:34Z</time>
      </trkpt>
      <trkpt lat="41.6437" lon="8.96106">
        <ele>4.94</ele>
        <time>2013-08-28T14:13:22Z</time>
      </trkpt>
      <trkpt lat="41.6437" lon="8.96106">
        <ele>4.94</ele>
        <time>2013-08-28T14:14:03Z</time>
      </trkpt>
      <trkpt lat="41.6437" lon="8.96106">
        <ele>4.94</ele>
        <time>2013-08-28T14:14:49Z</time>
      </trkpt>
      <trkpt lat="41.6437" lon="8.96106">
        <ele>4.94</ele>
        <time>2013-08-28T14:15:34Z</time>
      </trkpt>
      <trkpt lat="41.6437" lon="8.96106">
        <ele>4.94</ele>
        <time>2013-08-28T14:16:22Z</time>
      </trkpt>
      <trkpt lat="41.6437" lon="8.96106">
        <ele>4.94</ele>
        <time>2013-08-28T14:16:59Z</time>
      </trkpt>
      <trkpt lat="41.6437" lon="8.96107">
        <ele>4.94</ele>
        <time>2013-08-28T14:17:38Z</time>
      </trkpt>
      <trkpt lat="41.6437" lon="8.96106">
        <ele>5.42</ele>
        <time>2013-08-28T14:18:03Z</time>
      </trkpt>
      <trkpt lat="41.6437" lon="8.96106">
        <ele>5.42</ele>
        <time>2013-08-28T14:18:33Z</time>
      </trkpt>
      <trkpt lat="41.64369" lon="8.96106">
        <ele>5.91</ele>
        <time>2013-08-28T14:18:56Z</time>
      </trkpt>
      <trkpt lat="41.64369" lon="8.96106">
        <ele>6.39</ele>
        <time>2013-08-28T14:19:13Z</time>
      </trkpt>
      <trkpt lat="41.64369" lon="8.96106">
        <ele>6.39</ele>
        <time>2013-08-28T14:19:44Z</time>
      </trkpt>
      <trkpt lat="41.64368" lon="8.96107">
        <ele>6.39</ele>
        <time>2013-08-28T14:20:03Z</time>
      </trkpt>
      <trkpt lat="41.64368" lon="8.96107">
        <ele>5.91</ele>
        <time>2013-08-28T14:20:28Z</time>
      </trkpt>
      <trkpt lat="41.64368" lon="8.96107">
        <ele>5.91</ele>
        <time>2013-08-28T14:20:47Z</time>
      </trkpt>
      <trkpt lat="41.64367" lon="8.96107">
        <ele>5.91</ele>
        <time>2013-08-28T14:21:05Z</time>
      </trkpt>
      <trkpt lat="41.64367" lon="8.96107">
        <ele>5.91</ele>
        <time>2013-08-28T14:21:25Z</time>
      </trkpt>
      <trkpt lat="41.64367" lon="8.96107">
        <ele>5.91</ele>
        <time>2013-08-28T14:21:53Z</time>
      </trkpt>
      <trkpt lat="41.64368" lon="8.96107">
        <ele>5.91</ele>
        <time>2013-08-28T14:22:20Z</time>
      </trkpt>
      <trkpt lat="41.6437" lon="8.96107">
        <ele>5.91</ele>
        <time>2013-08-28T14:22:58Z</time>
      </trkpt>
      <trkpt lat="41.6437" lon="8.96107">
        <ele>5.91</ele>
        <time>2013-08-28T14:23:25Z</time>
      </trkpt>
      <trkpt lat="41.6437" lon="8.96107">
        <ele>5.91</ele>
        <time>2013-08-28T14:23:58Z</time>
      </trkpt>
      <trkpt lat="41.6437" lon="8.96107">
        <ele>5.91</ele>
        <time>2013-08-28T14:24:34Z</time>
      </trkpt>
      <trkpt lat="41.6437" lon="8.96107">
        <ele>6.39</ele>
        <time>2013-08-28T14:25:18Z</time>
      </trkpt>
      <trkpt lat="41.6437" lon="8.96107">
        <ele>6.39</ele>
        <time>2013-08-28T14:25:56Z</time>
      </trkpt>
      <trkpt lat="41.6437" lon="8.96107">
        <ele>6.39</ele>
        <time>2013-08-28T14:26:33Z</time>
      </trkpt>
      <trkpt lat="41.64371" lon="8.96108">
        <ele>6.39</ele>
        <time>2013-08-28T14:27:13Z</time>
      </trkpt>
      <trkpt lat="41.64371" lon="8.96108">
        <ele>6.39</ele>
        <time>2013-08-28T14:27:47Z</time>
      </trkpt>
      <trkpt lat="41.64371" lon="8.96108">
        <ele>6.39</ele>
        <time>2013-08-28T14:28:13Z</time>
      </trkpt>
      <trkpt lat="41.64371" lon="8.96108">
        <ele>6.39</ele>
        <time>2013-08-28T14:28:41Z</time>
      </trkpt>
      <trkpt lat="41.64372" lon="8.96108">
        <ele>6.39</ele>
        <time>2013-08-28T14:29:13Z</time>
      </trkpt>
      <trkpt lat="41.64372" lon="8.96108">
        <ele>6.39</ele>
        <time>2013-08-28T14:29:42Z</time>
      </trkpt>
      <trkpt lat="41.64372" lon="8.96108">
        <ele>6.39</ele>
        <time>2013-08-28T14:30:11Z</time>
      </trkpt>
      <trkpt lat="41.64372" lon="8.96108">
        <ele>6.39</ele>
        <time>2013-08-28T14:30:35Z</time>
      </trkpt>
      <trkpt lat="41.64372" lon="8.96108">
        <ele>6.39</ele>
        <time>2013-08-28T14:31:08Z</time>
      </trkpt>
      <trkpt lat="41.64372" lon="8.96108">
        <ele>6.39</ele>
        <time>2013-08-28T14:31:39Z</time>
      </trkpt>
      <trkpt lat="41.64372" lon="8.96108">
        <ele>6.39</ele>
        <time>2013-08-28T14:32:02Z</time>
      </trkpt>
      <trkpt lat="41.64372" lon="8.96108">
        <ele>5.91</ele>
        <time>2013-08-28T14:32:30Z</time>
      </trkpt>
      <trkpt lat="41.64372" lon="8.96108">
        <ele>5.91</ele>
        <time>2013-08-28T14:32:58Z</time>
      </trkpt>
      <trkpt lat="41.64372" lon="8.96108">
        <ele>5.91</ele>
        <time>2013-08-28T14:33:31Z</time>
      </trkpt>
      <trkpt lat="41.64372" lon="8.96108">
        <ele>5.91</ele>
        <time>2013-08-28T14:34:02Z</time>
      </trkpt>
      <trkpt lat="41.64372" lon="8.96107">
        <ele>5.42</ele>
        <time>2013-08-28T14:34:27Z</time>
      </trkpt>
      <trkpt lat="41.64372" lon="8.96107">
        <ele>5.42</ele>
        <time>2013-08-28T14:34:53Z</time>
      </trkpt>
      <trkpt lat="41.64372" lon="8.96107">
        <ele>5.42</ele>
        <time>2013-08-28T14:35:24Z</time>
      </trkpt>
      <trkpt lat="41.64372" lon="8.96107">
        <ele>5.42</ele>
        <time>2013-08-28T14:35:50Z</time>
      </trkpt>
      <trkpt lat="41.64372" lon="8.96107">
        <ele>4.94</ele>
        <time>2013-08-28T14:36:30Z</time>
      </trkpt>
      <trkpt lat="41.64372" lon="8.96107">
        <ele>4.94</ele>
        <time>2013-08-28T14:37:10Z</time>
      </trkpt>
      <trkpt lat="41.64372" lon="8.96107">
        <ele>4.46</ele>
        <time>2013-08-28T14:37:41Z</time>
      </trkpt>
      <trkpt lat="41.64372" lon="8.96107">
        <ele>4.46</ele>
        <time>2013-08-28T14:38:11Z</time>
      </trkpt>
      <trkpt lat="41.64372" lon="8.96107">
        <ele>4.46</ele>
        <time>2013-08-28T14:38:46Z</time>
      </trkpt>
      <trkpt lat="41.64372" lon="8.96107">
        <ele>3.98</ele>
        <time>2013-08-28T14:39:24Z</time>
      </trkpt>
      <trkpt lat="41.64371" lon="8.96107">
        <ele>3.5</ele>
        <time>2013-08-28T14:39:54Z</time>
      </trkpt>
      <trkpt lat="41.64371" lon="8.96107">
        <ele>3.5</ele>
        <time>2013-08-28T14:40:31Z</time>
      </trkpt>
      <trkpt lat="41.64371" lon="8.96106">
        <ele>3.5</ele>
        <time>2013-08-28T14:41:07Z</time>
      </trkpt>
      <trkpt lat="41.64371" lon="8.96106">
        <ele>3.5</ele>
        <time>2013-08-28T14:41:34Z</time>
      </trkpt>
      <trkpt lat="41.64371" lon="8.96106">
        <ele>3.5</ele>
        <time>2013-08-28T14:42:02Z</time>
      </trkpt>
      <trkpt lat="41.64371" lon="8.96106">
        <ele>3.02</ele>
        <time>2013-08-28T14:42:23Z</time>
      </trkpt>
      <trkpt lat="41.64371" lon="8.96106">
        <ele>3.02</ele>
        <time>2013-08-28T14:42:55Z</time>
      </trkpt>
      <trkpt lat="41.64371" lon="8.96106">
        <ele>3.02</ele>
        <time>2013-08-28T14:43:25Z</time>
      </trkpt>
      <trkpt lat="41.64371" lon="8.96106">
        <ele>4.46</ele>
        <time>2013-08-28T14:43:44Z</time>
      </trkpt>
      <trkpt lat="41.64371" lon="8.96106">
        <ele>4.46</ele>
        <time>2013-08-28T14:44:25Z</time>
      </trkpt>
      <trkpt lat="41.64371" lon="8.96106">
        <ele>4.46</ele>
        <time>2013-08-28T14:45:03Z</time>
      </trkpt>
      <trkpt lat="41.64371" lon="8.96106">
        <ele>4.46</ele>
        <time>2013-08-28T14:45:34Z</time>
      </trkpt>
      <trkpt lat="41.64371" lon="8.96106">
        <ele>4.46</ele>
        <time>2013-08-28T14:46:02Z</time>
      </trkpt>
      <trkpt lat="41.64371" lon="8.96106">
        <ele>4.46</ele>
        <time>2013-08-28T14:46:35Z</time>
      </trkpt>
      <trkpt lat="41.64371" lon="8.96106">
        <ele>4.46</ele>
        <time>2013-08-28T14:47:03Z</time>
      </trkpt>
      <trkpt lat="41.64371" lon="8.96106">
        <ele>4.46</ele>
        <time>2013-08-28T14:47:43Z</time>
      </trkpt>
      <trkpt lat="41.64371" lon="8.96106">
        <ele>4.46</ele>
        <time>2013-08-28T14:48:24Z</time>
      </trkpt>
      <trkpt lat="41.64371" lon="8.96106">
        <ele>4.46</ele>
        <time>2013-08-28T14:49:03Z</time>
      </trkpt>
      <trkpt lat="41.64373" lon="8.96105">
        <ele>3.98</ele>
        <time>2013-08-28T14:49:20Z</time>
      </trkpt>
      <trkpt lat="41.64376" lon="8.96115">
        <ele>3.98</ele>
        <time>2013-08-28T14:49:32Z</time>
      </trkpt>
      <trkpt lat="41.64383" lon="8.96142">
        <ele>1.58</ele>
        <time>2013-08-28T14:49:49Z</time>
      </trkpt>
      <trkpt lat="41.6439" lon="8.96165">
        <ele>-0.34</ele>
        <time>2013-08-28T14:50:07Z</time>
      </trkpt>
      <trkpt lat="41.644" lon="8.96189">
        <ele>-2.75</ele>
        <time>2013-08-28T14:50:27Z</time>
      </trkpt>
      <trkpt lat="41.64406" lon="8.96203">
        <ele>-4.19</ele>
        <time>2013-08-28T14:50:41Z</time>
      </trkpt>
      <trkpt lat="41.64411" lon="8.96214">
        <ele>-5.63</ele>
        <time>2013-08-28T14:50:55Z</time>
      </trkpt>
      <trkpt lat="41.64418" lon="8.96233">
        <ele>-7.55</ele>
        <time>2013-08-28T14:51:13Z</time>
      </trkpt>
      <trkpt lat="41.64422" lon="8.9625">
        <ele>-9</ele>
        <time>2013-08-28T14:51:24Z</time>
      </trkpt>
      <trkpt lat="41.64428" lon="8.96273">
        <ele>-11.88</ele>
        <time>2013-08-28T14:51:41Z</time>
      </trkpt>
      <trkpt lat="41.64437" lon="8.96298">
        <ele>-16.69</ele>
        <time>2013-08-28T14:51:59Z</time>
      </trkpt>
      <trkpt lat="41.64441" lon="8.96311">
        <ele>-17.65</ele>
        <time>2013-08-28T14:52:21Z</time>
      </trkpt>
      <trkpt lat="41.64446" lon="8.96334">
        <ele>-18.61</ele>
        <time>2013-08-28T14:52:38Z</time>
      </trkpt>
      <trkpt lat="41.64452" lon="8.96343">
        <ele>-20.05</ele>
        <time>2013-08-28T14:52:51Z</time>
      </trkpt>
      <trkpt lat="41.64452" lon="8.96343">
        <ele>-19.57</ele>
        <time>2013-08-28T14:53:36Z</time>
      </trkpt>
      <trkpt lat="41.64452" lon="8.96344">
        <ele>-19.57</ele>
        <time>2013-08-28T14:54:18Z</time>
      </trkpt>
      <trkpt lat="41.64452" lon="8.96344">
        <ele>-19.57</ele>
        <time>2013-08-28T14:54:53Z</time>
      </trkpt>
      <trkpt lat="41.64452" lon="8.96344">
        <ele>-19.57</ele>
        <time>2013-08-28T14:55:23Z</time>
      </trkpt>
      <trkpt lat="41.64452" lon="8.96343">
        <ele>-19.09</ele>
        <time>2013-08-28T14:55:52Z</time>
      </trkpt>
      <trkpt lat="41.64452" lon="8.96343">
        <ele>-19.09</ele>
        <time>2013-08-28T14:56:24Z</time>
      </trkpt>
      <trkpt lat="41.64452" lon="8.96343">
        <ele>-19.09</ele>
        <time>2013-08-28T14:56:52Z</time>
      </trkpt>
      <trkpt lat="41.64451" lon="8.96344">
        <ele>-18.61</ele>
        <time>2013-08-28T14:57:06Z</time>
      </trkpt>
      <trkpt lat="41.64449" lon="8.96344">
        <ele>-19.09</ele>
        <time>2013-08-28T14:57:15Z</time>
      </trkpt>
    </trkseg>
  </trk>
</gpx>